# Wetter Temperatur Luftdruck Luftfeuchtigkeit Sichtweite Windgeschwindigkeit Windrichtung Zeit
1 Clear 2 1025 55 10000 4.12 20 11:48 22.04.2021
2 Clear 2 1025 55 10000 4.12 20 11:24 22.04.2021
3 Clear 5 1025 38 10000 4.12 20 10:46 22.04.2021
4 Clear 5 1025 38 10000 4.12 20 10:46 22.04.2021
5 Clear 5 1025 38 10000 4.12 20 10:26 22.04.2021
6 Clear 3 1026 52 10000 4.12 30 09:49 22.04.2021
7 Clear 3 1026 52 10000 4.12 30 09:30 22.04.2021
8 Clear 4 1026 48 10000 3.6 30 08:41 22.04.2021
9 Clear 4 1026 48 10000 3.6 30 08:22 22.04.2021
10 Clear 4 1026 45 10000 5.14 40 07:46 22.04.2021
11 Clear 4 1026 45 10000 5.14 40 07:24 22.04.2021
12 Clear 7 1027 33 10000 3.6 10 06:32 22.04.2021
13 Clear 8 1028 27 10000 3.6 330 05:50 22.04.2021
14 Clear 6 1028 27 10000 3.6 330 05:20 22.04.2021
15 Clear 3 1031 60 10000 2.06 230 01:39 22.04.2021
16 Clear 3 1033 48 10000 2.16 20 23:54 21.04.2021
17 Clear 2 1033 48 10000 2.16 20 23:34 21.04.2021
18 Clear 0 1033 59 10000 1.54 220 22:44 21.04.2021
19 Clear -1 1033 59 10000 1.54 220 22:24 21.04.2021
20 Clear 0 1033 51 10000 1.54 260 21:50 21.04.2021
21 Clear 0 1033 51 10000 1.54 260 21:25 21.04.2021
22 Clear -3 1033 68 10000 1.31 40 20:59 21.04.2021
23 Clear -4 1033 68 10000 1.77 39 20:21 21.04.2021
24 Clear -5 1033 68 10000 1.54 130 19:45 21.04.2021
25 Clear -6 1033 68 10000 1.54 130 19:26 21.04.2021
26 Clear -6 1034 63 10000 1.54 10 18:50 21.04.2021
27 Clear -7 1034 63 10000 1.54 10 18:31 21.04.2021
28 Clear -8 1035 73 10000 2.06 360 17:57 21.04.2021
29 Clear -7 1035 73 10000 2.06 360 17:39 21.04.2021
30 Clear -7 1035 73 10000 2.06 360 17:19 21.04.2021
31 Clear -7 1035 73 10000 2.64 20 16:32 21.04.2021
32 Clear -6 1035 79 10000 2.47 13 15:43 21.04.2021
33 Clear -6 1035 79 10000 2.59 11 15:18 21.04.2021
34 Clear -6 1035 79 10000 2.58 11 15:18 21.04.2021
35 Clear -6 1036 79 10000 1.54 30 14:44 21.04.2021
36 Clear -6 1036 79 10000 1.54 30 14:23 21.04.2021
37 Clear -5 1036 80 10000 2.52 11 13:45 21.04.2021
38 Clear -5 1036 80 10000 2.79 3 13:21 21.04.2021
39 Clear -4 1036 80 10000 2.79 3 12:32 21.04.2021
40 Clear -3 1036 74 10000 2.46 10 11:58 21.04.2021
41 Clear -3 1036 74 10000 2.46 10 11:39 21.04.2021
42 Clear -3 1036 74 10000 2.19 16 11:21 21.04.2021
43 Clear -1 1036 74 10000 1.54 40 10:36 21.04.2021
44 Clear 1 1036 69 10000 2.4 18 09:56 21.04.2021
45 Clear 1 1036 69 10000 2.25 18 09:20 21.04.2021
46 Clear 1 1036 64 10000 3.09 320 08:42 21.04.2021
47 Clear 1 1036 64 10000 3.09 320 08:23 21.04.2021
48 Clear 2 1036 69 10000 1.54 10 07:43 21.04.2021
49 Clear 2 1036 69 10000 1.54 10 07:21 21.04.2021
50 Clear 3 1037 60 10000 1.54 340 05:45 21.04.2021
51 Clear 3 1037 52 10000 1.54 320 01:50 21.04.2021
52 Clear 2 1037 55 10000 2.06 300 00:19 21.04.2021
53 Clear 1 1038 59 10000 2.57 250 23:38 20.04.2021
54 Clear -2 1038 69 10000 2.06 250 22:45 20.04.2021
55 Clear -2 1038 69 10000 2.06 250 22:23 20.04.2021
56 Clear -2 1037 64 10000 3.09 220 21:49 20.04.2021
57 Clear -2 1037 64 10000 3.09 220 21:28 20.04.2021
58 Clear -1 1037 47 10000 2.06 0 20:59 20.04.2021
59 Clear -1 1037 47 10000 2.06 0 20:38 20.04.2021
60 Clear -1 1037 47 10000 2.06 0 20:18 20.04.2021
61 Clear -2 1036 46 10000 3.6 10 19:45 20.04.2021
62 Clear -2 1036 46 10000 3.6 10 19:27 20.04.2021
63 Clear -4 1036 54 10000 3.6 130 18:42 20.04.2021
64 Clear -4 1036 54 10000 3.6 130 18:22 20.04.2021
65 Clear -4 1036 54 10000 4.63 360 17:40 20.04.2021
66 Clear -3 1036 54 10000 4.82 13 16:50 20.04.2021
67 Clear -3 1036 54 10000 4.29 17 16:18 20.04.2021
68 Clear -3 1036 54 10000 4.29 17 15:30 20.04.2021
69 Clear -2 1036 46 10000 1.54 210 14:59 20.04.2021
70 Clear -2 1036 46 10000 1.54 210 14:36 20.04.2021
71 Clear -3 1036 54 10000 2.57 310 13:55 20.04.2021
72 Clear -3 1036 54 10000 2.57 310 13:26 20.04.2021
73 Clear -2 1036 50 10000 3.81 4 12:51 20.04.2021
74 Clear -2 1036 50 10000 3.86 5 12:23 20.04.2021
75 Clear -2 1036 59 10000 4.63 30 11:46 20.04.2021
76 Clear -2 1036 59 10000 4.63 30 11:25 20.04.2021
77 Clear -2 1036 64 10000 2.57 120 10:47 20.04.2021
78 Clear -2 1036 64 10000 2.57 120 10:24 20.04.2021
79 Clear -2 1035 64 10000 6.69 60 09:45 20.04.2021
80 Clear -1 1034 59 10000 8.23 60 08:57 20.04.2021
81 Clear -1 1034 59 10000 8.23 60 08:33 20.04.2021
82 Clear 1 1031 55 10000 14.92 30 07:52 20.04.2021
83 Clear 1 1031 55 10000 14.92 30 07:21 20.04.2021
84 Clear 2 1032 51 10000 9.26 20 05:41 20.04.2021
85 Clear 2 1032 55 10000 12.86 10 04:43 20.04.2021
86 Clear 2 1031 65 10000 10.8 20 02:58 20.04.2021
87 Clear 4 1030 60 10000 6.69 20 00:50 20.04.2021
88 Clear 4 1030 60 10000 5.66 20 23:52 19.04.2021
89 Clear 3 1030 60 10000 5.66 20 23:29 19.04.2021
90 Clear 3 1029 60 10000 2.57 40 22:37 19.04.2021
91 Clear 4 1029 60 10000 2.57 40 22:19 19.04.2021
92 Clear 3 1029 65 10000 3.09 360 21:38 19.04.2021
93 Clear 3 1029 65 10000 3.09 360 21:19 19.04.2021
94 Clear 4 1028 60 10000 4.12 360 20:40 19.04.2021
95 Clear 4 1028 60 10000 4.12 360 20:20 19.04.2021
96 Clear 3 1028 60 10000 2.57 320 19:44 19.04.2021
97 Clear 3 1028 60 10000 2.57 320 19:25 19.04.2021
98 Clouds 0 1027 86 10000 2.06 130 18:47 19.04.2021
99 Clouds 0 1027 86 10000 2.06 130 18:24 19.04.2021
100 Clouds 0 1027 86 10000 3.33 16 17:56 19.04.2021
101 Clouds 0 1027 86 10000 3.33 16 17:35 19.04.2021
102 Clouds 1 1026 86 10000 2.81 7 16:59 19.04.2021
103 Clouds 1 1026 86 10000 2.81 7 16:40 19.04.2021
104 Clouds 1 1026 86 10000 2.66 354 16:21 19.04.2021
105 Clouds 1 1026 86 10000 2.66 354 15:40 19.04.2021
106 Clouds 1 1026 86 10000 2.45 354 15:20 19.04.2021
107 Clouds 1 1026 86 10000 2.45 354 14:38 19.04.2021
108 Clouds 1 1026 86 10000 2.88 357 14:19 19.04.2021
109 Clouds 1 1026 80 10000 2.81 0 13:44 19.04.2021
110 Clouds 1 1026 80 10000 2.76 1 13:24 19.04.2021
111 Clouds -4 1027 82 10000 2.76 1 12:42 19.04.2021
112 Clouds 1 1026 80 10000 1.77 351 12:23 19.04.2021
113 Clouds 1 1026 80 10000 1.77 351 11:54 19.04.2021
114 Clouds 1 1026 80 10000 0.42 156 11:25 19.04.2021
115 Clouds 2 1026 75 10000 4.12 320 10:46 19.04.2021
116 Clouds 2 1026 75 10000 4.12 320 10:25 19.04.2021
117 Clouds 2 1025 75 10000 3.09 310 09:49 19.04.2021
118 Clouds 2 1025 75 10000 3.09 310 09:28 19.04.2021
119 Clouds 2 1025 75 10000 2.33 10 08:58 19.04.2021
120 Clouds 2 1025 75 10000 1.76 6 08:26 19.04.2021
121 Clouds 2 1025 75 10000 1.63 13 07:48 19.04.2021
122 Clouds 2 1025 75 10000 1.21 9 07:19 19.04.2021
123 Clouds 2 1025 75 10000 1.21 9 07:19 19.04.2021
124 Clouds 3 1025 80 10000 1.54 170 06:28 19.04.2021
125 Clouds 5 1026 52 10000 3.6 340 02:35 19.04.2021
126 Clouds 4 1026 60 10000 4.63 350 00:49 19.04.2021
127 Clouds 4 1027 60 10000 4.12 350 23:50 18.04.2021
128 Clouds 3 1027 60 10000 4.12 350 23:18 18.04.2021
129 Clouds 3 1027 65 10000 4.63 350 22:47 18.04.2021
130 Clouds 3 1027 65 10000 4.63 350 22:29 18.04.2021
131 Clear 2 1027 60 10000 4.63 340 21:29 18.04.2021
132 Clear 1 1027 64 10000 4.63 340 20:59 18.04.2021
133 Clear 1 1027 64 10000 4.63 340 20:39 18.04.2021
134 Clear 1 1027 64 10000 4.63 340 20:39 18.04.2021
135 Clear 1 1027 64 10000 4.63 340 20:20 18.04.2021
136 Clear 1 1027 64 10000 5.14 350 19:45 18.04.2021
137 Clear 1 1027 64 10000 5.14 350 19:25 18.04.2021
138 Clear -1 1028 69 10000 2.57 350 18:54 18.04.2021
139 Clear -1 1028 69 10000 2.57 350 18:54 18.04.2021
140 Clear -2 1028 69 10000 2.57 350 18:30 18.04.2021
141 Clear -3 1028 74 10000 2.27 21 17:50 18.04.2021
142 Clear -3 1028 74 10000 2.27 21 17:31 18.04.2021
143 Clear -2 1028 69 10000 2.84 14 16:55 18.04.2021
144 Clear -2 1028 69 10000 2.84 14 16:36 18.04.2021
145 Clear -2 1028 74 10000 3.6 350 15:57 18.04.2021
146 Clear -2 1028 74 10000 3.6 350 15:38 18.04.2021
147 Clear -2 1028 74 10000 3.6 350 15:18 18.04.2021
148 Clear -2 1028 69 10000 3.09 360 14:41 18.04.2021
149 Clear -2 1028 69 10000 3.09 360 14:19 18.04.2021
150 Clear -2 1029 64 10000 5.66 360 13:49 18.04.2021
151 Clear -2 1029 64 10000 5.66 360 13:49 18.04.2021
152 Clear -2 1029 64 10000 5.66 360 13:29 18.04.2021
153 Clear -3 1029 69 10000 3.6 350 12:38 18.04.2021
154 Clear -3 1029 64 10000 3.09 10 11:58 18.04.2021
155 Clear -3 1029 64 10000 3.09 10 11:39 18.04.2021
156 Clear -3 1029 64 10000 3.09 10 11:20 18.04.2021
157 Clear -3 1030 74 10000 2.57 360 10:41 18.04.2021
158 Clear -4 1030 74 10000 2.57 360 10:18 18.04.2021
159 Clear -4 1030 80 10000 2.83 38 09:39 18.04.2021
160 Clear -3 1030 80 10000 2.97 34 09:20 18.04.2021
161 Clear -1 1030 69 10000 2.97 34 08:44 18.04.2021
162 Clear -2 1030 69 10000 2.54 36 08:24 18.04.2021
163 Clear -1 1030 69 10000 2.54 36 07:40 18.04.2021
164 Clear 0 1030 69 10000 3.6 70 05:56 18.04.2021
165 Clear 1 1030 69 10000 3.6 70 05:26 18.04.2021
166 Clear 1 1031 75 10000 3.09 70 04:31 18.04.2021
167 Clear 1 1032 75 10000 4.12 80 02:23 18.04.2021
168 Clouds 0 1033 93 10000 3.6 100 00:56 18.04.2021
169 Clouds 0 1033 93 10000 3.6 110 23:52 17.04.2021
170 Clouds 0 1033 93 10000 3.6 110 23:24 17.04.2021
171 Clouds -1 1033 93 10000 3.6 100 22:44 17.04.2021
172 Clouds -1 1033 93 10000 3.6 100 22:22 17.04.2021
173 Snow 0 1034 93 4828 3.6 120 21:43 17.04.2021
174 Snow -1 1034 93 4828 3.6 120 21:22 17.04.2021
175 Snow -1 1034 93 2816 3.6 110 20:37 17.04.2021
176 Snow -1 1034 93 2816 3.6 110 20:19 17.04.2021
177 Snow -1 1034 93 2414 3.09 120 19:39 17.04.2021
178 Snow -1 1034 93 2414 3.09 120 19:19 17.04.2021
179 Mist -1 1034 93 9656 3.6 100 18:46 17.04.2021
180 Mist -1 1034 93 9656 3.6 100 18:21 17.04.2021
181 Snow -1 1034 86 2414 3.6 90 17:41 17.04.2021
182 Snow -1 1034 93 2816 3.09 90 16:56 17.04.2021
183 Snow -2 1034 93 3219 3.6 90 16:34 17.04.2021
184 Snow -1 1034 93 2816 3.09 120 15:58 17.04.2021
185 Clouds -1 1034 93 10000 3.6 120 14:51 17.04.2021
186 Clouds -1 1035 93 10000 3.09 130 14:33 17.04.2021
187 Clouds -1 1035 93 10000 2.06 120 13:59 17.04.2021
188 Clouds -1 1035 93 10000 2.06 120 13:40 17.04.2021
189 Clouds -1 1035 93 10000 3.6 130 12:42 17.04.2021
190 Clouds -1 1035 93 10000 3.6 130 12:22 17.04.2021
191 Clouds -1 1035 93 10000 2.57 150 11:50 17.04.2021
192 Clouds -1 1035 93 10000 2.57 150 11:31 17.04.2021
193 Clouds -1 1034 93 10000 2.57 130 10:48 17.04.2021
194 Clouds -1 1034 93 10000 2.57 130 10:29 17.04.2021
195 Mist -1 1034 93 8047 3.09 130 09:45 17.04.2021
196 Clouds -1 1034 93 10000 3.09 140 08:46 17.04.2021
197 Clouds -1 1034 93 10000 3.09 140 08:26 17.04.2021
198 Mist -1 1034 93 8047 3.09 100 07:42 17.04.2021
199 Clouds -1 1033 93 10000 3.09 170 03:59 17.04.2021
200 Clouds -1 1033 93 10000 3.09 170 03:39 17.04.2021
201 Clouds -3 1033 86 10000 3.09 140 00:51 17.04.2021
202 Clouds -3 1033 86 10000 3.09 140 00:29 17.04.2021
203 Clouds -3 1034 86 10000 3.6 90 23:55 16.04.2021
204 Clouds -3 1034 86 10000 3.6 90 23:32 16.04.2021
205 Clouds -4 1033 86 10000 3.6 110 22:51 16.04.2021
206 Clouds -4 1033 86 10000 3.6 110 22:51 16.04.2021
207 Clouds -4 1033 86 10000 3.6 110 22:22 16.04.2021
208 Clouds -4 1033 86 10000 3.6 110 21:56 16.04.2021
209 Clouds -4 1033 86 10000 3.6 110 21:38 16.04.2021
210 Clouds -5 1033 86 10000 4.12 90 20:54 16.04.2021
211 Clouds -5 1033 86 10000 4.12 90 20:35 16.04.2021
212 Clouds -6 1033 93 10000 5.14 80 19:56 16.04.2021
213 Clouds -6 1033 93 10000 5.14 80 19:37 16.04.2021
214 Mist -6 1033 93 1609 4.63 90 18:47 16.04.2021
215 Fog -6 1034 86 402 5.14 80 18:21 16.04.2021
216 Fog -7 1034 86 805 4.63 90 17:47 16.04.2021
217 Fog -7 1034 93 402 4.12 90 17:19 16.04.2021
218 Fog -7 1034 93 402 4.12 80 16:44 16.04.2021
219 Fog -7 1034 93 805 4.63 90 16:26 16.04.2021
220 Fog -7 1034 93 805 3.6 100 15:52 16.04.2021
221 Fog -7 1034 93 805 3.6 100 15:28 16.04.2021
222 Mist -7 1034 86 4828 3.09 120 14:43 16.04.2021
223 Mist -7 1034 100 1207 3.09 130 14:20 16.04.2021
224 Mist -7 1034 93 3219 3.09 140 13:54 16.04.2021
225 Mist -7 1034 93 1207 1.54 130 13:21 16.04.2021
226 Mist -7 1034 93 9656 1.65 107 12:51 16.04.2021
227 Mist -7 1034 93 4828 2.06 180 12:29 16.04.2021
228 Mist -7 1034 93 2414 2.06 200 11:58 16.04.2021
229 Mist -7 1034 93 8047 0.49 174 11:27 16.04.2021
230 Mist -8 1034 93 6437 2.06 290 10:59 16.04.2021
231 Mist -8 1034 93 6437 2.06 290 10:39 16.04.2021
232 Mist -8 1034 93 6437 2.06 290 10:19 16.04.2021
233 Mist -7 1034 93 4828 2.57 290 09:43 16.04.2021
234 Mist -8 1034 93 4828 3.09 290 09:20 16.04.2021
235 Mist -8 1034 93 6437 3.6 290 08:42 16.04.2021
236 Mist -8 1034 93 6437 3.6 290 08:18 16.04.2021
237 Clouds -8 1034 93 10000 4.63 260 07:37 16.04.2021
238 Mist -7 1033 93 4828 5.66 250 06:59 16.04.2021
239 Mist -6 1033 93 2816 4.12 260 06:28 16.04.2021
240 Mist -3 1032 86 8047 8.23 260 04:23 16.04.2021
241 Clear -2 1030 80 10000 3.09 290 01:38 16.04.2021
242 Clear -3 1030 80 10000 2.06 330 00:42 16.04.2021
243 Clear -3 1030 80 10000 2.06 330 00:20 16.04.2021
244 Clear -4 1030 80 10000 3.09 270 23:45 15.04.2021
245 Clear -3 1030 80 10000 3.09 270 23:25 15.04.2021
246 Clear -6 1029 86 10000 2.06 290 22:47 15.04.2021
247 Clear -7 1029 86 10000 2.06 290 22:23 15.04.2021
248 Clear -7 1028 93 10000 2.06 190 21:43 15.04.2021
249 Clear -7 1028 93 10000 2.06 190 21:24 15.04.2021
250 Clear -8 1028 86 10000 1.58 293 20:45 15.04.2021
251 Clear -8 1028 86 10000 1.79 353 20:25 15.04.2021
252 Clear -9 1028 86 10000 5.66 260 19:47 15.04.2021
253 Clear -9 1028 86 10000 5.66 260 19:28 15.04.2021
254 Clear -10 1026 92 10000 2.33 5 18:45 15.04.2021
255 Clear -10 1026 92 10000 2.51 357 18:22 15.04.2021
256 Clear -9 1026 86 10000 1.54 350 17:58 15.04.2021
257 Clear -9 1026 86 10000 1.54 350 17:39 15.04.2021
258 Clear -9 1026 86 10000 1.54 350 17:21 15.04.2021
259 Clear -8 1025 86 10000 3.09 280 16:43 15.04.2021
260 Clear -8 1025 86 10000 3.09 280 16:23 15.04.2021
261 Clear -8 1024 93 10000 5.66 270 15:46 15.04.2021
262 Clear -8 1024 93 10000 5.66 270 15:27 15.04.2021
263 Clear -7 1023 86 10000 3.09 270 14:42 15.04.2021
264 Clear -6 1023 86 10000 3.09 270 14:24 15.04.2021
265 Clear -6 1023 86 10000 3.6 280 13:48 15.04.2021
266 Clear -6 1023 86 10000 3.6 280 13:23 15.04.2021
267 Clear -6 1022 93 10000 3.09 280 12:47 15.04.2021
268 Clear -6 1022 93 10000 3.09 280 12:26 15.04.2021
269 Clear -6 1022 93 10000 3.09 280 12:26 15.04.2021
270 Clear -4 1021 86 10000 4.12 270 11:48 15.04.2021
271 Clear -4 1021 86 10000 4.12 270 11:26 15.04.2021
272 Clear -4 1020 86 10000 2.49 340 10:58 15.04.2021
273 Clear -4 1020 86 10000 2.49 340 10:34 15.04.2021
274 Clear -3 1020 86 10000 4.63 300 09:56 15.04.2021
275 Clear -3 1020 86 10000 4.63 300 09:29 15.04.2021
276 Clear -2 1019 86 10000 2.06 280 08:52 15.04.2021
277 Clear -2 1019 86 10000 2.06 280 08:24 15.04.2021
278 Clear 0 1018 80 10000 3.09 330 07:30 15.04.2021
279 Clear 1 1018 75 10000 2.57 280 06:56 15.04.2021
280 Clear 1 1018 75 10000 2.57 280 06:33 15.04.2021
281 Clear 1 1018 75 10000 2.57 280 06:33 15.04.2021
282 Clouds 1 1017 75 10000 4.12 300 04:54 15.04.2021
283 Clouds 0 1016 80 10000 6.17 270 02:58 15.04.2021
284 Clouds 0 1016 86 10000 1.54 250 23:51 14.04.2021
285 Clouds 0 1016 86 10000 1.54 250 23:30 14.04.2021
286 Clouds -1 1015 93 10000 1.54 180 22:47 14.04.2021
287 Clouds -1 1015 93 10000 1.54 180 22:28 14.04.2021
288 Mist -2 1015 93 6437 0.56 2 21:56 14.04.2021
289 Mist -1 1015 93 6437 0.56 2 21:37 14.04.2021
290 Mist -2 1015 93 6437 0.76 63 21:18 14.04.2021
291 Clouds -2 1015 93 10000 1.04 39 20:37 14.04.2021
292 Clouds -2 1015 93 10000 1.26 43 20:19 14.04.2021
293 Snow -2 1015 93 3219 1.54 100 19:39 14.04.2021
294 Snow -2 1015 93 3219 1.54 100 19:18 14.04.2021
295 Mist -2 1014 86 9656 1.42 44 18:50 14.04.2021
296 Mist -2 1014 86 9656 1 59 18:19 14.04.2021
297 Clouds -3 1014 100 10000 3.09 170 17:55 14.04.2021
298 Clouds -3 1014 100 10000 3.09 170 17:24 14.04.2021
299 Mist -2 1014 100 4828 4.63 180 16:43 14.04.2021
300 Fog -1 1014 93 805 3.6 170 16:22 14.04.2021
301 Clouds -1 1013 93 10000 3.6 120 15:40 14.04.2021
302 Snow -1 1013 100 4828 3.09 150 15:22 14.04.2021
303 Snow -1 1013 100 1609 3.6 120 14:42 14.04.2021
304 Snow -1 1013 100 1609 3.6 120 14:22 14.04.2021
305 Snow 0 1013 93 2816 4.63 120 13:48 14.04.2021
306 Snow 0 1012 86 4828 4.12 90 12:54 14.04.2021
307 Snow 0 1012 86 4828 4.12 90 12:32 14.04.2021
308 Snow 0 1012 86 10000 4.12 90 11:42 14.04.2021
309 Snow 0 1012 86 10000 4.12 90 11:24 14.04.2021
310 Rain 1 1012 86 10000 4.63 90 10:35 14.04.2021
311 Rain 1 1012 86 4828 4.12 90 09:59 14.04.2021
312 Rain 1 1011 86 4023 4.63 90 09:41 14.04.2021
313 Snow 1 1011 86 10000 4.12 80 09:18 14.04.2021
314 Snow 1 1011 86 4828 3.6 70 08:33 14.04.2021
315 Snow 1 1011 86 6437 4.12 80 07:53 14.04.2021
316 Snow 1 1010 86 8047 4.63 70 06:43 14.04.2021
317 Snow 1 1010 86 8047 4.63 70 06:23 14.04.2021
318 Snow 1 1009 86 10000 5.14 90 03:58 14.04.2021
319 Snow 1 1009 86 10000 4.63 80 01:40 14.04.2021
320 Snow 1 1008 86 6437 4.12 100 00:34 14.04.2021
321 Snow 1 1008 93 3219 5.14 110 23:39 13.04.2021
322 Snow 0 1007 93 3219 5.66 110 22:56 13.04.2021
323 Snow 0 1007 93 3219 5.66 110 22:37 13.04.2021
324 Snow 0 1007 93 3219 5.66 110 22:18 13.04.2021
325 Snow 0 1007 93 4828 5.66 100 21:41 13.04.2021
326 Snow 0 1007 93 4828 5.66 100 21:23 13.04.2021
327 Snow 0 1007 93 2414 5.14 100 20:40 13.04.2021
328 Snow 0 1007 93 2414 5.14 100 20:20 13.04.2021
329 Snow 0 1006 93 10000 5.66 100 19:27 13.04.2021
330 Snow 0 1006 93 10000 5.66 100 19:27 13.04.2021
331 Snow 0 1006 86 8047 5.66 110 18:59 13.04.2021
332 Snow 0 1006 86 8047 5.66 110 18:35 13.04.2021
333 Rain 0 1005 86 4828 6.69 110 17:45 13.04.2021
334 Rain 0 1005 86 4828 6.69 110 17:23 13.04.2021
335 Rain 0 1005 86 6437 6.69 120 16:57 13.04.2021
336 Rain 0 1005 86 3219 6.69 110 16:39 13.04.2021
337 Snow 0 1005 93 4828 6.69 110 16:19 13.04.2021
338 Snow 0 1005 93 4023 6.17 120 15:40 13.04.2021
339 Snow 0 1005 93 4023 5.14 120 14:59 13.04.2021
340 Snow 0 1005 100 4023 2.57 90 14:41 13.04.2021
341 Snow 0 1005 100 3219 3.09 110 14:18 13.04.2021
342 Snow 0 1005 93 2414 4.63 120 13:41 13.04.2021
343 Snow 0 1005 93 2012 4.12 120 13:22 13.04.2021
344 Snow 0 1005 93 2816 4.63 120 12:53 13.04.2021
345 Snow 0 1004 93 2816 4.63 110 12:23 13.04.2021
346 Snow 0 1004 93 9656 6.69 120 11:48 13.04.2021
347 Snow 0 1004 93 9656 6.17 120 11:28 13.04.2021
348 Snow 0 1004 86 10000 6.17 120 10:44 13.04.2021
349 Snow 0 1004 86 10000 6.17 120 10:20 13.04.2021
350 Snow 0 1003 93 10000 6.69 120 09:52 13.04.2021
351 Clouds 0 1003 93 10000 6.69 120 09:27 13.04.2021
352 Snow 0 1003 93 10000 6.17 120 08:49 13.04.2021
353 Snow 0 1002 93 6437 5.14 140 08:24 13.04.2021
354 Snow 0 1002 93 2816 5.14 120 07:52 13.04.2021
355 Snow 0 1002 93 3219 4.12 90 07:32 13.04.2021
356 Snow -1 1002 93 4828 3.6 110 06:28 13.04.2021
357 Snow 0 1000 93 6437 5.14 150 03:55 13.04.2021
358 Rain 1 999 86 6437 7.72 140 01:35 13.04.2021
359 Rain 1 997 86 8047 8.23 120 23:58 12.04.2021
360 Rain 1 997 86 8047 8.23 120 23:33 12.04.2021
361 Snow 1 997 86 3219 7.72 120 22:59 12.04.2021
362 Snow 1 997 86 3219 7.72 120 22:37 12.04.2021
363 Snow 1 996 86 10000 8.23 120 21:56 12.04.2021
364 Snow 0 996 93 9656 8.23 110 21:36 12.04.2021
365 Snow 0 996 93 9656 8.23 110 21:18 12.04.2021
366 Snow 0 996 93 4828 7.72 110 20:37 12.04.2021
367 Snow 0 996 93 4828 7.72 110 20:19 12.04.2021
368 Snow -1 995 93 8047 7.2 110 19:42 12.04.2021
369 Snow -1 995 93 8047 7.2 110 19:21 12.04.2021
370 Snow -1 995 93 8047 7.2 110 19:21 12.04.2021
371 Snow -1 995 93 10000 8.23 110 18:53 12.04.2021
372 Snow -1 995 93 10000 8.23 110 18:53 12.04.2021
373 Snow -1 995 93 10000 8.23 110 18:35 12.04.2021
374 Snow -1 995 93 6437 7.72 110 17:59 12.04.2021
375 Snow -1 995 93 6437 7.72 110 17:41 12.04.2021
376 Snow -1 994 93 1609 9.77 100 17:19 12.04.2021
377 Snow -2 994 93 2012 7.72 80 16:42 12.04.2021
378 Snow -2 994 93 2012 7.72 80 16:24 12.04.2021
379 Snow -2 994 93 1207 8.23 80 15:45 12.04.2021
380 Snow -2 994 93 10000 7.72 80 15:20 12.04.2021
381 Snow -2 994 93 9656 6.17 90 14:48 12.04.2021
382 Snow -2 994 93 10000 6.17 80 14:28 12.04.2021
383 Snow -2 994 93 6437 6.17 90 13:42 12.04.2021
384 Snow -2 994 93 3219 8.23 90 13:21 12.04.2021
385 Snow -3 994 93 1609 8.75 100 12:44 12.04.2021
386 Snow -3 994 93 1609 8.75 100 12:23 12.04.2021
387 Snow -3 994 93 1207 9.77 90 11:47 12.04.2021
388 Snow -3 993 93 1207 9.77 90 10:53 12.04.2021
389 Snow -3 993 93 805 10.29 80 10:28 12.04.2021
390 Snow -3 993 93 805 10.29 80 10:28 12.04.2021
391 Snow -3 993 93 805 10.8 80 09:54 12.04.2021
392 Snow -3 993 93 805 10.8 80 09:33 12.04.2021
393 Snow -3 993 93 402 10.8 80 08:58 12.04.2021
394 Snow -3 993 93 402 10.8 80 08:22 12.04.2021
395 Snow -3 993 93 402 11.32 80 07:31 12.04.2021
396 Snow -3 993 93 402 10.29 80 06:47 12.04.2021
397 Snow -3 994 93 402 10.29 80 05:48 12.04.2021
398 Snow -3 994 86 402 12.35 70 03:58 12.04.2021
399 Snow -4 996 86 402 11.83 70 00:46 12.04.2021
400 Snow -4 996 86 402 12.35 80 00:23 12.04.2021
401 Snow -4 997 86 402 12.86 80 23:44 11.04.2021
402 Snow -4 997 86 402 12.86 80 23:22 11.04.2021
403 Snow -5 997 80 805 11.32 70 22:39 11.04.2021
404 Snow -5 997 86 402 10.8 70 22:20 11.04.2021
405 Snow -5 998 86 805 11.32 70 21:45 11.04.2021
406 Snow -5 998 86 805 11.32 70 21:25 11.04.2021
407 Snow -6 999 86 402 10.29 70 20:49 11.04.2021
408 Snow -6 999 86 402 10.29 70 20:25 11.04.2021
409 Snow -6 1000 86 402 11.32 70 19:44 11.04.2021
410 Snow -6 1000 86 402 11.32 70 19:22 11.04.2021
411 Snow -6 1000 86 805 11.32 70 18:59 11.04.2021
412 Snow -6 1000 86 805 11.32 70 18:41 11.04.2021
413 Snow -6 1000 86 805 11.32 70 18:22 11.04.2021
414 Snow -7 1001 93 805 10.8 70 17:44 11.04.2021
415 Snow -7 1001 93 805 10.8 70 17:24 11.04.2021
416 Snow -7 1002 86 1207 10.29 70 16:46 11.04.2021
417 Snow -7 1002 86 1207 10.29 70 16:22 11.04.2021
418 Snow -7 1003 86 1609 8.75 60 15:48 11.04.2021
419 Snow -7 1003 86 1609 8.75 60 15:26 11.04.2021
420 Snow -8 1006 79 2414 9.26 70 14:52 11.04.2021
421 Snow -8 1006 79 2414 9.26 70 14:30 11.04.2021
422 Snow -9 1007 79 2414 9.26 70 13:51 11.04.2021
423 Snow -9 1007 79 2414 9.26 70 13:30 11.04.2021
424 Snow -9 1008 79 4023 7.72 70 12:48 11.04.2021
425 Snow -9 1008 79 2816 8.23 70 12:21 11.04.2021
426 Snow -9 1009 73 4023 8.23 70 11:49 11.04.2021
427 Haze -9 1009 73 6437 10.29 70 11:22 11.04.2021
428 Snow -10 1009 67 4828 8.75 70 10:47 11.04.2021
429 Snow -10 1009 67 4828 8.75 70 10:47 11.04.2021
430 Snow -10 1009 67 4828 8.75 70 10:27 11.04.2021
431 Snow -11 1011 79 10000 7.72 60 09:56 11.04.2021
432 Snow -11 1011 79 10000 7.72 60 09:32 11.04.2021
433 Snow -11 1011 79 10000 7.72 60 08:51 11.04.2021
434 Haze -11 1012 79 6437 9.26 70 08:24 11.04.2021
435 Snow -11 1013 79 2816 7.72 70 07:22 11.04.2021
436 Clouds -11 1013 67 10000 7.72 80 06:50 11.04.2021
437 Snow -11 1013 67 10000 8.23 80 05:41 11.04.2021
438 Clouds -11 1013 67 10000 8.23 80 05:19 11.04.2021
439 Clouds -10 1014 62 10000 7.72 80 04:34 11.04.2021
440 Clouds -11 1015 52 10000 8.75 80 01:49 11.04.2021
441 Clouds -12 1015 48 10000 8.23 80 00:34 11.04.2021
442 Clouds -12 1015 44 10000 10.8 70 23:48 10.04.2021
443 Clouds -12 1015 44 10000 10.8 70 23:47 10.04.2021
444 Clouds -12 1015 44 10000 10.8 70 23:25 10.04.2021
445 Clouds -12 1015 44 10000 10.8 70 23:25 10.04.2021
446 Clouds -13 1016 47 10000 8.75 70 22:43 10.04.2021
447 Clouds -13 1016 47 10000 8.75 70 22:20 10.04.2021
448 Clouds -13 1016 47 10000 6.69 70 21:41 10.04.2021
449 Clouds -13 1016 47 10000 6.69 70 21:21 10.04.2021
450 Clear -14 1016 51 10000 7.2 70 20:44 10.04.2021
451 Clear -14 1016 51 10000 7.2 70 20:23 10.04.2021
452 Clouds -14 1017 47 10000 6.69 70 19:44 10.04.2021
453 Clouds -14 1017 47 10000 6.69 70 19:25 10.04.2021
454 Clouds -14 1017 47 10000 6.69 70 19:25 10.04.2021
455 Clear -14 1017 51 10000 6.69 70 18:50 10.04.2021
456 Clear -15 1017 51 10000 6.69 70 18:28 10.04.2021
457 Clear -15 1018 51 10000 6.69 60 17:38 10.04.2021
458 Clear -15 1018 51 10000 6.69 60 17:18 10.04.2021
459 Clouds -16 1019 55 10000 6.69 70 16:28 10.04.2021
460 Clear -17 1020 55 10000 7.72 70 15:54 10.04.2021
461 Clear -16 1020 55 10000 7.72 70 15:23 10.04.2021
462 Clear -16 1020 55 10000 6.69 70 14:42 10.04.2021
463 Clear -16 1020 55 10000 6.69 70 14:19 10.04.2021
464 Clear -16 1021 55 10000 7.2 70 13:42 10.04.2021
465 Clear -16 1022 60 10000 6.69 60 12:54 10.04.2021
466 Clear -16 1022 60 10000 6.69 60 12:29 10.04.2021
467 Clear -17 1023 60 10000 6.17 60 11:49 10.04.2021
468 Clear -17 1023 60 10000 6.17 60 11:26 10.04.2021
469 Clear -17 1024 60 10000 6.69 70 10:52 10.04.2021
470 Clear -17 1024 60 10000 6.69 70 10:31 10.04.2021
471 Clear -17 1025 55 10000 8.75 70 09:50 10.04.2021
472 Clear -17 1025 55 10000 8.75 70 09:20 10.04.2021
473 Clear -19 1026 55 10000 7.2 70 08:48 10.04.2021
474 Clear -18 1026 55 10000 7.2 70 08:29 10.04.2021
475 Clear -18 1026 55 10000 7.2 70 08:29 10.04.2021
476 Clear -18 1026 55 10000 7.2 70 08:29 10.04.2021
477 Clear -17 1027 55 10000 5.66 70 07:40 10.04.2021
478 Clear -17 1027 55 10000 5.66 70 07:21 10.04.2021
479 Clear -17 1028 60 10000 5.14 70 06:24 10.04.2021
480 Clouds -18 1030 71 10000 5.66 80 04:25 10.04.2021
481 Clear -18 1033 65 10000 5.14 80 02:51 10.04.2021
482 Clear -18 1033 65 10000 5.14 80 02:33 10.04.2021
483 Clear -19 1035 60 10000 4.63 80 00:44 10.04.2021
484 Clear -19 1035 60 10000 4.63 80 00:26 10.04.2021
485 Clouds -20 1035 60 10000 3.09 80 23:42 09.04.2021
486 Clear -20 1035 55 10000 3.09 80 22:59 09.04.2021
487 Clear -20 1035 55 10000 3.09 80 22:38 09.04.2021
488 Clear -20 1035 55 10000 3.09 80 22:38 09.04.2021
489 Clear -22 1035 65 10000 3.09 80 21:59 09.04.2021
490 Clear -22 1035 65 10000 3.09 80 21:38 09.04.2021
491 Clear -23 1035 65 10000 3.09 80 21:19 09.04.2021
492 Clear -23 1035 65 10000 3.09 80 21:19 09.04.2021
493 Clear -24 1036 70 10000 1.84 91 20:43 09.04.2021
494 Clear -25 1036 70 10000 1.97 68 20:22 09.04.2021
495 Clear -28 1036 76 10000 1.54 20 19:54 09.04.2021
496 Clear -28 1036 76 10000 1.54 20 19:36 09.04.2021
497 Clear -29 1036 76 10000 1.54 20 19:18 09.04.2021
498 Clear -28 1036 69 10000 2.23 51 18:41 09.04.2021
499 Clear -28 1036 69 10000 1.79 49 18:19 09.04.2021
500 Clear -28 1037 76 10000 1.79 49 17:37 09.04.2021
501 Clear -27 1037 69 10000 2.06 40 16:56 09.04.2021
502 Clear -27 1037 69 10000 2.06 40 16:35 09.04.2021
503 Clear -28 1037 69 10000 1.54 100 15:52 09.04.2021
504 Clear -28 1037 69 10000 1.54 100 15:34 09.04.2021
505 Clear -29 1037 76 10000 1.43 26 14:58 09.04.2021
506 Clear -29 1037 76 10000 1.43 26 14:39 09.04.2021
507 Clear -29 1037 69 10000 1.5 44 13:52 09.04.2021
508 Clear -28 1037 69 10000 2.23 34 13:25 09.04.2021
509 Clear -27 1037 69 10000 1.54 40 12:54 09.04.2021
510 Clear -28 1037 69 10000 1.54 40 12:36 09.04.2021
511 Clear -28 1037 70 10000 2.43 22 11:46 09.04.2021
512 Clear -28 1037 70 10000 2.46 21 11:23 09.04.2021
513 Clear -26 1037 70 10000 2.46 21 10:47 09.04.2021
514 Clear -26 1037 70 10000 2.86 20 10:29 09.04.2021
515 Clear -25 1037 64 10000 2.86 20 09:49 09.04.2021
516 Clear -24 1037 64 10000 2.51 3 09:22 09.04.2021
517 Clear -23 1037 64 10000 2.57 280 08:51 09.04.2021
518 Clear -19 1037 60 10000 3.09 300 07:38 09.04.2021
519 Clear -18 1037 60 10000 2.06 300 06:34 09.04.2021
520 Clear -17 1037 55 10000 4.63 300 05:56 09.04.2021
521 Clear -17 1036 55 10000 3.6 260 03:53 09.04.2021
522 Clear -18 1036 60 10000 4.12 290 01:35 09.04.2021
523 Clear -18 1036 55 10000 3.6 350 00:37 09.04.2021
524 Clear -18 1036 55 10000 3.6 350 00:19 09.04.2021
525 Clear -19 1036 55 10000 5.14 350 23:21 08.04.2021
526 Clear -20 1035 50 10000 5.14 340 22:43 08.04.2021
527 Clear -20 1035 50 10000 5.14 340 22:43 08.04.2021
528 Clear -21 1035 50 10000 5.14 340 22:22 08.04.2021
529 Clear -22 1034 54 10000 6.69 20 21:55 08.04.2021
530 Clear -22 1034 54 10000 6.69 20 21:55 08.04.2021
531 Clear -22 1034 54 10000 6.69 20 21:55 08.04.2021
532 Clear -22 1034 54 10000 6.69 20 21:36 08.04.2021
533 Clear -23 1034 54 10000 6.69 20 21:18 08.04.2021
534 Clear -24 1033 64 10000 4.63 340 20:49 08.04.2021
535 Clear -24 1033 64 10000 4.63 340 20:26 08.04.2021
536 Clear -25 1033 59 10000 2.43 332 19:45 08.04.2021
537 Clear -26 1033 59 10000 2.54 334 19:20 08.04.2021
538 Clear -26 1031 59 10000 6.69 350 18:46 08.04.2021
539 Clear -27 1031 59 10000 6.69 350 18:21 08.04.2021
540 Clear -26 1031 54 10000 4.63 350 17:49 08.04.2021
541 Clear -26 1031 54 10000 4.63 350 17:24 08.04.2021
542 Clear -26 1030 59 10000 3.6 40 16:51 08.04.2021
543 Clear -26 1030 59 10000 3.6 40 16:31 08.04.2021
544 Clear -27 1029 59 10000 11.32 330 15:48 08.04.2021
545 Clear -27 1029 59 10000 11.32 330 15:28 08.04.2021
546 Clear -26 1028 64 10000 7.72 360 14:46 08.04.2021
547 Clear -26 1028 64 10000 7.72 360 14:27 08.04.2021
548 Clear -26 1027 59 10000 8.75 330 13:59 08.04.2021
549 Clear -26 1027 59 10000 8.75 330 13:41 08.04.2021
550 Clear -26 1027 59 10000 8.75 330 13:22 08.04.2021
551 Clear -24 1027 59 10000 8.23 340 12:38 08.04.2021
552 Clear -24 1027 59 10000 8.23 340 12:18 08.04.2021
553 Clear -23 1026 59 10000 4.12 10 11:43 08.04.2021
554 Clear -21 1026 65 10000 5.66 320 10:59 08.04.2021
555 Clear -21 1026 65 10000 5.66 320 10:36 08.04.2021
556 Clear -21 1026 65 10000 5.66 320 10:18 08.04.2021
557 Clear -19 1025 55 10000 6.69 350 09:41 08.04.2021
558 Clear -21 1024 65 10000 4.63 340 08:46 08.04.2021
559 Clear -21 1024 65 10000 4.63 340 08:28 08.04.2021
560 Clear -19 1023 65 10000 6.69 350 07:57 08.04.2021
561 Clear -19 1023 65 10000 6.69 350 07:35 08.04.2021
562 Clear -16 1022 56 10000 6.69 330 03:48 08.04.2021
563 Clear -16 1022 56 10000 5.66 350 01:19 08.04.2021
564 Clear -17 1024 60 10000 3.6 40 23:59 07.04.2021
565 Clear -17 1024 60 10000 3.6 40 23:39 07.04.2021
566 Clear -17 1024 60 10000 3.6 40 23:21 07.04.2021
567 Clear -17 1024 55 10000 3.91 26 22:47 07.04.2021
568 Clear -17 1024 55 10000 3.3 29 22:29 07.04.2021
569 Clear -18 1025 60 10000 3.09 360 21:44 07.04.2021
570 Clear -19 1025 60 10000 3.09 360 21:24 07.04.2021
571 Clear -21 1025 70 10000 2.7 33 20:43 07.04.2021
572 Clear -21 1025 70 10000 3.03 28 20:21 07.04.2021
573 Clear -21 1025 70 10000 3.03 28 20:21 07.04.2021
574 Clear -22 1026 84 10000 3.03 28 19:44 07.04.2021
575 Clear -23 1026 84 10000 2.89 32 19:26 07.04.2021
576 Clear -24 1026 77 10000 2.89 32 18:47 07.04.2021
577 Clear -24 1026 77 10000 3.01 27 18:20 07.04.2021
578 Clear -23 1026 64 10000 3.01 27 17:55 07.04.2021
579 Clear -23 1026 64 10000 3.01 27 17:36 07.04.2021
580 Clear -23 1027 70 10000 3.23 26 16:49 07.04.2021
581 Clear -23 1027 70 10000 3.12 26 16:24 07.04.2021
582 Clear -24 1028 77 10000 3.09 10 15:59 07.04.2021
583 Clear -24 1028 77 10000 3.09 10 15:39 07.04.2021
584 Clear -23 1028 77 10000 2.6 27 14:57 07.04.2021
585 Clear -22 1028 77 10000 2.6 27 14:32 07.04.2021
586 Clear -24 1028 64 10000 2.63 27 13:52 07.04.2021
587 Clear -23 1028 64 10000 2.84 26 13:24 07.04.2021
588 Clear -21 1028 65 10000 2.84 26 12:53 07.04.2021
589 Clear -21 1028 65 10000 2.87 19 12:25 07.04.2021
590 Clear -19 1029 60 10000 2.87 19 11:55 07.04.2021
591 Clear -22 1029 60 10000 3.03 20 11:28 07.04.2021
592 Clear -21 1028 55 10000 3.03 20 10:53 07.04.2021
593 Clear -20 1028 55 10000 3.09 14 10:21 07.04.2021
594 Clear -20 1028 60 10000 2.06 30 09:44 07.04.2021
595 Clear -20 1028 60 10000 2.06 30 09:25 07.04.2021
596 Clear -18 1027 60 10000 4.63 350 08:42 07.04.2021
597 Clear -18 1027 60 10000 4.63 350 08:21 07.04.2021
598 Clear -14 1027 56 10000 1.54 360 07:43 07.04.2021
599 Clear -15 1027 56 10000 1.54 360 07:24 07.04.2021
600 Clouds -14 1027 61 10000 1.54 20 06:27 07.04.2021
601 Clear -11 1026 48 10000 1.54 290 04:23 07.04.2021
602 Clear -11 1024 45 10000 3.22 22 00:22 07.04.2021
603 Clear -11 1023 52 10000 3.22 22 23:47 06.04.2021
604 Clear -11 1023 52 10000 3.23 19 23:21 06.04.2021
605 Clear -12 1023 56 10000 3.6 350 22:48 06.04.2021
606 Clear -12 1023 56 10000 3.6 350 22:19 06.04.2021
607 Clear -13 1022 61 10000 3.6 350 21:42 06.04.2021
608 Clear -13 1022 61 10000 3.6 350 21:22 06.04.2021
609 Clouds -13 1021 72 10000 1.54 290 20:54 06.04.2021
610 Clouds -13 1021 72 10000 1.54 290 20:25 06.04.2021
611 Clouds -13 1021 72 10000 2.06 0 19:58 06.04.2021
612 Clouds -13 1021 72 10000 2.06 0 19:58 06.04.2021
613 Clouds -13 1021 72 10000 2.06 0 19:35 06.04.2021
614 Snow -13 1021 72 10000 4.12 350 18:58 06.04.2021
615 Snow -13 1021 72 10000 4.12 350 18:40 06.04.2021
616 Snow -13 1021 72 10000 4.12 350 18:19 06.04.2021
617 Snow -13 1020 85 4828 4.63 20 17:43 06.04.2021
618 Snow -13 1020 85 4828 4.63 20 17:19 06.04.2021
619 Snow -12 1020 79 4023 2.57 10 16:46 06.04.2021
620 Snow -12 1020 79 4828 4.12 360 16:26 06.04.2021
621 Clouds -12 1020 73 10000 5.14 20 15:26 06.04.2021
622 Snow -13 1020 85 8047 5.66 20 14:45 06.04.2021
623 Snow -13 1020 79 4828 6.69 30 14:24 06.04.2021
624 Snow -13 1020 79 6437 7.2 30 13:47 06.04.2021
625 Snow -13 1020 79 6437 7.2 30 13:26 06.04.2021
626 Snow -13 1020 72 4023 7.72 20 12:47 06.04.2021
627 Snow -13 1020 72 4828 4.63 50 12:27 06.04.2021
628 Snow -13 1020 79 2816 4.63 50 11:59 06.04.2021
629 Snow -13 1020 79 3219 5.66 50 11:40 06.04.2021
630 Snow -13 1021 72 8047 5.14 50 11:19 06.04.2021
631 Snow -13 1021 72 4023 6.17 50 10:42 06.04.2021
632 Snow -13 1021 78 3219 5.66 60 10:21 06.04.2021
633 Snow -14 1021 72 3219 6.17 60 09:44 06.04.2021
634 Snow -14 1022 78 2012 6.17 70 09:20 06.04.2021
635 Snow -14 1022 72 1207 4.63 70 08:26 06.04.2021
636 Snow -15 1023 66 4828 6.17 70 07:32 06.04.2021
637 Snow -15 1023 72 10000 6.17 70 06:54 06.04.2021
638 Clouds -16 1025 78 10000 7.2 70 03:55 06.04.2021
639 Clear -16 1027 66 10000 5.66 90 00:51 06.04.2021
640 Clear -17 1027 66 10000 5.66 90 00:22 06.04.2021
641 Clear -17 1028 66 10000 2.57 90 23:58 05.04.2021
642 Clear -18 1028 66 10000 2.57 90 23:39 05.04.2021
643 Clear -18 1028 66 10000 2.57 90 23:18 05.04.2021
644 Clear -19 1028 65 10000 2.06 50 22:40 05.04.2021
645 Clear -21 1028 65 10000 2.06 50 21:55 05.04.2021
646 Clear -21 1028 65 10000 2.06 50 21:37 05.04.2021
647 Clear -22 1028 65 10000 2.06 50 21:18 05.04.2021
648 Clear -23 1029 64 10000 1.68 80 20:41 05.04.2021
649 Clear -24 1029 64 10000 1.69 65 20:22 05.04.2021
650 Clear -21 1028 77 10000 3.6 50 19:37 05.04.2021
651 Clear -21 1028 77 10000 3.6 50 19:18 05.04.2021
652 Clear -22 1029 71 10000 4.63 80 18:41 05.04.2021
653 Clear -22 1029 71 10000 4.63 80 18:19 05.04.2021
654 Clear -26 1028 76 10000 1.23 57 17:47 05.04.2021
655 Clear -26 1028 76 10000 1.65 37 17:23 05.04.2021
656 Clear -26 1028 76 10000 1.65 37 16:47 05.04.2021
657 Clear -26 1028 76 10000 1.83 16 16:22 05.04.2021
658 Clear -24 1028 70 10000 1.83 16 15:57 05.04.2021
659 Clear -24 1028 70 10000 1.83 16 15:35 05.04.2021
660 Clear -23 1028 64 10000 3.6 290 14:59 05.04.2021
661 Clear -23 1028 64 10000 3.6 290 14:36 05.04.2021
662 Clear -24 1028 64 10000 3.6 310 13:52 05.04.2021
663 Clear -24 1028 64 10000 3.6 310 13:27 05.04.2021
664 Clear -24 1027 65 10000 5.66 300 12:46 05.04.2021
665 Clear -23 1027 65 10000 5.66 300 12:25 05.04.2021
666 Clear -23 1027 59 10000 3.6 290 11:48 05.04.2021
667 Clear -23 1027 59 10000 3.6 290 11:28 05.04.2021
668 Clear -21 1026 65 10000 6.17 290 10:55 05.04.2021
669 Clear -21 1026 65 10000 6.17 290 10:29 05.04.2021
670 Clear -19 1025 65 10000 7.2 270 09:48 05.04.2021
671 Clear -18 1025 65 10000 7.2 270 09:26 05.04.2021
672 Clear -17 1025 60 10000 7.2 280 08:46 05.04.2021
673 Clear -17 1025 60 10000 7.2 280 08:26 05.04.2021
674 Clear -16 1024 60 10000 8.75 310 07:57 05.04.2021
675 Clear -16 1024 60 10000 8.75 310 07:29 05.04.2021
676 Clear -16 1020 71 10000 10.29 300 03:42 05.04.2021
677 Clouds -17 1017 71 10000 7.72 320 00:54 05.04.2021
678 Snow -17 1016 71 402 10.8 310 23:53 04.04.2021
679 Snow -18 1015 71 402 10.29 300 23:31 04.04.2021
680 Snow -18 1013 71 402 13.89 300 22:57 04.04.2021
681 Snow -19 1013 78 402 7.72 290 22:34 04.04.2021
682 Snow -19 1012 78 805 8.75 290 21:56 04.04.2021
683 Snow -19 1011 78 805 11.83 290 21:21 04.04.2021
684 Snow -19 1011 78 1207 11.32 290 20:42 04.04.2021
685 Snow -19 1010 78 1609 9.77 300 20:21 04.04.2021
686 Snow -18 1009 78 1609 11.83 280 19:40 04.04.2021
687 Snow -18 1008 78 1609 12.35 270 19:19 04.04.2021
688 Snow -18 1008 78 805 10.8 300 18:50 04.04.2021
689 Snow -18 1008 71 4828 11.32 290 18:24 04.04.2021
690 Snow -17 1005 71 4828 10.29 280 17:58 04.04.2021
691 Snow -17 1005 71 4828 10.29 280 17:25 04.04.2021
692 Haze -17 1004 85 4828 8.75 290 16:56 04.04.2021
693 Haze -16 1004 85 4828 8.75 290 16:37 04.04.2021
694 Clear -16 1003 78 2414 14.4 290 15:52 04.04.2021
695 Clear -15 1003 78 4023 12.86 280 15:31 04.04.2021
696 Clouds -14 1001 78 10000 6.17 290 14:39 04.04.2021
697 Clouds -14 1001 78 10000 6.17 290 14:20 04.04.2021
698 Mist -14 999 85 9656 10.29 260 13:27 04.04.2021
699 Clear -13 998 78 10000 8.75 260 12:52 04.04.2021
700 Clear -13 998 78 10000 8.75 260 12:28 04.04.2021
701 Snow -13 998 78 10000 8.23 260 11:50 04.04.2021
702 Snow -12 998 78 10000 8.23 260 11:30 04.04.2021
703 Mist -11 997 92 8047 8.23 260 10:49 04.04.2021
704 Mist -11 997 92 8047 8.23 260 10:29 04.04.2021
705 Mist -10 997 85 4828 8.75 270 09:48 04.04.2021
706 Snow -7 996 86 10000 5.66 260 09:21 04.04.2021
707 Snow -7 996 93 3219 5.14 290 08:45 04.04.2021
708 Snow -6 996 86 1207 3.6 280 08:26 04.04.2021
709 Snow -5 997 80 6437 1.98 307 06:40 04.04.2021
710 Snow -5 997 86 2816 4.12 80 05:44 04.04.2021
711 Snow -5 997 86 2816 4.12 80 05:44 04.04.2021
712 Snow -5 1000 86 1207 4.12 70 02:39 04.04.2021
713 Snow -6 1001 86 1609 5.14 80 00:55 04.04.2021
714 Snow -6 1001 86 1609 5.14 80 00:18 04.04.2021
715 Snow -7 1002 79 9656 3.09 80 23:41 03.04.2021
716 Snow -7 1002 79 10000 3.6 90 22:56 03.04.2021
717 Snow -7 1002 79 4828 3.6 70 22:38 03.04.2021
718 Snow -7 1002 79 4828 3.6 70 22:19 03.04.2021
719 Snow -8 1002 86 4828 3.6 70 21:46 03.04.2021
720 Snow -8 1002 86 4828 3.6 70 21:22 03.04.2021
721 Snow -8 1003 79 4828 2.57 70 20:43 03.04.2021
722 Snow -8 1003 79 4828 2.57 70 20:24 03.04.2021
723 Snow -8 1003 79 4828 1.54 70 19:46 03.04.2021
724 Snow -9 1003 79 4828 2.57 70 19:20 03.04.2021
725 Snow -9 1002 79 8047 3.09 70 18:46 03.04.2021
726 Snow -9 1002 79 8047 3.09 70 18:18 03.04.2021
727 Snow -9 1003 79 4828 2.13 62 17:41 03.04.2021
728 Snow -9 1003 79 4828 2.23 61 17:21 03.04.2021
729 Snow -9 1002 79 6437 2.23 61 16:43 03.04.2021
730 Mist -9 1002 79 6437 1.93 63 16:21 03.04.2021
731 Mist -9 1002 79 6437 1.93 63 16:21 03.04.2021
732 Mist -9 1003 79 4828 1.93 63 15:46 03.04.2021
733 Snow -9 1003 79 4828 1.89 54 15:21 03.04.2021
734 Snow -9 1003 86 4023 1.54 70 14:43 03.04.2021
735 Snow -9 1003 86 2414 2.06 70 14:22 03.04.2021
736 Snow -9 1003 79 3219 2.57 100 13:48 03.04.2021
737 Snow -9 1003 79 4828 2.57 90 13:23 03.04.2021
738 Snow -9 1003 86 10000 2.57 100 12:52 03.04.2021
739 Snow -9 1003 86 10000 2.57 100 12:21 03.04.2021
740 Clouds -9 1003 79 10000 1.54 140 11:39 03.04.2021
741 Clouds -8 1002 79 10000 1.8 57 10:56 03.04.2021
742 Clouds -8 1002 79 10000 1.8 57 10:36 03.04.2021
743 Snow -8 1002 79 10000 1.78 44 10:18 03.04.2021
744 Snow -8 1002 79 10000 1.82 46 09:28 03.04.2021
745 Snow -7 1001 73 10000 1.82 46 08:54 03.04.2021
746 Clouds -8 1001 73 10000 1.98 43 08:28 03.04.2021
747 Clouds -7 1001 73 10000 1.54 330 07:29 03.04.2021
748 Clouds -7 1000 73 10000 2.57 330 06:39 03.04.2021
749 Clouds -8 998 79 10000 6.17 70 03:53 03.04.2021
750 Snow -8 998 79 4828 8.75 70 02:51 03.04.2021
751 Snow -8 998 79 4828 8.75 70 02:26 03.04.2021
752 Snow -11 998 85 1207 9.26 70 00:23 03.04.2021
753 Snow -11 999 85 805 9.26 80 23:49 02.04.2021
754 Snow -11 998 85 402 10.8 70 23:24 02.04.2021
755 Fog -12 999 85 402 11.32 80 22:54 02.04.2021
756 Snow -12 999 85 402 10.8 70 22:34 02.04.2021
757 Snow -12 999 85 402 11.83 70 21:46 02.04.2021
758 Snow -12 999 79 402 13.38 70 21:24 02.04.2021
759 Snow -13 1001 78 402 12.35 80 20:53 02.04.2021
760 Snow -13 1001 78 402 12.35 80 20:34 02.04.2021
761 Snow -14 1002 78 402 12.35 80 19:59 02.04.2021
762 Snow -14 1002 78 402 12.35 80 19:39 02.04.2021
763 Fog -14 1002 78 402 11.32 80 19:21 02.04.2021
764 Snow -14 1004 85 402 12.86 90 18:40 02.04.2021
765 Snow -14 1004 85 402 12.86 90 18:20 02.04.2021
766 Snow -14 1005 85 402 12.35 90 17:40 02.04.2021
767 Snow -14 1007 85 402 11.32 80 16:51 02.04.2021
768 Snow -14 1007 85 402 11.32 80 16:51 02.04.2021
769 Snow -14 1007 85 805 12.35 90 16:22 02.04.2021
770 Snow -14 1009 78 1207 10.8 90 15:35 02.04.2021
771 Snow -14 1013 78 2414 8.75 90 14:57 02.04.2021
772 Snow -14 1013 78 2414 8.75 90 14:33 02.04.2021
773 Mist -14 1013 85 1609 7.72 100 13:44 02.04.2021
774 Snow -14 1014 85 1609 7.2 100 13:25 02.04.2021
775 Snow -14 1016 85 1207 6.69 90 12:41 02.04.2021
776 Snow -14 1016 85 1207 5.14 100 12:20 02.04.2021
777 Snow -14 1017 78 2012 5.66 80 11:56 02.04.2021
778 Snow -15 1017 78 2012 5.66 80 11:21 02.04.2021
779 Snow -15 1019 78 2414 6.17 70 10:51 02.04.2021
780 Snow -16 1019 78 2414 6.17 70 10:30 02.04.2021
781 Snow -16 1019 78 2816 5.66 70 09:53 02.04.2021
782 Clouds -16 1020 61 10000 4.63 80 09:27 02.04.2021
783 Clouds -16 1020 60 10000 4.63 80 08:59 02.04.2021
784 Clouds -16 1020 60 10000 4.63 80 08:34 02.04.2021
785 Clouds -16 1021 60 10000 3.6 90 07:31 02.04.2021
786 Clouds -16 1022 66 10000 4.12 90 06:58 02.04.2021
787 Clouds -16 1023 72 10000 3.09 90 05:59 02.04.2021
788 Clear -16 1024 72 10000 3.6 100 02:47 02.04.2021
789 Clear -17 1024 66 10000 3.09 90 00:53 02.04.2021
790 Clear -17 1024 66 10000 3.09 90 00:24 02.04.2021
791 Clear -17 1023 71 10000 3.09 80 23:41 01.04.2021
792 Clear -18 1023 71 10000 3.09 80 23:18 01.04.2021
793 Clear -20 1023 78 10000 2.06 110 22:21 01.04.2021
794 Clear -21 1023 77 10000 1.15 312 21:51 01.04.2021
795 Clear -22 1023 77 10000 1.55 327 21:29 01.04.2021
796 Clear -24 1023 71 10000 1.55 327 20:58 01.04.2021
797 Clear -24 1023 71 10000 2.06 342 20:28 01.04.2021
798 Clear -24 1022 71 10000 2.06 0 19:57 01.04.2021
799 Clear -24 1022 71 10000 2.06 0 19:37 01.04.2021
800 Clear -22 1022 55 10000 1.54 0 18:49 01.04.2021
801 Clear -24 1022 55 10000 1.54 0 18:19 01.04.2021
802 Clear -23 1022 60 10000 3.6 320 17:57 01.04.2021
803 Clear -23 1022 60 10000 3.6 320 17:38 01.04.2021
804 Clear -23 1022 60 10000 3.6 320 17:19 01.04.2021
805 Clear -22 1021 60 10000 7.72 310 16:41 01.04.2021
806 Clear -22 1021 55 10000 7.2 280 15:49 01.04.2021
807 Clear -20 1021 55 10000 7.2 280 15:21 01.04.2021
808 Clear -18 1021 60 10000 4.12 300 14:48 01.04.2021
809 Clear -18 1021 60 10000 4.12 300 14:28 01.04.2021
810 Clear -18 1021 60 10000 6.69 250 13:58 01.04.2021
811 Clear -18 1021 60 10000 6.69 250 13:31 01.04.2021
812 Clear -18 1020 60 10000 6.69 230 12:56 01.04.2021
813 Clear -18 1020 60 10000 6.69 230 12:34 01.04.2021
814 Clear -18 1020 60 10000 5.66 230 11:58 01.04.2021
815 Clear -17 1020 60 10000 6.17 300 11:40 01.04.2021
816 Clear -17 1020 60 10000 6.17 300 11:18 01.04.2021
817 Clear -17 1019 60 10000 8.23 320 10:45 01.04.2021
818 Clear -17 1019 60 10000 8.23 320 10:24 01.04.2021
819 Clear -18 1019 65 10000 8.75 320 09:32 01.04.2021
820 Clear -18 1019 65 10000 8.75 320 08:54 01.04.2021
821 Clear -18 1019 65 10000 8.75 320 08:54 01.04.2021
822 Clear -17 1019 60 10000 4.12 330 08:28 01.04.2021
823 Clear -23 1019 95 10000 2.99 304 07:22 01.04.2021
824 Clear -23 1019 95 10000 2.99 304 06:56 01.04.2021
825 Clear -15 1018 56 10000 8.75 220 05:34 01.04.2021
826 Clear -16 1018 61 10000 7.72 300 03:20 01.04.2021
827 Clear -19 1017 78 10000 2.06 0 00:19 01.04.2021
828 Clear -19 1017 78 10000 3.09 100 23:40 31.03.2021
829 Clear -21 1016 78 10000 3.6 100 22:45 31.03.2021
830 Clear -21 1016 78 10000 3.6 100 22:23 31.03.2021
831 Clear -21 1015 77 10000 1.54 60 21:57 31.03.2021
832 Clear -22 1015 77 10000 1.54 60 21:39 31.03.2021
833 Clear -22 1015 77 10000 1.54 60 21:19 31.03.2021
834 Clear -24 1016 77 10000 2.41 327 20:40 31.03.2021
835 Clear -25 1016 77 10000 2.79 337 20:21 31.03.2021
836 Clear -26 1015 84 10000 2.76 337 19:42 31.03.2021
837 Clear -26 1015 84 10000 2.92 338 19:20 31.03.2021
838 Clear -26 1015 77 10000 2.92 338 18:55 31.03.2021
839 Clear -26 1015 77 10000 2.92 338 18:35 31.03.2021
840 Clear -24 1015 84 10000 3.6 80 17:44 31.03.2021
841 Clear -24 1015 84 10000 3.6 80 17:20 31.03.2021
842 Clear -20 1014 71 10000 3.09 130 16:55 31.03.2021
843 Clear -20 1014 71 10000 3.09 130 16:35 31.03.2021
844 Clear -21 1014 71 10000 7.2 310 15:54 31.03.2021
845 Clear -21 1014 71 10000 7.2 310 15:22 31.03.2021
846 Clear -21 1013 65 10000 6.17 310 14:53 31.03.2021
847 Clear -20 1013 65 10000 6.17 310 14:26 31.03.2021
848 Clear -19 1013 71 10000 8.75 300 13:57 31.03.2021
849 Clear -19 1013 71 10000 8.75 300 13:24 31.03.2021
850 Clear -19 1013 71 10000 8.23 290 12:41 31.03.2021
851 Clear -19 1013 71 10000 8.23 290 12:19 31.03.2021
852 Clear -18 1012 71 10000 10.8 300 11:23 31.03.2021
853 Clouds -18 1012 71 10000 11.32 290 10:51 31.03.2021
854 Clouds -18 1012 71 10000 11.32 290 10:28 31.03.2021
855 Clouds -18 1011 78 10000 10.8 300 09:58 31.03.2021
856 Clouds -18 1011 78 10000 10.8 300 09:33 31.03.2021
857 Clouds -18 1011 78 10000 10.8 300 09:33 31.03.2021
858 Clouds -17 1011 71 10000 12.86 300 08:48 31.03.2021
859 Clouds -16 1011 71 10000 12.86 300 08:30 31.03.2021
860 Snow -15 1010 78 6437 12.35 300 07:41 31.03.2021
861 Snow -13 1008 72 8047 11.32 300 05:52 31.03.2021
862 Clouds -10 1007 67 10000 6.17 330 02:42 31.03.2021
863 Clouds -8 1005 79 10000 2.06 40 00:54 31.03.2021
864 Clouds -8 1005 79 10000 2.06 40 00:54 31.03.2021
865 Clouds -8 1005 79 10000 2.06 40 00:26 31.03.2021
866 Clouds -8 1005 67 10000 1.54 50 23:58 30.03.2021
867 Clouds -9 1005 79 10000 2.57 260 23:27 30.03.2021
868 Clouds -9 1004 86 10000 3.09 90 22:55 30.03.2021
869 Clouds -9 1004 86 10000 3.09 90 22:37 30.03.2021
870 Clouds -9 1004 86 10000 3.09 90 22:19 30.03.2021
871 Clouds -7 1003 79 10000 3.3 334 21:38 30.03.2021
872 Clouds -7 1003 79 10000 3.06 333 21:18 30.03.2021
873 Snow -7 1003 73 8047 6.17 360 20:45 30.03.2021
874 Snow -7 1003 86 4828 2.98 335 20:26 30.03.2021
875 Snow -7 1002 79 10000 2.57 10 19:43 30.03.2021
876 Snow -6 1002 86 10000 2.06 310 19:18 30.03.2021
877 Snow -6 1001 86 10000 5.66 250 18:33 30.03.2021
878 Snow -7 1001 93 6437 4.12 240 17:49 30.03.2021
879 Mist -7 1001 93 6437 4.12 240 17:49 30.03.2021
880 Snow -6 1001 93 6437 4.12 240 17:31 30.03.2021
881 Snow -6 1000 93 4828 3.09 280 16:47 30.03.2021
882 Snow -6 1000 93 4828 3.09 280 16:28 30.03.2021
883 Snow -6 1000 93 10000 2.06 150 15:39 30.03.2021
884 Snow -6 1000 93 10000 2.06 150 15:19 30.03.2021
885 Snow -5 1000 86 9656 4.12 110 14:46 30.03.2021
886 Snow -5 999 86 9656 3.6 90 14:21 30.03.2021
887 Mist -5 999 86 9656 3.6 90 14:21 30.03.2021
888 Snow -4 999 86 6437 3.09 70 13:51 30.03.2021
889 Snow -4 999 86 6437 3.09 70 13:30 30.03.2021
890 Mist -4 998 86 3219 4.12 80 12:42 30.03.2021
891 Snow -4 998 86 3219 4.12 80 12:23 30.03.2021
892 Snow -4 998 93 3219 3.6 100 11:48 30.03.2021
893 Snow -4 998 93 4828 3.09 100 11:20 30.03.2021
894 Snow -3 997 93 4023 2.57 100 10:43 30.03.2021
895 Snow -3 997 93 4023 3.09 120 10:19 30.03.2021
896 Mist -3 996 93 4828 3.09 120 09:43 30.03.2021
897 Mist -3 996 93 4828 3.09 120 09:43 30.03.2021
898 Snow -3 996 93 4828 3.09 120 09:24 30.03.2021
899 Snow -2 996 86 4828 2.06 130 08:51 30.03.2021
900 Snow -2 996 86 4828 2.06 130 08:31 30.03.2021
901 Snow -2 995 93 4828 2.57 190 07:45 30.03.2021
902 Snow -2 995 93 4828 2.57 190 07:21 30.03.2021
903 Snow -1 994 93 2012 5.14 200 05:25 30.03.2021
904 Snow 0 993 93 1609 3.6 200 03:23 30.03.2021
905 Snow 1 992 93 2012 2.57 170 00:22 30.03.2021
906 Snow 1 992 93 1207 2.57 150 23:28 29.03.2021
907 Mist 1 992 93 2012 2.57 160 22:43 29.03.2021
908 Snow 0 991 93 2012 3.6 170 21:59 29.03.2021
909 Snow 0 991 93 2012 3.6 170 21:37 29.03.2021
910 Snow 0 991 93 3219 3.6 150 20:59 29.03.2021
911 Mist 0 991 93 3219 3.6 150 20:37 29.03.2021
912 Mist 0 991 93 2414 3.6 140 19:57 29.03.2021
913 Snow 0 991 93 3219 3.6 140 19:34 29.03.2021
914 Snow -1 991 100 2414 3.09 130 18:58 29.03.2021
915 Snow -1 991 100 3219 4.12 130 18:39 29.03.2021
916 Snow -1 991 100 3219 4.12 130 18:20 29.03.2021
917 Snow -1 991 100 3219 4.12 130 18:20 29.03.2021
918 Snow -1 991 100 4828 4.12 140 17:38 29.03.2021
919 Snow 0 991 93 2414 5.14 140 16:59 29.03.2021
920 Snow 0 991 93 2414 5.14 140 16:35 29.03.2021
921 Mist 0 991 93 3219 5.14 140 15:51 29.03.2021
922 Snow 0 991 93 3219 5.14 140 15:31 29.03.2021
923 Snow 0 992 93 2414 5.14 140 14:54 29.03.2021
924 Snow 0 992 93 2414 5.14 140 14:33 29.03.2021
925 Mist 0 992 93 2414 5.66 140 13:52 29.03.2021
926 Snow 0 992 93 4023 5.66 140 13:26 29.03.2021
927 Mist -1 992 100 2414 6.17 130 12:50 29.03.2021
928 Snow 0 992 93 4828 6.17 140 11:53 29.03.2021
929 Snow 0 992 93 3219 5.66 130 11:35 29.03.2021
930 Snow 0 992 93 2012 5.66 130 10:59 29.03.2021
931 Snow 0 992 93 2012 5.66 130 10:36 29.03.2021
932 Snow -1 993 100 2414 5.14 130 09:42 29.03.2021
933 Snow 0 993 86 4023 6.17 140 08:52 29.03.2021
934 Snow 0 993 93 4828 5.66 140 08:28 29.03.2021
935 Snow 0 994 93 3219 5.14 160 07:41 29.03.2021
936 Rain 0 994 80 10000 5.66 180 06:27 29.03.2021
937 Snow -5 994 86 805 9.77 80 03:59 29.03.2021
938 Snow -8 997 93 402 12.86 90 01:54 29.03.2021
939 Snow -8 1000 86 402 15.95 90 00:23 29.03.2021
940 Snow -9 1002 86 402 14.4 90 23:44 28.03.2021
941 Snow -9 1002 86 402 14.4 90 23:19 28.03.2021
942 Snow -10 1004 85 402 12.86 80 22:41 28.03.2021
943 Snow -10 1004 85 402 14.92 80 22:21 28.03.2021
944 Snow -11 1006 85 402 13.89 80 21:41 28.03.2021
945 Snow -11 1006 85 402 13.89 80 21:22 28.03.2021
946 Snow -12 1009 85 402 14.4 80 20:49 28.03.2021
947 Fog -12 1009 85 402 14.4 80 20:31 28.03.2021
948 Snow -12 1010 85 805 14.4 80 19:45 28.03.2021
949 Snow -12 1011 85 805 13.38 80 19:23 28.03.2021
950 Snow -13 1014 78 805 10.8 80 18:58 28.03.2021
951 Snow -13 1014 78 805 10.8 80 18:28 28.03.2021
952 Snow -13 1015 78 2012 10.29 80 17:50 28.03.2021
953 Snow -13 1015 78 2012 10.29 80 17:27 28.03.2021
954 Snow -13 1018 78 2414 9.77 80 16:46 28.03.2021
955 Snow -13 1019 78 1609 10.29 80 16:23 28.03.2021
956 Snow -13 1020 78 2012 9.77 90 15:43 28.03.2021
957 Snow -13 1020 78 2414 9.77 80 15:22 28.03.2021
958 Clouds -13 1021 78 4023 8.75 80 14:37 28.03.2021
959 Clouds -14 1023 78 10000 7.2 80 13:49 28.03.2021
960 Clouds -14 1023 78 10000 7.2 80 13:24 28.03.2021
961 Mist -14 1023 78 8047 7.72 70 12:52 28.03.2021
962 Clouds -14 1024 78 10000 6.69 80 12:33 28.03.2021
963 Clear -14 1025 72 10000 5.14 80 11:46 28.03.2021
964 Clear -15 1025 72 10000 5.14 80 11:26 28.03.2021
965 Clear -16 1025 72 10000 4.63 70 10:45 28.03.2021
966 Clear -16 1025 72 10000 4.63 70 10:26 28.03.2021
967 Clear -17 1025 72 10000 4.12 70 09:47 28.03.2021
968 Clear -17 1025 72 10000 4.12 70 09:25 28.03.2021
969 Clear -17 1026 66 10000 2.57 80 08:46 28.03.2021
970 Clear -17 1025 66 10000 2.57 60 07:51 28.03.2021
971 Clear -17 1025 66 10000 2.57 60 07:19 28.03.2021
972 Clear -14 1025 66 10000 3.09 80 04:18 28.03.2021
973 Clear -13 1025 66 10000 1.17 215 01:26 28.03.2021
974 Clear -14 1025 72 10000 0.85 201 00:21 28.03.2021
975 Clear -15 1024 66 10000 0.85 201 23:44 27.03.2021
976 Clear -15 1024 66 10000 0.29 289 23:19 27.03.2021
977 Clear -16 1024 71 10000 0.29 289 22:37 27.03.2021
978 Clear -17 1022 85 10000 0.38 254 21:59 27.03.2021
979 Clear -17 1022 85 10000 0.38 254 21:38 27.03.2021
980 Clear -18 1022 85 10000 0.62 346 21:19 27.03.2021
981 Clear -19 1021 77 10000 0.62 346 20:44 27.03.2021
982 Clear -20 1021 77 10000 1.51 16 20:24 27.03.2021
983 Clear -21 1021 84 10000 1.51 16 19:44 27.03.2021
984 Clear -22 1021 84 10000 2.16 14 19:23 27.03.2021
985 Clear -23 1020 77 10000 2.16 14 18:50 27.03.2021
986 Clear -23 1020 77 10000 1.95 359 18:29 27.03.2021
987 Clear -22 1019 77 10000 1.95 359 17:56 27.03.2021
988 Clear -22 1019 77 10000 2.32 358 17:26 27.03.2021
989 Clear -22 1018 84 10000 1.54 320 16:51 27.03.2021
990 Clear -22 1018 84 10000 1.54 320 16:30 27.03.2021
991 Clear -22 1017 84 10000 2.59 359 15:55 27.03.2021
992 Clear -22 1017 84 10000 2.59 359 15:33 27.03.2021
993 Clear -22 1016 77 10000 2.81 3 14:52 27.03.2021
994 Clear -21 1015 84 10000 2.77 1 13:59 27.03.2021
995 Clear -21 1015 84 10000 3.06 0 13:26 27.03.2021
996 Clear -21 1014 84 10000 3.06 0 12:56 27.03.2021
997 Clear -20 1014 84 10000 3.06 0 12:31 27.03.2021
998 Clear -19 1014 84 10000 2.95 5 11:47 27.03.2021
999 Clear -19 1014 84 10000 2.92 1 11:27 27.03.2021
1000 Clear -17 1013 85 10000 2.92 1 10:47 27.03.2021
1001 Clear -17 1013 85 10000 3 4 10:24 27.03.2021
1002 Clear -16 1013 78 10000 3.07 9 09:29 27.03.2021
1003 Clear -16 1013 78 10000 3.07 9 09:29 27.03.2021
1004 Clear -14 1012 85 10000 2.57 330 08:49 27.03.2021
1005 Clear -14 1012 85 10000 2.57 330 08:31 27.03.2021
1006 Snow -13 1012 78 8047 2.06 340 07:36 27.03.2021
1007 Snow -12 1012 85 6437 2.06 30 06:52 27.03.2021
1008 Snow -12 1012 85 6437 2.06 30 06:33 27.03.2021
1009 Snow -11 1011 73 10000 4.63 40 04:40 27.03.2021
1010 Snow -11 1012 79 4828 5.14 60 00:55 27.03.2021
1011 Snow -11 1012 79 4828 5.14 60 00:31 27.03.2021
1012 Snow -11 1012 79 4828 5.14 70 23:55 26.03.2021
1013 Snow -11 1012 79 4828 5.14 70 23:22 26.03.2021
1014 Snow -11 1013 85 4828 5.66 80 22:35 26.03.2021
1015 Snow -12 1013 79 8047 4.63 80 21:40 26.03.2021
1016 Snow -12 1013 79 8047 4.63 80 21:22 26.03.2021
1017 Snow -12 1013 79 9656 3.6 70 20:44 26.03.2021
1018 Snow -12 1013 79 9656 3.6 70 20:24 26.03.2021
1019 Snow -12 1014 72 10000 4.12 70 19:49 26.03.2021
1020 Snow -12 1014 72 10000 4.12 70 19:30 26.03.2021
1021 Clouds -14 1014 72 10000 4.12 70 18:45 26.03.2021
1022 Clouds -14 1014 72 10000 4.12 70 18:26 26.03.2021
1023 Clouds -15 1014 72 10000 3.6 60 17:47 26.03.2021
1024 Clouds -17 1015 78 10000 4.12 50 16:58 26.03.2021
1025 Clouds -17 1015 78 10000 4.12 50 16:33 26.03.2021
1026 Clouds -18 1015 78 10000 2.77 50 15:58 26.03.2021
1027 Clear -19 1015 84 10000 2.64 44 15:24 26.03.2021
1028 Clear -20 1015 84 10000 2.64 44 14:34 26.03.2021
1029 Clouds -20 1016 78 10000 2.4 49 13:42 26.03.2021
1030 Clouds -20 1016 78 10000 2.28 49 13:21 26.03.2021
1031 Clouds -20 1016 85 10000 1.54 100 12:34 26.03.2021
1032 Clouds -21 1016 85 10000 2.06 90 11:40 26.03.2021
1033 Clouds -21 1016 85 10000 2.06 90 11:19 26.03.2021
1034 Clear -21 1016 78 10000 2.58 28 10:41 26.03.2021
1035 Clear -20 1016 85 10000 3.09 40 09:58 26.03.2021
1036 Clear -19 1016 85 10000 3.09 40 09:40 26.03.2021
1037 Clouds -19 1016 85 10000 3.09 50 08:45 26.03.2021
1038 Clouds -17 1016 72 10000 3.6 80 08:24 26.03.2021
1039 Clouds -16 1016 78 10000 4.12 80 07:42 26.03.2021
1040 Clouds -16 1016 78 10000 4.12 80 07:20 26.03.2021
1041 Clouds -16 1015 78 10000 4.12 100 06:54 26.03.2021
1042 Clear -13 1015 72 10000 2.57 90 05:31 26.03.2021
1043 Clear -10 1014 79 10000 6.17 260 02:32 26.03.2021
1044 Clear -10 1014 79 10000 4.63 270 00:32 26.03.2021
1045 Clear -9 1013 73 10000 7.72 260 23:46 25.03.2021
1046 Clear -9 1013 73 10000 7.72 260 23:21 25.03.2021
1047 Clear -9 1013 73 10000 3.09 280 22:39 25.03.2021
1048 Clouds -9 1012 67 10000 5.66 300 21:53 25.03.2021
1049 Clouds -9 1012 67 10000 5.66 300 21:35 25.03.2021
1050 Clouds -10 1011 79 10000 5.66 280 20:47 25.03.2021
1051 Clouds -11 1011 79 10000 5.66 280 20:28 25.03.2021
1052 Clouds -11 1011 79 10000 4.63 280 19:51 25.03.2021
1053 Clouds -11 1011 79 10000 4.63 280 19:32 25.03.2021
1054 Clouds -9 1010 86 10000 4.63 290 18:58 25.03.2021
1055 Clouds -9 1010 86 10000 4.63 290 18:39 25.03.2021
1056 Clouds -9 1010 86 10000 4.63 290 18:21 25.03.2021
1057 Clouds -10 1010 85 10000 1.77 347 17:38 25.03.2021
1058 Snow -10 1009 85 8047 1.54 280 16:57 25.03.2021
1059 Mist -10 1009 85 8047 1.54 280 16:34 25.03.2021
1060 Snow -11 1009 92 4828 1.54 290 15:49 25.03.2021
1061 Snow -11 1009 92 4828 1.54 290 15:26 25.03.2021
1062 Snow -11 1009 92 3219 1.62 351 14:50 25.03.2021
1063 Snow -11 1009 85 10000 1.62 351 14:30 25.03.2021
1064 Clouds -11 1009 85 10000 1.68 358 13:28 25.03.2021
1065 Clouds -11 1008 85 10000 1.68 358 12:46 25.03.2021
1066 Clouds -11 1008 85 10000 1.79 356 12:22 25.03.2021
1067 Clouds -13 1008 85 10000 2.06 10 11:58 25.03.2021
1068 Clouds -13 1008 85 10000 2.06 10 11:40 25.03.2021
1069 Clouds -13 1008 85 10000 2.06 10 11:21 25.03.2021
1070 Clouds -15 1008 92 10000 1.74 344 10:48 25.03.2021
1071 Clouds -15 1008 92 10000 1.82 340 10:21 25.03.2021
1072 Clouds -14 1008 92 10000 1.82 340 09:50 25.03.2021
1073 Clouds -14 1008 92 10000 1.82 340 09:31 25.03.2021
1074 Clouds -10 1007 85 10000 1.88 335 08:37 25.03.2021
1075 Clouds -8 1007 79 10000 4.12 270 07:50 25.03.2021
1076 Clouds -6 1007 79 10000 4.12 260 06:49 25.03.2021
1077 Clouds -6 1007 79 10000 4.12 260 06:24 25.03.2021
1078 Clouds -6 1007 86 10000 4.12 240 05:21 25.03.2021
1079 Clouds -4 1006 80 10000 5.66 240 02:28 25.03.2021
1080 Clouds -4 1005 74 10000 5.14 240 00:20 25.03.2021
1081 Clouds -4 1005 80 10000 7.2 270 23:42 24.03.2021
1082 Clouds -4 1005 80 10000 7.2 270 23:23 24.03.2021
1083 Snow -3 1003 86 4828 7.2 270 22:40 24.03.2021
1084 Snow -3 1003 86 4828 7.2 270 22:19 24.03.2021
1085 Clouds -2 1002 86 10000 6.17 220 21:41 24.03.2021
1086 Clouds -2 1002 93 10000 6.17 220 21:20 24.03.2021
1087 Snow -2 1002 86 4828 6.69 230 20:41 24.03.2021
1088 Snow -2 1002 86 4828 6.69 230 20:19 24.03.2021
1089 Snow -2 1001 86 4828 8.23 220 19:34 24.03.2021
1090 Snow -2 1001 86 4828 8.23 220 19:34 24.03.2021
1091 Snow -3 1000 93 4828 9.26 220 18:57 24.03.2021
1092 Snow -3 1000 93 4828 9.26 220 18:39 24.03.2021
1093 Snow -3 1000 93 4828 9.26 220 18:19 24.03.2021
1094 Mist -3 1000 93 4828 9.26 220 18:19 24.03.2021
1095 Snow -2 1000 86 4828 8.23 210 17:40 24.03.2021
1096 Mist -2 1000 86 4828 8.23 210 17:22 24.03.2021
1097 Snow -3 999 93 4828 7.72 210 16:41 24.03.2021
1098 Snow -3 999 93 4828 8.23 210 16:22 24.03.2021
1099 Snow -3 999 93 9656 8.23 210 15:43 24.03.2021
1100 Snow -5 999 93 9656 8.23 210 15:23 24.03.2021
1101 Snow -5 998 93 10000 1.54 0 14:42 24.03.2021
1102 Snow -7 998 93 10000 1.54 0 14:23 24.03.2021
1103 Snow -8 998 93 10000 2.57 80 13:45 24.03.2021
1104 Snow -8 998 93 10000 2.57 80 13:24 24.03.2021
1105 Snow -8 998 86 10000 4.12 80 12:41 24.03.2021
1106 Snow -8 998 86 10000 4.12 80 12:20 24.03.2021
1107 Mist -8 998 93 3219 5.14 70 11:41 24.03.2021
1108 Snow -8 998 79 805 6.17 70 10:53 24.03.2021
1109 Snow -8 998 79 3219 6.17 70 10:32 24.03.2021
1110 Snow -9 998 86 4023 6.17 70 09:58 24.03.2021
1111 Snow -9 997 79 2012 6.69 60 09:37 24.03.2021
1112 Snow -9 997 79 2012 6.69 60 09:18 24.03.2021
1113 Mist -10 997 85 2012 8.75 70 08:46 24.03.2021
1114 Snow -11 998 85 1609 9.26 90 07:50 24.03.2021
1115 Snow -11 998 85 1207 9.77 90 07:25 24.03.2021
1116 Snow -11 998 85 805 9.26 90 06:46 24.03.2021
1117 Snow -13 1004 78 402 11.32 100 03:19 24.03.2021
1118 Snow -14 1010 78 805 8.75 100 00:44 24.03.2021
1119 Snow -14 1013 78 1207 8.75 120 23:52 23.03.2021
1120 Snow -15 1013 78 1207 8.75 120 23:20 23.03.2021
1121 Snow -15 1014 78 1207 8.75 120 22:51 23.03.2021
1122 Snow -15 1015 78 805 8.23 120 22:25 23.03.2021
1123 Snow -16 1016 78 1609 6.69 100 21:47 23.03.2021
1124 Snow -16 1016 78 1609 6.69 100 21:29 23.03.2021
1125 Snow -17 1017 85 1207 8.23 90 20:47 23.03.2021
1126 Snow -18 1017 78 4828 7.72 90 20:25 23.03.2021
1127 Snow -19 1018 78 2414 7.2 80 19:50 23.03.2021
1128 Clouds -19 1019 78 10000 5.66 90 19:26 23.03.2021
1129 Clouds -20 1020 78 10000 4.63 80 18:47 23.03.2021
1130 Clouds -20 1020 78 10000 4.63 80 18:24 23.03.2021
1131 Clouds -21 1021 71 10000 4.12 80 17:50 23.03.2021
1132 Clouds -21 1021 71 10000 4.12 80 17:23 23.03.2021
1133 Clear -22 1021 77 10000 4.12 80 16:59 23.03.2021
1134 Clear -22 1021 77 10000 4.12 80 16:25 23.03.2021
1135 Clear -21 1022 77 10000 4.12 90 15:47 23.03.2021
1136 Clear -23 1022 77 10000 4.12 90 15:21 23.03.2021
1137 Clouds -24 1022 77 10000 1.54 100 14:45 23.03.2021
1138 Clouds -24 1024 77 10000 1.56 63 14:19 23.03.2021
1139 Clear -24 1023 70 10000 1.54 20 13:45 23.03.2021
1140 Clear -24 1023 70 10000 1.54 20 13:23 23.03.2021
1141 Clear -24 1024 70 10000 0.77 29 12:44 23.03.2021
1142 Clear -25 1024 70 10000 1.85 28 12:23 23.03.2021
1143 Clear -24 1024 70 10000 2.57 100 11:47 23.03.2021
1144 Clear -24 1024 71 10000 1.54 280 10:59 23.03.2021
1145 Clear -23 1024 71 10000 1.54 280 10:41 23.03.2021
1146 Clear -23 1024 71 10000 1.54 280 10:20 23.03.2021
1147 Clear -22 1023 71 10000 2.06 20 09:47 23.03.2021
1148 Clear -22 1023 71 10000 2.06 20 09:22 23.03.2021
1149 Clear -18 1024 65 10000 2.11 348 08:40 23.03.2021
1150 Clear -18 1024 65 10000 2.74 2 08:22 23.03.2021
1151 Clear -18 1023 65 10000 3.6 300 07:59 23.03.2021
1152 Clear -18 1023 65 10000 3.6 300 07:22 23.03.2021
1153 Clear -18 1023 65 10000 7.72 300 06:52 23.03.2021
1154 Clear -16 1021 71 10000 7.72 290 03:24 23.03.2021
1155 Clear -16 1021 71 10000 8.23 300 02:22 23.03.2021
1156 Clear -17 1019 71 10000 9.77 300 23:46 22.03.2021
1157 Clear -17 1019 66 10000 9.77 320 22:59 22.03.2021
1158 Clear -17 1019 66 10000 9.77 320 22:39 22.03.2021
1159 Clear -17 1019 66 10000 9.77 320 22:20 22.03.2021
1160 Clear -18 1018 71 10000 9.77 290 21:43 22.03.2021
1161 Clear -18 1018 71 10000 9.77 290 21:24 22.03.2021
1162 Snow -18 1018 65 8047 4.12 310 20:42 22.03.2021
1163 Snow -18 1018 65 8047 4.12 310 20:23 22.03.2021
1164 Snow -18 1017 71 8047 10.8 300 19:57 22.03.2021
1165 Snow -18 1017 71 8047 10.8 300 19:37 22.03.2021
1166 Snow -18 1017 71 8047 10.8 300 19:19 22.03.2021
1167 Snow -19 1016 71 10000 8.23 300 18:40 22.03.2021
1168 Snow -19 1016 71 10000 8.23 300 18:21 22.03.2021
1169 Snow -18 1016 71 10000 6.69 310 17:48 22.03.2021
1170 Snow -18 1016 71 10000 6.69 310 17:22 22.03.2021
1171 Haze -18 1015 78 9656 10.29 290 16:47 22.03.2021
1172 Haze -18 1015 78 9656 10.29 290 16:22 22.03.2021
1173 Snow -18 1015 78 2816 11.83 300 15:39 22.03.2021
1174 Clouds -17 1015 71 4828 11.83 300 15:20 22.03.2021
1175 Clouds -17 1015 78 4023 10.29 290 14:57 22.03.2021
1176 Clouds -17 1014 71 10000 8.75 290 14:34 22.03.2021
1177 Clear -17 1014 78 10000 9.26 290 13:49 22.03.2021
1178 Clear -17 1014 78 10000 9.26 290 13:28 22.03.2021
1179 Clear -16 1013 78 10000 9.26 290 12:56 22.03.2021
1180 Clear -16 1013 78 10000 9.26 290 12:26 22.03.2021
1181 Clouds -15 1012 78 10000 7.2 280 11:50 22.03.2021
1182 Clouds -15 1012 78 10000 7.2 280 11:29 22.03.2021
1183 Clouds -13 1012 72 10000 8.75 300 10:46 22.03.2021
1184 Clouds -13 1012 72 10000 8.75 300 10:26 22.03.2021
1185 Clouds -17 1013 96 10000 2.8 277 09:53 22.03.2021
1186 Clouds -11 1011 79 10000 3.6 290 09:32 22.03.2021
1187 Clouds -11 1011 79 10000 3.6 290 08:47 22.03.2021
1188 Clouds -11 1011 79 10000 3.6 290 08:28 22.03.2021
1189 Haze -11 1011 85 6437 3.6 300 07:50 22.03.2021
1190 Snow -11 1011 85 3219 3.6 300 07:31 22.03.2021
1191 Snow -10 1010 79 4828 1.91 257 06:51 22.03.2021
1192 Snow -10 1010 79 4828 1.91 257 06:51 22.03.2021
1193 Snow -8 1009 73 8047 2.06 90 02:47 22.03.2021
1194 Snow -9 1009 62 10000 4.12 100 00:49 22.03.2021
1195 Clouds -8 1009 49 10000 4.12 120 23:59 21.03.2021
1196 Clouds -9 1009 49 10000 4.12 120 23:39 21.03.2021
1197 Snow -8 1009 49 10000 4.12 120 23:18 21.03.2021
1198 Snow -8 1009 58 10000 1.16 83 22:41 21.03.2021
1199 Snow -10 1008 57 10000 0.68 100 21:43 21.03.2021
1200 Snow -10 1008 57 10000 0.39 115 21:25 21.03.2021
1201 Snow -11 1008 79 10000 0.39 115 20:56 21.03.2021
1202 Snow -11 1008 79 10000 0.39 115 20:38 21.03.2021
1203 Clouds -11 1008 79 10000 0.33 140 20:19 21.03.2021
1204 Clouds -12 1007 67 10000 0.33 140 19:40 21.03.2021
1205 Clouds -12 1007 67 10000 0.51 89 19:19 21.03.2021
1206 Clouds -12 1007 67 10000 0.33 123 18:41 21.03.2021
1207 Clouds -12 1007 67 10000 0.72 61 18:18 21.03.2021
1208 Clouds -13 1007 61 10000 3.09 340 17:42 21.03.2021
1209 Clouds -13 1007 61 10000 3.09 340 17:18 21.03.2021
1210 Clouds -13 1007 56 10000 4.12 360 16:49 21.03.2021
1211 Clouds -13 1007 56 10000 4.12 360 16:23 21.03.2021
1212 Clouds -13 1007 56 10000 4.12 360 16:23 21.03.2021
1213 Clouds -14 1007 61 10000 4.12 360 15:46 21.03.2021
1214 Clouds -14 1007 61 10000 4.12 360 15:21 21.03.2021
1215 Clear -14 1007 56 10000 2.06 10 14:48 21.03.2021
1216 Clear -14 1007 56 10000 2.06 10 14:48 21.03.2021
1217 Clear -15 1007 56 10000 2.06 10 14:27 21.03.2021
1218 Clear -15 1007 56 10000 4.12 40 13:58 21.03.2021
1219 Clear -15 1007 56 10000 4.12 40 13:39 21.03.2021
1220 Clear -14 1007 56 10000 3.6 40 12:44 21.03.2021
1221 Clear -14 1007 56 10000 3.6 40 12:25 21.03.2021
1222 Clear -13 1006 52 10000 4.12 40 11:42 21.03.2021
1223 Clear -13 1006 52 10000 4.12 40 11:24 21.03.2021
1224 Clear -14 1006 52 10000 4.63 40 10:46 21.03.2021
1225 Clear -14 1006 52 10000 4.63 40 10:27 21.03.2021
1226 Clear -15 1006 56 10000 3.09 20 09:50 21.03.2021
1227 Clear -15 1006 56 10000 3.09 20 09:32 21.03.2021
1228 Clear -14 1006 52 10000 2.06 360 08:59 21.03.2021
1229 Clear -14 1006 52 10000 2.06 360 08:36 21.03.2021
1230 Clear -14 1006 52 10000 2.06 360 08:18 21.03.2021
1231 Clear -12 1005 61 10000 3.6 20 07:29 21.03.2021
1232 Clear -12 1005 56 10000 3.09 20 06:21 21.03.2021
1233 Clear -11 1005 53 10000 3.6 30 04:56 21.03.2021
1234 Clear -10 1005 53 10000 5.14 30 00:58 21.03.2021
1235 Clear -10 1005 53 10000 5.14 30 00:39 21.03.2021
1236 Clear -10 1005 53 10000 5.14 30 00:20 21.03.2021
1237 Clear -11 1005 62 10000 8.23 40 23:45 20.03.2021
1238 Clear -11 1005 62 10000 8.23 40 23:20 20.03.2021
1239 Clear -12 1005 57 10000 10.8 30 22:24 20.03.2021
1240 Clear -12 1005 61 10000 9.77 40 21:58 20.03.2021
1241 Clear -12 1005 61 10000 9.77 40 21:40 20.03.2021
1242 Clear -12 1005 61 10000 9.77 40 21:21 20.03.2021
1243 Clear -13 1005 61 10000 8.23 30 20:41 20.03.2021
1244 Clear -13 1005 61 10000 8.23 30 20:21 20.03.2021
1245 Clear -14 1005 56 10000 9.26 40 19:41 20.03.2021
1246 Clear -14 1005 56 10000 9.26 40 19:23 20.03.2021
1247 Clear -15 1005 61 10000 6.69 40 18:46 20.03.2021
1248 Clear -15 1005 61 10000 6.69 40 18:24 20.03.2021
1249 Clear -16 1005 61 10000 6.69 30 17:48 20.03.2021
1250 Clear -16 1005 61 10000 6.69 30 17:26 20.03.2021
1251 Clear -16 1006 66 10000 8.23 40 16:44 20.03.2021
1252 Clear -16 1006 66 10000 8.23 40 16:20 20.03.2021
1253 Clear -16 1006 60 10000 8.23 40 15:54 20.03.2021
1254 Clear -16 1006 60 10000 8.23 40 15:33 20.03.2021
1255 Clear -16 1007 60 10000 7.2 30 14:42 20.03.2021
1256 Clear -17 1007 60 10000 7.2 30 14:22 20.03.2021
1257 Clear -16 1007 60 10000 7.2 40 13:32 20.03.2021
1258 Clear -16 1008 60 10000 6.69 30 12:44 20.03.2021
1259 Clear -17 1008 60 10000 6.69 30 12:25 20.03.2021
1260 Clear -17 1008 66 10000 6.69 30 11:44 20.03.2021
1261 Clear -17 1008 66 10000 6.69 30 11:24 20.03.2021
1262 Clear -17 1009 66 10000 6.69 30 10:54 20.03.2021
1263 Clear -17 1009 66 10000 6.69 30 10:27 20.03.2021
1264 Clear -17 1009 60 10000 6.17 40 09:55 20.03.2021
1265 Clear -17 1009 60 10000 6.17 40 09:27 20.03.2021
1266 Clear -18 1010 65 10000 5.66 40 08:56 20.03.2021
1267 Clear -18 1010 65 10000 5.66 40 08:30 20.03.2021
1268 Clear -17 1010 66 10000 5.66 50 07:51 20.03.2021
1269 Clear -17 1010 66 10000 5.66 50 07:31 20.03.2021
1270 Clear -16 1011 60 10000 5.14 60 06:47 20.03.2021
1271 Clear -16 1011 60 10000 5.14 60 06:18 20.03.2021
1272 Clear -16 1013 60 10000 5.14 40 03:46 20.03.2021
1273 Clear -17 1014 60 10000 4.63 40 02:44 20.03.2021
1274 Clear -17 1016 60 10000 2.57 50 23:57 19.03.2021
1275 Clear -17 1016 60 10000 2.57 50 23:30 19.03.2021
1276 Clear -18 1017 60 10000 3.6 50 22:48 19.03.2021
1277 Clear -18 1017 60 10000 3.6 50 22:27 19.03.2021
1278 Clear -20 1017 65 10000 4.63 50 21:56 19.03.2021
1279 Clear -22 1017 65 10000 4.63 50 21:22 19.03.2021
1280 Clear -26 1018 83 10000 2.22 46 20:57 19.03.2021
1281 Clear -26 1018 83 10000 2.22 46 20:39 19.03.2021
1282 Clear -27 1018 83 10000 1.86 56 20:21 19.03.2021
1283 Clear -28 1018 69 10000 1.86 56 19:43 19.03.2021
1284 Clear -29 1018 69 10000 1.66 53 19:19 19.03.2021
1285 Clear -29 1018 76 10000 1.66 53 18:40 19.03.2021
1286 Clear -29 1018 76 10000 2.11 44 18:18 19.03.2021
1287 Clear -29 1019 69 10000 2.11 44 17:51 19.03.2021
1288 Clear -29 1019 69 10000 1.78 45 17:27 19.03.2021
1289 Clear -29 1019 76 10000 1.78 45 16:52 19.03.2021
1290 Clear -29 1019 76 10000 1.43 53 16:27 19.03.2021
1291 Clear -29 1019 83 10000 1.43 53 15:46 19.03.2021
1292 Clear -30 1019 83 10000 1.55 55 15:22 19.03.2021
1293 Clear -28 1020 69 10000 1.55 55 14:45 19.03.2021
1294 Clear -27 1020 69 10000 1.84 46 14:26 19.03.2021
1295 Clear -28 1019 76 10000 2.57 20 13:39 19.03.2021
1296 Clear -28 1020 76 10000 2.08 38 12:50 19.03.2021
1297 Clear -28 1020 76 10000 1.96 40 12:32 19.03.2021
1298 Clear -28 1020 76 10000 2.11 37 11:40 19.03.2021
1299 Clear -28 1020 76 10000 1.54 20 10:53 19.03.2021
1300 Clear -28 1020 76 10000 1.54 20 10:30 19.03.2021
1301 Clear -27 1020 76 10000 2.57 20 09:49 19.03.2021
1302 Clear -27 1020 76 10000 2.57 20 09:30 19.03.2021
1303 Clear -26 1020 70 10000 1.54 90 08:54 19.03.2021
1304 Clear -26 1020 70 10000 1.54 90 08:36 19.03.2021
1305 Clear -25 1019 70 10000 2.06 80 07:58 19.03.2021
1306 Clear -25 1019 70 10000 2.06 80 07:36 19.03.2021
1307 Clear -23 1019 77 10000 2.36 26 06:48 19.03.2021
1308 Clear -17 1019 60 10000 1.54 350 02:45 19.03.2021
1309 Clear -17 1018 66 10000 3.09 300 00:52 19.03.2021
1310 Clear -17 1018 60 10000 0.93 312 23:30 18.03.2021
1311 Clear -17 1018 60 10000 0.93 312 23:30 18.03.2021
1312 Clear -18 1018 71 10000 0.99 330 22:58 18.03.2021
1313 Clear -18 1018 71 10000 0.99 330 22:39 18.03.2021
1314 Clear -19 1018 71 10000 1.18 353 22:19 18.03.2021
1315 Clear -20 1017 71 10000 1.54 100 21:39 18.03.2021
1316 Clear -20 1017 60 10000 2.06 330 20:51 18.03.2021
1317 Clear -20 1017 60 10000 2.06 330 20:32 18.03.2021
1318 Clear -21 1016 65 10000 1.54 330 19:48 18.03.2021
1319 Clear -22 1016 65 10000 1.54 330 19:27 18.03.2021
1320 Clear -22 1016 77 10000 2.57 10 18:58 18.03.2021
1321 Clear -21 1016 77 10000 2.57 10 18:34 18.03.2021
1322 Clear -21 1015 77 10000 3.09 360 17:51 18.03.2021
1323 Clear -21 1015 77 10000 3.09 360 17:26 18.03.2021
1324 Clear -21 1015 77 10000 1.54 0 16:49 18.03.2021
1325 Clear -21 1015 77 10000 1.54 0 16:30 18.03.2021
1326 Clear -18 1014 65 10000 3.09 360 15:48 18.03.2021
1327 Clear -18 1014 65 10000 3.09 360 15:28 18.03.2021
1328 Clear -18 1014 71 10000 6.17 340 14:55 18.03.2021
1329 Clear -18 1014 71 10000 6.17 340 14:33 18.03.2021
1330 Clouds -17 1013 71 10000 5.14 350 13:53 18.03.2021
1331 Clouds -17 1013 71 10000 5.14 350 13:26 18.03.2021
1332 Clouds -16 1012 72 10000 8.23 360 12:45 18.03.2021
1333 Clouds -16 1012 72 10000 8.23 360 12:26 18.03.2021
1334 Clouds -16 1012 72 10000 8.23 360 12:26 18.03.2021
1335 Clear -15 1011 61 10000 5.14 320 11:55 18.03.2021
1336 Clear -15 1011 61 10000 5.14 320 11:34 18.03.2021
1337 Clouds -15 1011 66 10000 6.69 350 10:49 18.03.2021
1338 Clouds -15 1011 66 10000 6.69 350 10:27 18.03.2021
1339 Clouds -16 1010 66 10000 2.57 310 09:57 18.03.2021
1340 Clouds -16 1010 66 10000 2.57 310 09:30 18.03.2021
1341 Clear -16 1009 72 10000 3.09 40 08:55 18.03.2021
1342 Clear -16 1009 72 10000 3.09 40 08:33 18.03.2021
1343 Clear -16 1008 71 10000 2.41 318 07:54 18.03.2021
1344 Clear -18 1008 71 10000 2.25 321 07:29 18.03.2021
1345 Clear -15 1007 72 10000 4.12 330 06:37 18.03.2021
1346 Clear -15 1007 72 10000 4.12 330 06:18 18.03.2021
1347 Clouds -12 1005 67 10000 5.14 330 03:41 18.03.2021
1348 Clear -13 1004 66 10000 5.14 360 00:38 18.03.2021
1349 Clear -14 1003 61 10000 4.12 330 22:59 17.03.2021
1350 Clear -14 1003 61 10000 4.12 330 22:36 17.03.2021
1351 Clear -14 1003 61 10000 4.12 330 22:18 17.03.2021
1352 Clear -16 1002 66 10000 7.2 300 21:47 17.03.2021
1353 Clear -16 1002 66 10000 7.2 300 21:29 17.03.2021
1354 Clear -17 1002 71 10000 3.86 318 20:45 17.03.2021
1355 Clear -16 1002 71 10000 4 316 20:25 17.03.2021
1356 Clouds -16 1002 66 10000 6.69 300 19:54 17.03.2021
1357 Clouds -16 1002 66 10000 6.69 300 19:25 17.03.2021
1358 Clouds -15 1002 66 10000 4.12 280 18:59 17.03.2021
1359 Clouds -16 1002 66 10000 4.12 280 18:40 17.03.2021
1360 Clouds -14 1002 72 10000 4.12 340 17:58 17.03.2021
1361 Clouds -14 1002 72 10000 4.12 340 17:27 17.03.2021
1362 Clouds -13 1001 78 10000 3.09 340 16:57 17.03.2021
1363 Clouds -13 1001 78 10000 3.09 340 16:37 17.03.2021
1364 Clouds -13 1001 78 10000 3.09 340 16:19 17.03.2021
1365 Mist -13 1001 78 9656 4.63 330 15:40 17.03.2021
1366 Clouds -13 1001 85 10000 4.63 360 14:46 17.03.2021
1367 Clouds -13 1001 85 10000 4.63 360 14:28 17.03.2021
1368 Clouds -13 1002 85 10000 3.6 350 13:56 17.03.2021
1369 Snow -12 1002 78 6437 2.57 30 13:38 17.03.2021
1370 Mist -11 1002 85 2816 3.6 40 12:59 17.03.2021
1371 Snow -11 1002 85 2816 3.6 40 12:34 17.03.2021
1372 Snow -11 1003 85 2012 5.66 80 11:54 17.03.2021
1373 Snow -11 1003 85 2012 5.66 80 11:27 17.03.2021
1374 Snow -11 1003 92 1609 5.66 80 10:59 17.03.2021
1375 Snow -11 1004 85 805 5.14 70 10:40 17.03.2021
1376 Snow -11 1005 92 1207 3.6 90 09:59 17.03.2021
1377 Snow -11 1005 92 1207 3.6 90 09:41 17.03.2021
1378 Mist -11 1005 92 1207 3.6 90 09:20 17.03.2021
1379 Snow -11 1005 85 3219 4.12 120 08:44 17.03.2021
1380 Snow -11 1006 85 1609 3.09 150 08:25 17.03.2021
1381 Snow -11 1007 85 2414 3.6 180 07:37 17.03.2021
1382 Snow -10 1007 85 6437 5.14 180 06:48 17.03.2021
1383 Mist -10 1008 86 1207 3.09 210 05:28 17.03.2021
1384 Snow -10 1010 85 10000 1.54 110 03:31 17.03.2021
1385 Snow -11 1012 85 2012 2.3 228 01:19 17.03.2021
1386 Snow -11 1012 85 10000 2.54 228 00:33 17.03.2021
1387 Mist -12 1012 78 6437 1.54 220 23:26 16.03.2021
1388 Clouds -12 1011 78 10000 1.54 50 22:45 16.03.2021
1389 Clouds -12 1011 78 10000 1.54 50 22:26 16.03.2021
1390 Mist -15 1012 78 9656 1.54 360 21:44 16.03.2021
1391 Mist -15 1012 78 9656 1.54 360 21:26 16.03.2021
1392 Mist -15 1012 85 9656 1.54 10 20:57 16.03.2021
1393 Mist -16 1011 84 1609 3.09 220 20:19 16.03.2021
1394 Mist -17 1011 92 9656 0.33 274 19:48 16.03.2021
1395 Mist -18 1011 92 9656 0.4 284 19:29 16.03.2021
1396 Mist -18 1012 84 1609 0.29 346 18:57 16.03.2021
1397 Mist -18 1012 84 1609 0.29 346 18:38 16.03.2021
1398 Mist -20 1011 84 805 0.53 287 17:59 16.03.2021
1399 Mist -21 1011 84 805 0.53 287 17:40 16.03.2021
1400 Fog -20 1011 84 805 0.66 300 17:20 16.03.2021
1401 Haze -20 1011 77 805 0.66 300 16:46 16.03.2021
1402 Clouds -19 1011 78 10000 0.6 322 16:25 16.03.2021
1403 Mist -20 1010 84 4828 1.54 60 15:45 16.03.2021
1404 Mist -21 1010 84 2816 0.75 16 15:20 16.03.2021
1405 Clouds -20 1010 84 10000 0.75 16 14:56 16.03.2021
1406 Mist -19 1010 78 4828 1.54 260 14:38 16.03.2021
1407 Mist -19 1009 84 2414 1.02 12 14:18 16.03.2021
1408 Mist -19 1009 84 4828 1.02 12 13:42 16.03.2021
1409 Mist -19 1009 84 2816 0.96 350 13:21 16.03.2021
1410 Fog -18 1009 85 402 1.54 350 12:43 16.03.2021
1411 Mist -16 1009 85 1609 2.06 320 12:23 16.03.2021
1412 Fog -13 1009 92 402 0.8 325 11:36 16.03.2021
1413 Clouds -14 1009 85 10000 1.54 280 10:53 16.03.2021
1414 Clouds -14 1009 85 10000 1.54 280 10:53 16.03.2021
1415 Clouds -13 1008 92 10000 0.9 292 10:22 16.03.2021
1416 Clouds -14 1008 85 10000 2.06 320 09:47 16.03.2021
1417 Clouds -14 1008 85 10000 2.06 320 09:24 16.03.2021
1418 Clouds -13 1008 92 10000 0.73 297 08:57 16.03.2021
1419 Clouds -13 1008 92 10000 0.73 297 08:39 16.03.2021
1420 Clouds -11 1007 92 10000 2.06 260 07:57 16.03.2021
1421 Clouds -10 1007 92 10000 0.9 297 07:30 16.03.2021
1422 Snow -11 1007 86 4828 0.74 296 06:39 16.03.2021
1423 Snow -7 1006 86 4828 1.54 110 05:37 16.03.2021
1424 Snow -8 1006 86 4828 1.54 110 05:18 16.03.2021
1425 Snow -6 1005 86 4828 1.54 100 02:44 16.03.2021
1426 Snow -6 1005 86 4828 2.06 100 01:59 16.03.2021
1427 Snow -6 1004 79 4828 4.12 80 23:56 15.03.2021
1428 Snow -7 1004 86 4828 4.63 70 23:28 15.03.2021
1429 Snow -7 1004 86 4828 5.14 80 22:50 15.03.2021
1430 Mist -7 1004 86 4828 3.6 80 22:31 15.03.2021
1431 Mist -7 1003 86 3219 5.14 80 21:54 15.03.2021
1432 Snow -7 1003 86 3219 5.14 80 21:34 15.03.2021
1433 Clouds -7 1003 86 10000 5.14 80 20:57 15.03.2021
1434 Clouds -7 1003 86 10000 5.14 80 20:57 15.03.2021
1435 Snow -8 1003 93 4828 6.17 80 20:39 15.03.2021
1436 Snow -8 1003 93 4828 6.17 80 20:20 15.03.2021
1437 Snow -8 1003 93 2414 6.17 80 19:49 15.03.2021
1438 Snow -8 1003 93 2414 6.17 80 19:49 15.03.2021
1439 Snow -8 1003 93 4023 5.66 80 19:31 15.03.2021
1440 Snow -7 1002 86 2816 7.2 80 18:50 15.03.2021
1441 Snow -7 1002 86 2816 7.2 80 18:26 15.03.2021
1442 Clouds -7 1002 86 10000 7.72 80 17:56 15.03.2021
1443 Clouds -7 1002 86 10000 6.17 80 17:32 15.03.2021
1444 Snow -7 1002 93 10000 5.14 80 16:50 15.03.2021
1445 Snow -7 1002 93 10000 5.14 80 16:32 15.03.2021
1446 Clouds -7 1001 93 10000 5.66 80 15:45 15.03.2021
1447 Clouds -7 1001 93 10000 5.66 80 15:26 15.03.2021
1448 Snow -7 1001 93 9656 5.66 80 14:44 15.03.2021
1449 Mist -7 1001 93 9656 5.66 80 14:23 15.03.2021
1450 Snow -7 1001 93 8047 5.14 80 13:47 15.03.2021
1451 Snow -7 1001 93 8047 5.14 80 13:25 15.03.2021
1452 Snow -7 1001 93 4023 6.17 80 12:49 15.03.2021
1453 Snow -7 1001 93 4023 5.14 90 12:20 15.03.2021
1454 Snow -7 1001 93 10000 6.69 80 11:52 15.03.2021
1455 Snow -7 1001 93 10000 6.69 80 11:33 15.03.2021
1456 Snow -7 1001 93 10000 6.17 80 10:55 15.03.2021
1457 Snow -7 1001 93 10000 6.17 80 10:31 15.03.2021
1458 Snow -7 1001 93 4828 6.17 80 09:53 15.03.2021
1459 Mist -7 1001 93 4828 6.17 80 09:35 15.03.2021
1460 Snow -6 1000 86 2414 7.2 80 08:54 15.03.2021
1461 Snow -6 1000 86 2414 7.2 80 08:34 15.03.2021
1462 Snow -6 1000 86 1609 6.17 80 07:55 15.03.2021
1463 Snow -7 1000 93 1609 6.17 80 07:32 15.03.2021
1464 Snow -6 1000 93 1609 6.69 110 06:41 15.03.2021
1465 Snow -7 1000 93 3219 6.17 130 05:33 15.03.2021
1466 Snow -6 1000 86 4023 7.2 120 01:47 15.03.2021
1467 Snow -6 1000 86 1207 8.75 90 23:59 14.03.2021
1468 Snow -6 1000 86 1609 6.17 90 23:21 14.03.2021
1469 Snow -7 1000 86 1609 6.69 90 22:47 14.03.2021
1470 Snow -6 1000 93 3219 6.17 110 22:23 14.03.2021
1471 Snow -6 1000 93 3219 6.17 110 22:23 14.03.2021
1472 Snow -6 999 93 9656 5.66 120 21:49 14.03.2021
1473 Snow -6 999 93 9656 5.66 120 21:20 14.03.2021
1474 Snow -6 998 93 4828 6.69 130 20:50 14.03.2021
1475 Snow -6 998 93 4828 6.69 130 20:27 14.03.2021
1476 Snow -6 998 93 4828 6.69 130 19:50 14.03.2021
1477 Snow -6 998 93 3219 6.69 130 19:24 14.03.2021
1478 Snow -6 998 93 4828 6.69 120 18:58 14.03.2021
1479 Snow -6 998 93 4828 6.69 120 18:28 14.03.2021
1480 Snow -6 997 86 3219 6.69 110 17:41 14.03.2021
1481 Snow -7 997 86 4023 7.72 80 17:23 14.03.2021
1482 Snow -8 997 93 8047 7.72 80 16:52 14.03.2021
1483 Snow -9 997 93 8047 7.72 80 16:32 14.03.2021
1484 Snow -9 997 79 4023 8.23 80 15:57 14.03.2021
1485 Snow -9 997 79 4023 8.23 80 15:39 14.03.2021
1486 Snow -10 997 79 1207 9.26 80 14:42 14.03.2021
1487 Snow -10 997 79 1609 9.26 90 14:23 14.03.2021
1488 Snow -11 997 85 1207 12.86 90 13:50 14.03.2021
1489 Snow -11 997 85 1207 12.86 90 13:29 14.03.2021
1490 Snow -11 997 85 805 12.86 90 12:47 14.03.2021
1491 Snow -11 998 85 1207 12.86 90 12:29 14.03.2021
1492 Snow -11 998 85 805 13.38 100 11:54 14.03.2021
1493 Snow -11 998 85 805 11.32 100 11:36 14.03.2021
1494 Snow -11 998 85 805 12.86 100 10:58 14.03.2021
1495 Snow -11 998 85 805 12.86 100 10:37 14.03.2021
1496 Snow -11 999 85 402 15.43 90 10:18 14.03.2021
1497 Snow -11 999 85 402 14.92 90 09:44 14.03.2021
1498 Snow -11 999 85 402 15.95 90 09:22 14.03.2021
1499 Snow -11 999 85 805 15.43 90 08:49 14.03.2021
1500 Fog -11 1000 85 805 15.43 90 08:31 14.03.2021
1501 Snow -11 1000 85 402 13.38 100 07:47 14.03.2021
1502 Snow -11 1001 73 8047 13.38 100 07:19 14.03.2021
1503 Snow -11 1003 67 9656 13.89 90 05:32 14.03.2021
1504 Clouds -13 1013 72 10000 10.8 90 00:53 14.03.2021
1505 Clouds -13 1013 72 10000 10.8 90 00:20 14.03.2021
1506 Clear -13 1015 66 10000 10.29 90 23:53 13.03.2021
1507 Clear -13 1015 66 10000 10.29 90 23:35 13.03.2021
1508 Clouds -13 1016 66 10000 10.29 90 22:55 13.03.2021
1509 Clouds -13 1016 66 10000 10.29 90 22:36 13.03.2021
1510 Clouds -14 1017 66 10000 10.8 90 21:49 13.03.2021
1511 Clouds -14 1017 66 10000 10.8 90 21:27 13.03.2021
1512 Clouds -14 1018 72 10000 10.8 90 20:54 13.03.2021
1513 Clouds -13 1018 72 10000 10.8 90 20:32 13.03.2021
1514 Clouds -14 1019 72 10000 10.8 90 19:56 13.03.2021
1515 Clouds -13 1019 72 10000 10.8 90 19:32 13.03.2021
1516 Clouds -13 1020 72 10000 11.32 100 18:58 13.03.2021
1517 Clouds -13 1020 72 10000 11.32 100 18:40 13.03.2021
1518 Clouds -16 1017 78 10000 8.11 82 18:18 13.03.2021
1519 Clouds -14 1020 85 10000 4.02 140 17:44 13.03.2021
1520 Clouds -13 1022 78 10000 10.8 90 17:25 13.03.2021
1521 Clouds -13 1022 78 10000 10.8 90 16:45 13.03.2021
1522 Clouds -13 1022 78 10000 10.8 90 16:27 13.03.2021
1523 Clouds -13 1022 86 10000 3.13 134 15:41 13.03.2021
1524 Clouds -13 1023 86 766 4.02 129 14:51 13.03.2021
1525 Clouds -13 1025 78 10000 11.32 90 14:32 13.03.2021
1526 Clouds -13 1025 78 10000 11.32 90 13:54 13.03.2021
1527 Clouds -13 1025 78 10000 11.32 90 13:25 13.03.2021
1528 Clouds -13 1025 78 10000 11.32 90 12:47 13.03.2021
1529 Clouds -13 1025 78 10000 11.32 90 12:28 13.03.2021
1530 Clouds -13 1026 78 10000 11.83 90 11:51 13.03.2021
1531 Clouds -13 1026 78 10000 11.83 90 11:30 13.03.2021
1532 Haze -14 1027 78 9656 10.29 90 10:51 13.03.2021
1533 Haze -14 1027 78 9656 10.29 90 10:51 13.03.2021
1534 Haze -14 1027 78 9656 10.29 90 10:30 13.03.2021
1535 Snow -14 1028 78 6437 9.77 90 09:48 13.03.2021
1536 Snow -14 1028 78 6437 9.77 90 09:24 13.03.2021
1537 Mist -15 1028 78 6437 10.8 90 08:44 13.03.2021
1538 Snow -15 1028 78 6437 10.8 90 08:20 13.03.2021
1539 Snow -16 1029 85 6437 9.77 90 07:54 13.03.2021
1540 Mist -16 1030 85 4828 10.8 90 06:53 13.03.2021
1541 Mist -17 1032 85 1207 9.77 80 02:56 13.03.2021
1542 Mist -17 1032 85 1207 9.77 80 02:56 13.03.2021
1543 Mist -17 1035 71 3219 8.75 80 01:20 13.03.2021
1544 Haze -18 1035 71 6437 8.75 70 23:59 12.03.2021
1545 Haze -18 1035 71 6437 8.75 70 23:32 12.03.2021
1546 Haze -18 1035 71 8047 7.2 80 22:50 12.03.2021
1547 Haze -18 1035 71 8047 7.2 80 22:29 12.03.2021
1548 Haze -18 1035 78 6437 7.2 80 21:46 12.03.2021
1549 Haze -18 1035 78 6437 7.2 80 21:27 12.03.2021
1550 Haze -19 1035 78 9656 5.66 80 21:00 12.03.2021
1551 Haze -19 1035 78 9656 5.66 80 20:40 12.03.2021
1552 Haze -19 1035 78 9656 5.66 80 20:18 12.03.2021
1553 Clouds -19 1035 78 10000 5.66 80 19:42 12.03.2021
1554 Clouds -19 1035 78 10000 5.66 80 19:24 12.03.2021
1555 Clouds -19 1035 78 10000 4.63 80 18:36 12.03.2021
1556 Clouds -19 1035 78 10000 4.63 80 18:36 12.03.2021
1557 Clouds -21 1035 78 10000 4.63 80 18:18 12.03.2021
1558 Clouds -21 1035 78 10000 5.14 80 17:40 12.03.2021
1559 Clouds -22 1035 78 10000 5.14 80 17:22 12.03.2021
1560 Clouds -22 1035 77 10000 4.12 90 16:42 12.03.2021
1561 Clouds -23 1035 77 10000 4.12 90 16:18 12.03.2021
1562 Clouds -23 1035 77 10000 4.63 80 15:37 12.03.2021
1563 Clouds -23 1035 84 10000 3.09 80 14:49 12.03.2021
1564 Clouds -23 1035 84 10000 3.09 80 14:22 12.03.2021
1565 Clouds -23 1035 77 10000 3.6 80 13:54 12.03.2021
1566 Clouds -23 1035 77 10000 3.6 80 13:36 12.03.2021
1567 Clouds -23 1035 84 10000 3.09 90 13:18 12.03.2021
1568 Clouds -24 1034 84 10000 1.44 82 12:42 12.03.2021
1569 Clouds -24 1034 84 10000 1.24 86 12:23 12.03.2021
1570 Clouds -24 1034 77 10000 1.54 80 11:52 12.03.2021
1571 Clouds -24 1034 77 10000 1.54 80 11:24 12.03.2021
1572 Clouds -25 1034 77 10000 1.01 86 10:55 12.03.2021
1573 Clouds -25 1034 77 10000 1.09 84 10:26 12.03.2021
1574 Clouds -27 1033 77 10000 1.09 84 09:57 12.03.2021
1575 Clouds -25 1033 77 10000 0.69 106 09:26 12.03.2021
1576 Clouds -25 1033 77 10000 1.54 30 08:46 12.03.2021
1577 Clouds -28 1032 76 10000 1.54 30 07:59 12.03.2021
1578 Clouds -28 1032 76 10000 1.54 30 07:38 12.03.2021
1579 Clear -27 1031 77 10000 0.8 84 06:57 12.03.2021
1580 Clear -27 1031 77 10000 0.14 154 06:28 12.03.2021
1581 Haze -22 1029 77 8047 3.09 250 02:58 12.03.2021
1582 Clear -24 1028 84 10000 0.72 212 00:51 12.03.2021
1583 Clear -25 1027 84 10000 0.51 170 23:34 11.03.2021
1584 Clear -26 1027 91 10000 0.52 100 22:51 11.03.2021
1585 Clear -27 1027 91 10000 0.52 100 22:31 11.03.2021
1586 Clear -27 1026 83 10000 0.72 61 21:56 11.03.2021
1587 Clear -27 1026 83 10000 0.72 61 21:37 11.03.2021
1588 Clear -28 1026 83 10000 1.13 53 21:19 11.03.2021
1589 Clear -31 1026 83 10000 1.13 53 20:41 11.03.2021
1590 Clear -31 1026 83 10000 1.44 47 20:19 11.03.2021
1591 Clear -29 1025 69 10000 1.44 47 19:45 11.03.2021
1592 Clear -29 1025 69 10000 1.59 48 19:26 11.03.2021
1593 Clear -31 1025 76 10000 3.09 20 18:48 11.03.2021
1594 Clear -31 1025 76 10000 3.09 20 18:29 11.03.2021
1595 Clear -31 1025 76 10000 1.54 59 17:44 11.03.2021
1596 Clouds -31 1024 83 10000 1.58 63 16:54 11.03.2021
1597 Clouds -31 1024 83 10000 1.82 57 16:28 11.03.2021
1598 Clouds -32 1024 83 10000 1.82 57 15:49 11.03.2021
1599 Clouds -32 1024 83 10000 1.87 57 15:22 11.03.2021
1600 Clear -31 1025 76 10000 1.87 57 14:49 11.03.2021
1601 Clear -31 1025 76 10000 1.53 62 14:20 11.03.2021
1602 Clear -30 1024 76 10000 2.57 30 13:59 11.03.2021
1603 Clear -30 1024 76 10000 2.57 30 13:38 11.03.2021
1604 Clear -30 1024 76 10000 2.57 30 13:18 11.03.2021
1605 Clear -31 1024 83 10000 1.44 57 12:43 11.03.2021
1606 Clear -31 1024 83 10000 1.53 51 12:25 11.03.2021
1607 Clear -32 1025 83 10000 1.53 51 11:43 11.03.2021
1608 Clear -32 1025 83 10000 1.32 44 11:25 11.03.2021
1609 Clear -32 1025 83 10000 1.54 350 10:42 11.03.2021
1610 Clear -32 1025 83 10000 1.54 350 10:20 11.03.2021
1611 Clouds -31 1025 76 10000 2.06 10 09:44 11.03.2021
1612 Clouds -31 1025 76 10000 2.06 10 09:23 11.03.2021
1613 Clouds -30 1025 69 10000 1.1 346 08:47 11.03.2021
1614 Clouds -30 1025 69 10000 1.15 317 08:19 11.03.2021
1615 Clouds -29 1024 69 10000 1.15 317 07:30 11.03.2021
1616 Clear -26 1024 64 10000 1.54 10 06:50 11.03.2021
1617 Clear -26 1024 64 10000 1.54 10 06:30 11.03.2021
1618 Clear -23 1024 59 10000 4.12 270 04:43 11.03.2021
1619 Clear -23 1024 59 10000 5.66 290 01:20 11.03.2021
1620 Clear -26 1023 76 10000 6.69 260 23:48 10.03.2021
1621 Clear -26 1023 76 10000 6.69 260 23:19 10.03.2021
1622 Clear -26 1023 76 10000 6.69 260 23:19 10.03.2021
1623 Clear -26 1023 64 10000 5.66 280 22:39 10.03.2021
1624 Clear -26 1023 64 10000 5.66 280 22:39 10.03.2021
1625 Clear -27 1022 69 10000 6.17 270 21:47 10.03.2021
1626 Clear -27 1022 69 10000 6.17 270 21:26 10.03.2021
1627 Clear -28 1022 76 10000 7.72 270 20:58 10.03.2021
1628 Clear -28 1022 76 10000 7.72 270 20:37 10.03.2021
1629 Clear -28 1022 76 10000 7.72 270 20:19 10.03.2021
1630 Clear -28 1021 69 10000 3.6 260 19:39 10.03.2021
1631 Clear -28 1021 69 10000 3.6 260 19:20 10.03.2021
1632 Clear -28 1021 69 10000 5.14 280 18:37 10.03.2021
1633 Clear -28 1021 69 10000 5.14 280 18:18 10.03.2021
1634 Clear -27 1020 69 10000 4.63 280 17:41 10.03.2021
1635 Clear -27 1020 69 10000 4.63 280 17:19 10.03.2021
1636 Clear -27 1020 69 10000 3.6 270 16:52 10.03.2021
1637 Clear -27 1020 69 10000 3.6 270 16:29 10.03.2021
1638 Clear -27 1019 69 10000 4.63 290 15:54 10.03.2021
1639 Clear -27 1019 69 10000 4.63 290 15:36 10.03.2021
1640 Clear -27 1019 69 10000 4.63 290 15:18 10.03.2021
1641 Clear -27 1019 76 8095 5.66 290 14:23 10.03.2021
1642 Clear -24 1018 64 8095 8.23 280 13:58 10.03.2021
1643 Clear -24 1018 64 8095 8.23 280 13:34 10.03.2021
1644 Clear -23 1017 77 10000 7.2 280 12:53 10.03.2021
1645 Clear -23 1017 77 10000 7.2 280 12:32 10.03.2021
1646 Clouds -21 1017 77 10000 7.2 270 11:56 10.03.2021
1647 Clouds -21 1017 77 10000 7.2 270 11:29 10.03.2021
1648 Clouds -21 1016 84 10000 7.72 270 10:56 10.03.2021
1649 Clouds -21 1016 84 10000 7.72 270 10:34 10.03.2021
1650 Clear -19 1015 78 10000 7.2 280 09:57 10.03.2021
1651 Clear -18 1015 78 10000 7.2 280 09:38 10.03.2021
1652 Clear -18 1015 78 10000 7.2 280 09:19 10.03.2021
1653 Clouds -16 1015 85 10000 7.2 280 08:45 10.03.2021
1654 Clouds -16 1014 78 10000 7.72 280 08:27 10.03.2021
1655 Snow -13 1013 78 8047 11.83 280 07:44 10.03.2021
1656 Snow -13 1012 85 154 8.75 290 07:25 10.03.2021
1657 Snow -12 1011 92 402 15.43 280 06:52 10.03.2021
1658 Clear -7 1012 86 10000 5.66 80 02:45 10.03.2021
1659 Clouds -8 1014 100 10000 5.14 80 00:39 10.03.2021
1660 Clouds -8 1014 93 10000 5.14 80 23:45 09.03.2021
1661 Clouds -9 1014 92 10000 5.14 80 22:56 09.03.2021
1662 Clouds -9 1014 92 10000 5.14 80 22:37 09.03.2021
1663 Clouds -9 1014 92 10000 5.14 80 22:18 09.03.2021
1664 Clouds -9 1014 92 10000 4.63 90 21:42 09.03.2021
1665 Clouds -10 1014 92 10000 4.63 90 21:20 09.03.2021
1666 Clouds -10 1014 92 10000 4.12 80 20:55 09.03.2021
1667 Clouds -11 1014 92 10000 4.12 80 20:37 09.03.2021
1668 Clouds -11 1014 92 10000 4.12 80 20:18 09.03.2021
1669 Clouds -12 1013 92 10000 3.09 100 19:43 09.03.2021
1670 Clouds -12 1013 92 10000 3.09 100 19:24 09.03.2021
1671 Clouds -13 1013 92 10000 2.06 80 18:42 09.03.2021
1672 Clouds -13 1013 92 10000 2.06 80 18:19 09.03.2021
1673 Clouds -14 1013 92 10000 2.06 80 17:46 09.03.2021
1674 Clouds -12 1013 96 2779 0.09 202 17:26 09.03.2021
1675 Clouds -12 1013 96 2779 0.09 202 16:41 09.03.2021
1676 Snow -12 1012 96 282 0.82 209 16:21 09.03.2021
1677 Snow -15 1012 96 282 0.82 209 15:56 09.03.2021
1678 Clouds -14 1012 96 315 1.28 227 15:25 09.03.2021
1679 Clouds -14 1012 96 315 1.28 227 14:52 09.03.2021
1680 Clouds -12 1012 96 6515 1.38 211 14:26 09.03.2021
1681 Clouds -11 1011 96 6515 1.38 211 13:42 09.03.2021
1682 Clouds -9 1011 96 6272 2.06 214 13:21 09.03.2021
1683 Clouds -9 1010 96 6272 2.06 214 12:54 09.03.2021
1684 Clouds -8 1010 96 6272 2.06 214 12:35 09.03.2021
1685 Snow -11 1011 96 199 2.59 203 11:44 09.03.2021
1686 Clouds -12 1010 95 515 2.33 189 11:22 09.03.2021
1687 Clouds -12 1010 95 515 2.33 189 10:59 09.03.2021
1688 Clouds -8 1008 95 515 2.33 189 10:39 09.03.2021
1689 Clouds -9 1008 94 10000 1.93 196 10:20 09.03.2021
1690 Clouds -9 1007 92 10000 2.06 170 09:46 09.03.2021
1691 Clouds -9 1007 92 10000 2.06 170 09:27 09.03.2021
1692 Clouds -10 1006 92 10000 2.06 200 08:57 09.03.2021
1693 Clouds -10 1006 92 10000 2.06 200 08:32 09.03.2021
1694 Clouds -9 1005 93 10000 5.66 250 07:46 09.03.2021
1695 Clouds -8 1005 93 10000 5.66 250 07:26 09.03.2021
1696 Clouds -7 1003 93 10000 4.12 240 06:55 09.03.2021
1697 Clouds -7 1002 93 10000 9.26 250 05:53 09.03.2021
1698 Clouds -2 996 86 10000 3.09 220 01:32 09.03.2021
1699 Clouds -2 996 86 10000 3.09 220 01:32 09.03.2021
1700 Clouds -2 996 86 10000 3.09 220 01:32 09.03.2021
1701 Clouds -2 996 86 10000 3.09 220 01:32 09.03.2021
1702 Clouds -2 996 86 10000 3.09 220 01:32 09.03.2021
1703 Clouds 0 993 100 10000 4.12 260 23:58 08.03.2021
1704 Clouds 0 993 100 10000 4.12 260 23:39 08.03.2021
1705 Clouds 0 993 100 10000 4.12 260 23:18 08.03.2021
1706 Snow 0 992 100 2414 6.69 150 22:40 08.03.2021
1707 Snow 0 992 100 2414 6.69 150 22:21 08.03.2021
1708 Snow 0 992 100 1207 10.29 150 21:48 08.03.2021
1709 Snow 0 992 100 1207 10.29 150 21:29 08.03.2021
1710 Snow 0 991 100 1207 10.29 150 20:40 08.03.2021
1711 Snow 0 991 100 1207 10.29 150 20:21 08.03.2021
1712 Snow 0 991 100 805 12.86 150 19:45 08.03.2021
1713 Snow 0 991 100 805 12.86 150 19:20 08.03.2021
1714 Snow 0 992 100 3219 12.86 150 18:37 08.03.2021
1715 Snow 0 992 100 3219 12.86 150 18:19 08.03.2021
1716 Snow 0 992 100 4828 15.43 140 17:43 08.03.2021
1717 Snow 0 992 98 96 14.25 150 17:22 08.03.2021
1718 Snow 0 993 98 96 14.25 150 16:42 08.03.2021
1719 Snow 0 993 98 119 13.66 148 16:22 08.03.2021
1720 Snow 0 994 98 119 13.66 148 15:42 08.03.2021
1721 Snow -1 994 98 123 14.62 148 15:23 08.03.2021
1722 Snow -1 995 98 81 14.55 146 14:22 08.03.2021
1723 Snow -1 995 98 81 14.55 146 14:22 08.03.2021
1724 Snow -1 996 98 81 14.55 146 13:58 08.03.2021
1725 Snow -1 996 96 57 13.76 146 13:24 08.03.2021
1726 Snow -1 997 96 57 13.76 146 12:58 08.03.2021
1727 Snow -1 997 96 57 13.76 146 12:35 08.03.2021
1728 Snow -1 998 98 74 13.6 146 11:55 08.03.2021
1729 Snow -1 998 98 74 13.6 146 11:34 08.03.2021
1730 Snow -1 999 98 93 13.57 148 10:57 08.03.2021
1731 Snow -1 999 98 93 13.57 148 10:39 08.03.2021
1732 Snow -1 999 98 108 13.66 149 10:18 08.03.2021
1733 Snow -1 1000 98 110 13.88 150 09:27 08.03.2021
1734 Snow 0 1000 100 805 13.38 130 08:52 08.03.2021
1735 Snow 0 1000 100 805 13.38 130 08:25 08.03.2021
1736 Snow 0 1001 100 805 15.43 130 07:22 08.03.2021
1737 Snow 0 1002 93 1207 18.01 130 05:46 08.03.2021
1738 Snow 0 1005 93 4828 11.83 140 02:43 08.03.2021
1739 Snow -1 1006 93 1609 10.29 140 00:43 08.03.2021
1740 Snow -1 1007 93 4828 10.8 130 23:53 07.03.2021
1741 Snow -1 1007 93 4828 10.8 130 23:22 07.03.2021
1742 Mist -1 1007 93 4828 12.86 130 22:49 07.03.2021
1743 Mist -1 1007 93 4828 12.86 130 22:28 07.03.2021
1744 Mist -1 1008 93 8047 6.69 110 21:56 07.03.2021
1745 Mist -1 1008 93 8047 6.69 110 21:34 07.03.2021
1746 Mist -2 1008 93 4828 7.72 120 20:59 07.03.2021
1747 Mist -2 1008 93 4828 7.72 120 20:41 07.03.2021
1748 Mist -2 1008 93 4828 7.72 120 20:19 07.03.2021
1749 Mist -2 1009 100 4828 5.14 100 19:41 07.03.2021
1750 Mist -2 1009 100 4828 5.14 100 19:22 07.03.2021
1751 Mist -3 1009 100 4828 5.66 100 18:56 07.03.2021
1752 Mist -3 1009 100 4828 5.66 100 18:38 07.03.2021
1753 Mist -3 1009 100 4828 5.66 100 18:18 07.03.2021
1754 Mist -5 1009 100 3219 6.69 70 17:39 07.03.2021
1755 Mist -5 1009 100 3219 6.69 70 17:19 07.03.2021
1756 Clouds -6 1009 98 2174 3.62 125 16:43 07.03.2021
1757 Snow -6 1009 98 742 2.47 95 16:21 07.03.2021
1758 Snow -6 1009 98 742 2.47 95 15:52 07.03.2021
1759 Snow -7 1009 98 742 2.47 95 15:32 07.03.2021
1760 Snow -7 1009 97 212 3.04 76 14:56 07.03.2021
1761 Snow -7 1009 97 152 3.5 69 14:29 07.03.2021
1762 Snow -7 1009 97 152 3.5 69 13:51 07.03.2021
1763 Snow -7 1009 97 152 3.5 69 13:30 07.03.2021
1764 Snow -8 1009 96 109 3.55 71 12:56 07.03.2021
1765 Snow -8 1009 96 109 3.55 71 12:37 07.03.2021
1766 Clouds -9 1009 96 235 3.3 77 12:18 07.03.2021
1767 Clouds -12 1009 94 10000 2.72 80 11:24 07.03.2021
1768 Clouds -12 1009 94 10000 2.72 80 10:55 07.03.2021
1769 Clouds -12 1009 94 10000 2.72 80 10:37 07.03.2021
1770 Clear -13 1008 93 10000 2.54 77 09:54 07.03.2021
1771 Clear -13 1008 93 10000 2.32 73 09:29 07.03.2021
1772 Clouds -6 1006 79 10000 2.32 73 08:59 07.03.2021
1773 Clouds -6 1006 79 10000 2.32 73 08:39 07.03.2021
1774 Clouds -6 1006 79 10000 2.32 73 08:39 07.03.2021
1775 Clouds -6 1006 79 10000 3.19 50 08:21 07.03.2021
1776 Snow -8 1003 93 10000 10.29 50 06:25 07.03.2021
1777 Snow -11 1002 85 402 7.72 80 02:39 07.03.2021
1778 Snow -12 1004 85 1207 6.69 80 00:34 07.03.2021
1779 Snow -13 1005 85 10000 4.63 80 23:40 06.03.2021
1780 Clouds -13 1005 85 10000 4.63 80 23:20 06.03.2021
1781 Clouds -13 1005 85 10000 4.63 80 22:45 06.03.2021
1782 Clouds -14 1005 85 10000 4.63 80 22:21 06.03.2021
1783 Clouds -14 1004 85 10000 6.17 90 21:47 06.03.2021
1784 Clouds -15 1004 85 10000 6.17 90 21:20 06.03.2021
1785 Clouds -17 1004 85 10000 6.69 80 20:43 06.03.2021
1786 Clouds -18 1004 85 10000 6.69 80 20:18 06.03.2021
1787 Clouds -20 1004 85 10000 6.17 80 19:38 06.03.2021
1788 Clouds -17 1004 85 10000 6.17 80 19:18 06.03.2021
1789 Clear -21 1003 84 10000 2.15 85 18:41 06.03.2021
1790 Clear -22 1003 84 10000 1.8 93 18:21 06.03.2021
1791 Clouds -23 1003 92 522 1.8 93 17:54 06.03.2021
1792 Clouds -20 1004 92 522 1.8 93 17:32 06.03.2021
1793 Clouds -20 1004 92 6568 1.43 98 16:58 06.03.2021
1794 Clouds -23 1003 92 6568 1.43 98 16:33 06.03.2021
1795 Clouds -23 1002 92 6860 1.03 96 15:56 06.03.2021
1796 Clouds -22 1002 92 6860 1.03 96 15:38 06.03.2021
1797 Clouds -21 1002 92 10000 0.71 86 15:19 06.03.2021
1798 Clouds -18 1002 92 10000 0.71 86 14:31 06.03.2021
1799 Clouds -20 1003 92 9892 0.06 33 13:55 06.03.2021
1800 Clouds -20 1003 92 9892 0.06 33 13:37 06.03.2021
1801 Clouds -17 1001 92 6461 1.09 236 13:18 06.03.2021
1802 Clouds -17 1000 92 6461 1.09 236 12:42 06.03.2021
1803 Clouds -18 1000 93 1467 2.06 250 12:18 06.03.2021
1804 Clouds -19 999 93 1467 2.06 250 11:38 06.03.2021
1805 Clouds -19 999 93 4125 2.45 251 11:19 06.03.2021
1806 Clouds -21 998 93 4125 2.45 251 10:43 06.03.2021
1807 Clouds -16 998 85 10000 3.05 247 09:57 06.03.2021
1808 Clouds -16 998 85 10000 3.71 218 09:26 06.03.2021
1809 Clouds -16 997 85 10000 3.71 218 08:56 06.03.2021
1810 Clouds -16 997 85 10000 3.71 218 08:31 06.03.2021
1811 Clouds -15 997 85 10000 2.57 270 07:55 06.03.2021
1812 Clouds -16 997 85 10000 2.57 270 07:22 06.03.2021
1813 Clouds -14 996 85 10000 2.57 240 06:27 06.03.2021
1814 Clouds -9 994 86 10000 6.17 170 03:49 06.03.2021
1815 Clouds -10 993 86 10000 5.14 180 01:42 06.03.2021
1816 Snow -9 992 92 10000 3.09 170 00:46 06.03.2021
1817 Snow -9 992 79 9656 4.12 160 23:49 05.03.2021
1818 Snow -9 992 79 9656 4.12 160 23:19 05.03.2021
1819 Snow -9 992 79 9656 4.12 160 23:19 05.03.2021
1820 Snow -11 992 92 4828 4.63 110 22:44 05.03.2021
1821 Snow -11 992 92 4828 4.63 110 22:22 05.03.2021
1822 Snow -11 991 92 3219 5.14 110 21:51 05.03.2021
1823 Snow -11 991 92 3219 5.14 110 21:31 05.03.2021
1824 Snow -11 991 85 1609 7.72 110 20:50 05.03.2021
1825 Mist -12 991 85 1609 7.72 110 20:26 05.03.2021
1826 Mist -12 991 85 1609 7.72 110 20:26 05.03.2021
1827 Clouds -12 991 95 245 5.53 89 19:55 05.03.2021
1828 Snow -12 991 95 505 5.5 85 19:26 05.03.2021
1829 Mist -13 991 85 4828 7.72 80 18:56 05.03.2021
1830 Snow -13 991 85 4828 7.72 80 18:38 05.03.2021
1831 Mist -13 991 85 4828 7.72 80 18:18 05.03.2021
1832 Clouds -12 991 95 347 4.82 91 17:34 05.03.2021
1833 Clouds -11 991 95 574 5.09 88 16:46 05.03.2021
1834 Clouds -16 990 95 3970 4.74 83 16:24 05.03.2021
1835 Clouds -14 990 95 3970 4.74 83 15:56 05.03.2021
1836 Clouds -14 990 95 3970 4.74 83 15:56 05.03.2021
1837 Clouds -14 990 95 3970 4.74 83 15:37 05.03.2021
1838 Clouds -14 990 95 1822 3.9 82 15:18 05.03.2021
1839 Snow -13 991 94 1214 4.25 83 14:38 05.03.2021
1840 Clouds -14 990 95 494 3.52 81 13:55 05.03.2021
1841 Clouds -14 990 95 494 3.52 81 13:55 05.03.2021
1842 Clouds -16 990 98 9604 2.79 80 13:22 05.03.2021
1843 Clouds -16 990 98 9604 2.79 80 12:49 05.03.2021
1844 Clouds -16 989 98 10000 2.03 99 11:54 05.03.2021
1845 Clear -19 988 98 10000 2.03 99 11:36 05.03.2021
1846 Clear -19 988 98 10000 1.3 135 11:18 05.03.2021
1847 Clear -19 988 98 10000 1.3 135 11:18 05.03.2021
1848 Clouds -17 987 98 10000 1.3 135 10:40 05.03.2021
1849 Clouds -16 987 95 10000 1.41 215 10:21 05.03.2021
1850 Clouds -15 986 95 10000 1.41 215 09:47 05.03.2021
1851 Clouds -14 986 92 10000 1.2 225 09:26 05.03.2021
1852 Clouds -14 986 92 10000 1.2 225 09:26 05.03.2021
1853 Clouds -12 984 85 10000 1.2 225 08:41 05.03.2021
1854 Snow -12 984 85 1966 0.61 278 08:22 05.03.2021
1855 Snow -11 984 85 4828 5.14 60 07:39 05.03.2021
1856 Snow -12 983 85 1609 6.69 70 06:56 05.03.2021
1857 Fog -12 983 85 805 7.72 80 06:31 05.03.2021
1858 Snow -14 985 78 402 14.92 90 01:52 05.03.2021
1859 Snow -15 987 85 402 13.89 100 00:34 05.03.2021
1860 Snow -15 988 85 402 14.92 90 23:36 04.03.2021
1861 Snow -16 991 85 402 16.98 90 22:38 04.03.2021
1862 Snow -16 991 85 402 16.98 90 22:19 04.03.2021
1863 Snow -17 992 85 402 14.92 100 21:42 04.03.2021
1864 Snow -17 992 85 402 16.46 100 21:23 04.03.2021
1865 Snow -17 993 78 1609 17.49 90 20:41 04.03.2021
1866 Snow -17 995 71 1609 15.95 100 20:21 04.03.2021
1867 Snow -18 995 78 3219 14.4 100 19:54 04.03.2021
1868 Snow -18 998 78 4828 12.35 100 19:30 04.03.2021
1869 Snow -18 998 78 4828 12.35 100 18:59 04.03.2021
1870 Snow -18 998 78 4828 12.35 100 18:59 04.03.2021
1871 Snow -19 1000 71 6437 11.83 110 18:38 04.03.2021
1872 Clouds -19 1001 71 10000 11.83 110 17:59 04.03.2021
1873 Clouds -20 1002 77 10000 9.77 90 17:40 04.03.2021
1874 Clouds -20 1002 77 10000 9.77 90 17:20 04.03.2021
1875 Clouds -19 1004 78 10000 10.8 90 16:44 04.03.2021
1876 Clouds -19 1004 78 10000 10.8 90 16:44 04.03.2021
1877 Clouds -19 1004 78 10000 10.8 90 16:24 04.03.2021
1878 Clouds -18 1005 71 10000 10.8 100 15:48 04.03.2021
1879 Haze -18 1006 78 9656 10.29 100 15:29 04.03.2021
1880 Clouds -19 1008 78 10000 8.23 90 14:44 04.03.2021
1881 Clouds -19 1008 78 10000 8.23 90 14:18 04.03.2021
1882 Clear -20 1010 77 10000 6.69 80 13:42 04.03.2021
1883 Clear -20 1010 77 10000 6.69 80 13:22 04.03.2021
1884 Clear -20 1012 71 10000 6.69 80 12:42 04.03.2021
1885 Clear -20 1012 71 10000 6.69 80 12:20 04.03.2021
1886 Clouds -19 1013 71 10000 6.69 80 11:42 04.03.2021
1887 Clouds -19 1013 71 10000 6.69 80 11:20 04.03.2021
1888 Clouds -19 1014 71 10000 7.2 80 10:37 04.03.2021
1889 Clouds -19 1014 71 10000 7.2 80 10:18 04.03.2021
1890 Clear -21 1016 71 10000 4.63 70 09:32 04.03.2021
1891 Clear -23 1017 71 10000 4.12 70 08:56 04.03.2021
1892 Clear -23 1017 71 10000 4.12 70 08:32 04.03.2021
1893 Clear -23 1017 71 10000 4.12 60 07:46 04.03.2021
1894 Clear -22 1018 71 10000 3.09 70 06:50 04.03.2021
1895 Clear -22 1018 71 10000 3.09 70 06:21 04.03.2021
1896 Clear -18 1019 60 10000 3.6 90 02:39 04.03.2021
1897 Clear -18 1019 60 10000 3.6 70 00:41 04.03.2021
1898 Clear -22 1019 64 10000 2.06 110 22:41 03.03.2021
1899 Clear -22 1019 64 10000 2.06 110 22:23 03.03.2021
1900 Clear -22 1019 64 10000 0.89 1 21:43 03.03.2021
1901 Clear -24 1019 64 10000 1.19 15 21:24 03.03.2021
1902 Clear -25 1018 64 10000 1.54 110 20:55 03.03.2021
1903 Clear -23 1018 64 10000 1.54 110 20:37 03.03.2021
1904 Clear -25 1018 64 10000 1.29 1 19:57 03.03.2021
1905 Clear -26 1018 64 10000 1.29 1 19:38 03.03.2021
1906 Clear -25 1018 64 10000 1.49 353 19:18 03.03.2021
1907 Clear -21 1017 59 10000 3.6 50 18:41 03.03.2021
1908 Clear -20 1016 54 10000 2.57 10 17:59 03.03.2021
1909 Clear -20 1016 54 10000 2.57 10 17:36 03.03.2021
1910 Clear -20 1016 54 10000 2.57 10 17:18 03.03.2021
1911 Clear -21 1015 65 10000 9.26 360 16:39 03.03.2021
1912 Clear -21 1015 65 10000 9.26 360 16:21 03.03.2021
1913 Clear -22 1015 64 10000 4.63 340 15:33 03.03.2021
1914 Clear -21 1014 59 10000 7.72 360 14:52 03.03.2021
1915 Clear -21 1014 59 10000 7.72 360 14:28 03.03.2021
1916 Clear -21 1013 65 10000 7.2 340 13:52 03.03.2021
1917 Clear -21 1013 65 10000 7.2 340 13:30 03.03.2021
1918 Clear -21 1011 65 10000 4.63 360 12:44 03.03.2021
1919 Clear -21 1011 65 10000 4.63 360 12:24 03.03.2021
1920 Haze -21 1010 71 4828 8.75 350 11:46 03.03.2021
1921 Haze -21 1010 71 4828 8.75 350 11:27 03.03.2021
1922 Clear -21 1009 71 10000 8.23 340 10:47 03.03.2021
1923 Clear -21 1009 71 10000 8.23 340 10:25 03.03.2021
1924 Clear -20 1007 59 10000 8.23 10 09:46 03.03.2021
1925 Clear -21 1006 71 10000 6.69 350 08:59 03.03.2021
1926 Clear -21 1006 71 10000 6.69 350 08:39 03.03.2021
1927 Clear -21 1006 71 10000 6.69 350 08:20 03.03.2021
1928 Clouds -19 1005 65 10000 7.2 350 07:39 03.03.2021
1929 Clouds -18 1003 60 10000 7.2 20 06:47 03.03.2021
1930 Clouds -18 1002 65 10000 8.75 360 05:45 03.03.2021
1931 Clouds -17 1001 60 10000 8.23 10 04:50 03.03.2021
1932 Clouds -17 1001 60 10000 8.23 10 04:25 03.03.2021
1933 Clear -15 998 56 10000 5.66 360 00:44 03.03.2021
1934 Clear -17 997 60 10000 2.06 330 23:53 02.03.2021
1935 Clear -17 996 60 10000 3.08 343 22:58 02.03.2021
1936 Clear -17 996 60 10000 3.08 343 22:40 02.03.2021
1937 Clear -17 996 60 10000 3.02 347 22:18 02.03.2021
1938 Clear -18 995 65 10000 3.02 347 21:39 02.03.2021
1939 Clear -18 995 65 10000 3.06 351 21:19 02.03.2021
1940 Clear -21 994 71 10000 2.57 270 20:45 02.03.2021
1941 Clear -21 994 71 10000 2.57 270 20:22 02.03.2021
1942 Clear -21 993 71 10000 4.12 360 19:50 02.03.2021
1943 Clear -21 993 71 10000 4.12 360 19:32 02.03.2021
1944 Clear -19 993 65 10000 3.09 20 18:58 02.03.2021
1945 Clear -19 993 65 10000 3.09 20 18:39 02.03.2021
1946 Clear -19 993 65 10000 3.09 20 18:20 02.03.2021
1947 Clear -18 992 60 10000 5.14 10 17:40 02.03.2021
1948 Clear -18 992 60 10000 5.14 10 17:20 02.03.2021
1949 Clear -19 991 60 10000 4.63 10 16:49 02.03.2021
1950 Clear -19 991 60 10000 4.63 10 16:20 02.03.2021
1951 Clear -19 991 60 10000 5.66 360 15:47 02.03.2021
1952 Clear -19 991 60 10000 5.66 360 15:21 02.03.2021
1953 Clear -19 991 55 10000 3.29 357 14:21 02.03.2021
1954 Clear -19 990 55 10000 4.12 340 13:48 02.03.2021
1955 Clear -19 990 55 10000 4.12 340 13:28 02.03.2021
1956 Clear -22 990 64 10000 1.54 360 12:51 02.03.2021
1957 Clear -22 990 64 10000 1.54 360 12:29 02.03.2021
1958 Clear -21 990 65 10000 4.12 340 11:53 02.03.2021
1959 Clear -21 990 65 10000 4.12 340 11:30 02.03.2021
1960 Clear -19 990 55 10000 4.04 8 10:57 02.03.2021
1961 Clear -19 990 55 10000 4.04 8 10:31 02.03.2021
1962 Clear -18 989 55 10000 4.63 350 09:44 02.03.2021
1963 Clear -18 989 55 10000 4.63 350 09:25 02.03.2021
1964 Clear -20 989 59 10000 5.14 360 08:56 02.03.2021
1965 Clear -20 989 59 10000 5.14 360 08:35 02.03.2021
1966 Clear -19 990 55 10000 2.57 0 07:52 02.03.2021
1967 Clouds -19 990 60 10000 4.63 20 06:50 02.03.2021
1968 Clouds -18 989 60 10000 7.2 40 05:54 02.03.2021
1969 Clouds -18 989 60 10000 7.2 40 05:33 02.03.2021
1970 Clouds -18 990 60 10000 4.63 20 04:58 02.03.2021
1971 Clouds -16 991 55 10000 4.63 40 01:43 02.03.2021
1972 Clouds -16 991 55 10000 4.63 40 01:22 02.03.2021
1973 Clouds -16 991 55 10000 3.09 40 23:45 01.03.2021
1974 Clouds -16 991 55 10000 3.09 40 23:20 01.03.2021
1975 Clouds -17 991 55 10000 3.6 40 22:39 01.03.2021
1976 Clouds -17 991 55 10000 3.6 40 22:21 01.03.2021
1977 Clouds -17 991 60 10000 5.66 40 21:43 01.03.2021
1978 Clouds -17 991 60 10000 5.66 40 21:23 01.03.2021
1979 Clouds -18 991 65 10000 4.12 10 20:46 01.03.2021
1980 Clouds -18 991 65 10000 4.12 10 20:27 01.03.2021
1981 Clouds -18 991 65 10000 5.66 40 19:45 01.03.2021
1982 Clouds -18 991 65 10000 5.66 40 19:27 01.03.2021
1983 Snow -18 992 65 9656 7.2 40 18:44 01.03.2021
1984 Snow -18 992 65 9656 7.2 40 18:24 01.03.2021
1985 Clouds -18 992 65 10000 6.69 40 17:49 01.03.2021
1986 Clouds -18 992 65 10000 6.69 40 17:24 01.03.2021
1987 Clouds -19 993 65 10000 7.2 40 16:48 01.03.2021
1988 Clouds -19 993 65 10000 7.2 40 16:30 01.03.2021
1989 Clouds -19 994 60 10000 6.17 40 15:58 01.03.2021
1990 Clouds -19 994 60 10000 6.17 40 15:38 01.03.2021
1991 Clouds -19 994 60 10000 6.17 40 15:18 01.03.2021
1992 Clouds -19 995 55 10000 7.72 50 14:40 01.03.2021
1993 Clouds -19 995 55 10000 7.72 50 14:21 01.03.2021
1994 Clouds -20 997 59 10000 7.72 50 13:38 01.03.2021
1995 Clouds -20 997 59 10000 7.72 50 13:20 01.03.2021
1996 Clouds -21 998 65 10000 7.2 50 12:42 01.03.2021
1997 Clouds -21 998 65 10000 7.2 50 12:24 01.03.2021
1998 Clouds -22 1000 64 10000 7.2 50 11:57 01.03.2021
1999 Clouds -22 1000 64 10000 7.2 50 11:29 01.03.2021
2000 Clear -21 1002 65 10000 5.66 40 10:42 01.03.2021
2001 Clear -21 1002 65 10000 5.66 40 10:22 01.03.2021
2002 Clouds -22 1004 71 10000 7.2 60 09:53 01.03.2021
2003 Clouds -21 1004 71 10000 7.2 60 09:31 01.03.2021
2004 Clouds -21 1007 71 10000 5.14 60 08:56 01.03.2021
2005 Clouds -21 1007 71 10000 5.14 60 08:32 01.03.2021
2006 Clouds -21 1008 65 10000 5.14 60 07:32 01.03.2021
2007 Clear -21 1010 54 10000 5.14 60 06:25 01.03.2021
2008 Clear -21 1016 71 10000 2.06 70 02:40 01.03.2021
2009 Clear -23 1018 64 10000 1.32 113 23:49 28.02.2021
2010 Clear -23 1018 64 10000 1.73 55 23:20 28.02.2021
2011 Clear -24 1019 64 10000 1.73 55 22:42 28.02.2021
2012 Clear -24 1019 64 10000 3.22 19 22:20 28.02.2021
2013 Clear -26 1019 64 10000 3.6 20 21:45 28.02.2021
2014 Clear -26 1019 64 10000 3.6 20 21:23 28.02.2021
2015 Clear -28 1020 63 10000 3.6 20 20:46 28.02.2021
2016 Clear -28 1020 63 10000 3.6 20 20:26 28.02.2021
2017 Clear -28 1019 69 10000 2.06 50 19:46 28.02.2021
2018 Clear -29 1019 69 10000 2.06 50 19:27 28.02.2021
2019 Clear -25 1018 58 10000 1.23 3 18:47 28.02.2021
2020 Clear -27 1018 58 10000 2.3 2 18:26 28.02.2021
2021 Clear -23 1018 59 10000 6.17 20 17:56 28.02.2021
2022 Clear -23 1018 59 10000 6.17 20 17:37 28.02.2021
2023 Clear -23 1018 59 10000 6.17 20 17:19 28.02.2021
2024 Clear -26 1018 58 10000 6.69 330 16:46 28.02.2021
2025 Clear -26 1018 58 10000 6.69 330 16:26 28.02.2021
2026 Clear -25 1018 58 10000 3.6 330 15:51 28.02.2021
2027 Clear -25 1018 58 10000 3.6 330 15:26 28.02.2021
2028 Clear -26 1017 64 10000 2.57 0 14:58 28.02.2021
2029 Clear -26 1017 64 10000 2.57 0 14:32 28.02.2021
2030 Clear -26 1017 64 10000 4.63 310 13:58 28.02.2021
2031 Clear -26 1017 64 10000 4.63 310 13:37 28.02.2021
2032 Clear -26 1017 64 10000 4.63 310 13:18 28.02.2021
2033 Clear -23 1016 49 10000 5.66 350 12:51 28.02.2021
2034 Clear -23 1016 49 10000 5.66 350 12:31 28.02.2021
2035 Clear -24 1015 53 10000 4.12 360 11:56 28.02.2021
2036 Clear -24 1015 53 10000 4.12 360 11:37 28.02.2021
2037 Clear -24 1015 53 10000 4.12 360 11:18 28.02.2021
2038 Clear -24 1014 58 10000 5.14 350 10:30 28.02.2021
2039 Clear -23 1014 59 10000 6.17 340 09:59 28.02.2021
2040 Clear -23 1014 59 10000 6.17 340 09:38 28.02.2021
2041 Clear -23 1014 59 10000 6.17 340 09:20 28.02.2021
2042 Clear -23 1013 59 10000 6.17 340 08:38 28.02.2021
2043 Clear -23 1013 59 10000 6.17 340 08:20 28.02.2021
2044 Clear -23 1012 59 10000 4.63 360 07:44 28.02.2021
2045 Clear -23 1012 59 10000 4.63 360 07:25 28.02.2021
2046 Clear -22 1012 54 10000 5.66 350 06:23 28.02.2021
2047 Clear -21 1011 59 10000 7.2 350 05:20 28.02.2021
2048 Clear -18 1010 55 10000 4.63 330 02:28 28.02.2021
2049 Clear -23 1012 84 10000 1.95 346 01:28 28.02.2021
2050 Clear -23 1012 84 10000 1.81 351 00:39 28.02.2021
2051 Clear -18 1009 50 10000 3.09 10 23:50 27.02.2021
2052 Clear -21 1008 65 10000 2.21 342 23:22 27.02.2021
2053 Clear -21 1008 65 10000 2.21 342 22:50 27.02.2021
2054 Clear -24 1010 84 10000 2.28 343 22:25 27.02.2021
2055 Clear -24 1010 84 10000 2.28 343 21:59 27.02.2021
2056 Clear -24 1010 84 10000 2.28 343 21:38 27.02.2021
2057 Clear -22 1008 64 10000 2.06 0 20:58 27.02.2021
2058 Clear -22 1008 64 10000 2.06 0 20:39 27.02.2021
2059 Clear -22 1008 64 10000 2.06 0 20:21 27.02.2021
2060 Clear -23 1007 64 10000 3.09 360 19:43 27.02.2021
2061 Clear -23 1007 64 10000 3.09 360 19:43 27.02.2021
2062 Clear -23 1007 64 10000 3.09 360 19:23 27.02.2021
2063 Clear -24 1007 70 10000 2.69 3 18:41 27.02.2021
2064 Clear -24 1007 70 10000 2.69 360 18:20 27.02.2021
2065 Clear -23 1007 70 10000 2.69 360 17:44 27.02.2021
2066 Clear -23 1007 70 10000 2.96 353 17:20 27.02.2021
2067 Clear -22 1007 71 10000 2.96 353 16:53 27.02.2021
2068 Clear -22 1007 71 10000 2.96 353 16:32 27.02.2021
2069 Clear -21 1008 65 10000 2.06 330 15:57 27.02.2021
2070 Clear -21 1008 65 10000 2.06 330 15:38 27.02.2021
2071 Clear -18 1008 60 10000 6.17 360 14:49 27.02.2021
2072 Clear -18 1008 60 10000 6.17 360 14:30 27.02.2021
2073 Clear -19 1008 65 10000 6.17 360 13:50 27.02.2021
2074 Clear -19 1008 65 10000 6.17 360 13:27 27.02.2021
2075 Clear -18 1008 65 10000 7.2 10 12:56 27.02.2021
2076 Clear -18 1008 65 10000 7.2 10 12:30 27.02.2021
2077 Clear -18 1008 65 10000 3.6 30 11:57 27.02.2021
2078 Clear -18 1008 65 10000 3.6 30 11:38 27.02.2021
2079 Clear -18 1008 65 10000 3.6 30 11:19 27.02.2021
2080 Clear -17 1009 66 10000 7.2 10 10:44 27.02.2021
2081 Clear -17 1009 66 10000 7.2 10 10:22 27.02.2021
2082 Clear -17 1009 60 10000 6.69 40 09:46 27.02.2021
2083 Clear -17 1009 60 10000 6.69 40 09:25 27.02.2021
2084 Clear -18 1009 65 10000 6.69 40 08:40 27.02.2021
2085 Clear -18 1009 65 10000 6.69 40 08:21 27.02.2021
2086 Clear -17 1009 60 10000 3.6 50 07:37 27.02.2021
2087 Clouds -19 1011 55 10000 4.12 340 04:46 27.02.2021
2088 Clear -21 1014 65 10000 4.12 330 00:42 27.02.2021
2089 Clouds -21 1015 59 10000 1.7 36 23:54 26.02.2021
2090 Clouds -21 1015 59 10000 1.68 30 23:27 26.02.2021
2091 Clouds -21 1016 59 10000 2.06 20 22:46 26.02.2021
2092 Clouds -21 1016 59 10000 2.06 20 22:26 26.02.2021
2093 Clear -23 1016 64 10000 4.63 340 21:43 26.02.2021
2094 Clear -23 1016 64 10000 4.63 340 21:22 26.02.2021
2095 Clouds -24 1016 64 10000 3.6 360 20:44 26.02.2021
2096 Clouds -24 1016 64 10000 3.6 360 20:21 26.02.2021
2097 Clouds -25 1016 64 10000 3.6 350 19:48 26.02.2021
2098 Clouds -25 1017 65 10000 4.12 360 19:25 26.02.2021
2099 Clouds -24 1017 65 10000 2.57 340 18:42 26.02.2021
2100 Clouds -23 1017 65 10000 2.57 340 18:22 26.02.2021
2101 Clouds -23 1017 71 10000 3.09 360 17:41 26.02.2021
2102 Clouds -21 1017 71 10000 3.09 360 17:23 26.02.2021
2103 Clouds -20 1017 77 10000 6.69 340 16:52 26.02.2021
2104 Clouds -20 1017 77 10000 6.69 340 16:31 26.02.2021
2105 Clouds -19 1017 71 10000 6.17 340 15:57 26.02.2021
2106 Clouds -19 1017 78 10000 6.17 350 15:38 26.02.2021
2107 Clouds -19 1017 78 10000 6.17 350 15:19 26.02.2021
2108 Clouds -19 1017 78 10000 6.17 340 14:45 26.02.2021
2109 Clouds -19 1017 78 10000 6.17 340 14:25 26.02.2021
2110 Clouds -19 1017 71 10000 5.14 350 13:44 26.02.2021
2111 Clouds -19 1017 71 10000 5.14 350 13:24 26.02.2021
2112 Clouds -18 1017 71 10000 3.09 360 12:39 26.02.2021
2113 Clouds -19 1017 78 10000 3.09 360 11:55 26.02.2021
2114 Clouds -19 1017 78 10000 3.09 360 11:37 26.02.2021
2115 Clouds -20 1016 77 10000 4.12 350 10:48 26.02.2021
2116 Clouds -21 1016 84 10000 3.09 340 09:58 26.02.2021
2117 Clouds -22 1016 84 10000 2.06 360 09:39 26.02.2021
2118 Clouds -22 1016 84 10000 2.06 360 09:20 26.02.2021
2119 Clouds -24 1016 77 10000 2.44 25 08:26 26.02.2021
2120 Clear -24 1015 84 10000 2.44 25 07:52 26.02.2021
2121 Clear -23 1015 77 10000 2.57 20 06:43 26.02.2021
2122 Clear -23 1015 77 10000 2.57 20 06:43 26.02.2021
2123 Clear -19 1015 71 10000 1.94 35 05:32 26.02.2021
2124 Clear -17 1014 71 10000 1.54 100 03:49 26.02.2021
2125 Clear -16 1014 66 10000 1.54 80 02:36 26.02.2021
2126 Clear -16 1013 78 10000 2.06 90 00:18 26.02.2021
2127 Clear -18 1013 85 10000 1.54 90 23:28 25.02.2021
2128 Clear -19 1012 85 10000 0.56 21 22:50 25.02.2021
2129 Clear -19 1012 85 10000 1.01 12 22:27 25.02.2021
2130 Clear -21 1011 84 10000 1.54 130 21:45 25.02.2021
2131 Clear -21 1011 84 10000 1.54 130 21:26 25.02.2021
2132 Clear -23 1010 92 10000 1.04 3 20:41 25.02.2021
2133 Clear -23 1010 92 10000 0.98 1 20:23 25.02.2021
2134 Clear -23 1009 77 10000 1.54 20 19:52 25.02.2021
2135 Clear -23 1009 77 10000 1.54 20 19:22 25.02.2021
2136 Clear -23 1008 77 10000 1.41 3 18:58 25.02.2021
2137 Clear -23 1008 77 10000 1.41 3 18:31 25.02.2021
2138 Haze -22 1007 84 8047 1.72 12 17:50 25.02.2021
2139 Haze -22 1007 84 8047 1.78 11 17:27 25.02.2021
2140 Clear -20 1006 78 10000 1.54 350 16:52 25.02.2021
2141 Clear -20 1006 78 10000 1.54 350 16:26 25.02.2021
2142 Clouds -18 1005 85 10000 1.78 13 15:36 25.02.2021
2143 Clouds -18 1005 85 10000 1.7 10 15:18 25.02.2021
2144 Snow -15 1005 78 4828 1.54 360 14:28 25.02.2021
2145 Snow -14 1004 78 9656 1.54 70 13:55 25.02.2021
2146 Snow -14 1004 78 9656 1.54 70 13:36 25.02.2021
2147 Snow -14 1004 78 9656 1.54 70 13:18 25.02.2021
2148 Snow -13 1003 72 10000 3.6 360 12:22 25.02.2021
2149 Clouds -13 1002 72 10000 3.6 10 11:47 25.02.2021
2150 Snow -13 1002 72 10000 3.6 10 11:21 25.02.2021
2151 Snow -13 1001 78 8047 3.6 30 10:47 25.02.2021
2152 Snow -13 1001 78 8047 3.6 30 10:29 25.02.2021
2153 Snow -12 1001 72 6437 4.63 360 09:45 25.02.2021
2154 Snow -12 1000 72 8047 4.63 30 08:57 25.02.2021
2155 Snow -12 1000 72 8047 4.63 30 08:25 25.02.2021
2156 Snow -13 1000 78 6437 5.14 30 07:57 25.02.2021
2157 Snow -12 999 72 6437 6.69 30 07:35 25.02.2021
2158 Snow -13 999 78 4828 5.66 20 06:55 25.02.2021
2159 Snow -11 998 85 3219 4.63 20 02:59 25.02.2021
2160 Snow -10 998 79 2414 4.63 30 01:38 25.02.2021
2161 Snow -10 998 79 2414 4.63 30 01:38 25.02.2021
2162 Snow -11 998 85 2816 6.17 40 00:42 25.02.2021
2163 Snow -11 998 85 2012 6.17 40 23:53 24.02.2021
2164 Snow -11 998 85 2012 6.17 40 23:28 24.02.2021
2165 Snow -11 998 79 2816 7.72 30 22:45 24.02.2021
2166 Snow -11 998 79 2816 7.72 30 22:26 24.02.2021
2167 Snow -11 998 79 3219 8.23 40 21:46 24.02.2021
2168 Snow -11 998 79 3219 8.23 40 21:19 24.02.2021
2169 Snow -10 998 73 6437 7.72 40 20:41 24.02.2021
2170 Snow -11 998 73 6437 7.72 40 20:22 24.02.2021
2171 Snow -10 999 73 8047 6.69 40 19:38 24.02.2021
2172 Snow -10 999 73 8047 6.69 40 19:18 24.02.2021
2173 Snow -10 999 62 10000 4.63 20 18:42 24.02.2021
2174 Snow -10 999 62 10000 4.63 20 18:22 24.02.2021
2175 Snow -9 1000 57 10000 4.63 50 17:38 24.02.2021
2176 Clouds -9 1000 57 10000 4.63 50 17:19 24.02.2021
2177 Clouds -9 1000 57 10000 6.69 40 16:44 24.02.2021
2178 Clouds -9 1000 57 10000 6.69 40 16:19 24.02.2021
2179 Clouds -9 1001 57 10000 7.2 40 15:40 24.02.2021
2180 Clouds -10 1001 57 10000 7.2 40 14:57 24.02.2021
2181 Clouds -10 1002 57 10000 8.23 40 14:35 24.02.2021
2182 Clear -11 1003 57 10000 7.72 40 13:59 24.02.2021
2183 Clear -11 1003 57 10000 7.72 40 13:40 24.02.2021
2184 Clear -11 1003 57 10000 7.72 40 13:21 24.02.2021
2185 Clear -12 1004 61 10000 6.17 40 12:44 24.02.2021
2186 Clear -12 1004 61 10000 6.17 40 12:24 24.02.2021
2187 Clear -13 1005 56 10000 4.63 30 11:47 24.02.2021
2188 Clear -14 1006 61 10000 4.12 20 10:57 24.02.2021
2189 Clear -14 1006 61 10000 4.12 20 10:32 24.02.2021
2190 Clouds -14 1007 52 10000 5.14 60 09:46 24.02.2021
2191 Clouds -14 1007 52 10000 5.14 60 09:20 24.02.2021
2192 Clouds -14 1008 56 10000 3.6 50 08:34 24.02.2021
2193 Clouds -15 1009 61 10000 3.09 50 07:57 24.02.2021
2194 Clouds -16 1009 66 10000 3.09 40 07:20 24.02.2021
2195 Clouds -16 1010 56 10000 3.6 70 06:31 24.02.2021
2196 Clouds -13 1011 61 10000 5.14 70 03:31 24.02.2021
2197 Clouds -14 1013 56 10000 5.14 90 00:37 24.02.2021
2198 Clouds -15 1013 56 10000 5.14 80 23:29 23.02.2021
2199 Clouds -17 1012 66 10000 0.89 289 22:40 23.02.2021
2200 Clouds -17 1013 66 10000 3.09 110 22:20 23.02.2021
2201 Clouds -17 1013 66 10000 3.09 110 21:44 23.02.2021
2202 Clouds -18 1013 66 10000 3.09 110 21:24 23.02.2021
2203 Clouds -17 1013 55 10000 2.57 60 20:48 23.02.2021
2204 Clouds -17 1013 55 10000 2.57 60 20:29 23.02.2021
2205 Clouds -19 1013 60 10000 3.6 60 19:48 23.02.2021
2206 Clouds -19 1013 60 10000 3.6 60 19:28 23.02.2021
2207 Clouds -20 1014 60 10000 4.63 50 18:58 23.02.2021
2208 Clouds -20 1014 60 10000 4.63 50 18:39 23.02.2021
2209 Clouds -19 1014 60 10000 4.63 50 18:18 23.02.2021
2210 Clouds -20 1014 65 10000 4.63 50 17:39 23.02.2021
2211 Clouds -20 1016 71 10000 3.09 50 16:56 23.02.2021
2212 Clouds -21 1016 71 10000 3.09 50 16:36 23.02.2021
2213 Clouds -20 1016 71 10000 3.09 50 16:18 23.02.2021
2214 Clouds -21 1016 71 10000 3.6 50 15:40 23.02.2021
2215 Clouds -21 1016 71 10000 3.6 50 15:21 23.02.2021
2216 Clouds -21 1017 65 10000 4.12 50 14:44 23.02.2021
2217 Clouds -21 1017 65 10000 4.12 50 14:25 23.02.2021
2218 Clouds -21 1017 65 10000 4.63 50 13:46 23.02.2021
2219 Clear -22 1017 71 10000 3.6 50 13:26 23.02.2021
2220 Clouds -22 1018 77 10000 5.14 40 12:51 23.02.2021
2221 Clouds -22 1018 77 10000 5.14 40 12:20 23.02.2021
2222 Clouds -21 1018 77 10000 4.63 40 11:48 23.02.2021
2223 Clouds -21 1018 77 10000 5.14 30 11:22 23.02.2021
2224 Clouds -19 1019 71 10000 3.6 50 10:51 23.02.2021
2225 Clouds -19 1019 71 10000 3.6 50 10:32 23.02.2021
2226 Clouds -18 1018 71 10000 2.57 60 09:45 23.02.2021
2227 Clouds -18 1018 71 10000 2.57 60 09:25 23.02.2021
2228 Clouds -18 1019 71 10000 3.09 60 08:50 23.02.2021
2229 Clouds -18 1019 71 10000 3.09 60 08:24 23.02.2021
2230 Clouds -18 1019 65 10000 3.09 70 07:53 23.02.2021
2231 Clear -21 1019 71 10000 1.82 55 05:32 23.02.2021
2232 Clear -20 1018 65 10000 2.06 90 04:58 23.02.2021
2233 Clouds -18 1018 60 10000 0.78 105 02:34 23.02.2021
2234 Clear -21 1018 65 10000 0.36 124 00:20 23.02.2021
2235 Clear -21 1017 59 10000 0.36 124 23:52 22.02.2021
2236 Clear -21 1017 59 10000 0.37 30 23:20 22.02.2021
2237 Clouds -22 1016 59 10000 0.37 30 22:41 22.02.2021
2238 Clouds -22 1016 59 10000 0.31 43 22:20 22.02.2021
2239 Clear -24 1015 64 10000 2.57 10 21:45 22.02.2021
2240 Clear -24 1015 64 10000 2.57 10 21:45 22.02.2021
2241 Clear -23 1015 64 10000 2.57 10 21:23 22.02.2021
2242 Clouds -24 1015 70 10000 2.57 360 20:51 22.02.2021
2243 Clouds -24 1015 70 10000 2.57 360 20:28 22.02.2021
2244 Clouds -24 1014 70 10000 3.09 360 19:51 22.02.2021
2245 Clouds -25 1014 70 10000 2.57 20 19:33 22.02.2021
2246 Clouds -26 1013 76 10000 2.06 20 18:56 22.02.2021
2247 Clouds -27 1013 76 10000 2.06 20 18:37 22.02.2021
2248 Clouds -27 1013 76 10000 2.06 20 18:18 22.02.2021
2249 Clear -28 1012 69 10000 2.06 40 17:25 22.02.2021
2250 Clear -28 1011 70 10000 0.41 51 16:54 22.02.2021
2251 Clear -28 1011 70 10000 0.41 51 16:32 22.02.2021
2252 Clear -28 1011 70 10000 0.79 55 15:46 22.02.2021
2253 Clear -28 1011 70 10000 0.95 32 15:27 22.02.2021
2254 Clear -27 1009 76 10000 0.95 32 14:47 22.02.2021
2255 Clear -27 1009 76 10000 0.76 18 14:28 22.02.2021
2256 Clear -27 1008 70 10000 0.76 18 13:46 22.02.2021
2257 Clear -27 1008 76 10000 2.57 20 12:56 22.02.2021
2258 Clear -26 1008 76 10000 2.57 20 12:24 22.02.2021
2259 Clear -26 1007 76 10000 2.57 40 11:58 22.02.2021
2260 Clear -26 1007 76 10000 2.57 40 11:39 22.02.2021
2261 Clear -26 1007 76 10000 2.57 40 11:20 22.02.2021
2262 Clouds -24 1006 70 10000 1.09 344 10:45 22.02.2021
2263 Clouds -24 1006 70 10000 1.14 348 10:22 22.02.2021
2264 Clouds -23 1005 64 10000 1.14 348 09:41 22.02.2021
2265 Clouds -23 1005 64 10000 1.54 5 09:22 22.02.2021
2266 Clouds -21 1004 65 10000 1.55 5 08:49 22.02.2021
2267 Clouds -21 1004 65 10000 1.87 15 08:23 22.02.2021
2268 Clouds -20 1004 65 10000 1.54 30 07:53 22.02.2021
2269 Clouds -20 1004 65 10000 1.54 30 07:25 22.02.2021
2270 Clouds -21 1003 65 10000 1.54 10 06:29 22.02.2021
2271 Clouds -20 1002 71 10000 1.44 358 05:26 22.02.2021
2272 Clear -18 1000 55 10000 2.57 350 03:25 22.02.2021
2273 Clear -18 1000 60 10000 1.28 356 02:33 22.02.2021
2274 Clear -19 999 65 10000 1.02 358 00:45 22.02.2021
2275 Clear -19 999 65 10000 1.02 11 00:19 22.02.2021
2276 Clear -19 999 60 10000 1.05 21 23:27 21.02.2021
2277 Clear -21 998 65 10000 2.06 340 22:40 21.02.2021
2278 Clear -21 998 65 10000 2.06 340 22:21 21.02.2021
2279 Clear -21 998 59 10000 2.06 10 21:37 21.02.2021
2280 Clouds -21 998 65 10000 4.12 350 20:59 21.02.2021
2281 Clouds -21 998 65 10000 4.12 350 20:39 21.02.2021
2282 Clouds -21 997 65 10000 4.12 350 20:19 21.02.2021
2283 Clouds -20 997 65 10000 4.12 330 19:50 21.02.2021
2284 Clouds -20 997 65 10000 4.12 330 19:32 21.02.2021
2285 Clouds -19 997 60 10000 4.63 330 18:43 21.02.2021
2286 Clouds -19 997 60 10000 4.63 330 18:24 21.02.2021
2287 Clouds -19 996 65 10000 4.12 340 17:29 21.02.2021
2288 Clouds -19 996 65 10000 4.12 340 16:57 21.02.2021
2289 Clouds -19 996 65 10000 4.12 340 16:34 21.02.2021
2290 Clouds -19 995 65 10000 3.6 350 15:54 21.02.2021
2291 Clouds -19 995 65 10000 3.6 350 15:22 21.02.2021
2292 Clouds -20 995 71 10000 3.6 350 14:50 21.02.2021
2293 Clouds -20 995 71 10000 3.6 350 14:28 21.02.2021
2294 Clouds -20 995 65 10000 2.57 330 13:46 21.02.2021
2295 Clouds -20 995 65 10000 2.57 330 13:23 21.02.2021
2296 Clouds -20 995 65 10000 3.6 350 12:32 21.02.2021
2297 Clouds -20 995 65 10000 3.6 330 11:56 21.02.2021
2298 Clouds -20 995 65 10000 3.6 330 11:36 21.02.2021
2299 Clouds -20 995 71 10000 2.57 10 10:36 21.02.2021
2300 Clouds -20 995 71 10000 2.57 10 10:18 21.02.2021
2301 Clouds -22 996 71 10000 3.6 350 09:41 21.02.2021
2302 Clouds -22 996 71 10000 3.6 350 09:23 21.02.2021
2303 Clouds -22 996 71 10000 2.51 358 08:32 21.02.2021
2304 Clouds -23 996 70 10000 2.75 4 07:43 21.02.2021
2305 Clouds -23 996 70 10000 2.9 8 07:21 21.02.2021
2306 Clouds -21 996 65 10000 1.54 320 04:58 21.02.2021
2307 Clear -19 996 60 10000 2.57 20 02:32 21.02.2021
2308 Clear -20 997 59 10000 3.01 18 00:55 21.02.2021
2309 Clear -20 997 59 10000 2.77 23 00:20 21.02.2021
2310 Clear -22 997 59 10000 2.77 23 23:31 20.02.2021
2311 Clear -23 998 64 10000 2.76 18 22:54 20.02.2021
2312 Clear -23 998 64 10000 2.76 18 22:31 20.02.2021
2313 Clear -26 998 76 10000 2.76 16 21:47 20.02.2021
2314 Clear -26 998 76 10000 3.07 17 21:27 20.02.2021
2315 Clear -28 998 69 10000 1.54 350 20:54 20.02.2021
2316 Clear -28 998 69 10000 1.54 350 20:35 20.02.2021
2317 Clouds -29 998 76 10000 2.64 22 19:59 20.02.2021
2318 Clouds -29 998 76 10000 2.64 22 19:36 20.02.2021
2319 Clear -29 999 76 10000 2.06 10 18:48 20.02.2021
2320 Clear -28 999 76 10000 2.06 10 18:29 20.02.2021
2321 Clear -28 999 76 10000 2.57 10 17:45 20.02.2021
2322 Clear -28 999 76 10000 2.57 10 17:26 20.02.2021
2323 Clear -27 1000 69 10000 2.46 25 16:48 20.02.2021
2324 Clear -27 1000 69 10000 2.4 27 16:22 20.02.2021
2325 Clear -28 1000 76 10000 1.54 30 15:40 20.02.2021
2326 Clear -28 1001 76 10000 2.11 28 14:51 20.02.2021
2327 Clear -28 1001 76 10000 2 26 14:25 20.02.2021
2328 Clear -28 1002 76 10000 2 26 13:53 20.02.2021
2329 Clear -29 1002 76 10000 2.39 19 13:28 20.02.2021
2330 Clear -28 1002 76 10000 2.39 19 12:56 20.02.2021
2331 Clear -28 1002 76 10000 2.61 19 12:35 20.02.2021
2332 Clear -28 1003 76 10000 1.54 20 11:50 20.02.2021
2333 Clear -28 1003 76 10000 1.54 20 11:31 20.02.2021
2334 Clear -27 1003 76 10000 2.4 18 10:50 20.02.2021
2335 Clear -27 1003 76 10000 2.4 18 10:50 20.02.2021
2336 Clear -27 1003 76 10000 1.69 21 10:21 20.02.2021
2337 Clear -27 1004 70 10000 1.69 21 09:46 20.02.2021
2338 Clear -27 1004 76 10000 0.64 42 08:53 20.02.2021
2339 Clear -27 1004 76 10000 0.85 55 08:23 20.02.2021
2340 Clear -24 1006 71 10000 1.66 32 04:56 20.02.2021
2341 Clouds -21 1007 71 10000 1.54 290 02:32 20.02.2021
2342 Clouds -21 1007 71 10000 1.54 290 01:55 20.02.2021
2343 Clouds -21 1008 65 10000 2.06 20 00:55 20.02.2021
2344 Clouds -22 1008 65 10000 2.06 20 00:36 20.02.2021
2345 Clouds -24 1008 64 10000 2.06 360 23:26 19.02.2021
2346 Clouds -26 1009 76 10000 2.06 350 22:45 19.02.2021
2347 Clouds -27 1009 76 10000 2.06 350 22:20 19.02.2021
2348 Clouds -28 1009 76 10000 1.54 10 21:43 19.02.2021
2349 Clouds -29 1009 76 10000 1.54 10 21:23 19.02.2021
2350 Clear -29 1010 76 10000 1.11 47 20:42 19.02.2021
2351 Clear -30 1010 76 10000 1.44 30 20:24 19.02.2021
2352 Clear -29 1010 83 10000 1.44 30 19:44 19.02.2021
2353 Clear -29 1010 83 10000 0.62 350 19:20 19.02.2021
2354 Clear -29 1011 76 10000 0.62 350 18:50 19.02.2021
2355 Clear -29 1011 76 10000 0.14 302 18:26 19.02.2021
2356 Clear -28 1012 84 10000 0.14 302 17:36 19.02.2021
2357 Clear -27 1012 84 10000 0.44 82 16:41 19.02.2021
2358 Clear -27 1012 84 10000 0.89 67 16:22 19.02.2021
2359 Clear -27 1012 87 10000 0.89 67 15:54 19.02.2021
2360 Clear -26 1013 85 10000 1.25 54 15:27 19.02.2021
2361 Clear -26 1013 85 10000 1.25 54 14:49 19.02.2021
2362 Clear -26 1013 85 10000 1.3 23 14:29 19.02.2021
2363 Clear -29 1011 72 10000 0.45 0 13:56 19.02.2021
2364 Clear -29 1011 73 10000 0.45 0 13:36 19.02.2021
2365 Clear -28 1011 76 10000 0.45 303 12:53 19.02.2021
2366 Clear -28 1012 77 10000 1.3 351 12:27 19.02.2021
2367 Clear -27 1012 76 10000 0.45 40 11:57 19.02.2021
2368 Clear -28 1012 79 10000 0.89 26 11:32 19.02.2021
2369 Clear -26 1015 86 10000 1.67 343 10:55 19.02.2021
2370 Clear -28 1013 79 10000 1.67 343 10:33 19.02.2021
2371 Clear -28 1013 76 10000 1.4 323 09:52 19.02.2021
2372 Clear -28 1013 69 10000 1.54 10 09:27 19.02.2021
2373 Clear -28 1013 69 10000 1.54 10 08:55 19.02.2021
2374 Clear -28 1013 69 10000 1.54 10 08:28 19.02.2021
2375 Clear -27 1013 76 10000 1.54 360 07:54 19.02.2021
2376 Clear -27 1013 76 10000 1.54 360 07:36 19.02.2021
2377 Clear -27 1013 76 10000 0.99 345 06:58 19.02.2021
2378 Clear -27 1013 76 10000 1.03 1 06:29 19.02.2021
2379 Clear -23 1014 65 10000 1.11 353 04:41 19.02.2021
2380 Clear -20 1014 55 10000 1.04 322 01:49 19.02.2021
2381 Clear -21 1014 59 10000 0.91 335 00:59 19.02.2021
2382 Clear -20 1014 59 10000 0.98 344 00:26 19.02.2021
2383 Clear -21 1015 59 10000 4.63 320 23:43 18.02.2021
2384 Clear -21 1015 59 10000 4.63 320 23:25 18.02.2021
2385 Clear -23 1014 64 10000 2.06 300 22:36 18.02.2021
2386 Clear -23 1014 64 10000 2.06 300 22:18 18.02.2021
2387 Clear -25 1014 64 10000 2.1 3 21:28 18.02.2021
2388 Clear -25 1014 69 10000 1.54 330 20:58 18.02.2021
2389 Clear -26 1014 69 10000 1.54 330 20:38 18.02.2021
2390 Clear -25 1014 69 10000 1.54 330 20:19 18.02.2021
2391 Clear -26 1014 76 10000 2.1 9 19:43 18.02.2021
2392 Clear -26 1014 76 10000 2.07 10 19:19 18.02.2021
2393 Clear -26 1014 70 10000 2.15 11 18:47 18.02.2021
2394 Clear -26 1014 70 10000 2.22 4 18:25 18.02.2021
2395 Clear -25 1014 64 10000 1.54 340 17:45 18.02.2021
2396 Clear -25 1014 64 10000 1.54 340 17:23 18.02.2021
2397 Clear -25 1014 59 10000 5.14 330 16:46 18.02.2021
2398 Clear -24 1014 59 10000 5.14 330 16:28 18.02.2021
2399 Clear -24 1014 64 10000 3.6 330 15:42 18.02.2021
2400 Clear -24 1014 64 10000 3.6 330 15:23 18.02.2021
2401 Clear -23 1014 54 10000 1.54 20 14:52 18.02.2021
2402 Clear -23 1014 54 10000 1.54 20 14:31 18.02.2021
2403 Clear -23 1014 59 10000 3.6 330 13:49 18.02.2021
2404 Clear -23 1014 59 10000 3.6 330 13:21 18.02.2021
2405 Clear -21 1014 50 10000 2.91 14 12:54 18.02.2021
2406 Clear -21 1014 50 10000 3.3 14 12:30 18.02.2021
2407 Clear -19 1014 55 10000 4.63 350 11:47 18.02.2021
2408 Clear -19 1014 55 10000 4.63 350 11:47 18.02.2021
2409 Clear -19 1014 55 10000 4.63 350 11:27 18.02.2021
2410 Clear -19 1014 55 10000 5.14 360 10:57 18.02.2021
2411 Clear -19 1014 55 10000 5.14 360 10:36 18.02.2021
2412 Clear -19 1014 55 10000 5.14 360 10:18 18.02.2021
2413 Clear -17 1014 46 10000 4.63 10 09:28 18.02.2021
2414 Clear -18 1013 50 10000 4.12 360 08:49 18.02.2021
2415 Clear -18 1013 50 10000 4.12 360 08:31 18.02.2021
2416 Clear -19 1013 55 10000 5.66 360 07:48 18.02.2021
2417 Clear -19 1013 55 10000 5.66 360 07:23 18.02.2021
2418 Clear -18 1013 55 10000 8.75 30 05:42 18.02.2021
2419 Clear -18 1013 55 10000 8.75 30 05:42 18.02.2021
2420 Clear -18 1013 55 10000 8.75 30 05:42 18.02.2021
2421 Clear -16 1012 55 10000 2.06 50 00:29 18.02.2021
2422 Clear -17 1012 60 10000 3.09 360 23:38 17.02.2021
2423 Clear -19 1012 60 10000 1.54 0 22:59 17.02.2021
2424 Clear -19 1012 60 10000 1.54 0 22:39 17.02.2021
2425 Clear -19 1012 60 10000 1.54 0 22:21 17.02.2021
2426 Clear -19 1012 65 10000 2.57 10 21:44 17.02.2021
2427 Clear -19 1012 65 10000 2.57 10 21:20 17.02.2021
2428 Clear -20 1012 65 10000 3.72 17 20:42 17.02.2021
2429 Clear -20 1012 65 10000 3.67 14 20:22 17.02.2021
2430 Clear -19 1012 60 10000 2.06 50 19:38 17.02.2021
2431 Clear -18 1012 60 10000 3.97 13 18:59 17.02.2021
2432 Clear -18 1012 60 10000 3.97 13 18:40 17.02.2021
2433 Clear -15 1012 51 10000 4.12 10 17:47 17.02.2021
2434 Clear -15 1012 51 10000 4.12 10 17:23 17.02.2021
2435 Clear -14 1013 47 10000 2.57 60 16:54 17.02.2021
2436 Clear -14 1013 47 10000 2.57 60 16:54 17.02.2021
2437 Clear -14 1013 47 10000 2.57 60 16:36 17.02.2021
2438 Clear -14 1013 47 10000 2.57 60 16:18 17.02.2021
2439 Clear -13 1013 47 10000 5.66 50 15:42 17.02.2021
2440 Clear -13 1013 47 10000 5.66 50 15:22 17.02.2021
2441 Clear -13 1013 47 10000 1.54 320 14:44 17.02.2021
2442 Clear -13 1013 47 10000 1.54 320 14:26 17.02.2021
2443 Clear -14 1013 51 10000 3.09 0 13:45 17.02.2021
2444 Clear -14 1013 51 10000 3.09 0 12:59 17.02.2021
2445 Clear -14 1013 47 10000 8.23 30 12:26 17.02.2021
2446 Clear -15 1014 51 10000 8.23 20 11:59 17.02.2021
2447 Clear -15 1014 51 10000 8.23 20 11:36 17.02.2021
2448 Clear -15 1014 51 10000 8.23 20 11:18 17.02.2021
2449 Clear -15 1013 56 10000 14.92 30 10:43 17.02.2021
2450 Clear -15 1013 56 10000 14.92 30 10:21 17.02.2021
2451 Snow -14 1013 51 8047 11.83 30 09:41 17.02.2021
2452 Snow -14 1013 51 8047 11.83 30 09:19 17.02.2021
2453 Clear -15 1013 56 10000 11.83 30 08:42 17.02.2021
2454 Clear -15 1013 56 10000 11.83 30 08:21 17.02.2021
2455 Clear -16 1013 60 10000 11.83 30 07:25 17.02.2021
2456 Clear -14 1012 56 10000 8.75 30 04:54 17.02.2021
2457 Clear -14 1012 61 10000 9.26 30 02:33 17.02.2021
2458 Clear -13 1012 56 10000 6.69 10 01:49 17.02.2021
2459 Clear -14 1012 56 10000 7.2 10 00:32 17.02.2021
2460 Clear -15 1012 61 10000 7.72 30 23:54 16.02.2021
2461 Clear -15 1012 61 10000 7.72 30 23:34 16.02.2021
2462 Clear -15 1012 61 10000 4.12 10 22:43 16.02.2021
2463 Clear -15 1012 61 10000 4.12 10 22:24 16.02.2021
2464 Clear -16 1012 60 10000 2.7 23 21:42 16.02.2021
2465 Clear -16 1012 60 10000 2.8 18 21:22 16.02.2021
2466 Clear -18 1011 71 10000 1.54 310 20:58 16.02.2021
2467 Clear -18 1011 71 10000 1.54 310 20:39 16.02.2021
2468 Clear -18 1011 71 10000 1.54 310 20:20 16.02.2021
2469 Clear -15 1011 56 10000 2.47 19 19:40 16.02.2021
2470 Clear -15 1011 56 10000 2.58 20 19:22 16.02.2021
2471 Clear -17 1011 66 10000 2.58 20 18:40 16.02.2021
2472 Clear -17 1011 66 10000 2.62 23 18:21 16.02.2021
2473 Clear -17 1010 66 10000 2.62 23 17:50 16.02.2021
2474 Clear -17 1010 66 10000 2.8 24 17:25 16.02.2021
2475 Clear -18 1010 66 10000 2.57 30 16:51 16.02.2021
2476 Clear -17 1010 66 10000 2.57 30 16:29 16.02.2021
2477 Clear -18 1009 65 10000 5.14 330 15:47 16.02.2021
2478 Clear -18 1009 65 10000 5.14 330 15:26 16.02.2021
2479 Clear -17 1009 66 10000 2.88 19 14:51 16.02.2021
2480 Clear -17 1009 66 10000 2.88 19 14:32 16.02.2021
2481 Clear -17 1009 66 10000 3.6 360 13:58 16.02.2021
2482 Clear -17 1009 66 10000 3.6 360 13:35 16.02.2021
2483 Clear -17 1009 66 10000 2.94 17 12:47 16.02.2021
2484 Clear -17 1009 66 10000 2.64 22 12:26 16.02.2021
2485 Clear -15 1009 61 10000 3.6 10 11:50 16.02.2021
2486 Clear -15 1009 61 10000 3.6 10 11:24 16.02.2021
2487 Clear -16 1009 60 10000 4.63 10 10:58 16.02.2021
2488 Clear -16 1009 60 10000 4.63 10 10:39 16.02.2021
2489 Clear -16 1009 60 10000 4.63 10 10:20 16.02.2021
2490 Clear -16 1008 66 10000 2.06 360 09:48 16.02.2021
2491 Clear -16 1008 66 10000 2.06 360 09:26 16.02.2021
2492 Clear -13 1008 61 10000 5.14 20 08:45 16.02.2021
2493 Clear -13 1008 61 10000 5.14 20 08:45 16.02.2021
2494 Clear -13 1008 61 10000 5.14 20 08:22 16.02.2021
2495 Clear -15 1008 66 10000 2.57 30 07:30 16.02.2021
2496 Clear -16 1007 66 10000 1.54 20 06:21 16.02.2021
2497 Clear -11 1006 62 10000 1.54 290 01:52 16.02.2021
2498 Clear -11 1006 57 10000 1.54 170 23:46 15.02.2021
2499 Clear -11 1006 57 10000 1.54 170 23:24 15.02.2021
2500 Clear -11 1006 57 10000 3.21 18 22:46 15.02.2021
2501 Clear -11 1006 57 10000 2.9 23 22:23 15.02.2021
2502 Clear -14 1005 72 10000 2.06 250 21:42 15.02.2021
2503 Clear -14 1005 72 10000 2.06 250 21:23 15.02.2021
2504 Clouds -14 1005 78 10000 2.68 29 20:49 15.02.2021
2505 Clouds -14 1005 78 10000 2.57 27 20:29 15.02.2021
2506 Clouds -13 1005 72 10000 1.54 180 19:48 15.02.2021
2507 Clouds -13 1005 72 10000 1.54 180 19:24 15.02.2021
2508 Clear -14 1004 72 10000 2.57 26 18:49 15.02.2021
2509 Clear -14 1004 72 10000 2.92 25 18:26 15.02.2021
2510 Clear -14 1004 78 10000 1.54 20 17:45 15.02.2021
2511 Clear -14 1004 78 10000 1.54 20 17:27 15.02.2021
2512 Clear -13 1004 66 10000 3.54 22 16:57 15.02.2021
2513 Clear -13 1004 66 10000 3.35 24 16:29 15.02.2021
2514 Clear -13 1003 53 10000 2.06 10 15:58 15.02.2021
2515 Clear -9 1003 53 10000 2.06 10 15:40 15.02.2021
2516 Clear -9 1003 53 10000 2.06 10 15:18 15.02.2021
2517 Clear -10 1003 57 10000 5.66 340 14:40 15.02.2021
2518 Clear -10 1003 57 10000 5.66 340 14:20 15.02.2021
2519 Clouds -8 1003 49 10000 5.14 20 13:48 15.02.2021
2520 Clouds -8 1003 49 10000 5.14 20 13:20 15.02.2021
2521 Clouds -7 1003 49 10000 3.6 360 12:45 15.02.2021
2522 Clouds -7 1003 49 10000 3.6 360 12:22 15.02.2021
2523 Clouds -7 1003 49 10000 2.57 40 11:50 15.02.2021
2524 Clouds -7 1003 49 10000 2.57 40 11:23 15.02.2021
2525 Clouds -8 1003 57 10000 5.14 350 10:50 15.02.2021
2526 Clouds -8 1003 57 10000 5.14 350 10:25 15.02.2021
2527 Clouds -7 1002 58 10000 3.6 350 09:56 15.02.2021
2528 Clouds -7 1002 58 10000 3.6 350 09:33 15.02.2021
2529 Clouds -6 1002 58 10000 4.12 30 08:57 15.02.2021
2530 Clouds -4 1002 46 10000 3.6 30 07:55 15.02.2021
2531 Clouds -3 1001 39 10000 2.57 20 06:59 15.02.2021
2532 Clouds -3 1001 39 10000 2.57 20 06:40 15.02.2021
2533 Clouds -4 1001 42 10000 2.65 36 02:34 15.02.2021
2534 Clouds -7 1001 58 10000 4.12 340 01:27 15.02.2021
2535 Clouds -12 1002 61 10000 2.06 330 23:58 14.02.2021
2536 Clouds -12 1002 61 10000 2.06 330 23:23 14.02.2021
2537 Clouds -14 1002 61 10000 2.06 360 22:40 14.02.2021
2538 Clouds -14 1002 61 10000 2.06 360 22:40 14.02.2021
2539 Clouds -13 1002 61 10000 2.06 360 22:21 14.02.2021
2540 Clear -12 1002 52 10000 2.57 360 21:50 14.02.2021
2541 Clear -12 1002 52 10000 2.57 360 21:29 14.02.2021
2542 Clear -13 1001 61 10000 4.12 20 20:52 14.02.2021
2543 Clear -13 1001 61 10000 4.12 20 20:27 14.02.2021
2544 Clear -13 1002 61 10000 2.57 20 19:49 14.02.2021
2545 Clear -11 1002 57 10000 1.54 30 18:58 14.02.2021
2546 Clear -11 1002 57 10000 1.54 30 18:37 14.02.2021
2547 Clear -9 1002 48 10000 3.6 70 17:57 14.02.2021
2548 Clear -9 1002 48 10000 3.6 70 17:39 14.02.2021
2549 Clear -7 1002 38 10000 4.12 30 16:55 14.02.2021
2550 Clear -7 1002 38 10000 4.12 30 16:33 14.02.2021
2551 Clear -9 1002 48 10000 3.39 29 15:53 14.02.2021
2552 Clear -9 1002 48 10000 3.39 29 15:35 14.02.2021
2553 Clear -7 1003 42 10000 2.06 360 14:49 14.02.2021
2554 Clear -7 1003 42 10000 2.06 360 14:27 14.02.2021
2555 Clear -5 1003 36 10000 5.66 50 13:53 14.02.2021
2556 Clear -5 1003 36 10000 5.66 50 13:30 14.02.2021
2557 Clear -7 1004 49 10000 6.69 40 12:40 14.02.2021
2558 Clear -7 1004 49 10000 6.69 40 12:19 14.02.2021
2559 Clear -8 1004 49 10000 2.06 0 11:50 14.02.2021
2560 Clear -8 1004 49 10000 2.06 0 11:50 14.02.2021
2561 Clear -8 1004 49 10000 2.06 0 11:50 14.02.2021
2562 Clear -8 1004 49 10000 2.06 0 11:21 14.02.2021
2563 Clear -8 1004 53 10000 3.19 29 10:39 14.02.2021
2564 Clear -12 1005 72 10000 3.26 30 09:56 14.02.2021
2565 Clear -12 1005 72 10000 3.26 30 09:38 14.02.2021
2566 Clear -12 1005 72 10000 3.14 28 09:19 14.02.2021
2567 Clear -10 1005 67 10000 3.14 28 08:35 14.02.2021
2568 Clear -8 1006 62 10000 4.63 30 07:55 14.02.2021
2569 Clear -7 1006 63 10000 4.63 40 06:49 14.02.2021
2570 Clear -6 1006 58 10000 4.63 40 05:37 14.02.2021
2571 Clouds -5 1007 58 10000 2.57 120 03:23 14.02.2021
2572 Clouds -3 1009 43 10000 1.54 90 01:42 14.02.2021
2573 Clouds -3 1009 40 10000 2.57 80 00:46 14.02.2021
2574 Clouds -3 1009 40 10000 2.57 80 00:18 14.02.2021
2575 Clouds -3 1010 46 10000 1.54 30 23:38 13.02.2021
2576 Clouds -3 1010 46 10000 1.54 30 23:20 13.02.2021
2577 Clouds -3 1010 46 10000 1.54 30 23:20 13.02.2021
2578 Clear -4 1011 63 10000 2.06 10 22:33 13.02.2021
2579 Clear -4 1011 54 10000 1.84 32 21:53 13.02.2021
2580 Clear -6 1011 54 10000 1.84 32 21:35 13.02.2021
2581 Clear -7 1011 63 10000 3.09 30 20:49 13.02.2021
2582 Clear -7 1011 63 10000 3.09 30 20:28 13.02.2021
2583 Clear -6 1012 68 10000 1.54 60 19:49 13.02.2021
2584 Clear -6 1012 68 10000 1.54 60 19:49 13.02.2021
2585 Clear -6 1012 68 10000 1.54 60 19:49 13.02.2021
2586 Clear -6 1012 68 10000 1.54 60 19:24 13.02.2021
2587 Clear -4 1012 58 10000 2.57 80 18:52 13.02.2021
2588 Clear -4 1012 58 10000 2.57 80 18:33 13.02.2021
2589 Clear -5 1012 58 10000 4.63 80 17:45 13.02.2021
2590 Clear -6 1012 58 10000 4.63 80 17:26 13.02.2021
2591 Clear -5 1013 59 10000 3.6 70 16:55 13.02.2021
2592 Clear -5 1013 59 10000 3.6 70 16:37 13.02.2021
2593 Clear -4 1013 59 10000 5.14 70 15:57 13.02.2021
2594 Clear -4 1013 59 10000 5.14 70 15:27 13.02.2021
2595 Clouds -3 1013 63 10000 5.14 70 14:41 13.02.2021
2596 Clouds -3 1013 63 10000 5.14 70 14:19 13.02.2021
2597 Clear -3 1013 63 10000 4.12 60 13:40 13.02.2021
2598 Clear -3 1013 63 10000 4.12 60 13:22 13.02.2021
2599 Clear -4 1014 63 10000 5.14 80 12:36 13.02.2021
2600 Clear -3 1014 63 10000 5.14 80 12:18 13.02.2021
2601 Clear -3 1014 64 10000 7.72 80 11:40 13.02.2021
2602 Clear -3 1014 64 10000 7.72 80 11:18 13.02.2021
2603 Clear -3 1014 64 10000 6.69 80 10:43 13.02.2021
2604 Clear -3 1014 64 10000 6.69 80 10:23 13.02.2021
2605 Clear -3 1014 64 10000 6.69 80 09:48 13.02.2021
2606 Clear -3 1014 64 10000 6.69 80 09:28 13.02.2021
2607 Clear -3 1014 69 10000 7.72 80 08:50 13.02.2021
2608 Clear -3 1014 69 10000 7.72 80 08:19 13.02.2021
2609 Clouds -2 1014 69 10000 6.69 80 07:43 13.02.2021
2610 Clouds 0 1014 64 10000 8.23 80 06:25 13.02.2021
2611 Clouds -1 1013 69 10000 9.77 80 05:18 13.02.2021
2612 Snow -2 1012 74 10000 9.26 80 02:44 13.02.2021
2613 Snow -2 1012 74 6437 9.26 80 00:57 13.02.2021
2614 Snow -2 1012 74 6437 9.26 80 00:57 13.02.2021
2615 Snow -2 1012 80 6437 9.77 80 00:19 13.02.2021
2616 Snow -2 1011 80 10000 10.29 90 23:45 12.02.2021
2617 Snow -2 1011 80 10000 10.29 90 23:19 12.02.2021
2618 Snow -2 1010 74 10000 12.35 90 22:32 12.02.2021
2619 Snow -2 1009 74 10000 10.8 80 21:59 12.02.2021
2620 Snow -2 1009 74 10000 10.8 80 21:40 12.02.2021
2621 Snow -2 1009 74 10000 10.8 80 21:21 12.02.2021
2622 Snow -2 1008 80 10000 10.8 90 20:41 12.02.2021
2623 Snow -2 1008 80 10000 10.8 90 20:41 12.02.2021
2624 Snow -2 1008 80 10000 10.8 90 20:23 12.02.2021
2625 Snow -2 1007 74 10000 11.32 90 19:54 12.02.2021
2626 Snow -2 1007 74 10000 11.32 90 19:29 12.02.2021
2627 Snow -2 1007 74 10000 10.29 80 18:35 12.02.2021
2628 Snow -2 1006 74 8047 12.35 90 17:56 12.02.2021
2629 Snow -2 1006 80 4828 10.29 80 17:38 12.02.2021
2630 Snow -2 1006 74 8047 11.83 80 16:54 12.02.2021
2631 Snow -3 1006 74 2816 11.83 80 16:18 12.02.2021
2632 Snow -3 1006 68 9656 12.86 80 15:43 12.02.2021
2633 Snow -3 1006 68 9656 12.86 80 15:20 12.02.2021
2634 Snow -3 1005 68 10000 11.32 70 14:36 12.02.2021
2635 Clouds -2 1005 64 10000 9.77 70 13:49 12.02.2021
2636 Clouds -2 1005 64 10000 9.77 70 13:29 12.02.2021
2637 Snow -2 1005 64 10000 10.8 60 12:53 12.02.2021
2638 Snow -2 1005 64 10000 10.8 60 12:35 12.02.2021
2639 Snow -5 1005 80 10000 9.26 50 11:48 12.02.2021
2640 Snow -4 1005 80 4828 10.8 40 11:22 12.02.2021
2641 Snow -7 1006 86 4828 11.32 40 10:48 12.02.2021
2642 Snow -8 1006 86 2816 12.86 40 10:19 12.02.2021
2643 Snow -8 1006 79 1207 13.89 40 09:42 12.02.2021
2644 Mist -8 1006 86 1609 12.86 40 09:23 12.02.2021
2645 Snow -8 1006 79 1207 13.38 50 08:45 12.02.2021
2646 Snow -9 1007 86 805 13.89 50 08:22 12.02.2021
2647 Snow -9 1008 86 4023 8.23 20 07:52 12.02.2021
2648 Snow -9 1008 86 4023 8.23 20 07:24 12.02.2021
2649 Snow -8 1008 79 2414 10.29 30 06:53 12.02.2021
2650 Snow -9 1009 79 2414 10.29 30 05:37 12.02.2021
2651 Snow -11 1010 85 2414 7.2 10 03:46 12.02.2021
2652 Snow -12 1013 72 2012 11.32 30 00:34 12.02.2021
2653 Snow -12 1013 72 1207 11.32 30 23:38 11.02.2021
2654 Snow -13 1014 78 2012 10.8 30 23:18 11.02.2021
2655 Snow -13 1014 72 3219 7.2 50 22:42 11.02.2021
2656 Snow -14 1015 66 8047 8.75 10 22:23 11.02.2021
2657 Clouds -15 1015 43 10000 7.72 360 21:43 11.02.2021
2658 Clouds -15 1015 43 10000 7.72 360 21:25 11.02.2021
2659 Clouds -17 1017 46 10000 7.2 30 20:56 11.02.2021
2660 Clouds -17 1017 46 10000 7.2 30 20:37 11.02.2021
2661 Clouds -17 1017 46 10000 7.2 30 20:18 11.02.2021
2662 Clear -18 1017 42 10000 6.69 10 19:46 11.02.2021
2663 Clear -18 1017 42 10000 6.69 10 19:25 11.02.2021
2664 Clear -18 1018 38 10000 3.59 33 18:42 11.02.2021
2665 Clear -18 1018 38 10000 3.52 37 18:19 11.02.2021
2666 Clear -21 1019 49 10000 5.14 360 17:47 11.02.2021
2667 Clear -21 1019 49 10000 5.14 360 17:21 11.02.2021
2668 Clear -21 1020 41 10000 3.09 30 16:45 11.02.2021
2669 Clear -21 1020 41 10000 3.09 30 16:26 11.02.2021
2670 Clear -23 1021 45 10000 4.41 23 15:45 11.02.2021
2671 Clear -23 1021 45 10000 3.21 38 15:26 11.02.2021
2672 Clear -23 1021 45 10000 3.21 38 15:26 11.02.2021
2673 Clear -24 1022 44 10000 1.54 30 14:55 11.02.2021
2674 Clear -24 1022 44 10000 1.54 30 14:31 11.02.2021
2675 Clear -27 1022 58 10000 1.54 30 13:43 11.02.2021
2676 Clear -27 1022 58 10000 1.54 30 13:20 11.02.2021
2677 Clear -27 1023 58 10000 3.32 31 12:56 11.02.2021
2678 Clear -27 1023 58 10000 3.32 31 12:33 11.02.2021
2679 Clear -28 1024 57 10000 2.06 320 11:48 11.02.2021
2680 Clear -28 1024 57 10000 2.06 320 11:28 11.02.2021
2681 Clear -24 1025 44 10000 3.6 360 10:55 11.02.2021
2682 Clear -24 1025 44 10000 3.6 360 10:37 11.02.2021
2683 Clear -24 1025 44 10000 3.6 360 10:19 11.02.2021
2684 Clear -26 1025 53 10000 3.6 20 09:38 11.02.2021
2685 Clear -26 1025 53 10000 3.6 20 09:18 11.02.2021
2686 Clear -27 1026 58 10000 2.61 41 08:44 11.02.2021
2687 Clear -26 1026 58 10000 1.54 30 07:43 11.02.2021
2688 Clear -26 1026 58 10000 2.57 340 06:44 11.02.2021
2689 Clear -22 1027 45 10000 4.63 10 05:55 11.02.2021
2690 Clear -22 1027 49 10000 2.57 350 03:45 11.02.2021
2691 Clear -21 1028 49 10000 3.6 40 02:23 11.02.2021
2692 Clear -21 1029 45 10000 3.6 40 00:23 11.02.2021
2693 Clear -21 1029 45 10000 3.6 40 00:23 11.02.2021
2694 Clear -22 1029 49 10000 3.09 360 23:52 10.02.2021
2695 Clear -22 1029 49 10000 3.09 360 23:20 10.02.2021
2696 Clear -24 1029 49 10000 4.12 350 22:43 10.02.2021
2697 Clear -24 1029 49 10000 4.12 350 22:23 10.02.2021
2698 Clear -25 1029 53 10000 4.63 360 21:40 10.02.2021
2699 Clear -25 1029 53 10000 4.63 360 21:21 10.02.2021
2700 Clear -23 1030 45 10000 4.12 20 20:52 10.02.2021
2701 Clear -23 1030 45 10000 4.12 20 20:29 10.02.2021
2702 Clear -24 1030 49 10000 3.06 26 19:50 10.02.2021
2703 Clear -24 1030 49 10000 2.97 26 19:29 10.02.2021
2704 Clear -24 1030 49 10000 3.6 360 18:49 10.02.2021
2705 Clear -24 1030 49 10000 3.6 360 18:29 10.02.2021
2706 Clear -24 1030 49 10000 9.77 30 17:59 10.02.2021
2707 Clear -24 1030 49 10000 9.77 30 17:40 10.02.2021
2708 Clear -24 1030 49 10000 9.77 30 17:20 10.02.2021
2709 Clear -23 1031 45 10000 7.72 30 16:46 10.02.2021
2710 Clear -23 1031 45 10000 7.72 30 16:25 10.02.2021
2711 Clear -23 1031 45 10000 10.29 40 15:25 10.02.2021
2712 Clear -23 1032 49 10000 2.38 34 14:58 10.02.2021
2713 Clear -23 1032 49 10000 2.38 34 14:39 10.02.2021
2714 Clear -23 1032 49 10000 1.54 350 13:55 10.02.2021
2715 Clear -23 1032 49 10000 1.54 350 13:31 10.02.2021
2716 Clear -23 1033 49 10000 2.58 38 12:55 10.02.2021
2717 Clear -23 1033 49 10000 2.58 38 12:31 10.02.2021
2718 Clear -22 1033 45 10000 5.66 10 11:59 10.02.2021
2719 Clear -22 1033 45 10000 5.66 10 11:40 10.02.2021
2720 Clear -22 1033 45 10000 5.66 10 11:22 10.02.2021
2721 Clear -23 1033 49 10000 2.57 90 10:37 10.02.2021
2722 Clear -23 1033 49 10000 2.57 90 10:18 10.02.2021
2723 Clear -23 1033 49 10000 2.57 90 10:18 10.02.2021
2724 Clear -22 1033 45 10000 2.06 60 09:35 10.02.2021
2725 Clear -24 1034 64 10000 2.22 36 08:57 10.02.2021
2726 Clear -24 1034 64 10000 2.22 36 08:39 10.02.2021
2727 Clear -21 1034 45 10000 3.6 170 07:52 10.02.2021
2728 Clear -20 1034 45 10000 4.12 30 06:44 10.02.2021
2729 Clear -19 1034 42 10000 7.2 60 02:26 10.02.2021
2730 Clear -18 1035 46 10000 7.72 60 00:25 10.02.2021
2731 Clear -18 1035 46 10000 7.72 60 23:34 09.02.2021
2732 Clear -18 1035 42 10000 7.2 50 22:54 09.02.2021
2733 Clear -18 1035 42 10000 7.2 50 22:24 09.02.2021
2734 Clear -18 1035 42 10000 5.14 40 21:52 09.02.2021
2735 Clear -18 1035 42 10000 5.14 40 21:32 09.02.2021
2736 Clear -18 1035 42 10000 5.66 50 20:49 09.02.2021
2737 Clear -18 1035 42 10000 5.66 50 20:26 09.02.2021
2738 Clear -18 1035 42 10000 4.63 70 19:58 09.02.2021
2739 Clear -18 1035 42 10000 4.63 70 19:36 09.02.2021
2740 Clear -18 1035 46 10000 8.23 50 18:58 09.02.2021
2741 Clear -18 1035 46 10000 8.23 50 18:58 09.02.2021
2742 Clear -18 1035 46 10000 8.23 50 18:58 09.02.2021
2743 Clear -18 1035 46 10000 8.23 50 18:58 09.02.2021
2744 Clear -18 1035 46 10000 8.23 50 18:36 09.02.2021
2745 Clear -18 1035 50 10000 6.17 50 17:57 09.02.2021
2746 Clear -18 1035 50 10000 6.17 50 17:37 09.02.2021
2747 Clear -18 1035 50 10000 6.17 50 17:19 09.02.2021
2748 Clear -18 1035 50 10000 4.12 40 16:41 09.02.2021
2749 Clear -18 1035 50 10000 4.12 40 16:18 09.02.2021
2750 Clear -18 1036 50 10000 5.66 20 15:48 09.02.2021
2751 Clear -18 1036 50 10000 5.66 20 15:25 09.02.2021
2752 Clear -17 1036 51 10000 4.12 40 14:53 09.02.2021
2753 Clear -17 1036 51 10000 4.12 40 14:28 09.02.2021
2754 Clear -17 1036 51 10000 2.06 10 13:52 09.02.2021
2755 Clear -16 1036 51 10000 2.06 10 13:25 09.02.2021
2756 Clear -16 1036 51 10000 2.06 10 13:25 09.02.2021
2757 Clouds -15 1036 43 10000 5.14 60 12:54 09.02.2021
2758 Clouds -15 1036 43 10000 5.14 60 12:36 09.02.2021
2759 Clouds -15 1035 47 10000 6.17 40 11:57 09.02.2021
2760 Clouds -15 1035 47 10000 6.17 40 11:38 09.02.2021
2761 Clouds -15 1035 47 10000 6.17 40 11:20 09.02.2021
2762 Clouds -14 1035 51 10000 5.14 40 10:49 09.02.2021
2763 Clouds -14 1035 51 10000 5.14 40 10:18 09.02.2021
2764 Clouds -14 1036 51 10000 7.72 30 09:43 09.02.2021
2765 Clouds -14 1036 51 10000 7.72 30 09:24 09.02.2021
2766 Clouds -14 1036 51 10000 6.17 40 08:44 09.02.2021
2767 Clouds -14 1036 51 10000 6.17 40 08:25 09.02.2021
2768 Clouds -14 1036 40 10000 8.23 40 06:49 09.02.2021
2769 Clouds -14 1036 47 10000 6.17 20 04:52 09.02.2021
2770 Clouds -13 1036 44 10000 4.12 40 03:38 09.02.2021
2771 Clouds -13 1036 44 10000 2.57 40 00:34 09.02.2021
2772 Clouds -13 1036 52 10000 3.09 40 23:57 08.02.2021
2773 Clouds -13 1036 52 10000 3.09 40 23:21 08.02.2021
2774 Clouds -14 1036 43 10000 4.12 60 22:44 08.02.2021
2775 Clouds -13 1036 43 10000 4.12 60 22:25 08.02.2021
2776 Clouds -14 1036 51 10000 3.6 50 21:57 08.02.2021
2777 Clouds -14 1036 51 10000 3.6 50 21:33 08.02.2021
2778 Clear -15 1036 51 10000 4.12 70 20:59 08.02.2021
2779 Clear -16 1036 51 10000 4.12 70 20:40 08.02.2021
2780 Clear -16 1036 51 10000 4.12 70 20:21 08.02.2021
2781 Clear -16 1036 56 10000 3.24 82 19:44 08.02.2021
2782 Clear -15 1036 56 10000 3.07 75 19:25 08.02.2021
2783 Clear -14 1035 43 10000 4.63 70 18:49 08.02.2021
2784 Clear -14 1035 43 10000 4.63 70 18:24 08.02.2021
2785 Clear -14 1035 44 10000 5.14 70 17:47 08.02.2021
2786 Clear -14 1035 44 10000 5.14 70 17:26 08.02.2021
2787 Clear -14 1035 56 10000 4.63 30 16:45 08.02.2021
2788 Clear -14 1035 56 10000 4.63 30 16:23 08.02.2021
2789 Clear -15 1036 51 10000 4.12 60 15:48 08.02.2021
2790 Clear -15 1036 51 10000 4.12 60 15:21 08.02.2021
2791 Clear -16 1036 51 10000 5.14 50 14:58 08.02.2021
2792 Clear -15 1036 51 10000 5.14 50 14:39 08.02.2021
2793 Clear -15 1036 51 10000 5.14 50 14:20 08.02.2021
2794 Clear -18 1036 55 10000 4.63 30 13:40 08.02.2021
2795 Clear -18 1036 55 10000 4.63 30 13:22 08.02.2021
2796 Clear -20 1037 60 10000 3.09 40 12:37 08.02.2021
2797 Clear -21 1036 71 10000 2.06 73 11:51 08.02.2021
2798 Clear -21 1036 71 10000 2.32 75 11:24 08.02.2021
2799 Clear -21 1036 71 10000 2.32 75 10:46 08.02.2021
2800 Clear -21 1036 71 10000 2.32 75 10:46 08.02.2021
2801 Clear -22 1036 71 10000 2 75 10:24 08.02.2021
2802 Clear -22 1036 70 10000 3.09 20 09:55 08.02.2021
2803 Clear -22 1036 70 10000 3.09 20 09:36 08.02.2021
2804 Clear -21 1035 77 10000 1.54 140 08:51 08.02.2021
2805 Clear -21 1035 77 10000 1.54 140 08:23 08.02.2021
2806 Clear -22 1035 77 10000 2.29 54 07:36 08.02.2021
2807 Clear -21 1035 77 10000 2.28 42 06:31 08.02.2021
2808 Clear -21 1035 71 10000 2.57 30 04:53 08.02.2021
2809 Clear -18 1036 84 10000 1.79 37 01:51 08.02.2021
2810 Clear -19 1036 84 10000 1.86 40 00:23 08.02.2021
2811 Clear -20 1036 84 10000 1.54 350 23:52 07.02.2021
2812 Clear -20 1036 84 10000 1.54 350 23:27 07.02.2021
2813 Clear -20 1036 84 10000 1.72 42 22:55 07.02.2021
2814 Clear -20 1036 84 10000 1.72 42 22:37 07.02.2021
2815 Clear -21 1036 84 10000 1.75 49 22:19 07.02.2021
2816 Clear -22 1037 84 10000 1.75 49 21:47 07.02.2021
2817 Clear -23 1037 84 10000 2.44 41 21:21 07.02.2021
2818 Clear -23 1036 77 10000 2.44 41 20:48 07.02.2021
2819 Clear -22 1036 77 10000 2.65 31 20:27 07.02.2021
2820 Clear -21 1036 84 10000 2.65 31 19:43 07.02.2021
2821 Clear -21 1036 84 10000 1.98 35 19:25 07.02.2021
2822 Clear -20 1036 84 10000 1.98 35 18:44 07.02.2021
2823 Clear -20 1036 84 10000 1.69 41 18:26 07.02.2021
2824 Clouds -20 1036 92 10000 1.69 41 17:44 07.02.2021
2825 Clouds -18 1037 85 10000 1.54 340 17:22 07.02.2021
2826 Clouds -18 1037 78 10000 1.77 36 16:58 07.02.2021
2827 Clouds -18 1037 78 10000 1.77 36 16:39 07.02.2021
2828 Clouds -17 1037 78 10000 1.63 34 16:19 07.02.2021
2829 Clouds -17 1038 85 10000 1.54 160 15:42 07.02.2021
2830 Clouds -16 1038 85 10000 1.54 160 15:21 07.02.2021
2831 Clouds -16 1038 78 10000 2.41 28 14:43 07.02.2021
2832 Clouds -13 1038 78 10000 2.11 36 14:25 07.02.2021
2833 Clouds -13 1038 78 10000 1.54 190 13:43 07.02.2021
2834 Clouds -13 1038 78 10000 1.55 52 13:25 07.02.2021
2835 Clouds -14 1038 78 10000 1.52 44 12:39 07.02.2021
2836 Clouds -14 1038 78 10000 1.84 40 12:20 07.02.2021
2837 Clouds -12 1038 72 10000 1.84 40 11:42 07.02.2021
2838 Clouds -15 1038 72 10000 1.56 42 11:24 07.02.2021
2839 Snow -15 1038 85 10000 2 43 10:29 07.02.2021
2840 Snow -14 1037 85 10000 1.54 360 09:57 07.02.2021
2841 Snow -11 1037 85 10000 1.54 360 09:38 07.02.2021
2842 Snow -11 1037 85 10000 1.54 360 09:18 07.02.2021
2843 Snow -11 1037 85 10000 1.54 360 09:18 07.02.2021
2844 Clouds -11 1037 85 10000 1.54 340 07:57 07.02.2021
2845 Clouds -10 1037 73 10000 2.57 340 06:32 07.02.2021
2846 Clouds -9 1036 79 10000 1.54 10 04:45 07.02.2021
2847 Clouds -8 1036 73 10000 1.54 60 02:52 07.02.2021
2848 Clouds -8 1035 79 10000 3.09 110 00:39 07.02.2021
2849 Clouds -8 1035 79 10000 4.12 100 23:53 06.02.2021
2850 Mist -9 1033 86 8047 2.57 80 22:59 06.02.2021
2851 Mist -9 1033 86 8047 2.57 80 22:21 06.02.2021
2852 Snow -11 1032 85 9656 0.95 24 21:37 06.02.2021
2853 Snow -11 1032 85 9656 0.7 331 21:19 06.02.2021
2854 Mist -9 1031 86 6437 0.7 331 20:44 06.02.2021
2855 Snow -9 1031 86 6437 0.97 281 20:22 06.02.2021
2856 Snow -9 1030 86 4828 0.97 281 19:46 06.02.2021
2857 Snow -9 1030 86 4828 1.14 280 19:25 06.02.2021
2858 Clouds -9 1029 79 10000 1.14 280 18:45 06.02.2021
2859 Clouds -9 1029 79 10000 1.24 265 18:26 06.02.2021
2860 Clouds -9 1029 86 10000 3.09 300 17:41 06.02.2021
2861 Clouds -9 1029 86 10000 3.09 300 17:21 06.02.2021
2862 Clouds -10 1028 85 10000 2.06 260 16:55 06.02.2021
2863 Clouds -10 1028 85 10000 2.06 260 16:30 06.02.2021
2864 Clouds -9 1027 86 10000 3.6 220 15:53 06.02.2021
2865 Clouds -9 1027 86 10000 3.6 220 15:34 06.02.2021
2866 Clouds -9 1026 86 10000 4.63 230 14:59 06.02.2021
2867 Clouds -9 1026 86 10000 4.63 230 14:39 06.02.2021
2868 Clouds -9 1026 86 10000 4.63 230 14:21 06.02.2021
2869 Snow -8 1026 86 10000 6.69 240 13:45 06.02.2021
2870 Snow -7 1025 86 4828 7.2 230 12:48 06.02.2021
2871 Snow -7 1025 86 10000 6.17 230 12:20 06.02.2021
2872 Snow -7 1024 93 4828 5.66 230 11:42 06.02.2021
2873 Snow -6 1024 86 3219 5.14 230 11:20 06.02.2021
2874 Snow -6 1023 86 10000 6.17 220 10:53 06.02.2021
2875 Snow -6 1023 93 4828 7.2 210 10:28 06.02.2021
2876 Snow -4 1023 86 4828 6.69 220 09:54 06.02.2021
2877 Snow -4 1023 86 4828 6.69 220 09:36 06.02.2021
2878 Rain -4 1022 93 4023 5.14 200 09:18 06.02.2021
2879 Snow -4 1021 93 4828 4.63 190 08:29 06.02.2021
2880 Snow -4 1021 93 3219 4.12 170 07:44 06.02.2021
2881 Snow -8 1019 93 2012 10.29 80 05:42 06.02.2021
2882 Snow -8 1018 79 805 11.32 80 03:48 06.02.2021
2883 Snow -9 1019 79 402 11.32 80 01:33 06.02.2021
2884 Snow -9 1019 79 402 12.86 90 00:46 06.02.2021
2885 Snow -9 1019 79 402 12.86 90 00:19 06.02.2021
2886 Snow -9 1019 79 805 10.8 90 23:42 05.02.2021
2887 Snow -9 1019 79 805 10.8 90 23:24 05.02.2021
2888 Snow -9 1019 79 1207 10.29 90 22:45 05.02.2021
2889 Snow -10 1019 85 1207 12.35 90 22:18 05.02.2021
2890 Snow -10 1019 85 1207 13.89 90 21:41 05.02.2021
2891 Snow -10 1019 85 1207 13.89 90 21:23 05.02.2021
2892 Snow -10 1020 85 1207 12.86 100 20:39 05.02.2021
2893 Snow -10 1019 86 1609 12.86 90 19:50 05.02.2021
2894 Snow -9 1019 86 1609 9.26 80 19:19 05.02.2021
2895 Snow -9 1019 79 2414 11.32 90 18:52 05.02.2021
2896 Snow -9 1020 79 3219 10.8 90 18:20 05.02.2021
2897 Clouds -9 1020 73 10000 9.77 90 17:44 05.02.2021
2898 Clouds -9 1020 73 10000 9.77 90 17:21 05.02.2021
2899 Clouds -9 1020 79 10000 10.29 90 16:48 05.02.2021
2900 Clouds -9 1020 79 10000 10.29 90 16:23 05.02.2021
2901 Clouds -8 1021 73 10000 10.8 90 15:54 05.02.2021
2902 Clouds -8 1021 73 10000 10.8 90 15:26 05.02.2021
2903 Clouds -8 1021 73 10000 9.77 90 14:40 05.02.2021
2904 Clouds -8 1021 73 10000 9.77 90 14:22 05.02.2021
2905 Clouds -8 1021 73 10000 10.8 80 13:59 05.02.2021
2906 Clouds -8 1021 73 10000 10.8 80 13:36 05.02.2021
2907 Clouds -8 1023 73 10000 8.23 90 12:49 05.02.2021
2908 Clouds -8 1023 73 10000 8.23 90 12:28 05.02.2021
2909 Clouds -9 1023 73 10000 8.23 100 11:41 05.02.2021
2910 Clouds -9 1023 73 10000 8.23 100 11:21 05.02.2021
2911 Clouds -9 1023 73 10000 8.75 100 10:57 05.02.2021
2912 Clouds -9 1023 73 10000 8.75 100 10:27 05.02.2021
2913 Clouds -9 1023 73 10000 7.72 80 09:47 05.02.2021
2914 Clouds -9 1023 73 10000 7.72 80 09:28 05.02.2021
2915 Clouds -9 1023 67 10000 9.26 90 08:53 05.02.2021
2916 Clouds -9 1023 67 10000 9.26 90 08:23 05.02.2021
2917 Clouds -11 1023 79 10000 10.29 90 07:37 05.02.2021
2918 Snow -11 1023 73 10000 9.26 90 06:54 05.02.2021
2919 Snow -12 1024 72 10000 7.72 70 05:38 05.02.2021
2920 Snow -13 1024 72 3219 8.23 80 03:22 05.02.2021
2921 Snow -14 1024 72 4023 7.2 80 02:24 05.02.2021
2922 Snow -15 1024 72 3219 7.2 80 00:41 05.02.2021
2923 Snow -15 1024 72 3219 7.2 80 00:20 05.02.2021
2924 Snow -15 1024 66 2816 7.2 80 23:57 04.02.2021
2925 Snow -15 1024 60 6437 7.72 80 23:39 04.02.2021
2926 Snow -16 1024 60 6437 7.72 80 23:20 04.02.2021
2927 Snow -16 1024 60 6437 7.72 80 23:20 04.02.2021
2928 Snow -16 1024 60 6437 7.72 80 23:20 04.02.2021
2929 Snow -16 1024 55 10000 7.2 90 22:51 04.02.2021
2930 Snow -16 1024 55 10000 7.2 90 22:51 04.02.2021
2931 Snow -17 1024 55 10000 7.2 90 22:26 04.02.2021
2932 Snow -17 1024 55 10000 4.63 70 21:42 04.02.2021
2933 Snow -17 1024 55 10000 4.63 70 21:20 04.02.2021
2934 Snow -18 1023 50 10000 4.12 70 20:49 04.02.2021
2935 Snow -18 1023 50 10000 4.12 70 20:30 04.02.2021
2936 Snow -18 1023 50 10000 4.12 70 20:30 04.02.2021
2937 Snow -18 1023 50 10000 4.12 70 20:30 04.02.2021
2938 Snow -18 1023 50 10000 4.12 70 20:30 04.02.2021
2939 Snow -19 1023 55 10000 3.6 60 19:43 04.02.2021
2940 Clouds -19 1023 55 10000 4.63 30 18:57 04.02.2021
2941 Clouds -19 1023 55 10000 4.63 30 18:26 04.02.2021
2942 Clouds -19 1023 50 10000 4.63 60 17:56 04.02.2021
2943 Clouds -19 1023 50 10000 4.63 60 17:37 04.02.2021
2944 Clouds -19 1023 50 10000 4.63 60 17:18 04.02.2021
2945 Clouds -23 1022 59 10000 3.6 60 16:41 04.02.2021
2946 Clouds -21 1022 59 10000 3.6 60 16:18 04.02.2021
2947 Clear -21 1022 54 10000 2.57 70 15:40 04.02.2021
2948 Clear -21 1022 54 10000 2.57 70 15:21 04.02.2021
2949 Clear -24 1021 59 10000 4.12 50 14:48 04.02.2021
2950 Clear -25 1021 59 10000 4.12 50 14:21 04.02.2021
2951 Clear -26 1021 64 10000 1.54 50 13:49 04.02.2021
2952 Clear -25 1021 64 10000 1.54 50 13:28 04.02.2021
2953 Clear -24 1020 59 10000 3.09 30 12:54 04.02.2021
2954 Clear -27 1020 70 10000 3.02 41 11:58 04.02.2021
2955 Clear -27 1020 70 10000 3.02 41 11:37 04.02.2021
2956 Clear -27 1020 70 10000 2.43 40 11:18 04.02.2021
2957 Clear -27 1019 58 10000 1.54 20 10:36 04.02.2021
2958 Clear -27 1018 70 10000 2.57 10 09:46 04.02.2021
2959 Clear -27 1018 70 10000 2.57 10 09:23 04.02.2021
2960 Clear -26 1017 59 10000 2.06 360 08:58 04.02.2021
2961 Clear -25 1017 59 10000 2.06 360 08:27 04.02.2021
2962 Clear -26 1017 64 10000 1.54 360 07:59 04.02.2021
2963 Clear -26 1017 64 10000 1.54 360 07:35 04.02.2021
2964 Clear -26 1016 64 10000 3.09 10 06:54 04.02.2021
2965 Clear -26 1016 64 10000 3.09 10 06:34 04.02.2021
2966 Clear -20 1014 59 10000 3.6 40 03:52 04.02.2021
2967 Clear -19 1014 55 10000 3.09 30 02:24 04.02.2021
2968 Clear -20 1013 55 10000 4.12 40 00:33 04.02.2021
2969 Clouds -20 1013 55 10000 6.17 50 23:39 03.02.2021
2970 Clouds -20 1012 60 10000 5.66 50 22:42 03.02.2021
2971 Clouds -19 1012 60 10000 5.66 50 22:21 03.02.2021
2972 Clouds -18 1012 65 10000 4.12 40 21:56 03.02.2021
2973 Clouds -18 1012 65 10000 4.12 40 21:25 03.02.2021
2974 Clouds -17 1012 55 10000 4.63 70 20:58 03.02.2021
2975 Clouds -17 1012 55 10000 4.63 70 20:38 03.02.2021
2976 Clouds -18 1012 55 10000 4.63 70 20:18 03.02.2021
2977 Clouds -17 1011 55 10000 4.12 70 19:41 03.02.2021
2978 Clouds -17 1011 55 10000 4.12 70 19:18 03.02.2021
2979 Clouds -16 1011 55 10000 4.12 60 18:41 03.02.2021
2980 Clouds -16 1011 55 10000 4.12 60 18:19 03.02.2021
2981 Clouds -16 1011 60 10000 5.14 70 17:49 03.02.2021
2982 Clouds -16 1011 60 10000 5.14 70 17:30 03.02.2021
2983 Clouds -16 1011 55 10000 5.66 80 16:52 03.02.2021
2984 Clouds -16 1011 55 10000 5.66 80 16:27 03.02.2021
2985 Clouds -15 1011 56 10000 6.69 80 15:45 03.02.2021
2986 Clouds -15 1011 56 10000 6.69 80 15:25 03.02.2021
2987 Clouds -15 1010 56 10000 7.72 80 14:53 03.02.2021
2988 Clouds -15 1010 56 10000 7.72 80 14:26 03.02.2021
2989 Clouds -15 1010 56 10000 8.23 80 13:54 03.02.2021
2990 Clouds -15 1010 56 10000 8.23 80 13:28 03.02.2021
2991 Clouds -14 1010 51 10000 7.72 80 12:49 03.02.2021
2992 Clouds -15 1010 51 10000 7.72 80 12:27 03.02.2021
2993 Clouds -15 1010 56 10000 5.66 80 11:54 03.02.2021
2994 Clouds -14 1010 56 10000 5.66 80 11:34 03.02.2021
2995 Clouds -14 1009 56 10000 6.17 70 10:54 03.02.2021
2996 Clouds -14 1009 56 10000 6.17 70 10:22 03.02.2021
2997 Clouds -13 1009 56 10000 6.69 70 09:48 03.02.2021
2998 Clouds -14 1009 56 10000 6.69 70 09:28 03.02.2021
2999 Clouds -14 1009 61 10000 4.63 60 08:53 03.02.2021
3000 Clouds -13 1009 61 10000 4.63 60 08:28 03.02.2021
3001 Clouds -12 1008 56 10000 6.69 80 07:39 03.02.2021
3002 Clouds -12 1009 56 10000 6.17 70 06:41 03.02.2021
3003 Clouds -12 1008 61 10000 7.72 70 04:54 03.02.2021
3004 Clouds -12 1008 61 10000 7.72 70 04:29 03.02.2021
3005 Clouds -12 1008 61 10000 9.77 70 03:24 03.02.2021
3006 Clouds -12 1008 61 10000 8.75 70 02:36 03.02.2021
3007 Clouds -11 1009 57 10000 6.69 60 00:36 03.02.2021
3008 Clouds -11 1009 62 10000 8.75 70 23:53 02.02.2021
3009 Clouds -11 1009 62 10000 8.75 70 23:29 02.02.2021
3010 Clouds -11 1009 62 10000 9.26 80 22:59 02.02.2021
3011 Snow -11 1009 62 10000 9.26 80 22:23 02.02.2021
3012 Snow -11 1009 62 10000 10.8 80 21:58 02.02.2021
3013 Snow -11 1009 62 10000 10.8 80 21:37 02.02.2021
3014 Snow -11 1009 62 10000 10.8 80 21:18 02.02.2021
3015 Snow -11 1008 62 10000 11.32 70 20:43 02.02.2021
3016 Snow -11 1008 62 10000 11.32 70 20:20 02.02.2021
3017 Snow -11 1008 62 10000 11.32 70 20:20 02.02.2021
3018 Snow -11 1009 62 10000 9.77 70 19:48 02.02.2021
3019 Snow -11 1009 62 10000 9.77 70 19:29 02.02.2021
3020 Clear -12 1010 61 10000 11.32 70 18:45 02.02.2021
3021 Clear -12 1010 61 10000 11.32 70 18:25 02.02.2021
3022 Clear -11 1011 57 10000 10.29 70 17:50 02.02.2021
3023 Snow -11 1011 57 10000 10.29 70 17:23 02.02.2021
3024 Snow -11 1011 57 10000 11.83 70 16:57 02.02.2021
3025 Snow -11 1011 57 10000 11.83 70 16:38 02.02.2021
3026 Clouds -11 1011 52 10000 10.8 70 15:59 02.02.2021
3027 Clouds -12 1011 52 10000 10.8 70 15:41 02.02.2021
3028 Clouds -12 1011 52 10000 10.8 70 15:21 02.02.2021
3029 Clear -12 1013 56 10000 8.75 60 14:41 02.02.2021
3030 Clear -12 1013 56 10000 8.75 60 14:19 02.02.2021
3031 Clear -13 1014 61 10000 7.72 50 13:46 02.02.2021
3032 Clear -13 1014 61 10000 7.72 50 13:28 02.02.2021
3033 Clear -13 1015 52 10000 8.75 60 12:57 02.02.2021
3034 Clear -14 1015 52 10000 8.75 60 12:29 02.02.2021
3035 Clear -14 1016 56 10000 9.26 70 11:43 02.02.2021
3036 Clear -14 1016 56 10000 9.26 70 11:21 02.02.2021
3037 Clouds -14 1016 56 10000 7.72 60 10:51 02.02.2021
3038 Clouds -14 1016 56 10000 7.72 60 10:27 02.02.2021
3039 Clouds -14 1016 56 10000 7.2 60 09:46 02.02.2021
3040 Clouds -14 1016 56 10000 7.2 60 09:25 02.02.2021
3041 Clouds -14 1017 56 10000 9.77 70 08:48 02.02.2021
3042 Clouds -14 1017 56 10000 9.77 70 08:21 02.02.2021
3043 Clouds -14 1017 56 10000 9.77 70 07:28 02.02.2021
3044 Clouds -14 1018 56 10000 9.26 80 06:42 02.02.2021
3045 Clear -14 1018 51 10000 11.32 70 05:52 02.02.2021
3046 Clouds -14 1018 56 10000 10.29 70 04:37 02.02.2021
3047 Clouds -14 1019 56 10000 11.83 90 02:25 02.02.2021
3048 Clouds -14 1020 56 10000 11.83 80 01:28 02.02.2021
3049 Clouds -14 1020 56 10000 11.32 90 00:34 02.02.2021
3050 Clouds -14 1021 56 10000 11.32 80 23:19 01.02.2021
3051 Clouds -15 1021 61 10000 12.86 90 22:43 01.02.2021
3052 Clouds -15 1021 61 10000 12.86 90 22:24 01.02.2021
3053 Snow -15 1020 61 9656 13.38 80 21:49 01.02.2021
3054 Snow -15 1020 61 9656 13.38 80 21:27 01.02.2021
3055 Clouds -15 1021 66 10000 13.38 80 20:47 01.02.2021
3056 Clouds -15 1021 66 10000 13.38 80 20:25 01.02.2021
3057 Clouds -15 1022 61 10000 14.92 90 19:59 01.02.2021
3058 Clouds -15 1022 61 10000 14.92 90 19:59 01.02.2021
3059 Clouds -15 1022 61 10000 14.92 90 19:37 01.02.2021
3060 Clouds -14 1022 61 10000 14.92 90 19:18 01.02.2021
3061 Clouds -14 1022 61 10000 12.35 90 18:43 01.02.2021
3062 Clouds -14 1022 61 10000 12.35 90 18:25 01.02.2021
3063 Clouds -14 1022 66 10000 11.83 90 17:46 01.02.2021
3064 Clouds -14 1022 66 10000 11.83 90 17:22 01.02.2021
3065 Clouds -14 1023 56 10000 11.32 80 16:42 01.02.2021
3066 Clouds -13 1023 56 10000 11.32 80 16:23 01.02.2021
3067 Clouds -13 1023 56 10000 12.86 90 15:42 01.02.2021
3068 Clouds -13 1023 56 10000 12.86 90 15:19 01.02.2021
3069 Clouds -13 1024 61 10000 10.8 90 14:51 01.02.2021
3070 Clouds -13 1024 61 10000 10.8 90 14:24 01.02.2021
3071 Clouds -13 1024 61 10000 10.8 90 14:24 01.02.2021
3072 Clouds -13 1024 56 10000 9.26 90 13:45 01.02.2021
3073 Clouds -13 1024 56 10000 9.26 90 13:26 01.02.2021
3074 Clouds -14 1025 61 10000 10.29 80 12:44 01.02.2021
3075 Clouds -14 1025 61 10000 10.29 80 12:25 01.02.2021
3076 Clouds -14 1025 56 10000 10.29 80 11:43 01.02.2021
3077 Clouds -14 1025 56 10000 10.29 80 11:21 01.02.2021
3078 Clouds -14 1025 52 10000 9.77 80 10:50 01.02.2021
3079 Clouds -14 1025 52 10000 9.77 80 10:22 01.02.2021
3080 Clouds -14 1026 56 10000 10.29 90 09:54 01.02.2021
3081 Clouds -14 1026 56 10000 10.29 90 09:35 01.02.2021
3082 Clouds -14 1026 56 10000 9.77 80 08:56 01.02.2021
3083 Clouds -14 1026 56 10000 9.77 80 08:26 01.02.2021
3084 Clouds -14 1026 56 10000 7.72 80 07:30 01.02.2021
3085 Clouds -14 1027 51 10000 6.69 70 04:34 01.02.2021
3086 Clouds -16 1028 55 10000 7.2 80 02:40 01.02.2021
3087 Clear -17 1029 55 10000 4.63 90 00:25 01.02.2021
3088 Clear -18 1029 60 10000 2.06 100 23:21 31.01.2021
3089 Clouds -19 1030 55 10000 1.54 60 22:38 31.01.2021
3090 Clouds -19 1030 55 10000 1.54 60 22:19 31.01.2021
3091 Clouds -20 1030 55 10000 4.12 50 21:47 31.01.2021
3092 Clouds -21 1030 55 10000 4.12 50 21:19 31.01.2021
3093 Clear -21 1030 59 10000 3.6 50 20:43 31.01.2021
3094 Clear -21 1030 59 10000 3.6 50 20:21 31.01.2021
3095 Clear -21 1031 59 10000 3.6 50 19:40 31.01.2021
3096 Clear -21 1031 59 10000 3.6 50 19:22 31.01.2021
3097 Clear -21 1031 65 10000 2.06 100 18:56 31.01.2021
3098 Clear -21 1031 65 10000 2.06 100 18:37 31.01.2021
3099 Clear -21 1031 65 10000 2.06 100 18:18 31.01.2021
3100 Clear -21 1030 65 10000 2.57 60 17:41 31.01.2021
3101 Clear -21 1030 65 10000 2.57 60 17:21 31.01.2021
3102 Clouds -21 1032 65 10000 3.09 70 16:42 31.01.2021
3103 Clouds -21 1032 65 10000 3.09 70 16:20 31.01.2021
3104 Clouds -20 1031 59 10000 2.57 60 15:50 31.01.2021
3105 Clouds -20 1031 59 10000 2.57 60 15:26 31.01.2021
3106 Clouds -19 1031 55 10000 3.6 50 14:39 31.01.2021
3107 Clouds -19 1031 55 10000 3.6 50 14:18 31.01.2021
3108 Clear -22 1032 65 10000 2.57 30 13:46 31.01.2021
3109 Clear -22 1032 65 10000 2.57 30 13:19 31.01.2021
3110 Clouds -23 1032 71 10000 2.57 40 12:47 31.01.2021
3111 Clouds -23 1032 71 10000 2.57 40 12:21 31.01.2021
3112 Clouds -23 1031 65 10000 1.54 10 11:40 31.01.2021
3113 Clouds -23 1031 65 10000 1.54 10 11:21 31.01.2021
3114 Clouds -25 1031 70 10000 2.51 74 10:48 31.01.2021
3115 Clouds -25 1031 70 10000 2.24 75 10:29 31.01.2021
3116 Clear -27 1031 76 10000 2.24 75 09:47 31.01.2021
3117 Clear -27 1030 84 10000 1.76 82 08:58 31.01.2021
3118 Clear -27 1030 84 10000 1.76 82 08:32 31.01.2021
3119 Clear -27 1030 76 10000 1.83 68 06:54 31.01.2021
3120 Clear -29 1030 83 10000 1.54 40 05:30 31.01.2021
3121 Clear -25 1027 64 10000 2.57 70 00:40 31.01.2021
3122 Clear -25 1027 64 10000 2.57 70 00:21 31.01.2021
3123 Clear -27 1026 77 10000 1.54 130 23:28 30.01.2021
3124 Clear -29 1026 76 10000 3.6 30 22:49 30.01.2021
3125 Clear -29 1026 76 10000 3.6 30 22:28 30.01.2021
3126 Clear -30 1026 76 10000 1.17 29 21:39 30.01.2021
3127 Clear -29 1026 76 10000 1.46 17 21:20 30.01.2021
3128 Clear -29 1026 76 10000 1.46 17 21:20 30.01.2021
3129 Clear -25 1024 77 10000 2.06 80 20:44 30.01.2021
3130 Clear -28 1024 77 10000 2.06 80 20:26 30.01.2021
3131 Clear -28 1024 76 10000 1.54 0 19:43 30.01.2021
3132 Clear -28 1024 76 10000 1.54 0 19:24 30.01.2021
3133 Clear -28 1023 77 10000 3.09 20 18:41 30.01.2021
3134 Clear -28 1023 77 10000 3.09 20 18:41 30.01.2021
3135 Clear -27 1023 77 10000 3.09 20 18:21 30.01.2021
3136 Clear -27 1023 64 10000 6.69 330 17:54 30.01.2021
3137 Clear -27 1023 64 10000 6.69 330 17:19 30.01.2021
3138 Clear -27 1022 64 10000 2.57 300 16:44 30.01.2021
3139 Clear -27 1022 64 10000 2.57 300 16:24 30.01.2021
3140 Clear -28 1021 70 10000 2.57 10 15:54 30.01.2021
3141 Clear -28 1021 70 10000 2.57 10 15:36 30.01.2021
3142 Clear -28 1021 70 10000 2.57 10 15:18 30.01.2021
3143 Clear -27 1020 64 10000 1.41 307 14:41 30.01.2021
3144 Clear -27 1020 64 10000 1.89 338 14:19 30.01.2021
3145 Clear -25 1020 59 10000 3.6 320 13:29 30.01.2021
3146 Clear -25 1019 59 10000 4.12 320 12:48 30.01.2021
3147 Clear -22 1019 59 10000 4.12 320 12:28 30.01.2021
3148 Clear -21 1017 59 10000 11.32 350 11:55 30.01.2021
3149 Clear -21 1017 59 10000 11.32 350 11:25 30.01.2021
3150 Clear -21 1016 59 10000 7.72 360 10:47 30.01.2021
3151 Clear -21 1015 65 10000 11.32 350 09:48 30.01.2021
3152 Clear -21 1015 65 10000 11.32 350 09:26 30.01.2021
3153 Snow -21 1014 65 9656 14.92 360 08:47 30.01.2021
3154 Clear -21 1013 65 10000 9.77 10 07:48 30.01.2021
3155 Clear -21 1012 65 10000 9.77 360 06:48 30.01.2021
3156 Clear -19 1010 60 10000 9.77 360 04:59 30.01.2021
3157 Clear -18 1009 55 10000 8.23 10 03:35 30.01.2021
3158 Clouds -18 1008 60 10000 10.8 360 02:24 30.01.2021
3159 Clouds -18 1007 60 10000 9.26 350 01:29 30.01.2021
3160 Clouds -17 1006 66 10000 8.23 10 00:36 30.01.2021
3161 Clouds -17 1006 66 10000 8.23 10 00:18 30.01.2021
3162 Clear -17 1005 60 10000 3.6 20 23:44 29.01.2021
3163 Clear -17 1005 60 10000 3.6 20 23:20 29.01.2021
3164 Clear -18 1004 65 10000 1.54 360 22:40 29.01.2021
3165 Clear -20 1004 65 10000 1.54 360 22:18 29.01.2021
3166 Clear -20 1003 71 10000 2.12 2 21:28 29.01.2021
3167 Clear -20 1002 71 10000 2.12 2 20:45 29.01.2021
3168 Clear -20 1002 71 10000 1.86 353 20:25 29.01.2021
3169 Clouds -20 1002 71 10000 1.86 353 19:43 29.01.2021
3170 Clouds -20 1002 71 10000 1.89 345 19:22 29.01.2021
3171 Clouds -19 1001 78 10000 2.57 10 18:58 29.01.2021
3172 Clouds -19 1001 78 10000 2.57 10 18:18 29.01.2021
3173 Clouds -17 1000 71 10000 1.54 0 17:37 29.01.2021
3174 Clouds -17 1000 71 10000 1.54 0 17:18 29.01.2021
3175 Snow -16 1000 78 10000 1.54 360 16:44 29.01.2021
3176 Snow -16 1000 78 10000 1.54 360 16:23 29.01.2021
3177 Snow -14 999 66 10000 2.57 352 15:42 29.01.2021
3178 Snow -14 999 66 10000 2.99 352 15:23 29.01.2021
3179 Snow -15 998 72 10000 1.54 260 14:31 29.01.2021
3180 Snow -14 998 72 10000 1.54 260 13:59 29.01.2021
3181 Snow -14 998 72 10000 1.54 260 13:36 29.01.2021
3182 Snow -13 997 66 10000 3.45 11 12:49 29.01.2021
3183 Snow -13 997 66 10000 3.38 17 12:22 29.01.2021
3184 Snow -13 997 66 10000 2.06 300 11:46 29.01.2021
3185 Snow -13 997 66 10000 2.06 300 11:19 29.01.2021
3186 Snow -13 997 66 10000 2.06 300 11:19 29.01.2021
3187 Snow -13 996 66 10000 2.06 360 10:48 29.01.2021
3188 Snow -13 996 66 10000 2.06 360 10:27 29.01.2021
3189 Snow -12 996 61 10000 4.12 40 09:45 29.01.2021
3190 Snow -12 996 61 10000 3.6 10 08:57 29.01.2021
3191 Snow -12 996 61 10000 3.6 10 08:33 29.01.2021
3192 Snow -12 995 61 10000 3.6 20 07:58 29.01.2021
3193 Snow -12 995 61 10000 3.6 20 07:39 29.01.2021
3194 Snow -12 995 61 10000 3.6 20 07:39 29.01.2021
3195 Snow -12 995 61 10000 3.6 20 07:19 29.01.2021
3196 Snow -12 995 72 10000 2.06 50 05:20 29.01.2021
3197 Snow -11 995 67 10000 3.09 40 02:53 29.01.2021
3198 Snow -11 995 73 10000 1.54 20 00:39 29.01.2021
3199 Snow -11 995 73 10000 1.54 20 00:20 29.01.2021
3200 Clouds -10 996 62 10000 2.57 350 23:43 28.01.2021
3201 Clouds -10 996 62 10000 2.57 350 23:24 28.01.2021
3202 Clouds -11 996 62 10000 3.09 350 22:45 28.01.2021
3203 Clouds -11 996 62 10000 3.09 350 22:26 28.01.2021
3204 Clouds -12 996 62 10000 2.06 70 21:56 28.01.2021
3205 Clouds -12 996 62 10000 2.06 70 21:34 28.01.2021
3206 Clouds -12 996 79 10000 0.9 37 20:57 28.01.2021
3207 Clouds -11 996 79 10000 0.9 37 20:39 28.01.2021
3208 Clouds -11 996 79 10000 0.65 68 20:18 28.01.2021
3209 Clouds -11 996 73 10000 0.57 44 19:40 28.01.2021
3210 Clouds -11 996 73 10000 0.94 69 19:19 28.01.2021
3211 Clouds -11 996 57 10000 2.57 70 18:43 28.01.2021
3212 Clouds -10 996 57 10000 2.57 70 18:20 28.01.2021
3213 Clouds -10 997 57 10000 2.06 50 17:45 28.01.2021
3214 Clouds -10 997 57 10000 2.06 50 17:45 28.01.2021
3215 Clouds -10 997 57 10000 2.06 50 17:26 28.01.2021
3216 Clouds -10 998 57 10000 4.12 40 16:45 28.01.2021
3217 Clouds -10 998 57 10000 4.12 40 16:23 28.01.2021
3218 Clouds -10 998 57 10000 3.6 30 15:44 28.01.2021
3219 Clouds -10 998 57 10000 3.6 30 15:19 28.01.2021
3220 Clouds -10 999 62 10000 4.12 50 14:42 28.01.2021
3221 Clouds -10 999 62 10000 4.12 50 14:23 28.01.2021
3222 Clouds -10 1000 62 10000 2.57 60 13:48 28.01.2021
3223 Clouds -11 1000 62 10000 2.57 70 12:59 28.01.2021
3224 Clouds -10 1000 62 10000 2.57 70 12:40 28.01.2021
3225 Clouds -10 1000 62 10000 2.57 70 12:21 28.01.2021
3226 Clear -11 1001 67 10000 2.57 70 11:43 28.01.2021
3227 Clear -11 1001 67 10000 2.57 70 11:20 28.01.2021
3228 Clouds -10 1002 57 10000 3.09 80 10:54 28.01.2021
3229 Clouds -10 1002 57 10000 3.09 80 10:34 28.01.2021
3230 Clouds -10 1002 57 10000 3.6 50 09:50 28.01.2021
3231 Clouds -10 1002 57 10000 3.6 50 09:25 28.01.2021
3232 Clear -11 1003 67 10000 2.57 40 08:56 28.01.2021
3233 Clear -11 1003 67 10000 2.57 40 08:38 28.01.2021
3234 Clouds -10 1004 57 10000 3.09 80 07:45 28.01.2021
3235 Clouds -10 1004 67 10000 3.09 30 06:50 28.01.2021
3236 Clouds -10 1004 67 10000 3.09 30 06:29 28.01.2021
3237 Clear -11 1006 62 10000 3.09 40 04:30 28.01.2021
3238 Clouds -8 1011 62 10000 4.12 60 01:39 28.01.2021
3239 Clouds -9 1012 67 10000 6.17 70 23:49 27.01.2021
3240 Clouds -9 1012 67 10000 6.17 70 23:24 27.01.2021
3241 Clouds -10 1013 67 10000 5.14 70 22:42 27.01.2021
3242 Clouds -10 1013 67 10000 5.14 70 22:22 27.01.2021
3243 Clear -12 1014 72 10000 3.09 50 21:43 27.01.2021
3244 Clear -15 1014 72 10000 3.09 50 21:24 27.01.2021
3245 Clear -14 1015 73 10000 2.06 90 20:55 27.01.2021
3246 Clear -14 1015 73 10000 2.06 90 20:30 27.01.2021
3247 Clear -16 1016 78 10000 4.12 40 19:56 27.01.2021
3248 Clear -15 1016 78 10000 4.12 40 19:36 27.01.2021
3249 Clear -15 1016 78 10000 4.12 40 19:18 27.01.2021
3250 Clear -20 1017 84 10000 1.54 30 18:40 27.01.2021
3251 Clear -20 1017 84 10000 1.54 30 18:21 27.01.2021
3252 Clouds -18 1019 85 10000 3.02 55 17:39 27.01.2021
3253 Clouds -18 1019 85 10000 3 51 17:18 27.01.2021
3254 Clouds -15 1020 85 10000 2.57 0 16:44 27.01.2021
3255 Clouds -15 1020 85 10000 2.57 0 16:26 27.01.2021
3256 Clouds -13 1021 78 10000 3.6 90 15:49 27.01.2021
3257 Clouds -13 1021 78 10000 3.6 90 15:30 27.01.2021
3258 Clouds -15 1021 78 10000 3.6 80 14:40 27.01.2021
3259 Clouds -15 1021 78 10000 3.6 80 14:20 27.01.2021
3260 Clouds -15 1022 85 10000 4.12 90 13:41 27.01.2021
3261 Clouds -14 1023 85 10000 4.63 90 12:46 27.01.2021
3262 Clouds -14 1023 85 10000 4.63 90 12:26 27.01.2021
3263 Clouds -14 1023 85 10000 4.12 90 11:52 27.01.2021
3264 Clouds -15 1024 85 10000 5.14 90 11:26 27.01.2021
3265 Clouds -15 1024 85 10000 5.66 100 10:51 27.01.2021
3266 Clouds -16 1024 85 10000 5.66 100 10:26 27.01.2021
3267 Clouds -16 1024 85 10000 5.14 100 09:59 27.01.2021
3268 Clouds -16 1024 85 10000 5.14 100 09:33 27.01.2021
3269 Clouds -15 1025 85 10000 3.6 100 08:47 27.01.2021
3270 Clouds -14 1026 78 10000 2.06 100 07:58 27.01.2021
3271 Clouds -14 1026 78 10000 2.06 100 07:38 27.01.2021
3272 Clouds -13 1026 85 10000 1.79 36 06:47 27.01.2021
3273 Clouds -12 1026 85 10000 3.6 40 05:56 27.01.2021
3274 Clouds -13 1026 85 10000 3.6 40 05:35 27.01.2021
3275 Clouds -9 1026 73 10000 1.54 90 02:46 27.01.2021
3276 Clouds -9 1026 73 10000 1.54 90 02:20 27.01.2021
3277 Clouds -10 1027 79 10000 1.17 47 01:46 27.01.2021
3278 Clouds -9 1027 73 10000 2.57 90 00:29 27.01.2021
3279 Clouds -10 1027 85 10000 1.42 10 23:40 26.01.2021
3280 Clouds -11 1027 85 10000 1.42 355 23:21 26.01.2021
3281 Clouds -12 1027 85 10000 1.42 355 22:40 26.01.2021
3282 Clouds -12 1027 85 10000 1.23 354 22:19 26.01.2021
3283 Clouds -12 1027 85 10000 1.23 354 21:52 26.01.2021
3284 Clouds -12 1027 85 10000 0.9 6 21:25 26.01.2021
3285 Clouds -12 1027 85 10000 0.9 6 20:54 26.01.2021
3286 Clouds -12 1027 85 10000 0.9 6 20:36 26.01.2021
3287 Clouds -12 1027 85 10000 1.18 17 20:18 26.01.2021
3288 Clouds -12 1027 85 10000 1.18 17 20:18 26.01.2021
3289 Clouds -13 1026 85 10000 2.06 20 19:40 26.01.2021
3290 Clouds -13 1026 85 10000 2.06 20 19:19 26.01.2021
3291 Clouds -13 1027 85 10000 1.32 25 18:42 26.01.2021
3292 Clouds -13 1027 85 10000 1.02 22 18:23 26.01.2021
3293 Clouds -14 1026 85 10000 1.02 22 17:48 26.01.2021
3294 Clouds -14 1026 85 10000 0.19 94 17:23 26.01.2021
3295 Clouds -14 1026 85 10000 0.19 94 16:52 26.01.2021
3296 Clouds -14 1026 85 10000 0.81 65 16:21 26.01.2021
3297 Clouds -14 1025 85 10000 0.81 65 15:53 26.01.2021
3298 Clouds -14 1025 85 10000 0.81 65 15:35 26.01.2021
3299 Snow -13 1025 78 10000 1.54 10 14:49 26.01.2021
3300 Snow -14 1025 78 10000 1.54 10 14:30 26.01.2021
3301 Clouds -13 1025 78 10000 1.11 85 13:51 26.01.2021
3302 Clouds -13 1025 78 10000 1.26 100 13:28 26.01.2021
3303 Clouds -14 1025 85 10000 0.83 122 12:46 26.01.2021
3304 Clouds -14 1025 85 10000 1.26 100 12:46 26.01.2021
3305 Clouds -14 1025 85 10000 1.03 79 12:26 26.01.2021
3306 Clouds -14 1024 78 10000 1.03 79 11:59 26.01.2021
3307 Clouds -14 1024 78 10000 1.03 79 11:40 26.01.2021
3308 Clear -14 1023 85 10000 0.73 121 10:56 26.01.2021
3309 Clear -14 1023 85 10000 0.73 121 10:33 26.01.2021
3310 Clear -15 1023 85 10000 2.06 40 09:50 26.01.2021
3311 Clear -15 1023 85 10000 2.06 40 09:32 26.01.2021
3312 Clear -14 1022 78 10000 0.53 148 08:55 26.01.2021
3313 Clear -14 1022 78 10000 0.53 148 08:37 26.01.2021
3314 Clouds -16 1021 78 10000 0.43 132 07:54 26.01.2021
3315 Clouds -17 1021 92 10000 0.49 129 06:56 26.01.2021
3316 Clouds -12 1021 88 10000 1.18 64 05:46 26.01.2021
3317 Clear -15 1020 85 10000 0.72 63 05:24 26.01.2021
3318 Clouds -16 1019 85 10000 1.54 320 02:58 26.01.2021
3319 Clouds -18 1017 78 10000 1.21 25 00:59 26.01.2021
3320 Mist -17 1017 78 4023 1.7 32 23:46 25.01.2021
3321 Clear -17 1017 78 10000 1.54 110 23:26 25.01.2021
3322 Clear -18 1016 84 10000 2.57 360 22:40 25.01.2021
3323 Clear -18 1016 84 10000 2.57 360 22:21 25.01.2021
3324 Mist -18 1015 92 4828 2.06 360 21:40 25.01.2021
3325 Haze -22 1015 84 4828 1.54 350 20:59 25.01.2021
3326 Haze -22 1015 84 4828 1.54 350 20:39 25.01.2021
3327 Haze -22 1015 84 4828 1.54 350 20:19 25.01.2021
3328 Mist -22 1015 84 4828 1.54 340 19:46 25.01.2021
3329 Mist -22 1015 84 4828 1.54 340 19:22 25.01.2021
3330 Mist -21 1015 92 4828 1.88 29 18:43 25.01.2021
3331 Mist -21 1015 92 4828 1.58 34 18:24 25.01.2021
3332 Snow -20 1014 84 10000 1.58 34 17:44 25.01.2021
3333 Snow -20 1014 84 10000 1.58 34 17:44 25.01.2021
3334 Snow -20 1014 84 10000 2.07 17 17:24 25.01.2021
3335 Snow -18 1014 85 10000 3.6 80 16:44 25.01.2021
3336 Snow -18 1014 85 10000 3.6 80 16:25 25.01.2021
3337 Snow -16 1014 78 10000 4.12 90 15:54 25.01.2021
3338 Snow -16 1014 78 10000 4.12 90 15:54 25.01.2021
3339 Snow -16 1014 78 10000 4.12 90 15:34 25.01.2021
3340 Snow -15 1014 85 10000 5.14 90 14:53 25.01.2021
3341 Snow -14 1014 85 10000 5.14 90 14:21 25.01.2021
3342 Snow -13 1015 78 10000 4.12 90 13:57 25.01.2021
3343 Snow -13 1015 78 10000 4.12 90 13:57 25.01.2021
3344 Snow -13 1015 78 10000 4.12 90 13:36 25.01.2021
3345 Snow -14 1015 85 10000 4.63 90 12:50 25.01.2021
3346 Snow -14 1015 85 10000 4.63 90 12:50 25.01.2021
3347 Snow -13 1015 78 10000 5.66 100 12:27 25.01.2021
3348 Snow -12 1015 85 4828 5.66 100 11:58 25.01.2021
3349 Snow -12 1015 85 10000 5.66 90 11:27 25.01.2021
3350 Snow -12 1015 85 9656 6.17 100 10:46 25.01.2021
3351 Snow -11 1015 92 3219 4.63 100 10:22 25.01.2021
3352 Snow -11 1015 92 3219 4.63 140 09:49 25.01.2021
3353 Snow -10 1015 92 8047 4.63 160 09:28 25.01.2021
3354 Mist -9 1015 86 8047 2.57 50 08:34 25.01.2021
3355 Clouds -9 1015 79 10000 4.12 50 07:56 25.01.2021
3356 Snow -9 1015 79 9656 2.06 50 07:28 25.01.2021
3357 Clouds -9 1015 79 10000 2.57 60 06:27 25.01.2021
3358 Clouds -9 1016 79 10000 2.06 80 02:32 25.01.2021
3359 Mist -9 1016 86 9656 2.06 50 00:40 25.01.2021
3360 Mist -9 1016 86 6437 2.57 70 23:21 24.01.2021
3361 Snow -9 1016 86 10000 3.6 360 22:59 24.01.2021
3362 Snow -9 1016 86 10000 3.6 360 22:40 24.01.2021
3363 Snow -9 1016 86 10000 3.6 360 22:40 24.01.2021
3364 Snow -9 1016 86 10000 3.6 360 22:18 24.01.2021
3365 Mist -9 1015 92 8047 4.12 350 21:31 24.01.2021
3366 Snow -8 1015 93 8047 2.06 290 20:49 24.01.2021
3367 Snow -8 1015 93 8047 2.06 290 20:24 24.01.2021
3368 Snow -8 1015 93 4828 2.57 0 19:58 24.01.2021
3369 Snow -8 1015 93 3219 3.6 270 19:39 24.01.2021
3370 Mist -8 1015 93 3219 3.6 270 19:20 24.01.2021
3371 Snow -8 1015 93 4023 3.6 270 18:55 24.01.2021
3372 Snow -8 1014 93 6437 2.06 10 18:36 24.01.2021
3373 Snow -8 1014 93 6437 2.06 10 18:18 24.01.2021
3374 Snow -8 1014 93 4828 2.04 352 17:43 24.01.2021
3375 Mist -8 1014 93 4828 3.09 250 17:19 24.01.2021
3376 Mist -8 1014 93 4828 3.6 200 16:42 24.01.2021
3377 Mist -8 1014 93 3219 3.6 200 16:21 24.01.2021
3378 Rain -8 1013 93 2816 3.6 190 15:47 24.01.2021
3379 Rain -8 1013 93 3219 4.12 190 15:21 24.01.2021
3380 Mist -8 1013 93 4828 4.63 180 14:57 24.01.2021
3381 Rain -7 1012 86 3219 4.12 180 14:34 24.01.2021
3382 Mist -7 1012 93 3219 4.12 150 13:40 24.01.2021
3383 Mist -7 1011 93 6437 4.12 130 13:18 24.01.2021
3384 Mist -6 1011 93 4828 4.12 120 12:40 24.01.2021
3385 Mist -6 1010 93 3219 3.6 120 12:19 24.01.2021
3386 Mist -5 1009 93 2414 2.57 60 11:46 24.01.2021
3387 Mist -5 1009 93 2414 2.57 60 11:23 24.01.2021
3388 Mist -5 1008 93 4828 3.06 333 10:42 24.01.2021
3389 Mist -6 1008 100 2816 2.57 180 09:57 24.01.2021
3390 Mist -5 1008 86 6437 2.79 319 09:22 24.01.2021
3391 Mist -5 1007 93 4828 2.79 319 08:52 24.01.2021
3392 Snow -5 1006 86 4828 2.74 331 07:22 24.01.2021
3393 Snow -3 1002 93 6437 2.89 329 02:34 24.01.2021
3394 Snow -1 1002 93 4828 2.57 230 00:59 24.01.2021
3395 Snow -1 1001 93 4023 2.06 270 00:24 24.01.2021
3396 Snow 0 1001 93 2414 2.01 275 23:47 23.01.2021
3397 Mist 0 1001 93 2414 1.45 282 23:25 23.01.2021
3398 Snow 0 1001 93 2414 1.45 282 22:42 23.01.2021
3399 Snow 0 1000 93 2414 0.75 313 22:24 23.01.2021
3400 Snow 0 1000 93 4828 0.75 313 21:50 23.01.2021
3401 Snow 0 1000 93 3219 0.29 323 21:21 23.01.2021
3402 Mist 0 1000 93 2816 0.29 323 20:47 23.01.2021
3403 Snow 0 1000 86 6437 0.77 88 20:22 23.01.2021
3404 Snow 0 999 86 6437 2.06 50 19:46 23.01.2021
3405 Clouds 0 999 86 10000 2.06 40 19:21 23.01.2021
3406 Snow 0 999 86 9656 2.06 70 18:49 23.01.2021
3407 Rain 0 999 86 9656 2.06 70 18:26 23.01.2021
3408 Snow 0 999 86 10000 2.57 60 17:48 23.01.2021
3409 Snow 0 999 86 10000 2.57 60 17:27 23.01.2021
3410 Rain 0 999 86 8047 1.76 21 16:49 23.01.2021
3411 Rain 0 999 86 8047 2.05 36 16:25 23.01.2021
3412 Mist 0 999 86 4828 2.57 80 15:41 23.01.2021
3413 Snow 0 999 86 4023 3.6 80 15:22 23.01.2021
3414 Snow 0 999 86 4023 4.63 80 14:33 23.01.2021
3415 Rain 0 1000 86 4828 4.12 80 13:54 23.01.2021
3416 Rain 0 1000 86 6437 4.12 90 13:35 23.01.2021
3417 Snow 0 1000 86 3219 4.12 80 12:57 23.01.2021
3418 Snow 0 1000 86 3219 4.12 80 12:57 23.01.2021
3419 Rain 0 1000 86 3219 4.12 80 12:57 23.01.2021
3420 Rain 1 1000 86 4023 5.66 80 12:28 23.01.2021
3421 Snow 1 1000 86 3219 6.17 80 11:47 23.01.2021
3422 Snow 1 1000 86 2816 6.17 80 11:27 23.01.2021
3423 Rain 1 1000 86 4023 6.69 80 10:50 23.01.2021
3424 Mist 1 1001 86 2816 6.69 90 10:21 23.01.2021
3425 Mist 0 1001 86 6437 6.69 80 09:47 23.01.2021
3426 Rain 1 1001 86 3219 6.69 90 08:54 23.01.2021
3427 Rain 1 1002 86 2816 4.63 90 08:31 23.01.2021
3428 Snow 0 1002 86 4023 5.66 110 07:25 23.01.2021
3429 Snow 0 1002 93 4828 7.2 160 03:36 23.01.2021
3430 Snow 0 1001 93 3219 5.66 140 00:42 23.01.2021
3431 Snow 0 1000 86 4828 7.72 140 23:41 22.01.2021
3432 Mist 1 1000 86 2012 7.2 130 23:18 22.01.2021
3433 Rain 0 1000 86 1609 7.2 90 22:38 22.01.2021
3434 Snow 0 1000 93 1609 6.17 80 21:47 22.01.2021
3435 Snow 0 1000 93 1609 6.17 80 21:28 22.01.2021
3436 Snow 0 1000 93 2414 4.63 70 20:57 22.01.2021
3437 Snow -1 1000 93 2414 4.63 70 20:38 22.01.2021
3438 Snow -1 1000 93 3219 5.14 70 19:56 22.01.2021
3439 Snow -1 1000 86 4828 3.6 30 19:24 22.01.2021
3440 Snow -2 1001 86 4828 4.63 340 18:57 22.01.2021
3441 Snow -2 1001 86 4828 4.63 340 18:39 22.01.2021
3442 Snow -2 1001 86 4828 4.63 340 18:20 22.01.2021
3443 Snow -3 1001 93 10000 2.57 320 17:43 22.01.2021
3444 Snow -3 1001 93 10000 2.57 320 17:20 22.01.2021
3445 Snow -3 1001 93 4023 1.54 280 16:39 22.01.2021
3446 Snow -3 1001 93 10000 2.05 327 16:19 22.01.2021
3447 Snow -3 1001 93 6437 2.57 290 15:28 22.01.2021
3448 Snow -3 1001 93 4828 2.57 290 14:54 22.01.2021
3449 Mist -2 1001 86 4828 3.6 330 14:29 22.01.2021
3450 Snow -2 1001 86 4023 1.91 313 13:47 22.01.2021
3451 Snow -3 1001 86 10000 3.09 320 13:27 22.01.2021
3452 Snow -3 1001 86 10000 3.09 350 12:44 22.01.2021
3453 Snow -3 1001 86 10000 3.09 350 12:21 22.01.2021
3454 Snow -3 1002 93 10000 3.6 340 11:45 22.01.2021
3455 Snow -3 1002 93 10000 3.09 340 10:54 22.01.2021
3456 Snow -4 1002 86 10000 3.09 360 10:34 22.01.2021
3457 Clouds -4 1002 93 10000 2.06 360 09:55 22.01.2021
3458 Clouds -5 1002 93 10000 2.06 360 09:21 22.01.2021
3459 Clouds -4 1003 93 10000 2.57 70 08:50 22.01.2021
3460 Clouds -4 1003 93 10000 2.57 70 08:25 22.01.2021
3461 Clouds -3 1003 86 10000 3.6 70 07:23 22.01.2021
3462 Clear -2 1004 86 10000 5.14 110 02:42 22.01.2021
3463 Clouds -1 1004 80 10000 6.17 150 00:38 22.01.2021
3464 Clouds -1 1004 80 10000 8.23 160 23:51 21.01.2021
3465 Clouds -1 1004 80 10000 8.23 160 23:29 21.01.2021
3466 Snow -1 1002 86 10000 8.23 170 22:49 21.01.2021
3467 Snow -1 1002 86 10000 8.23 170 22:23 21.01.2021
3468 Snow -1 1001 86 10000 9.77 150 21:43 21.01.2021
3469 Snow -1 1001 86 10000 9.77 150 21:20 21.01.2021
3470 Snow 0 999 86 6437 8.64 165 20:48 21.01.2021
3471 Snow 0 999 86 6437 11.87 151 20:27 21.01.2021
3472 Snow 0 999 93 4828 11.32 140 19:51 21.01.2021
3473 Snow 0 999 93 4023 10.29 130 19:29 21.01.2021
3474 Rain 1 998 86 9656 11.83 130 18:56 21.01.2021
3475 Rain 1 998 86 9656 11.83 130 18:38 21.01.2021
3476 Rain 1 998 86 9656 11.83 130 18:19 21.01.2021
3477 Mist 1 998 86 9656 12.35 130 17:42 21.01.2021
3478 Snow 0 998 93 9656 12.35 120 17:19 21.01.2021
3479 Snow 0 998 93 4828 13.38 120 16:42 21.01.2021
3480 Snow 0 998 93 4828 13.38 120 16:24 21.01.2021
3481 Snow 0 998 86 3219 13.38 120 15:58 21.01.2021
3482 Snow 0 998 86 4023 13.38 110 15:33 21.01.2021
3483 Snow 0 998 86 2012 13.38 110 14:52 21.01.2021
3484 Snow -1 998 93 3219 14.4 110 14:31 21.01.2021
3485 Mist -1 998 86 4828 13.89 110 13:48 21.01.2021
3486 Snow -1 998 86 4828 13.89 110 13:27 21.01.2021
3487 Snow -2 999 93 6437 11.83 100 12:47 21.01.2021
3488 Mist -2 999 86 3219 13.38 100 12:27 21.01.2021
3489 Snow -3 1000 93 1609 12.35 80 11:59 21.01.2021
3490 Snow -3 1000 93 1609 12.35 80 11:41 21.01.2021
3491 Snow -3 1000 93 1609 12.35 80 11:22 21.01.2021
3492 Snow -3 1000 86 805 10.8 80 10:43 21.01.2021
3493 Snow -3 1000 86 805 10.8 80 10:24 21.01.2021
3494 Snow -4 1001 80 10000 11.83 80 09:40 21.01.2021
3495 Clouds -4 1001 80 10000 11.83 80 09:20 21.01.2021
3496 Clouds -4 1002 80 10000 10.29 70 08:35 21.01.2021
3497 Clouds -5 1004 80 10000 8.23 70 07:49 21.01.2021
3498 Clouds -5 1004 80 10000 8.23 70 07:26 21.01.2021
3499 Clouds -6 1004 79 10000 7.2 70 06:37 21.01.2021
3500 Clouds -10 1006 79 10000 7.2 30 04:56 21.01.2021
3501 Clouds -10 1008 79 10000 8.75 30 02:19 21.01.2021
3502 Clouds -11 1010 73 10000 6.17 40 00:43 21.01.2021
3503 Clouds -12 1010 67 10000 7.72 40 23:52 20.01.2021
3504 Clouds -12 1010 67 10000 7.72 40 23:30 20.01.2021
3505 Clouds -13 1010 66 10000 7.2 30 22:53 20.01.2021
3506 Clouds -14 1010 66 10000 7.2 30 22:32 20.01.2021
3507 Clouds -13 1010 67 10000 6.17 30 21:55 20.01.2021
3508 Clouds -12 1010 67 10000 6.17 30 21:23 20.01.2021
3509 Clouds -12 1011 61 10000 6.69 30 20:54 20.01.2021
3510 Clouds -12 1011 61 10000 6.69 30 20:24 20.01.2021
3511 Clouds -12 1010 61 10000 4.12 30 19:55 20.01.2021
3512 Clouds -12 1010 61 10000 4.12 30 19:37 20.01.2021
3513 Clouds -12 1010 61 10000 4.12 30 19:18 20.01.2021
3514 Clouds -12 1010 61 10000 3.09 350 18:41 20.01.2021
3515 Clouds -13 1011 66 10000 4.63 350 17:56 20.01.2021
3516 Clouds -13 1011 66 10000 4.63 350 17:36 20.01.2021
3517 Clouds -13 1011 66 10000 4.63 10 16:52 20.01.2021
3518 Clouds -13 1011 66 10000 4.63 10 16:30 20.01.2021
3519 Clouds -13 1011 61 10000 5.14 360 15:48 20.01.2021
3520 Clouds -13 1011 61 10000 5.14 360 15:19 20.01.2021
3521 Clouds -14 1011 66 10000 6.69 10 14:46 20.01.2021
3522 Clouds -14 1011 66 10000 6.69 10 14:22 20.01.2021
3523 Clouds -15 1012 72 10000 3.09 20 13:41 20.01.2021
3524 Clouds -15 1012 72 10000 3.09 20 13:21 20.01.2021
3525 Clouds -16 1012 66 10000 7.2 360 12:35 20.01.2021
3526 Clouds -17 1012 66 10000 2.57 360 11:55 20.01.2021
3527 Clouds -17 1012 66 10000 2.57 360 11:35 20.01.2021
3528 Clouds -17 1012 71 10000 5.14 40 10:56 20.01.2021
3529 Clouds -17 1012 71 10000 5.14 40 10:32 20.01.2021
3530 Clouds -17 1012 71 10000 4.63 30 09:50 20.01.2021
3531 Clouds -17 1012 71 10000 4.63 30 09:24 20.01.2021
3532 Clouds -17 1012 66 10000 5.14 30 08:49 20.01.2021
3533 Clouds -17 1012 66 10000 5.14 30 08:27 20.01.2021
3534 Clouds -18 1012 71 10000 4.63 20 07:56 20.01.2021
3535 Clouds -18 1012 71 10000 4.63 20 07:25 20.01.2021
3536 Clouds -20 1012 65 10000 4.63 40 05:50 20.01.2021
3537 Clouds -24 1011 70 10000 1.68 34 03:27 20.01.2021
3538 Clear -22 1009 71 10000 1.22 355 00:59 20.01.2021
3539 Clear -22 1009 71 10000 1.1 5 00:31 20.01.2021
3540 Clear -23 1009 70 10000 2.06 360 23:46 19.01.2021
3541 Clear -23 1009 70 10000 2.06 360 23:20 19.01.2021
3542 Clear -24 1008 77 10000 5.14 300 22:43 19.01.2021
3543 Clear -24 1008 77 10000 5.14 300 22:22 19.01.2021
3544 Clear -23 1007 71 10000 5.14 280 21:59 19.01.2021
3545 Clear -23 1007 71 10000 5.14 280 21:41 19.01.2021
3546 Clear -22 1007 71 10000 5.14 280 21:22 19.01.2021
3547 Clear -21 1006 71 10000 6.17 300 20:43 19.01.2021
3548 Clear -21 1006 71 10000 6.17 300 20:22 19.01.2021
3549 Clear -20 1005 78 10000 9.77 300 19:42 19.01.2021
3550 Clear -20 1005 78 10000 9.77 300 19:42 19.01.2021
3551 Clear -20 1005 78 10000 9.77 300 19:42 19.01.2021
3552 Clear -20 1005 78 10000 9.77 300 19:23 19.01.2021
3553 Snow -19 1004 78 9656 9.26 290 18:46 19.01.2021
3554 Snow -19 1004 78 9656 9.26 290 18:26 19.01.2021
3555 Clear -19 1003 78 10000 8.23 280 17:45 19.01.2021
3556 Clear -19 1003 78 10000 8.23 280 17:25 19.01.2021
3557 Haze -19 1002 78 8047 9.77 300 16:48 19.01.2021
3558 Haze -19 1002 78 8047 9.77 300 16:26 19.01.2021
3559 Clear -18 1001 71 10000 9.77 290 15:57 19.01.2021
3560 Clear -18 1001 71 10000 9.77 290 15:37 19.01.2021
3561 Clear -18 999 78 6437 11.83 300 14:57 19.01.2021
3562 Clear -18 999 78 6437 11.83 300 14:38 19.01.2021
3563 Haze -18 999 78 4023 10.8 300 14:18 19.01.2021
3564 Haze -18 998 78 8047 9.77 290 13:40 19.01.2021
3565 Haze -17 998 78 8047 9.77 290 13:20 19.01.2021
3566 Clouds -17 997 78 8047 10.29 290 12:42 19.01.2021
3567 Clouds -16 997 78 8047 10.29 290 12:21 19.01.2021
3568 Haze -16 996 85 9656 9.77 280 11:43 19.01.2021
3569 Haze -16 996 85 9656 9.77 280 11:23 19.01.2021
3570 Clouds -16 995 78 10000 8.23 290 10:50 19.01.2021
3571 Clouds -15 995 78 10000 8.23 290 10:31 19.01.2021
3572 Clouds -15 994 78 10000 7.72 290 09:52 19.01.2021
3573 Clouds -15 994 78 10000 7.72 290 09:24 19.01.2021
3574 Clouds -16 993 78 10000 7.2 280 08:51 19.01.2021
3575 Clouds -16 993 78 10000 7.2 280 08:18 19.01.2021
3576 Snow -14 992 78 10000 7.2 290 07:28 19.01.2021
3577 Snow -13 992 78 10000 3.09 280 05:42 19.01.2021
3578 Mist -13 993 85 6437 2.57 340 02:27 19.01.2021
3579 Snow -12 994 79 2414 2.06 290 00:47 19.01.2021
3580 Snow -13 995 78 10000 2.57 280 23:57 18.01.2021
3581 Snow -13 995 78 10000 2.57 280 23:29 18.01.2021
3582 Snow -13 995 78 8047 3.6 320 22:50 18.01.2021
3583 Snow -13 995 78 8047 3.6 320 22:24 18.01.2021
3584 Clouds -12 996 72 10000 4.12 340 21:49 18.01.2021
3585 Clouds -12 996 72 10000 4.12 340 21:24 18.01.2021
3586 Snow -12 997 72 10000 3.6 340 20:59 18.01.2021
3587 Snow -12 997 72 10000 3.6 340 20:38 18.01.2021
3588 Snow -12 997 72 10000 3.6 340 20:20 18.01.2021
3589 Snow -12 998 79 10000 3.09 360 19:48 18.01.2021
3590 Snow -12 998 79 10000 3.09 360 19:27 18.01.2021
3591 Snow -12 999 79 10000 3.09 350 18:44 18.01.2021
3592 Snow -12 999 79 10000 3.09 350 18:21 18.01.2021
3593 Snow -13 1000 85 6437 4.63 350 17:40 18.01.2021
3594 Snow -13 1000 85 6437 4.63 350 17:18 18.01.2021
3595 Snow -13 1001 85 6437 4.63 350 16:41 18.01.2021
3596 Snow -13 1001 85 6437 4.63 350 16:19 18.01.2021
3597 Snow -12 1001 79 6437 3.6 10 15:41 18.01.2021
3598 Snow -12 1001 79 6437 3.6 10 15:19 18.01.2021
3599 Snow -12 1002 85 9656 1.54 30 14:43 18.01.2021
3600 Snow -12 1002 85 9656 1.54 30 14:25 18.01.2021
3601 Snow -12 1003 72 10000 4.12 350 13:45 18.01.2021
3602 Snow -12 1003 72 10000 4.12 350 13:26 18.01.2021
3603 Snow -12 1003 72 10000 4.12 340 12:51 18.01.2021
3604 Snow -12 1003 72 10000 4.12 340 12:20 18.01.2021
3605 Clouds -12 1004 72 10000 3.6 350 11:53 18.01.2021
3606 Clouds -12 1004 72 10000 3.6 350 11:30 18.01.2021
3607 Clouds -13 1004 72 10000 5.66 350 10:57 18.01.2021
3608 Clouds -13 1004 72 10000 5.66 350 10:39 18.01.2021
3609 Clouds -13 1004 72 10000 4.63 340 09:43 18.01.2021
3610 Clouds -13 1004 72 10000 4.63 340 09:24 18.01.2021
3611 Clouds -13 1004 72 10000 4.63 350 08:48 18.01.2021
3612 Clouds -14 1003 72 10000 4.63 350 07:56 18.01.2021
3613 Clouds -14 1003 72 10000 4.63 350 07:27 18.01.2021
3614 Clouds -12 1003 79 10000 2.57 360 04:59 18.01.2021
3615 Clouds -12 1003 79 10000 2.57 360 04:33 18.01.2021
3616 Clouds -12 1002 85 10000 4.63 340 03:59 18.01.2021
3617 Clouds -12 1002 85 10000 4.63 340 03:41 18.01.2021
3618 Clouds -12 1002 85 10000 4.63 340 03:19 18.01.2021
3619 Clouds -11 1002 73 10000 3.6 330 02:37 18.01.2021
3620 Clear -15 1002 85 10000 2.3 8 00:46 18.01.2021
3621 Clear -15 1002 85 10000 2 5 00:27 18.01.2021
3622 Clear -16 1001 78 10000 2 5 23:46 17.01.2021
3623 Clear -16 1001 78 10000 1.76 354 23:20 17.01.2021
3624 Clear -16 1001 78 10000 2.06 80 22:39 17.01.2021
3625 Clear -16 1001 78 10000 2.06 80 22:39 17.01.2021
3626 Clear -16 1001 78 10000 2.06 80 22:19 17.01.2021
3627 Clear -16 1001 78 10000 2.06 280 21:39 17.01.2021
3628 Clear -16 1001 78 10000 2.06 280 21:21 17.01.2021
3629 Clear -17 1001 72 10000 1.54 0 20:48 17.01.2021
3630 Clear -17 1001 72 10000 1.54 0 20:28 17.01.2021
3631 Clear -16 1000 85 10000 1.61 351 19:42 17.01.2021
3632 Clear -17 1000 85 10000 1.87 1 19:23 17.01.2021
3633 Clear -16 1000 72 10000 4.12 330 18:43 17.01.2021
3634 Clear -16 1000 72 10000 4.12 330 18:23 17.01.2021
3635 Clouds -15 1000 72 10000 4.12 320 17:48 17.01.2021
3636 Clouds -15 1000 72 10000 4.12 320 17:26 17.01.2021
3637 Clouds -15 1000 72 10000 3.09 320 16:44 17.01.2021
3638 Clouds -15 1000 72 10000 3.09 320 16:21 17.01.2021
3639 Clouds -14 1000 72 10000 4.12 320 15:43 17.01.2021
3640 Clouds -14 1000 72 10000 4.12 320 15:24 17.01.2021
3641 Clouds -13 1000 66 10000 5.14 350 14:49 17.01.2021
3642 Clouds -14 1000 66 10000 5.14 350 14:26 17.01.2021
3643 Clouds -14 1000 66 10000 4.12 340 13:46 17.01.2021
3644 Clouds -14 1000 66 10000 4.12 340 13:27 17.01.2021
3645 Clouds -14 1001 72 10000 2.6 346 12:54 17.01.2021
3646 Clouds -14 1001 72 10000 2.6 346 12:31 17.01.2021
3647 Clouds -13 1000 72 10000 3.6 320 11:59 17.01.2021
3648 Clouds -14 1000 72 10000 3.6 320 11:24 17.01.2021
3649 Clouds -14 1001 72 10000 2.57 270 10:48 17.01.2021
3650 Clouds -14 1001 72 10000 2.57 270 10:21 17.01.2021
3651 Clouds -14 1000 72 10000 3.09 260 09:42 17.01.2021
3652 Clouds -14 1000 72 10000 2.88 354 08:45 17.01.2021
3653 Clouds -13 1000 72 10000 3.09 300 06:57 17.01.2021
3654 Clouds -12 1000 67 10000 2.61 8 04:28 17.01.2021
3655 Clouds -11 1001 67 10000 3.09 330 02:48 17.01.2021
3656 Clouds -11 1001 79 10000 2.61 23 00:51 17.01.2021
3657 Clouds -11 1001 79 10000 1.89 32 00:18 17.01.2021
3658 Clouds -11 1001 79 10000 1.89 32 23:49 16.01.2021
3659 Clouds -12 1001 79 10000 1.99 25 23:20 16.01.2021
3660 Snow -12 1002 79 10000 1.99 25 22:45 16.01.2021
3661 Clouds -13 1001 72 10000 1.84 19 21:58 16.01.2021
3662 Clouds -13 1001 72 10000 1.84 19 21:37 16.01.2021
3663 Clouds -13 1001 72 10000 1.24 39 21:18 16.01.2021
3664 Clouds -14 1001 78 10000 2.57 360 20:42 16.01.2021
3665 Clouds -15 1001 78 10000 2.57 360 20:21 16.01.2021
3666 Clear -15 1001 85 10000 2.06 10 19:44 16.01.2021
3667 Clear -15 1001 85 10000 2.06 10 19:24 16.01.2021
3668 Clear -15 1001 85 10000 2.06 10 19:24 16.01.2021
3669 Clouds -13 1000 85 10000 1.16 42 18:43 16.01.2021
3670 Clouds -13 1000 85 10000 1.16 42 18:43 16.01.2021
3671 Clouds -13 1000 85 10000 1.39 50 18:24 16.01.2021
3672 Clouds -12 1000 79 10000 1.39 50 17:47 16.01.2021
3673 Clouds -12 1000 79 10000 1.41 59 17:28 16.01.2021
3674 Clouds -12 1000 85 10000 1.41 59 16:47 16.01.2021
3675 Snow -12 1000 85 10000 1.45 46 16:26 16.01.2021
3676 Snow -11 1000 73 6437 2.06 50 15:51 16.01.2021
3677 Snow -11 1000 73 6437 2.06 50 15:22 16.01.2021
3678 Clouds -11 1000 73 10000 2.06 80 14:22 16.01.2021
3679 Clouds -10 1000 62 10000 2.06 100 13:48 16.01.2021
3680 Clouds -10 1000 62 10000 2.06 100 13:24 16.01.2021
3681 Clouds -10 999 67 10000 4.12 80 12:39 16.01.2021
3682 Clouds -10 999 67 10000 4.12 80 12:20 16.01.2021
3683 Clouds -10 999 67 10000 5.66 90 11:48 16.01.2021
3684 Clouds -9 999 67 10000 5.66 90 11:25 16.01.2021
3685 Clouds -11 998 79 10000 2.06 90 10:47 16.01.2021
3686 Clouds -11 998 79 10000 2.06 90 10:22 16.01.2021
3687 Clouds -10 998 67 10000 2.06 120 09:39 16.01.2021
3688 Clouds -10 998 67 10000 2.06 120 09:19 16.01.2021
3689 Clouds -7 997 63 10000 1.54 190 07:50 16.01.2021
3690 Clouds -7 997 63 10000 1.54 40 06:44 16.01.2021
3691 Clouds -6 996 58 10000 6.17 40 04:40 16.01.2021
3692 Clear -6 996 73 10000 2.21 34 02:56 16.01.2021
3693 Clear -5 995 63 10000 5.14 320 00:51 16.01.2021
3694 Clear -5 995 63 10000 5.14 320 00:29 16.01.2021
3695 Clear -3 996 54 10000 4.63 360 23:58 15.01.2021
3696 Clear -3 996 54 10000 4.63 360 23:22 15.01.2021
3697 Clear -4 995 58 10000 8.23 360 22:25 15.01.2021
3698 Clear -4 995 63 10000 6.17 350 21:46 15.01.2021
3699 Clear -4 995 63 10000 6.17 350 21:21 15.01.2021
3700 Clear -4 995 63 10000 7.72 10 20:41 15.01.2021
3701 Clear -4 995 63 10000 7.72 10 20:22 15.01.2021
3702 Clear -4 995 63 10000 6.17 360 19:41 15.01.2021
3703 Clear -4 995 63 10000 6.17 360 19:23 15.01.2021
3704 Clear -3 995 63 10000 9.77 20 18:44 15.01.2021
3705 Clear -3 995 63 10000 9.77 20 18:44 15.01.2021
3706 Clear -5 995 63 10000 9.77 20 18:19 15.01.2021
3707 Clear -5 995 68 10000 9.77 350 17:52 15.01.2021
3708 Clear -5 995 68 10000 9.77 350 17:27 15.01.2021
3709 Clear -3 995 59 10000 9.77 350 16:58 15.01.2021
3710 Clear -3 995 59 10000 9.77 350 16:26 15.01.2021
3711 Clear -5 995 63 10000 7.72 10 15:56 15.01.2021
3712 Clear -4 995 63 10000 7.72 10 15:37 15.01.2021
3713 Clear -5 995 63 10000 7.72 10 15:18 15.01.2021
3714 Clear -5 995 68 10000 8.23 20 14:37 15.01.2021
3715 Clear -5 995 68 10000 8.23 20 14:18 15.01.2021
3716 Clear -5 995 63 10000 7.72 20 13:40 15.01.2021
3717 Clear -4 995 63 10000 7.72 20 13:19 15.01.2021
3718 Clear -5 996 68 10000 5.66 290 12:40 15.01.2021
3719 Clear -5 996 68 10000 5.66 290 12:21 15.01.2021
3720 Clear -5 996 74 10000 4.63 40 11:42 15.01.2021
3721 Clear -5 996 74 10000 4.63 40 11:42 15.01.2021
3722 Clear -6 997 73 10000 3.6 20 10:59 15.01.2021
3723 Clear -6 997 73 10000 3.6 20 10:41 15.01.2021
3724 Clear -7 997 73 10000 3.6 20 10:21 15.01.2021
3725 Clear -5 997 74 10000 5.14 340 09:47 15.01.2021
3726 Clear -5 997 74 10000 5.14 340 09:28 15.01.2021
3727 Clear -7 998 73 10000 2.06 0 08:28 15.01.2021
3728 Clear -7 998 73 10000 2.06 0 08:28 15.01.2021
3729 Clear -11 998 85 10000 4.63 340 07:44 15.01.2021
3730 Clear -11 998 85 10000 4.63 340 07:23 15.01.2021
3731 Clouds -10 1000 79 10000 5.14 350 06:35 15.01.2021
3732 Clouds -8 1003 79 10000 2.57 330 02:44 15.01.2021
3733 Clouds -9 1004 79 10000 1.33 21 00:41 15.01.2021
3734 Clouds -10 1005 86 10000 1.54 330 23:30 14.01.2021
3735 Clouds -9 1005 86 10000 2.27 1 22:57 14.01.2021
3736 Clouds -9 1005 86 10000 2.27 1 22:37 14.01.2021
3737 Clouds -9 1005 86 10000 2.21 5 22:19 14.01.2021
3738 Clouds -8 1006 86 10000 3.6 30 21:39 14.01.2021
3739 Clouds -9 1006 86 10000 3.6 30 21:20 14.01.2021
3740 Snow -8 1006 93 10000 2.57 50 20:47 14.01.2021
3741 Snow -8 1006 93 6437 2.06 60 20:18 14.01.2021
3742 Snow -8 1006 93 6437 2.06 60 20:18 14.01.2021
3743 Snow -8 1006 93 6437 2.06 70 19:38 14.01.2021
3744 Snow -8 1006 93 6437 2.06 70 19:18 14.01.2021
3745 Clouds -8 1006 93 10000 2.57 80 18:45 14.01.2021
3746 Clouds -8 1006 93 10000 3.09 90 17:59 14.01.2021
3747 Clouds -8 1006 93 10000 3.09 90 17:41 14.01.2021
3748 Clouds -8 1006 79 10000 3.09 70 17:23 14.01.2021
3749 Clouds -9 1006 86 10000 3.09 70 16:37 14.01.2021
3750 Clouds -8 1006 79 10000 2.57 80 15:55 14.01.2021
3751 Clouds -8 1006 79 10000 2.57 80 15:37 14.01.2021
3752 Clouds -9 1006 86 10000 2.57 110 14:50 14.01.2021
3753 Clouds -9 1006 86 10000 2.57 110 14:31 14.01.2021
3754 Clouds -9 1006 86 10000 2.57 100 13:57 14.01.2021
3755 Clouds -9 1006 86 10000 2.57 100 13:57 14.01.2021
3756 Clouds -9 1006 86 10000 2.57 100 13:39 14.01.2021
3757 Clouds -9 1006 86 10000 2.57 100 13:18 14.01.2021
3758 Snow -8 1005 86 4828 3.6 110 12:38 14.01.2021
3759 Snow -8 1005 93 2816 3.09 100 12:18 14.01.2021
3760 Mist -8 1004 93 9656 2.57 120 11:41 14.01.2021
3761 Mist -8 1004 93 9656 2.57 120 11:20 14.01.2021
3762 Clouds -8 1004 86 10000 2.57 100 10:47 14.01.2021
3763 Clouds -8 1004 86 10000 2.57 100 10:22 14.01.2021
3764 Clouds -8 1003 86 10000 3.09 90 09:44 14.01.2021
3765 Clouds -8 1003 86 10000 3.09 90 09:22 14.01.2021
3766 Clouds -8 1002 79 10000 3.6 120 08:43 14.01.2021
3767 Clouds -8 1002 79 10000 3.6 120 08:22 14.01.2021
3768 Clouds -8 1002 86 10000 5.14 130 07:45 14.01.2021
3769 Mist -8 1001 93 8047 4.63 140 06:43 14.01.2021
3770 Mist -7 1001 86 8047 3.09 120 05:34 14.01.2021
3771 Snow -8 997 93 4828 3.09 70 00:44 14.01.2021
3772 Snow -8 996 93 4828 2.57 70 23:51 13.01.2021
3773 Snow -8 996 93 2414 3.09 70 23:21 13.01.2021
3774 Mist -8 995 93 6437 2.57 80 22:28 13.01.2021
3775 Mist -8 994 86 4828 3.6 80 21:50 13.01.2021
3776 Mist -8 994 86 4828 3.6 80 21:28 13.01.2021
3777 Mist -9 993 92 9656 3.09 70 20:57 13.01.2021
3778 Mist -9 993 92 9656 3.09 70 20:29 13.01.2021
3779 Snow -9 993 86 8047 3.09 90 19:57 13.01.2021
3780 Snow -9 993 86 8047 3.09 90 19:37 13.01.2021
3781 Snow -9 993 86 8047 3.09 90 19:19 13.01.2021
3782 Snow -9 992 86 8047 1.5 56 18:40 13.01.2021
3783 Mist -9 991 86 8047 1.34 56 17:51 13.01.2021
3784 Clouds -9 991 86 10000 1.17 59 17:25 13.01.2021
3785 Clouds -9 990 79 10000 1.17 59 16:51 13.01.2021
3786 Clouds -9 990 79 10000 1.07 59 16:22 13.01.2021
3787 Clouds -10 990 85 10000 1.07 59 15:53 13.01.2021
3788 Clouds -10 990 85 10000 1.07 59 15:35 13.01.2021
3789 Snow -11 989 85 10000 0.98 70 14:48 13.01.2021
3790 Clouds -11 988 79 10000 2.06 40 13:53 13.01.2021
3791 Clouds -11 988 79 10000 2.06 40 13:31 13.01.2021
3792 Clouds -11 988 85 10000 0.93 55 12:47 13.01.2021
3793 Clouds -11 988 85 10000 1.02 53 12:29 13.01.2021
3794 Clouds -12 987 85 10000 1.02 53 11:59 13.01.2021
3795 Clouds -12 987 85 10000 1.02 53 11:40 13.01.2021
3796 Clouds -12 987 85 10000 1 23 11:22 13.01.2021
3797 Clouds -12 986 85 10000 2.06 360 10:41 13.01.2021
3798 Clouds -12 986 85 10000 2.06 360 10:22 13.01.2021
3799 Clouds -12 986 85 10000 2.06 360 09:34 13.01.2021
3800 Clouds -11 985 85 10000 2.57 340 08:53 13.01.2021
3801 Clouds -11 985 85 10000 2.57 340 08:32 13.01.2021
3802 Snow -11 985 79 9656 3.6 340 07:37 13.01.2021
3803 Clouds -11 985 79 10000 3.6 340 06:58 13.01.2021
3804 Clear -11 984 79 10000 3.09 340 04:21 13.01.2021
3805 Clear -11 984 85 10000 2.57 350 03:48 13.01.2021
3806 Clear -11 984 85 10000 2.57 350 03:29 13.01.2021
3807 Clouds -11 984 79 10000 2.57 310 02:19 13.01.2021
3808 Clouds -11 984 79 10000 4.63 340 00:29 13.01.2021
3809 Clouds -11 984 79 10000 4.63 330 23:29 12.01.2021
3810 Clouds -11 984 73 10000 5.66 340 22:47 12.01.2021
3811 Snow -11 984 73 10000 5.66 340 22:25 12.01.2021
3812 Snow -12 984 72 10000 4.63 340 21:53 12.01.2021
3813 Snow -12 984 72 10000 4.63 340 21:34 12.01.2021
3814 Clear -12 984 72 10000 4.12 340 20:53 12.01.2021
3815 Clear -12 984 72 10000 4.12 340 20:29 12.01.2021
3816 Clear -13 983 72 10000 6.17 350 19:56 12.01.2021
3817 Clear -13 983 72 10000 6.17 350 19:37 12.01.2021
3818 Clear -13 983 72 10000 1.54 350 18:51 12.01.2021
3819 Clear -12 983 72 10000 1.54 350 18:25 12.01.2021
3820 Clear -12 983 72 10000 5.66 350 17:55 12.01.2021
3821 Clear -12 983 72 10000 5.66 350 17:31 12.01.2021
3822 Clear -12 983 72 10000 5.66 350 17:31 12.01.2021
3823 Clear -13 983 78 10000 4.63 350 16:44 12.01.2021
3824 Clear -13 983 78 10000 4.63 350 16:25 12.01.2021
3825 Clouds -12 984 72 10000 4.12 340 15:45 12.01.2021
3826 Clouds -12 984 72 10000 4.12 340 15:22 12.01.2021
3827 Clouds -11 984 79 10000 6.17 340 14:47 12.01.2021
3828 Clouds -11 984 79 10000 6.17 340 14:26 12.01.2021
3829 Clouds -11 984 79 10000 4.12 340 13:53 12.01.2021
3830 Clouds -11 984 79 10000 4.12 340 13:29 12.01.2021
3831 Clouds -9 984 67 10000 4.63 350 12:29 12.01.2021
3832 Clouds -17 987 90 10000 2.74 4 11:42 12.01.2021
3833 Clouds -10 984 73 10000 4.63 350 10:55 12.01.2021
3834 Clouds -10 984 73 10000 4.63 350 10:26 12.01.2021
3835 Clouds -9 984 67 10000 5.14 350 09:59 12.01.2021
3836 Clouds -9 984 67 10000 5.14 350 09:39 12.01.2021
3837 Clouds -9 984 67 10000 5.14 350 09:20 12.01.2021
3838 Clouds -10 984 73 10000 4.12 360 08:26 12.01.2021
3839 Clouds -11 984 73 10000 6.69 350 07:41 12.01.2021
3840 Clouds -11 984 73 10000 6.69 350 07:21 12.01.2021
3841 Clouds -10 983 73 10000 8.23 360 05:38 12.01.2021
3842 Clouds -9 983 67 10000 6.69 350 03:33 12.01.2021
3843 Clouds -9 983 67 10000 8.23 350 02:21 12.01.2021
3844 Clouds -9 983 73 10000 9.26 350 01:36 12.01.2021
3845 Clouds -9 983 73 10000 8.23 340 00:30 12.01.2021
3846 Clouds -9 982 73 10000 7.72 350 23:39 11.01.2021
3847 Clouds -9 982 73 10000 7.72 350 23:18 11.01.2021
3848 Clouds -9 982 73 10000 6.69 350 22:45 11.01.2021
3849 Clouds -9 982 73 10000 6.69 350 22:27 11.01.2021
3850 Clouds -9 982 73 10000 5.66 340 21:44 11.01.2021
3851 Clouds -9 982 73 10000 5.66 340 21:25 11.01.2021
3852 Clouds -10 981 73 10000 8.75 350 20:50 11.01.2021
3853 Clouds -10 981 73 10000 8.75 350 20:31 11.01.2021
3854 Clouds -9 981 67 10000 9.77 350 19:59 11.01.2021
3855 Clouds -9 981 67 10000 9.77 350 19:37 11.01.2021
3856 Clouds -9 981 67 10000 9.77 350 19:19 11.01.2021
3857 Clouds -10 981 73 10000 9.77 340 18:41 11.01.2021
3858 Clouds -10 981 73 10000 9.77 340 18:22 11.01.2021
3859 Clouds -10 981 73 10000 8.75 350 17:42 11.01.2021
3860 Clouds -10 981 73 10000 8.75 350 17:23 11.01.2021
3861 Clouds -9 981 67 10000 7.2 340 16:47 11.01.2021
3862 Clouds -9 981 67 10000 7.2 340 16:28 11.01.2021
3863 Clouds -11 981 73 10000 10.8 360 15:50 11.01.2021
3864 Clouds -11 981 73 10000 10.8 360 15:32 11.01.2021
3865 Clouds -10 981 73 10000 4.63 350 14:41 11.01.2021
3866 Clouds -10 981 73 10000 4.63 350 14:22 11.01.2021
3867 Clouds -8 982 62 10000 6.17 360 13:44 11.01.2021
3868 Clouds -8 982 62 10000 6.17 360 13:21 11.01.2021
3869 Clouds -9 982 67 10000 4.63 310 12:42 11.01.2021
3870 Clouds -9 982 67 10000 4.63 310 12:23 11.01.2021
3871 Haze -9 982 73 8047 9.77 10 11:45 11.01.2021
3872 Snow -9 982 73 6437 11.32 360 10:55 11.01.2021
3873 Snow -9 981 73 4023 14.92 10 10:35 11.01.2021
3874 Snow -10 982 79 4828 13.38 360 09:48 11.01.2021
3875 Snow -10 982 79 4828 13.38 360 09:29 11.01.2021
3876 Snow -9 982 73 4828 14.92 350 08:52 11.01.2021
3877 Snow -9 982 73 4828 14.92 350 08:32 11.01.2021
3878 Clear -9 983 73 10000 11.32 360 07:41 11.01.2021
3879 Clear -9 983 73 10000 11.32 360 07:21 11.01.2021
3880 Clouds -10 984 73 10000 9.77 360 06:49 11.01.2021
3881 Clear -9 985 67 10000 4.63 350 02:30 11.01.2021
3882 Clouds -11 986 79 10000 8.75 350 00:41 11.01.2021
3883 Clear -10 986 67 10000 1.54 0 23:48 10.01.2021
3884 Clouds -10 986 73 10000 6.69 340 22:57 10.01.2021
3885 Clouds -10 986 73 10000 6.69 340 22:38 10.01.2021
3886 Clouds -10 986 73 10000 6.69 340 22:18 10.01.2021
3887 Clear -11 986 67 10000 5.66 360 21:40 10.01.2021
3888 Clear -11 986 67 10000 5.66 360 21:18 10.01.2021
3889 Clouds -12 987 72 10000 6.69 360 20:47 10.01.2021
3890 Clouds -12 987 72 10000 6.69 360 20:27 10.01.2021
3891 Clouds -13 988 72 10000 4.58 358 19:40 10.01.2021
3892 Clouds -13 988 72 10000 4.78 360 19:22 10.01.2021
3893 Clouds -12 988 67 10000 4.12 340 18:45 10.01.2021
3894 Clouds -12 988 67 10000 4.12 340 18:20 10.01.2021
3895 Clouds -12 989 67 10000 5.14 350 17:26 10.01.2021
3896 Clouds -13 990 72 10000 4.31 356 16:50 10.01.2021
3897 Clouds -13 990 72 10000 4.31 356 16:30 10.01.2021
3898 Clear -13 990 72 10000 5.66 350 15:41 10.01.2021
3899 Clear -13 990 72 10000 5.66 350 15:22 10.01.2021
3900 Clear -15 991 72 10000 4.12 340 14:41 10.01.2021
3901 Clear -15 991 72 10000 4.12 340 14:22 10.01.2021
3902 Clear -14 992 66 10000 4.63 340 13:46 10.01.2021
3903 Clear -14 992 66 10000 4.63 340 13:27 10.01.2021
3904 Clouds -15 993 72 10000 6.17 360 12:58 10.01.2021
3905 Clouds -15 993 72 10000 6.17 360 12:40 10.01.2021
3906 Clear -17 994 71 10000 6.17 350 11:56 10.01.2021
3907 Clear -17 994 71 10000 6.17 350 11:21 10.01.2021
3908 Clouds -17 995 71 10000 4.12 350 10:51 10.01.2021
3909 Clouds -17 995 71 10000 4.12 350 10:24 10.01.2021
3910 Clear -21 996 77 10000 4.12 330 09:46 10.01.2021
3911 Clear -23 997 71 10000 1.54 310 08:49 10.01.2021
3912 Clear -23 997 71 10000 3.51 358 07:47 10.01.2021
3913 Clear -24 998 70 10000 3.09 330 06:50 10.01.2021
3914 Clear -24 998 70 10000 3.09 330 06:18 10.01.2021
3915 Clear -25 998 70 10000 3.09 360 05:27 10.01.2021
3916 Clouds -23 1000 71 10000 5.14 10 01:58 10.01.2021
3917 Clear -23 1001 71 10000 5.14 360 00:23 10.01.2021
3918 Clear -21 1001 71 10000 6.69 360 23:41 09.01.2021
3919 Clear -21 1001 71 10000 6.69 360 23:20 09.01.2021
3920 Clouds -20 1002 71 10000 3.09 360 22:22 09.01.2021
3921 Clouds -19 1002 71 10000 4.63 360 21:59 09.01.2021
3922 Clouds -19 1002 71 10000 4.63 360 21:59 09.01.2021
3923 Clouds -19 1002 71 10000 4.63 360 21:39 09.01.2021
3924 Clouds -18 1002 71 10000 6.17 20 21:21 09.01.2021
3925 Clouds -18 1002 65 10000 5.66 10 20:56 09.01.2021
3926 Clouds -18 1002 65 10000 5.66 10 20:32 09.01.2021
3927 Clouds -18 1003 65 10000 3.6 340 19:40 09.01.2021
3928 Clouds -18 1003 65 10000 3.6 340 19:21 09.01.2021
3929 Clouds -19 1002 71 10000 3.09 30 18:38 09.01.2021
3930 Clouds -19 1002 71 10000 3.09 30 18:38 09.01.2021
3931 Clouds -19 1002 71 10000 3.09 30 18:18 09.01.2021
3932 Clouds -21 1003 71 10000 2.57 360 17:41 09.01.2021
3933 Clouds -21 1003 71 10000 2.57 360 17:22 09.01.2021
3934 Clouds -21 1003 65 10000 3.09 10 16:28 09.01.2021
3935 Clouds -20 1003 71 10000 1.54 10 15:41 09.01.2021
3936 Clouds -20 1003 71 10000 1.54 10 15:22 09.01.2021
3937 Clouds -18 1003 71 10000 4.12 350 14:37 09.01.2021
3938 Clouds -18 1003 71 10000 4.12 350 14:19 09.01.2021
3939 Clouds -18 1003 71 10000 4.63 340 13:45 09.01.2021
3940 Clouds -18 1003 71 10000 4.63 340 13:27 09.01.2021
3941 Clouds -17 1003 66 10000 3.09 40 12:29 09.01.2021
3942 Clouds -18 1003 71 10000 2.57 10 11:59 09.01.2021
3943 Clouds -18 1003 71 10000 2.57 10 11:40 09.01.2021
3944 Clouds -18 1003 71 10000 2.57 10 11:22 09.01.2021
3945 Clouds -18 1003 65 10000 2.57 20 10:48 09.01.2021
3946 Clouds -18 1003 65 10000 4.63 50 10:25 09.01.2021
3947 Clouds -17 1003 66 10000 2.06 360 09:45 09.01.2021
3948 Clouds -17 1003 66 10000 2.06 360 09:21 09.01.2021
3949 Clouds -17 1003 71 10000 2.13 16 08:25 09.01.2021
3950 Clouds -18 1002 71 10000 3.6 340 06:55 09.01.2021
3951 Clouds -18 1002 71 10000 3.6 340 06:37 09.01.2021
3952 Clouds -18 1002 71 10000 4.12 350 04:40 09.01.2021
3953 Clouds -18 1002 65 10000 4.12 340 02:48 09.01.2021
3954 Clouds -18 1002 65 10000 4.12 340 02:29 09.01.2021
3955 Clouds -20 1002 71 10000 2.57 350 01:36 09.01.2021
3956 Clouds -21 1001 65 10000 4.63 330 00:34 09.01.2021
3957 Clouds -21 1001 66 10000 5.66 350 23:50 08.01.2021
3958 Clouds -21 1001 66 10000 5.14 340 22:54 08.01.2021
3959 Clouds -20 1000 71 10000 6.17 340 21:58 08.01.2021
3960 Clouds -21 1000 71 10000 6.17 340 21:34 08.01.2021
3961 Snow -20 1000 71 4828 5.14 350 20:42 08.01.2021
3962 Snow -20 1000 71 4828 5.14 350 20:23 08.01.2021
3963 Clouds -21 1000 71 10000 7.2 350 19:39 08.01.2021
3964 Clouds -21 1000 71 10000 7.2 350 19:21 08.01.2021
3965 Clouds -17 1000 66 10000 5.66 350 18:34 08.01.2021
3966 Clouds -17 1000 66 10000 5.66 350 18:34 08.01.2021
3967 Clouds -17 1000 71 10000 6.17 350 17:55 08.01.2021
3968 Clouds -17 1000 71 10000 6.17 350 17:30 08.01.2021
3969 Clouds -19 1000 71 10000 4.12 350 16:51 08.01.2021
3970 Clouds -17 1000 71 10000 4.12 350 16:20 08.01.2021
3971 Clouds -16 1000 72 10000 2.06 10 15:40 08.01.2021
3972 Clouds -16 1000 72 10000 3.09 350 14:42 08.01.2021
3973 Clouds -16 1000 72 10000 3.09 350 14:23 08.01.2021
3974 Clouds -16 999 78 10000 2.57 340 13:23 08.01.2021
3975 Clouds -16 999 72 10000 2.06 10 12:53 08.01.2021
3976 Clouds -16 999 72 10000 2.06 10 12:26 08.01.2021
3977 Clouds -16 999 72 10000 3.6 350 11:59 08.01.2021
3978 Clouds -16 999 72 10000 3.6 350 11:41 08.01.2021
3979 Clouds -16 999 72 10000 3.6 350 11:20 08.01.2021
3980 Clouds -15 999 72 10000 2.06 350 10:46 08.01.2021
3981 Clouds -15 999 72 10000 2.06 350 10:24 08.01.2021
3982 Clouds -16 999 78 10000 4.12 350 09:43 08.01.2021
3983 Clouds -16 999 78 10000 4.12 350 09:21 08.01.2021
3984 Clouds -15 998 72 10000 2.06 10 07:56 08.01.2021
3985 Clouds -15 998 72 10000 2.06 10 07:25 08.01.2021
3986 Clouds -15 997 72 10000 2.57 340 04:20 08.01.2021
3987 Clouds -15 995 72 10000 3.6 350 23:45 07.01.2021
3988 Clouds -15 995 72 10000 3.6 350 23:27 07.01.2021
3989 Clouds -15 995 72 10000 2.57 350 22:38 07.01.2021
3990 Clouds -15 995 72 10000 2.57 350 22:18 07.01.2021
3991 Clouds -15 994 72 10000 2.57 350 21:40 07.01.2021
3992 Clouds -15 994 72 10000 2.57 350 21:21 07.01.2021
3993 Clouds -15 993 72 10000 4.12 350 20:43 07.01.2021
3994 Clouds -15 993 72 10000 4.12 350 20:23 07.01.2021
3995 Clouds -15 992 72 10000 4.12 350 19:41 07.01.2021
3996 Clouds -15 992 72 10000 3.6 350 18:54 07.01.2021
3997 Clouds -15 992 72 10000 3.6 350 18:23 07.01.2021
3998 Clouds -15 992 72 10000 4.12 350 17:42 07.01.2021
3999 Clouds -15 992 72 10000 4.12 350 17:18 07.01.2021
4000 Clouds -15 991 72 10000 3.6 340 16:51 07.01.2021
4001 Clouds -15 991 72 10000 3.6 340 16:20 07.01.2021
4002 Clouds -14 991 66 10000 4.12 350 15:34 07.01.2021
4003 Clouds -14 991 66 10000 4.12 350 14:42 07.01.2021
4004 Clouds -14 991 66 10000 4.12 350 14:42 07.01.2021
4005 Clouds -14 991 66 10000 4.12 350 14:42 07.01.2021
4006 Clouds -14 991 66 10000 4.12 350 14:42 07.01.2021
4007 Clouds -14 991 66 10000 4.12 350 14:23 07.01.2021
4008 Clouds -14 990 66 10000 3.09 10 13:36 07.01.2021
4009 Clouds -14 990 66 10000 3.09 10 13:18 07.01.2021
4010 Clouds -23 993 87 10000 2.42 341 12:33 07.01.2021
4011 Clouds -14 989 71 10000 4.1 340 11:52 07.01.2021
4012 Clouds -14 989 71 10000 4.1 340 11:30 07.01.2021
4013 Clouds -14 989 71 10000 2.1 340 10:48 07.01.2021
4014 Clouds -14 988 71 10000 2.6 6 10:19 07.01.2021
4015 Clouds -14 988 71 10000 2.6 6 09:46 07.01.2021
4016 Clouds -14 987 71 10000 3.1 350 09:18 07.01.2021
4017 Clouds -14 987 71 10000 3.1 350 08:26 07.01.2021
4018 Clouds -14 987 71 10000 4.6 350 07:45 07.01.2021
4019 Clouds -14 986 71 10000 3.6 340 07:18 07.01.2021
4020 Snow -14 985 77 8047 3.6 340 04:22 07.01.2021
4021 Clouds -14 984 77 10000 2.03 8 00:28 07.01.2021
4022 Clouds -14 984 71 10000 2.1 360 23:38 06.01.2021
4023 Clouds -13 984 71 10000 3.6 350 22:39 06.01.2021
4024 Clouds -14 984 77 10000 2.1 340 21:44 06.01.2021
4025 Clouds -14 984 77 10000 2.1 340 21:23 06.01.2021
4026 Clouds -13 984 71 10000 3.6 350 20:53 06.01.2021
4027 Clouds -13 983 71 10000 1.5 360 20:24 06.01.2021
4028 Clouds -13 983 71 10000 1.5 360 20:24 06.01.2021
4029 Clouds -13 983 71 10000 1.5 360 19:54 06.01.2021
4030 Clouds -13 983 71 10000 1.5 360 19:36 06.01.2021
4031 Clouds -13 983 71 10000 1.5 290 19:18 06.01.2021
4032 Clouds -13 983 71 10000 1.5 290 18:40 06.01.2021
4033 Clouds -13 983 71 10000 1.5 290 18:21 06.01.2021
4034 Clouds -13 983 71 10000 1.5 80 17:42 06.01.2021
4035 Clouds -14 983 77 10000 1.5 120 17:22 06.01.2021
4036 Clouds -14 983 77 10000 1.5 120 16:41 06.01.2021
4037 Clouds -14 982 77 10000 2.6 360 16:19 06.01.2021
4038 Clouds -14 982 77 10000 2.6 360 15:50 06.01.2021
4039 Clouds -14 982 77 10000 2.6 360 15:28 06.01.2021
4040 Clouds -13 982 71 10000 2.02 343 14:46 06.01.2021
4041 Clouds -14 982 77 10000 1.5 310 14:20 06.01.2021
4042 Clouds -14 982 77 10000 1.5 310 13:42 06.01.2021
4043 Clouds -13 983 71 10000 2.29 345 13:22 06.01.2021
4044 Clouds -13 983 71 10000 2.41 345 12:48 06.01.2021
4045 Clouds -13 983 71 10000 1.5 40 11:54 06.01.2021
4046 Clouds -13 983 71 10000 1.5 40 11:26 06.01.2021
4047 Clouds -13 982 71 10000 2.54 359 10:57 06.01.2021
4048 Clouds -13 982 71 10000 2.1 320 10:18 06.01.2021
4049 Clouds -13 982 71 10000 2.1 320 09:49 06.01.2021
4050 Clouds -14 982 77 10000 2.19 348 08:57 06.01.2021
4051 Clouds -14 982 77 10000 2.19 348 08:30 06.01.2021
4052 Clouds -13 982 71 10000 1.5 290 07:54 06.01.2021
4053 Clouds -14 982 77 10000 1.5 310 06:46 06.01.2021
4054 Clouds -14 983 77 10000 2.6 280 05:33 06.01.2021
4055 Clouds -14 983 77 10000 2.58 355 04:34 06.01.2021
4056 Snow -15 983 84 6437 3.1 320 02:46 06.01.2021
4057 Snow -15 984 77 4828 2.1 290 02:23 06.01.2021
4058 Snow -15 984 77 4828 2.1 290 02:23 06.01.2021
4059 Snow -15 984 84 3219 2.63 3 00:34 06.01.2021
4060 Snow -15 984 77 3219 1.5 340 23:29 05.01.2021
4061 Mist -16 985 84 3219 2.6 320 22:43 05.01.2021
4062 Snow -16 985 84 3219 3.1 300 22:21 05.01.2021
4063 Snow -16 985 84 3219 3.1 300 21:55 05.01.2021
4064 Snow -16 985 77 4023 1.5 330 20:49 05.01.2021
4065 Snow -15 985 71 8047 2.6 350 20:25 05.01.2021
4066 Snow -16 985 71 10000 3.6 340 19:44 05.01.2021
4067 Snow -16 985 71 10000 3.6 340 19:21 05.01.2021
4068 Snow -15 985 60 10000 4.6 10 18:43 05.01.2021
4069 Snow -15 985 60 10000 4.6 10 18:24 05.01.2021
4070 Snow -16 985 65 10000 2.1 340 17:50 05.01.2021
4071 Snow -16 985 65 10000 2.1 340 17:27 05.01.2021
4072 Snow -16 985 65 10000 3.6 320 16:53 05.01.2021
4073 Clouds -17 986 64 10000 5.1 350 16:22 05.01.2021
4074 Clouds -17 986 64 10000 5.1 350 15:50 05.01.2021
4075 Clouds -17 986 64 10000 5.1 350 15:25 05.01.2021
4076 Clouds -17 986 64 10000 6.7 10 14:39 05.01.2021
4077 Clouds -17 986 59 10000 4.6 10 13:51 05.01.2021
4078 Clouds -17 986 59 10000 4.6 10 13:30 05.01.2021
4079 Clear -18 986 59 10000 2.1 360 12:49 05.01.2021
4080 Clear -18 986 59 10000 2.1 360 12:28 05.01.2021
4081 Clear -17 987 59 10000 5.1 360 11:40 05.01.2021
4082 Clouds -16 986 54 10000 6.2 30 11:20 05.01.2021
4083 Clouds -16 986 54 10000 6.2 30 10:43 05.01.2021
4084 Clouds -17 986 59 10000 5.1 20 09:58 05.01.2021
4085 Clouds -17 986 59 10000 5.1 20 09:37 05.01.2021
4086 Clouds -18 986 59 10000 6.2 20 08:41 05.01.2021
4087 Clouds -18 987 59 10000 6.7 10 08:18 05.01.2021
4088 Clear -18 987 59 10000 6.2 30 05:29 05.01.2021
4089 Clear -18 988 59 10000 7.7 10 02:37 05.01.2021
4090 Clear -18 989 54 10000 4.6 40 00:22 05.01.2021
4091 Clear -18 989 54 10000 4.6 40 23:39 04.01.2021
4092 Clear -18 989 54 10000 4.6 40 23:20 04.01.2021
4093 Clear -19 990 53 10000 6.7 40 22:44 04.01.2021
4094 Clouds -21 990 58 10000 5.1 360 21:57 04.01.2021
4095 Clouds -21 990 58 10000 5.1 360 21:38 04.01.2021
4096 Clouds -19 990 53 10000 9.3 30 20:58 04.01.2021
4097 Clouds -19 990 53 10000 9.3 30 20:34 04.01.2021
4098 Clouds -19 990 53 10000 9.3 30 19:59 04.01.2021
4099 Clouds -19 990 53 10000 7.7 40 19:38 04.01.2021
4100 Clouds -19 990 53 10000 7.7 40 19:18 04.01.2021
4101 Clouds -19 991 53 10000 8.7 40 18:40 04.01.2021
4102 Clouds -19 991 53 10000 10.3 40 17:46 04.01.2021
4103 Clouds -19 991 53 10000 10.3 40 17:28 04.01.2021
4104 Clouds -21 992 58 10000 5.7 30 16:48 04.01.2021
4105 Clouds -21 992 58 10000 5.7 30 16:28 04.01.2021
4106 Clear -21 993 58 10000 7.2 20 15:52 04.01.2021
4107 Clear -21 993 58 10000 7.2 20 15:52 04.01.2021
4108 Clear -21 993 58 10000 7.2 20 15:34 04.01.2021
4109 Clear -19 993 53 10000 7.7 10 14:52 04.01.2021
4110 Clear -20 994 58 10000 8.2 30 13:55 04.01.2021
4111 Clear -20 994 58 10000 8.2 30 13:35 04.01.2021
4112 Clear -21 994 53 10000 8.7 40 12:50 04.01.2021
4113 Clear -21 994 53 10000 8.7 40 12:25 04.01.2021
4114 Clear -20 994 53 10000 5.1 30 11:32 04.01.2021
4115 Clear -20 994 53 10000 7.7 30 10:56 04.01.2021
4116 Clear -19 994 53 10000 7.7 30 10:38 04.01.2021
4117 Clear -18 994 49 10000 6.7 30 10:19 04.01.2021
4118 Clear -19 994 49 10000 3.6 290 09:24 04.01.2021
4119 Clear -19 994 53 10000 4.6 30 08:50 04.01.2021
4120 Clear -19 994 49 10000 8.7 40 08:21 04.01.2021
4121 Clear -19 994 49 10000 8.7 40 07:45 04.01.2021
4122 Clear -18 994 54 10000 6.7 40 05:35 04.01.2021
4123 Clear -19 994 54 10000 7.2 30 04:50 04.01.2021
4124 Clear -18 994 54 10000 8.2 40 01:30 04.01.2021
4125 Clear -18 994 59 10000 7.2 40 23:57 03.01.2021
4126 Clear -18 994 59 10000 7.2 40 23:34 03.01.2021
4127 Clear -18 994 54 10000 6.2 50 22:57 03.01.2021
4128 Clear -18 994 54 10000 6.2 50 22:39 03.01.2021
4129 Clear -19 993 59 10000 9.8 40 22:20 03.01.2021
4130 Clear -18 993 59 10000 9.8 40 21:37 03.01.2021
4131 Clear -17 992 54 10000 8.2 50 20:56 03.01.2021
4132 Clear -17 992 54 10000 8.2 50 20:38 03.01.2021
4133 Clear -17 992 59 10000 7.2 50 20:18 03.01.2021
4134 Clear -17 992 59 10000 7.2 50 19:44 03.01.2021
4135 Clear -17 991 59 10000 6.7 40 19:22 03.01.2021
4136 Clear -17 991 59 10000 6.7 40 18:43 03.01.2021
4137 Clear -17 991 59 10000 6.7 40 18:21 03.01.2021
4138 Clear -16 991 59 10000 5.7 50 17:51 03.01.2021
4139 Clear -16 991 59 10000 5.7 50 17:27 03.01.2021
4140 Clear -16 990 54 10000 4.1 60 16:54 03.01.2021
4141 Clear -16 990 54 10000 4.1 60 16:36 03.01.2021
4142 Clear -16 990 54 10000 4.1 60 16:18 03.01.2021
4143 Clear -16 990 59 10000 7.7 40 15:39 03.01.2021
4144 Clear -15 990 60 10000 7.7 30 14:58 03.01.2021
4145 Clear -15 990 60 10000 7.7 30 14:33 03.01.2021
4146 Clear -15 990 45 10000 3.6 60 13:48 03.01.2021
4147 Clear -15 990 45 10000 3.6 60 13:23 03.01.2021
4148 Clear -16 989 49 10000 4.6 10 12:51 03.01.2021
4149 Clear -16 989 54 10000 5.7 350 11:44 03.01.2021
4150 Clear -16 989 54 10000 5.7 350 11:25 03.01.2021
4151 Clear -15 988 50 10000 4.6 360 10:55 03.01.2021
4152 Clear -15 988 50 10000 4.6 360 10:30 03.01.2021
4153 Clear -14 988 50 10000 5.7 20 09:42 03.01.2021
4154 Clear -14 988 50 10000 5.7 20 09:23 03.01.2021
4155 Clear -12 987 43 10000 6.2 30 07:58 03.01.2021
4156 Clear -12 987 60 10000 3.31 24 05:59 03.01.2021
4157 Clear -15 987 92 10000 2.86 24 02:45 03.01.2021
4158 Clear -14 987 92 10000 2.77 23 02:20 03.01.2021
4159 Clear -9 987 61 10000 3.39 24 00:24 03.01.2021
4160 Clear -9 987 61 10000 3.29 22 23:31 02.01.2021
4161 Clear -8 987 61 10000 2.1 0 22:59 02.01.2021
4162 Clear -8 987 61 10000 2.1 0 22:33 02.01.2021
4163 Clear -8 987 67 10000 4.1 10 21:55 02.01.2021
4164 Clear -8 987 67 10000 4.1 10 21:37 02.01.2021
4165 Clear -11 987 78 10000 2.75 29 21:19 02.01.2021
4166 Clear -11 987 78 10000 2.75 29 20:40 02.01.2021
4167 Clear -13 987 78 10000 2.59 26 20:20 02.01.2021
4168 Clear -13 987 78 10000 2.59 26 19:43 02.01.2021
4169 Clear -13 987 78 10000 1.94 25 19:19 02.01.2021
4170 Clear -16 987 91 10000 2.34 21 18:42 02.01.2021
4171 Clear -16 987 91 10000 1.53 40 18:24 02.01.2021
4172 Clear -14 987 78 10000 2.1 0 17:45 02.01.2021
4173 Clear -14 988 84 10000 2.1 10 17:22 02.01.2021
4174 Clear -13 988 84 10000 2.1 10 16:38 02.01.2021
4175 Clear -12 988 85 10000 1.5 55 16:19 02.01.2021
4176 Clear -12 988 85 10000 1.5 55 15:41 02.01.2021
4177 Clear -13 988 84 10000 1.54 32 15:21 02.01.2021
4178 Clear -13 988 84 10000 1.54 32 14:37 02.01.2021
4179 Clear -11 988 78 10000 1.17 23 13:59 02.01.2021
4180 Clear -10 988 78 10000 1.17 23 13:38 02.01.2021
4181 Clouds -11 988 85 10000 0.97 42 12:54 02.01.2021
4182 Clouds -11 988 85 10000 0.97 42 12:32 02.01.2021
4183 Clouds -11 988 78 10000 2.6 340 11:48 02.01.2021
4184 Clear -12 988 78 10000 2.6 10 11:22 02.01.2021
4185 Clear -12 988 78 10000 2.6 10 10:51 02.01.2021
4186 Clear -12 988 78 10000 2.6 10 10:28 02.01.2021
4187 Clear -11 988 78 10000 1.32 46 09:52 02.01.2021
4188 Clear -5 988 62 10000 4.6 80 09:23 02.01.2021
4189 Clear -5 988 62 10000 4.6 80 08:50 02.01.2021
4190 Clear -5 988 62 10000 4.6 80 08:28 02.01.2021
4191 Clear -9 988 72 10000 4.1 50 07:47 02.01.2021
4192 Clear -6 988 67 10000 4.6 90 07:22 02.01.2021
4193 Clear -6 988 67 10000 4.6 90 06:42 02.01.2021
4194 Clear -8 988 67 10000 5.1 80 05:45 02.01.2021
4195 Clouds -4 988 68 10000 6.7 80 00:58 02.01.2021
4196 Clouds -4 988 68 10000 6.7 80 00:37 02.01.2021
4197 Clouds -4 988 68 10000 8.2 80 23:55 01.01.2021
4198 Clouds -4 988 68 10000 8.2 70 23:21 01.01.2021
4199 Clouds -4 988 68 10000 8.2 70 22:47 01.01.2021
4200 Clear -4 988 68 10000 8.2 70 22:24 01.01.2021
4201 Clear -4 988 68 10000 8.2 70 21:44 01.01.2021
4202 Clear -4 988 73 10000 8.2 70 21:22 01.01.2021
4203 Clear -4 988 73 10000 8.2 70 20:53 01.01.2021
4204 Clear -5 989 73 10000 8.2 80 20:22 01.01.2021
4205 Clear -5 989 73 10000 8.2 80 19:59 01.01.2021
4206 Clear -5 989 73 10000 8.2 80 19:40 01.01.2021
4207 Clear -5 989 73 10000 8.2 80 19:20 01.01.2021
4208 Clear -4 989 73 10000 6.7 80 18:41 01.01.2021
4209 Clouds -4 990 73 10000 9.3 80 18:20 01.01.2021
4210 Clouds -4 990 73 10000 9.3 80 17:42 01.01.2021
4211 Clouds -4 991 79 10000 9.3 80 17:22 01.01.2021
4212 Clouds -4 991 79 10000 9.3 80 16:45 01.01.2021
4213 Clouds -4 992 79 10000 8.2 70 15:57 01.01.2021
4214 Clouds -4 992 79 10000 8.2 70 15:39 01.01.2021
4215 Clouds -4 992 79 10000 7.7 80 14:42 01.01.2021
4216 Clouds -5 993 79 10000 7.2 80 14:19 01.01.2021
4217 Clouds -5 993 79 10000 7.2 80 13:37 01.01.2021
4218 Clouds -5 993 79 10000 8.7 80 12:51 01.01.2021
4219 Clouds -5 993 79 10000 8.7 80 12:26 01.01.2021
4220 Clouds -5 994 85 10000 8.2 80 11:40 01.01.2021
4221 Clouds -5 995 79 10000 7.7 90 11:18 01.01.2021
4222 Clouds -5 995 79 10000 7.7 90 10:52 01.01.2021
4223 Clouds -4 995 79 10000 8.2 80 09:53 01.01.2021
4224 Clouds -4 995 79 10000 8.2 80 09:24 01.01.2021
4225 Clouds -4 995 79 10000 8.2 80 08:30 01.01.2021
4226 Snow -4 996 85 10000 7.2 90 06:42 01.01.2021
4227 Snow -4 998 85 10000 7.2 80 04:49 01.01.2021
4228 Snow -4 1000 85 10000 6.2 80 01:42 01.01.2021
4229 Mist -5 1001 92 4828 5.7 80 00:32 01.01.2021
4230 Mist -5 1002 92 2012 6.7 90 23:40 31.12.2020
4231 Mist -5 1002 92 3219 7.7 90 23:20 31.12.2020
4232 Snow -5 1002 92 4828 7.2 80 22:42 31.12.2020
4233 Snow -5 1002 85 4828 7.7 90 22:22 31.12.2020
4234 Snow -5 1002 85 4828 7.7 90 21:56 31.12.2020
4235 Mist -5 1002 85 4828 7.7 90 21:36 31.12.2020
4236 Clouds -5 1002 85 10000 8.2 90 20:58 31.12.2020
4237 Clouds -5 1002 85 10000 8.2 90 20:30 31.12.2020
4238 Clouds -5 1002 85 10000 8.2 90 20:30 31.12.2020
4239 Clouds -5 1002 85 10000 7.2 80 19:51 31.12.2020
4240 Clouds -5 1002 85 10000 7.2 80 19:33 31.12.2020
4241 Mist -5 1002 85 8047 7.7 80 18:55 31.12.2020
4242 Mist -6 1003 92 4828 8.2 80 18:25 31.12.2020
4243 Mist -6 1003 92 4828 8.2 80 17:48 31.12.2020
4244 Mist -6 1003 92 4828 8.2 80 17:28 31.12.2020
4245 Snow -6 1003 92 4828 7.2 80 16:57 31.12.2020
4246 Snow -6 1003 92 4828 7.2 80 16:37 31.12.2020
4247 Snow -6 1004 92 8047 7.2 90 16:19 31.12.2020
4248 Snow -6 1004 92 8047 7.2 90 15:42 31.12.2020
4249 Snow -6 1004 85 4828 7.2 90 15:19 31.12.2020
4250 Mist -6 1004 85 4023 7.7 80 14:41 31.12.2020
4251 Snow -6 1004 85 2816 7.7 90 14:22 31.12.2020
4252 Snow -6 1004 85 2816 7.7 90 13:57 31.12.2020
4253 Mist -6 1004 85 4828 7.7 90 13:36 31.12.2020
4254 Mist -7 1003 92 4828 7.2 80 13:18 31.12.2020
4255 Mist -7 1004 92 2012 6.7 90 12:45 31.12.2020
4256 Mist -7 1004 92 2012 6.7 90 12:27 31.12.2020
4257 Clouds -7 1003 85 10000 6.7 90 11:47 31.12.2020
4258 Clouds -7 1003 85 10000 6.7 90 11:47 31.12.2020
4259 Clouds -7 1003 85 10000 6.7 90 11:47 31.12.2020
4260 Clouds -7 1003 85 10000 6.7 90 11:28 31.12.2020
4261 Clouds -7 1003 85 10000 6.7 90 11:28 31.12.2020
4262 Clouds -7 1003 85 10000 6.7 90 11:28 31.12.2020
4263 Clouds -7 1003 85 10000 6.7 90 11:28 31.12.2020
4264 Clouds -8 1003 85 10000 6.2 80 10:41 31.12.2020
4265 Clear -7 1003 79 10000 6.2 90 10:23 31.12.2020
4266 Clear -7 1003 79 10000 6.2 90 09:48 31.12.2020
4267 Clear -7 1003 79 10000 6.2 90 09:24 31.12.2020
4268 Clear -7 1002 79 10000 6.2 70 08:47 31.12.2020
4269 Clear -7 1002 79 10000 6.2 70 08:29 31.12.2020
4270 Clear -7 1002 79 10000 5.1 80 07:55 31.12.2020
4271 Clear -7 1002 79 10000 5.1 80 07:24 31.12.2020
4272 Clear -8 1002 79 10000 6.2 100 05:30 31.12.2020
4273 Clear -8 1002 79 10000 3.6 80 03:36 31.12.2020
4274 Clear -7 1001 79 10000 2.6 90 02:36 31.12.2020
4275 Clear -6 1001 79 10000 4.6 160 01:56 31.12.2020
4276 Clear -7 1001 79 10000 4.6 160 01:37 31.12.2020
4277 Clear -6 1001 73 10000 1.5 0 00:59 31.12.2020
4278 Clear -6 1001 73 10000 1.5 0 00:39 31.12.2020
4279 Clear -7 1001 67 10000 4.6 10 23:39 30.12.2020
4280 Clear -7 1001 67 10000 4.6 10 23:18 30.12.2020
4281 Clear -8 1001 72 10000 2.1 20 22:36 30.12.2020
4282 Clouds -7 1001 79 10000 1.37 83 21:54 30.12.2020
4283 Clouds -7 1001 79 10000 1.28 69 21:28 30.12.2020
4284 Clouds -7 1001 79 10000 1.28 69 21:28 30.12.2020
4285 Clouds -7 1001 85 10000 2.6 360 20:54 30.12.2020
4286 Clouds -7 1001 85 10000 2.6 360 20:29 30.12.2020
4287 Clear -6 1001 85 10000 2.1 230 20:00 30.12.2020
4288 Clear -6 1001 85 10000 2.1 230 19:37 30.12.2020
4289 Clear -4 1000 68 10000 1.47 116 19:18 30.12.2020
4290 Clear -3 1000 68 10000 0.82 123 18:40 30.12.2020
4291 Clouds -2 1000 63 10000 3.1 40 18:21 30.12.2020
4292 Clouds -1 1000 63 10000 3.1 40 17:48 30.12.2020
4293 Clouds 0 1000 63 10000 3.1 40 17:29 30.12.2020
4294 Clear -1 999 63 10000 4.1 40 16:45 30.12.2020
4295 Clear -1 999 68 10000 3.1 40 16:20 30.12.2020
4296 Clear -2 999 68 10000 3.1 40 15:42 30.12.2020
4297 Clear 0 999 51 10000 4.6 70 15:24 30.12.2020
4298 Clear 0 999 51 10000 4.6 70 14:42 30.12.2020
4299 Clouds 0 1000 59 10000 5.1 70 14:19 30.12.2020
4300 Clouds 1 1000 59 10000 5.1 70 13:19 30.12.2020
4301 Clouds 1 1000 59 10000 6.2 70 12:27 30.12.2020
4302 Clouds 1 999 59 10000 6.2 80 11:48 30.12.2020
4303 Clear 0 999 96 10000 7.2 90 11:23 30.12.2020
4304 Clear -1 999 96 10000 7.2 90 10:58 30.12.2020
4305 Clear -1 999 96 10000 7.2 90 10:38 30.12.2020
4306 Clouds 0 999 69 10000 8.2 90 10:18 30.12.2020
4307 Clouds 0 999 69 10000 8.2 90 09:44 30.12.2020
4308 Clouds 1 999 74 10000 7.2 80 08:54 30.12.2020
4309 Clouds 1 999 74 10000 7.2 80 07:53 30.12.2020
4310 Snow 1 999 74 10000 7.2 80 07:27 30.12.2020
4311 Snow 1 999 80 10000 6.7 70 06:40 30.12.2020
4312 Snow 0 999 98 10000 7.2 70 05:49 30.12.2020
4313 Snow 0 999 98 10000 7.2 70 05:30 30.12.2020
4314 Snow 1 999 74 6437 7.2 80 03:43 30.12.2020
4315 Snow 0 1000 74 9656 8.2 80 03:23 30.12.2020
4316 Snow 0 1000 74 9656 8.2 80 02:35 30.12.2020
4317 Snow 0 1000 74 10000 6.7 70 01:47 30.12.2020
4318 Clouds 0 1000 74 10000 6.7 70 01:29 30.12.2020
4319 Snow 0 1000 98 10000 7.2 70 00:45 30.12.2020
4320 Clouds 0 1000 96 10000 7.2 70 00:26 30.12.2020
4321 Clouds -1 1000 80 10000 6.2 70 23:50 29.12.2020
4322 Clouds -1 1000 80 10000 6.2 70 23:32 29.12.2020
4323 Clouds -1 1001 80 10000 6.2 70 22:49 29.12.2020
4324 Clouds -1 1001 80 10000 6.2 70 22:31 29.12.2020
4325 Clouds -2 1001 86 10000 6.7 70 21:56 29.12.2020
4326 Clouds -2 1001 86 10000 6.7 70 21:37 29.12.2020
4327 Clouds -2 1000 86 10000 6.2 70 21:18 29.12.2020
4328 Clouds -3 1000 86 10000 6.2 70 20:41 29.12.2020
4329 Clouds -3 1000 86 10000 6.2 70 20:22 29.12.2020
4330 Clouds -3 1000 86 10000 6.7 80 19:43 29.12.2020
4331 Clouds -3 1000 86 10000 6.7 80 19:21 29.12.2020
4332 Clouds -3 1000 86 10000 6.2 80 18:50 29.12.2020
4333 Clouds -3 1000 86 10000 6.2 80 18:28 29.12.2020
4334 Clear -3 999 92 10000 6.7 100 17:46 29.12.2020
4335 Clear -3 999 92 10000 6.7 100 17:21 29.12.2020
4336 Clouds -2 999 92 10000 6.2 100 16:54 29.12.2020
4337 Snow -1 999 86 10000 6.2 110 16:26 29.12.2020
4338 Snow -1 999 92 10000 7.7 110 15:39 29.12.2020
4339 Snow -1 998 92 6437 6.2 110 15:20 29.12.2020
4340 Snow -1 998 92 6437 6.2 110 14:40 29.12.2020
4341 Mist 0 998 98 8047 6.7 110 14:20 29.12.2020
4342 Snow -1 998 92 6437 6.2 110 13:54 29.12.2020
4343 Mist -1 998 92 4828 7.2 110 13:23 29.12.2020
4344 Snow -1 997 92 6437 7.7 110 12:44 29.12.2020
4345 Snow -1 997 92 6437 7.7 110 12:25 29.12.2020
4346 Clouds 0 996 98 10000 7.7 110 11:57 29.12.2020
4347 Snow 0 996 98 10000 7.7 110 11:31 29.12.2020
4348 Snow -1 995 92 10000 7.2 110 10:38 29.12.2020
4349 Snow -1 995 92 9656 6.7 110 09:50 29.12.2020
4350 Snow -1 995 92 9656 6.7 110 09:28 29.12.2020
4351 Snow -1 994 92 10000 6.2 90 08:56 29.12.2020
4352 Snow -1 994 92 3219 6.2 90 08:36 29.12.2020
4353 Snow -1 993 86 10000 6.7 80 07:30 29.12.2020
4354 Snow -1 993 86 10000 8.2 90 06:48 29.12.2020
4355 Snow -1 992 86 10000 7.2 80 05:32 29.12.2020
4356 Snow -2 990 92 1207 7.7 90 00:56 29.12.2020
4357 Snow -2 990 92 2414 7.2 80 00:23 29.12.2020
4358 Snow -2 990 92 2414 7.2 80 23:36 28.12.2020
4359 Mist -2 989 86 3219 7.2 80 22:30 28.12.2020
4360 Snow -1 989 80 10000 7.2 90 21:47 28.12.2020
4361 Snow -1 989 80 10000 7.2 90 21:28 28.12.2020
4362 Snow 0 988 97 10000 8.7 80 20:44 28.12.2020
4363 Snow 0 988 97 10000 8.7 80 20:44 28.12.2020
4364 Snow 0 988 97 10000 8.7 80 20:25 28.12.2020
4365 Snow 0 988 97 10000 7.2 80 19:50 28.12.2020
4366 Snow 0 988 98 10000 7.2 80 19:26 28.12.2020
4367 Snow -1 988 80 10000 7.7 80 18:59 28.12.2020
4368 Snow -1 988 80 10000 7.7 80 18:36 28.12.2020
4369 Snow -1 988 74 10000 8.7 70 17:55 28.12.2020
4370 Snow -1 988 74 10000 8.7 70 17:37 28.12.2020
4371 Snow -1 988 74 10000 8.2 70 17:18 28.12.2020
4372 Snow -1 988 74 10000 8.2 70 16:31 28.12.2020
4373 Clouds -1 988 74 10000 8.2 80 15:54 28.12.2020
4374 Clouds -1 988 74 10000 8.2 80 15:36 28.12.2020
4375 Clouds -1 988 80 10000 6.7 70 14:34 28.12.2020
4376 Snow -2 988 86 10000 8.7 70 13:48 28.12.2020
4377 Snow -2 988 92 10000 8.7 70 13:21 28.12.2020
4378 Snow -2 988 92 9656 8.2 80 12:29 28.12.2020
4379 Mist -2 988 92 6437 7.7 80 11:58 28.12.2020
4380 Snow -2 988 92 4023 8.7 80 11:38 28.12.2020
4381 Snow -2 988 92 2816 8.2 80 11:18 28.12.2020
4382 Snow -2 988 92 2012 8.7 80 10:29 28.12.2020
4383 Snow -2 988 92 2012 8.2 80 09:59 28.12.2020
4384 Snow -2 988 86 2012 9.3 80 09:38 28.12.2020
4385 Snow -2 988 86 1609 9.3 90 09:18 28.12.2020
4386 Snow -2 987 86 4023 11.3 80 06:54 28.12.2020
4387 Snow -2 987 86 1207 10.3 80 05:25 28.12.2020
4388 Snow -3 987 92 805 10.8 80 03:53 28.12.2020
4389 Mist -3 988 92 1609 11.8 80 01:56 28.12.2020
4390 Snow -3 990 85 805 10.8 70 00:19 28.12.2020
4391 Snow -4 990 85 805 10.8 70 23:35 27.12.2020
4392 Snow -4 991 79 2816 11.3 80 22:40 27.12.2020
4393 Snow -4 991 73 10000 10.3 70 21:55 27.12.2020
4394 Clouds -4 991 73 10000 10.3 70 21:24 27.12.2020
4395 Clear -4 992 73 10000 10.3 70 20:37 27.12.2020
4396 Clouds -5 992 79 10000 9.8 80 19:24 27.12.2020
4397 Clear -5 993 79 10000 9.8 90 18:52 27.12.2020
4398 Clouds -5 993 79 10000 8.7 90 18:22 27.12.2020
4399 Clouds -5 993 79 10000 8.7 90 17:59 27.12.2020
4400 Clouds -5 993 79 10000 8.7 90 17:39 27.12.2020
4401 Clouds -5 994 73 10000 8.7 70 17:18 27.12.2020
4402 Clouds -4 994 73 10000 8.7 70 16:25 27.12.2020
4403 Clouds -4 995 73 10000 5.1 60 15:34 27.12.2020
4404 Clouds -4 995 73 10000 4.6 70 14:56 27.12.2020
4405 Clouds -4 995 73 10000 4.6 70 14:38 27.12.2020
4406 Clouds -4 996 73 10000 4.1 60 13:39 27.12.2020
4407 Clouds -5 997 79 10000 4.1 70 12:57 27.12.2020
4408 Clouds -4 997 79 10000 4.1 70 12:28 27.12.2020
4409 Clouds -5 997 85 10000 5.1 60 11:42 27.12.2020
4410 Clouds -5 997 85 10000 5.7 70 11:21 27.12.2020
4411 Clouds -5 998 85 10000 6.2 80 10:45 27.12.2020
4412 Clouds -4 997 85 10000 5.7 70 10:21 27.12.2020
4413 Clouds -4 997 85 10000 5.7 70 09:39 27.12.2020
4414 Clouds -4 997 79 10000 4.1 80 08:29 27.12.2020
4415 Clouds -6 998 92 10000 4.1 80 07:46 27.12.2020
4416 Snow -5 998 85 4828 5.7 100 07:18 27.12.2020
4417 Mist -5 998 85 4828 5.7 90 05:39 27.12.2020
4418 Mist -4 997 85 4828 5.1 80 03:26 27.12.2020
4419 Snow -4 998 85 6437 5.1 80 02:30 27.12.2020
4420 Snow -4 998 85 2012 5.1 90 00:58 27.12.2020
4421 Snow -3 997 79 4828 3.6 70 23:44 26.12.2020
4422 Snow -3 997 79 4828 3.6 70 23:26 26.12.2020
4423 Snow -3 997 79 4828 4.6 70 22:46 26.12.2020
4424 Snow -4 997 79 2816 4.1 70 22:20 26.12.2020
4425 Snow -4 997 79 2816 4.1 70 21:54 26.12.2020
4426 Snow -4 997 85 6437 3.6 50 21:31 26.12.2020
4427 Snow -4 997 85 6437 3.6 40 20:48 26.12.2020
4428 Mist -4 997 85 6437 3.6 40 20:27 26.12.2020
4429 Snow -4 997 79 10000 5.1 40 19:57 26.12.2020
4430 Snow -4 997 79 3219 6.2 40 19:24 26.12.2020
4431 Snow -5 997 79 2816 6.2 40 18:37 26.12.2020
4432 Snow -5 997 85 1609 6.2 40 17:59 26.12.2020
4433 Snow -5 997 85 2816 7.2 40 17:39 26.12.2020
4434 Snow -5 997 85 2414 6.2 40 17:18 26.12.2020
4435 Snow -4 997 85 1609 7.7 40 16:31 26.12.2020
4436 Snow -5 997 85 1207 8.2 30 15:25 26.12.2020
4437 Snow -4 997 79 2816 9.8 40 14:46 26.12.2020
4438 Snow -3 997 79 2816 10.3 30 14:22 26.12.2020
4439 Snow -3 997 79 2816 10.3 30 13:43 26.12.2020
4440 Snow -4 997 79 2414 9.3 20 13:24 26.12.2020
4441 Snow -3 997 79 4828 7.2 20 12:44 26.12.2020
4442 Snow -3 997 79 4023 8.2 30 12:21 26.12.2020
4443 Haze -3 997 79 8047 8.7 20 11:51 26.12.2020
4444 Snow -3 997 79 8047 9.3 10 11:21 26.12.2020
4445 Snow -3 997 79 8047 9.3 10 10:53 26.12.2020
4446 Snow -3 997 73 8047 8.7 10 10:27 26.12.2020
4447 Snow -4 997 73 4828 8.7 20 09:49 26.12.2020
4448 Snow -4 997 73 4828 8.7 20 09:49 26.12.2020
4449 Snow -4 997 73 4023 11.3 40 09:24 26.12.2020
4450 Snow -4 997 79 2414 10.8 30 08:21 26.12.2020
4451 Snow -5 997 79 2012 11.3 30 07:49 26.12.2020
4452 Snow -4 997 79 1609 11.8 30 06:23 26.12.2020
4453 Clouds -4 998 68 10000 6.7 10 02:49 26.12.2020
4454 Clouds -6 999 67 10000 5.7 330 00:44 26.12.2020
4455 Clouds -5 1000 62 10000 3.1 350 00:24 26.12.2020
4456 Clouds -5 1000 62 10000 3.1 350 23:39 25.12.2020
4457 Clouds -6 1000 67 10000 5.7 360 23:21 25.12.2020
4458 Clouds -6 1000 67 10000 5.7 360 22:40 25.12.2020
4459 Clouds -8 1001 72 10000 4.1 340 21:54 25.12.2020
4460 Clouds -8 1001 72 10000 4.1 340 21:34 25.12.2020
4461 Clear -10 1001 78 10000 3.55 358 20:49 25.12.2020
4462 Clear -10 1001 78 10000 3.55 358 20:30 25.12.2020
4463 Clear -10 1002 78 10000 4.1 330 19:47 25.12.2020
4464 Clear -10 1002 78 10000 4.1 350 18:58 25.12.2020
4465 Clear -10 1002 78 10000 4.1 350 18:38 25.12.2020
4466 Clouds -11 1002 85 10000 2.6 210 17:40 25.12.2020
4467 Clouds -9 1003 85 10000 2.6 290 17:21 25.12.2020
4468 Clouds -9 1003 85 10000 2.6 290 16:33 25.12.2020
4469 Clouds -8 1003 85 10000 1.5 340 15:58 25.12.2020
4470 Clouds -7 1003 85 10000 2.2 25 15:36 25.12.2020
4471 Clouds -10 1003 85 10000 3.6 110 14:50 25.12.2020
4472 Clouds -11 1003 85 10000 3.6 110 14:29 25.12.2020
4473 Clouds -11 1003 85 10000 3.6 110 14:29 25.12.2020
4474 Clouds -11 1003 85 10000 2.1 20 13:44 25.12.2020
4475 Clouds -8 1003 85 10000 2.1 20 13:26 25.12.2020
4476 Clouds -10 1003 85 10000 4.1 30 12:45 25.12.2020
4477 Clouds -8 1003 92 10000 2.1 50 11:58 25.12.2020
4478 Clouds -10 1003 92 10000 2.1 50 11:40 25.12.2020
4479 Clouds -11 1002 92 10000 2.1 70 11:19 25.12.2020
4480 Clouds -10 1002 92 10000 2.1 70 10:27 25.12.2020
4481 Clear -10 1002 92 10000 1.13 338 09:37 25.12.2020
4482 Clouds -9 1002 92 10000 1.5 300 08:48 25.12.2020
4483 Snow -9 1002 92 10000 1.5 300 08:25 25.12.2020
4484 Snow -6 1001 85 4828 5.7 280 06:47 25.12.2020
4485 Snow -7 1000 85 10000 6.7 260 04:44 25.12.2020
4486 Clouds -6 997 79 10000 7.2 300 01:50 25.12.2020
4487 Clouds -5 996 79 10000 8.7 300 00:18 25.12.2020
4488 Clouds -5 996 79 10000 8.7 300 23:26 24.12.2020
4489 Clouds -4 995 79 10000 7.7 280 22:53 24.12.2020
4490 Clouds -4 994 79 10000 9.3 300 22:22 24.12.2020
4491 Clouds -4 994 79 10000 9.3 300 21:41 24.12.2020
4492 Snow -4 993 79 10000 4.1 310 20:48 24.12.2020
4493 Snow -3 992 86 1609 2.6 300 19:19 24.12.2020
4494 Snow -3 992 79 10000 3.6 310 18:20 24.12.2020
4495 Snow -3 991 79 10000 6.2 20 17:37 24.12.2020
4496 Snow -3 991 79 10000 6.2 20 17:37 24.12.2020
4497 Snow -3 991 86 10000 6.2 30 16:59 24.12.2020
4498 Snow -3 991 79 10000 4.1 30 16:23 24.12.2020
4499 Snow -3 991 79 10000 4.1 30 15:43 24.12.2020
4500 Snow -3 991 79 10000 4.6 70 15:20 24.12.2020
4501 Snow -3 991 79 10000 4.6 70 14:51 24.12.2020
4502 Clouds -3 991 79 10000 4.6 70 14:24 24.12.2020
4503 Clouds -3 991 79 10000 4.6 70 13:48 24.12.2020
4504 Clouds -3 991 79 10000 4.6 70 13:30 24.12.2020
4505 Clouds -4 991 85 10000 5.1 80 12:45 24.12.2020
4506 Snow -4 990 85 10000 5.1 90 12:22 24.12.2020
4507 Snow -4 990 85 10000 5.1 90 11:59 24.12.2020
4508 Snow -4 990 85 10000 5.1 90 11:37 24.12.2020
4509 Snow -4 990 85 10000 5.1 90 11:18 24.12.2020
4510 Snow -4 990 85 10000 5.7 80 10:42 24.12.2020
4511 Snow -4 989 85 10000 5.7 80 09:53 24.12.2020
4512 Snow -4 989 85 10000 5.7 80 09:32 24.12.2020
4513 Snow -4 988 85 10000 5.1 80 08:48 24.12.2020
4514 Snow -3 988 86 10000 5.1 80 07:48 24.12.2020
4515 Snow -3 988 86 10000 5.1 80 07:28 24.12.2020
4516 Snow -3 987 86 10000 5.1 80 06:23 24.12.2020
4517 Snow -3 986 86 10000 4.6 90 03:23 24.12.2020
4518 Snow -4 985 85 10000 5.7 90 01:48 24.12.2020
4519 Snow -4 985 85 10000 4.6 110 01:18 24.12.2020
4520 Snow -4 985 85 10000 4.6 110 01:18 24.12.2020
4521 Snow -4 985 85 10000 4.6 110 01:18 24.12.2020
4522 Clouds -4 984 79 10000 5.7 90 00:23 24.12.2020
4523 Clouds -4 984 79 10000 5.7 90 23:56 23.12.2020
4524 Clouds -4 984 79 10000 5.7 90 23:38 23.12.2020
4525 Clouds -4 984 79 10000 5.7 90 23:18 23.12.2020
4526 Clouds -4 983 85 10000 6.2 100 22:42 23.12.2020
4527 Clear -5 983 85 10000 5.1 110 22:19 23.12.2020
4528 Clear -5 983 85 10000 5.1 110 21:32 23.12.2020
4529 Clear -5 982 85 10000 6.7 120 20:59 23.12.2020
4530 Clear -4 982 85 10000 6.7 120 20:37 23.12.2020
4531 Clouds -4 982 86 10000 5.1 110 20:19 23.12.2020
4532 Clouds -3 982 86 10000 5.1 110 19:42 23.12.2020
4533 Clouds -3 981 86 10000 5.1 80 19:22 23.12.2020
4534 Clouds -3 981 86 10000 5.1 80 18:52 23.12.2020
4535 Clouds -3 981 86 10000 5.1 80 18:34 23.12.2020
4536 Clouds -2 980 92 10000 5.7 110 17:43 23.12.2020
4537 Clouds -2 980 92 10000 5.7 110 17:22 23.12.2020
4538 Clouds -2 980 92 10000 5.7 110 16:56 23.12.2020
4539 Clouds -2 979 92 10000 7.7 110 16:36 23.12.2020
4540 Clouds -1 979 86 10000 7.2 110 16:18 23.12.2020
4541 Clouds -1 979 86 10000 7.2 120 15:39 23.12.2020
4542 Clouds -1 979 86 10000 7.2 110 15:21 23.12.2020
4543 Clouds -1 979 86 10000 7.7 110 14:46 23.12.2020
4544 Clouds -1 978 86 10000 8.2 110 14:23 23.12.2020
4545 Clouds -1 978 86 10000 8.2 110 13:46 23.12.2020
4546 Mist -1 977 92 8047 9.3 110 13:20 23.12.2020
4547 Snow -1 977 92 8047 9.3 110 12:58 23.12.2020
4548 Snow -1 977 92 8047 9.3 110 12:37 23.12.2020
4549 Snow -1 977 86 10000 9.8 110 12:18 23.12.2020
4550 Snow -1 977 92 4828 8.7 110 11:43 23.12.2020
4551 Snow -1 976 86 10000 10.3 110 10:57 23.12.2020
4552 Snow -1 976 86 10000 10.3 110 10:57 23.12.2020
4553 Snow -1 976 86 10000 10.3 110 10:39 23.12.2020
4554 Snow -1 976 92 9656 8.7 110 09:45 23.12.2020
4555 Snow -1 976 92 9656 8.7 110 09:25 23.12.2020
4556 Snow -1 975 92 9656 9.8 100 08:42 23.12.2020
4557 Snow -1 974 86 3219 8.7 90 07:51 23.12.2020
4558 Clouds -1 974 92 10000 7.7 120 07:20 23.12.2020
4559 Clouds -1 973 97 10000 8.7 120 06:38 23.12.2020
4560 Snow -1 971 92 10000 10.3 130 05:25 23.12.2020
4561 Snow -1 971 92 10000 10.3 130 04:28 23.12.2020
4562 Fog -2 969 92 805 14.4 90 00:33 23.12.2020
4563 Snow -2 969 92 805 12.9 90 23:45 22.12.2020
4564 Snow -2 969 92 805 12.9 90 23:26 22.12.2020
4565 Snow -2 970 92 402 15.9 90 22:43 22.12.2020
4566 Fog -2 970 92 402 15.9 90 22:25 22.12.2020
4567 Snow -2 970 86 402 16.5 90 21:57 22.12.2020
4568 Snow -2 970 86 402 16.5 90 21:38 22.12.2020
4569 Snow -2 970 86 1207 13.4 90 21:18 22.12.2020
4570 Snow -2 970 86 1207 13.4 90 20:43 22.12.2020
4571 Snow -2 970 86 1207 14.4 90 20:20 22.12.2020
4572 Snow -2 970 86 805 14.4 90 19:42 22.12.2020
4573 Snow -2 970 86 805 14.4 90 19:21 22.12.2020
4574 Snow -2 971 86 1207 12.9 90 18:48 22.12.2020
4575 Snow -2 971 86 1207 12.9 90 18:28 22.12.2020
4576 Snow -2 971 86 805 11.8 90 17:50 22.12.2020
4577 Snow -3 971 92 1207 10.3 90 17:23 22.12.2020
4578 Mist -3 972 86 2012 11.8 90 16:54 22.12.2020
4579 Snow -3 972 86 2012 11.8 90 16:36 22.12.2020
4580 Snow -3 972 86 2012 11.8 90 16:18 22.12.2020
4581 Snow -4 973 85 2816 10.3 80 15:41 22.12.2020
4582 Snow -4 973 85 2816 10.3 80 15:18 22.12.2020
4583 Snow -4 974 85 4023 11.3 80 14:43 22.12.2020
4584 Snow -4 974 85 4023 12.3 80 14:25 22.12.2020
4585 Snow -4 974 85 3219 10.8 80 13:47 22.12.2020
4586 Snow -5 975 85 2012 10.8 80 13:19 22.12.2020
4587 Mist -5 975 85 2012 10.8 80 12:56 22.12.2020
4588 Snow -5 975 85 2012 10.8 80 12:38 22.12.2020
4589 Snow -6 975 92 1609 11.8 80 12:19 22.12.2020
4590 Snow -6 975 92 1609 11.8 80 11:41 22.12.2020
4591 Snow -6 976 92 805 12.3 90 11:21 22.12.2020
4592 Snow -6 976 85 805 12.3 90 10:55 22.12.2020
4593 Snow -6 976 85 805 12.3 90 10:27 22.12.2020
4594 Snow -6 976 85 1207 11.3 80 09:58 22.12.2020
4595 Snow -6 976 85 2012 11.3 80 09:30 22.12.2020
4596 Snow -6 977 85 1207 10.8 80 08:57 22.12.2020
4597 Snow -6 977 85 2414 11.3 80 08:38 22.12.2020
4598 Snow -6 977 85 3219 11.8 80 07:57 22.12.2020
4599 Snow -7 978 85 10000 10.3 70 07:27 22.12.2020
4600 Snow -7 978 79 4828 9.3 70 06:31 22.12.2020
4601 Snow -8 979 78 4828 9.8 60 05:30 22.12.2020
4602 Snow -12 984 66 4828 7.7 60 02:19 22.12.2020
4603 Clouds -16 988 59 10000 6.2 40 00:23 22.12.2020
4604 Clouds -18 988 59 10000 6.2 40 23:43 21.12.2020
4605 Clouds -18 990 59 10000 10.3 40 23:21 21.12.2020
4606 Clouds -19 990 59 10000 10.3 40 22:36 21.12.2020
4607 Clouds -19 992 58 10000 6.7 30 22:18 21.12.2020
4608 Clouds -20 992 58 10000 6.7 30 21:47 21.12.2020
4609 Clouds -19 992 58 10000 6.7 30 21:28 21.12.2020
4610 Clear -21 993 63 10000 4.1 40 20:45 21.12.2020
4611 Clear -21 994 63 10000 3.6 70 20:21 21.12.2020
4612 Clear -21 994 63 10000 3.6 70 19:47 21.12.2020
4613 Clear -21 994 63 10000 3.6 70 19:47 21.12.2020
4614 Clear -21 995 69 10000 3.1 80 19:22 21.12.2020
4615 Clear -22 995 69 10000 3.1 80 18:58 21.12.2020
4616 Clear -22 995 69 10000 3.1 80 18:40 21.12.2020
4617 Clear -22 995 69 10000 3.1 80 18:40 21.12.2020
4618 Clouds -22 995 69 10000 4.6 30 18:21 21.12.2020
4619 Clouds -22 995 69 10000 4.6 30 17:42 21.12.2020
4620 Clouds -22 995 69 10000 4.6 30 17:23 21.12.2020
4621 Clouds -22 996 69 10000 5.7 30 16:42 21.12.2020
4622 Clear -22 997 69 10000 5.1 40 16:20 21.12.2020
4623 Clear -23 997 69 10000 5.1 40 15:42 21.12.2020
4624 Clear -23 998 76 10000 4.1 60 14:58 21.12.2020
4625 Clear -24 999 76 10000 3.1 30 14:23 21.12.2020
4626 Clear -25 999 76 10000 3.1 30 13:55 21.12.2020
4627 Clear -25 999 76 10000 3.1 30 13:37 21.12.2020
4628 Clear -25 1000 76 10000 3.1 30 13:18 21.12.2020
4629 Clear -25 1000 76 10000 3.1 30 12:42 21.12.2020
4630 Clouds -25 1000 76 10000 3.1 40 12:19 21.12.2020
4631 Clouds -25 1000 76 10000 4.1 50 11:43 21.12.2020
4632 Clouds -25 1000 76 10000 3.6 40 11:22 21.12.2020
4633 Clouds -26 1000 76 10000 3.6 40 10:57 21.12.2020
4634 Clouds -25 1000 76 10000 3.6 40 10:39 21.12.2020
4635 Clouds -26 1000 76 10000 3.1 30 09:55 21.12.2020
4636 Clouds -25 1000 76 10000 3.1 30 09:37 21.12.2020
4637 Clouds -24 1000 76 10000 3.6 50 09:19 21.12.2020
4638 Clouds -24 1000 76 10000 3.6 50 08:25 21.12.2020
4639 Clouds -26 999 69 10000 2.4 59 06:48 21.12.2020
4640 Clouds -27 999 69 10000 2.31 59 05:39 21.12.2020
4641 Clouds -27 999 75 10000 1.5 50 04:30 21.12.2020
4642 Clear -29 998 68 10000 1.36 70 00:36 21.12.2020
4643 Clear -28 997 68 10000 1.5 20 23:50 20.12.2020
4644 Clear -28 997 68 10000 1.19 66 23:21 20.12.2020
4645 Clear -28 997 68 10000 1.19 66 22:45 20.12.2020
4646 Clear -28 996 68 10000 1.13 60 22:23 20.12.2020
4647 Clear -28 996 68 10000 1.13 60 21:55 20.12.2020
4648 Clear -28 996 68 10000 1.13 60 21:37 20.12.2020
4649 Clear -28 996 68 10000 1.23 50 21:18 20.12.2020
4650 Clear -28 996 68 10000 1.23 50 20:42 20.12.2020
4651 Clear -28 995 68 10000 1.23 43 20:21 20.12.2020
4652 Clear -28 995 68 10000 1.23 43 19:42 20.12.2020
4653 Clear -28 995 68 10000 1.53 28 19:20 20.12.2020
4654 Clear -28 994 68 10000 1.5 10 18:54 20.12.2020
4655 Clear -28 994 68 10000 1.5 10 18:35 20.12.2020
4656 Clear -27 994 68 10000 1.7 36 17:47 20.12.2020
4657 Clear -27 994 68 10000 1.58 35 17:28 20.12.2020
4658 Clear -28 993 68 10000 1.58 35 16:48 20.12.2020
4659 Clear -28 993 68 10000 1.6 35 16:29 20.12.2020
4660 Clear -28 993 68 10000 1.6 35 15:52 20.12.2020
4661 Clear -28 993 68 10000 1.41 30 15:28 20.12.2020
4662 Clear -28 993 75 10000 1.41 30 14:58 20.12.2020
4663 Clear -28 993 75 10000 1.41 30 14:36 20.12.2020
4664 Clear -27 993 68 10000 1.5 10 13:57 20.12.2020
4665 Clear -27 993 68 10000 1.5 10 13:37 20.12.2020
4666 Clear -27 993 68 10000 1.92 18 13:18 20.12.2020
4667 Clear -27 993 68 10000 1.99 21 12:44 20.12.2020
4668 Clear -28 992 75 10000 0.45 0 12:22 20.12.2020
4669 Clear -27 992 75 10000 2.23 21 11:49 20.12.2020
4670 Clear -27 992 68 10000 1.5 40 11:26 20.12.2020
4671 Clear -27 992 68 10000 1.5 40 10:49 20.12.2020
4672 Clear -25 991 63 10000 1.5 10 10:21 20.12.2020
4673 Clear -25 991 63 10000 1.5 10 09:47 20.12.2020
4674 Clear -25 991 63 10000 1.5 10 09:29 20.12.2020
4675 Clear -25 991 62 10000 2.1 340 08:59 20.12.2020
4676 Clear -25 991 62 10000 2.1 340 08:40 20.12.2020
4677 Clouds -26 991 68 10000 1.5 30 07:59 20.12.2020
4678 Clear -26 991 69 10000 1.84 33 07:19 20.12.2020
4679 Clouds -23 991 57 10000 2.1 350 02:41 20.12.2020
4680 Clouds -24 991 63 10000 1.47 35 00:53 20.12.2020
4681 Clouds -24 991 63 10000 1.32 45 23:36 19.12.2020
4682 Clouds -24 992 63 10000 2.1 360 23:18 19.12.2020
4683 Clouds -24 992 63 10000 2.1 360 22:42 19.12.2020
4684 Clear -24 992 63 10000 2.1 360 22:24 19.12.2020
4685 Clear -23 992 63 10000 2.1 360 21:45 19.12.2020
4686 Clear -23 992 63 10000 2.1 360 21:26 19.12.2020
4687 Clear -24 992 69 10000 1.5 0 20:58 19.12.2020
4688 Clear -24 992 69 10000 2.1 30 20:24 19.12.2020
4689 Clear -24 992 69 10000 2.1 30 19:59 19.12.2020
4690 Clear -24 992 69 10000 2.1 30 19:41 19.12.2020
4691 Clear -24 992 69 10000 2.1 30 19:21 19.12.2020
4692 Clear -24 992 69 10000 1.6 14 18:33 19.12.2020
4693 Clear -23 992 63 10000 1.5 10 17:56 19.12.2020
4694 Clear -23 992 63 10000 1.5 10 17:32 19.12.2020
4695 Clear -21 992 58 10000 1.44 21 16:59 19.12.2020
4696 Clear -21 992 58 10000 1.44 21 16:39 19.12.2020
4697 Clear -21 993 53 10000 3.1 30 16:21 19.12.2020
4698 Clear -20 993 53 10000 3.1 30 15:49 19.12.2020
4699 Clear -20 993 53 10000 3.6 350 15:20 19.12.2020
4700 Clear -20 993 53 10000 3.6 350 14:37 19.12.2020
4701 Clear -19 993 53 10000 2.6 10 13:55 19.12.2020
4702 Clear -19 993 53 10000 2.6 10 13:36 19.12.2020
4703 Clear -19 993 53 10000 2.6 350 13:18 19.12.2020
4704 Clear -19 993 53 10000 2.6 350 12:42 19.12.2020
4705 Clear -19 993 58 10000 2.6 320 12:24 19.12.2020
4706 Clear -19 993 58 10000 2.6 320 11:53 19.12.2020
4707 Clear -19 993 58 10000 2.6 320 11:32 19.12.2020
4708 Clouds -19 993 64 10000 2.1 340 10:42 19.12.2020
4709 Clouds -17 993 54 10000 2.1 20 10:19 19.12.2020
4710 Clouds -18 993 54 10000 2.1 20 09:42 19.12.2020
4711 Clouds -17 993 59 10000 3.6 40 08:59 19.12.2020
4712 Clouds -17 993 54 10000 3.1 50 08:23 19.12.2020
4713 Clouds -17 992 54 10000 4.6 40 07:22 19.12.2020
4714 Clouds -17 992 54 10000 4.6 40 06:51 19.12.2020
4715 Clouds -17 993 59 10000 3.1 50 05:25 19.12.2020
4716 Clouds -17 993 54 10000 3.1 60 03:55 19.12.2020
4717 Clouds -19 993 58 10000 2.6 360 01:21 19.12.2020
4718 Clouds -19 993 58 10000 2.6 360 00:36 19.12.2020
4719 Clouds -19 993 58 10000 2.6 360 00:18 19.12.2020
4720 Clouds -19 994 58 10000 1.32 48 23:44 18.12.2020
4721 Clouds -19 994 58 10000 1.13 53 23:21 18.12.2020
4722 Clouds -18 994 49 10000 2.1 40 22:43 18.12.2020
4723 Clouds -19 994 49 10000 2.6 330 22:20 18.12.2020
4724 Clouds -19 994 49 10000 2.6 330 21:47 18.12.2020
4725 Clear -19 994 49 10000 3.1 40 21:28 18.12.2020
4726 Clear -19 994 49 10000 3.1 40 20:38 18.12.2020
4727 Clear -19 994 49 10000 3.6 20 20:19 18.12.2020
4728 Clear -19 994 49 10000 3.6 20 19:41 18.12.2020
4729 Clear -19 994 49 10000 3.6 20 19:20 18.12.2020
4730 Clouds -19 994 49 10000 4.1 10 18:39 18.12.2020
4731 Clouds -19 994 49 10000 2.1 10 18:20 18.12.2020
4732 Clouds -19 994 49 10000 2.1 10 17:22 18.12.2020
4733 Clouds -19 995 49 10000 3.1 360 16:49 18.12.2020
4734 Clouds -19 995 49 10000 3.1 360 16:27 18.12.2020
4735 Clear -20 995 53 10000 2.1 350 15:58 18.12.2020
4736 Clear -20 995 53 10000 2.1 350 15:39 18.12.2020
4737 Clear -20 995 53 10000 2.1 350 15:20 18.12.2020
4738 Clear -20 996 53 10000 2.1 0 14:54 18.12.2020
4739 Clear -21 996 57 10000 4.1 350 14:21 18.12.2020
4740 Clear -21 996 57 10000 4.1 350 13:49 18.12.2020
4741 Clear -21 996 57 10000 4.1 350 13:25 18.12.2020
4742 Clear -20 996 48 10000 4.6 30 12:46 18.12.2020
4743 Clear -20 996 44 10000 2.6 50 11:51 18.12.2020
4744 Clouds -20 996 53 10000 5.7 360 11:22 18.12.2020
4745 Clouds -20 996 53 10000 5.7 360 10:39 18.12.2020
4746 Clear -20 996 58 10000 3.1 10 10:20 18.12.2020
4747 Clear -20 996 58 10000 3.1 10 09:39 18.12.2020
4748 Clear -20 996 53 10000 5.1 360 09:21 18.12.2020
4749 Clear -20 996 53 10000 5.1 360 08:53 18.12.2020
4750 Clear -20 996 53 10000 5.1 360 08:30 18.12.2020
4751 Clear -19 997 53 10000 5.7 10 07:39 18.12.2020
4752 Clouds -19 997 44 10000 3.6 360 07:18 18.12.2020
4753 Clouds -19 997 44 10000 3.6 360 06:49 18.12.2020
4754 Clear -19 997 53 10000 6.7 30 05:41 18.12.2020
4755 Clear -19 997 53 10000 4.6 10 04:51 18.12.2020
4756 Clouds -17 998 54 10000 6.7 30 01:59 18.12.2020
4757 Clouds -17 998 54 10000 6.7 30 01:40 18.12.2020
4758 Clear -18 999 59 10000 7.2 40 23:59 17.12.2020
4759 Clear -18 999 59 10000 7.2 40 23:37 17.12.2020
4760 Clear -18 999 59 10000 7.2 40 23:18 17.12.2020
4761 Clear -18 999 59 10000 7.2 30 22:45 17.12.2020
4762 Clear -18 999 59 10000 7.2 30 22:26 17.12.2020
4763 Clear -18 999 59 10000 8.2 30 21:43 17.12.2020
4764 Clear -18 999 59 10000 8.2 30 21:43 17.12.2020
4765 Clear -18 999 59 10000 7.7 40 21:19 17.12.2020
4766 Clear -18 999 59 10000 7.7 40 20:42 17.12.2020
4767 Clear -18 999 59 10000 7.7 40 20:19 17.12.2020
4768 Clear -18 999 64 10000 6.7 40 19:48 17.12.2020
4769 Clear -18 999 64 10000 4.6 40 19:24 17.12.2020
4770 Clear -18 999 64 10000 4.6 40 18:44 17.12.2020
4771 Clear -18 999 64 10000 6.7 30 18:26 17.12.2020
4772 Clear -18 999 64 10000 6.7 30 17:57 17.12.2020
4773 Clear -18 999 64 10000 6.7 30 17:33 17.12.2020
4774 Clear -18 1000 64 10000 4.6 40 16:55 17.12.2020
4775 Clear -18 1000 64 10000 4.6 40 16:36 17.12.2020
4776 Clear -18 1000 59 10000 5.7 40 16:18 17.12.2020
4777 Clear -17 1000 59 10000 5.7 40 15:40 17.12.2020
4778 Clear -17 1000 64 10000 4.6 60 15:18 17.12.2020
4779 Clear -17 1000 64 10000 4.6 60 14:47 17.12.2020
4780 Clouds -17 1000 59 10000 5.1 70 14:19 17.12.2020
4781 Clouds -16 1000 59 10000 5.1 70 13:42 17.12.2020
4782 Clouds -14 1000 65 10000 4.1 70 12:58 17.12.2020
4783 Clouds -14 1000 65 10000 4.1 70 12:38 17.12.2020
4784 Clouds -15 1000 65 10000 4.6 50 12:20 17.12.2020
4785 Clouds -13 1000 65 10000 4.6 50 11:40 17.12.2020
4786 Clouds -13 1000 65 10000 4.6 50 11:20 17.12.2020
4787 Clouds -13 1000 71 10000 4.6 90 10:40 17.12.2020
4788 Clouds -12 1000 60 10000 5.7 80 09:36 17.12.2020
4789 Clouds -13 999 71 10000 5.1 80 08:40 17.12.2020
4790 Clouds -12 999 66 10000 6.2 90 07:42 17.12.2020
4791 Clouds -12 999 66 10000 6.7 80 07:20 17.12.2020
4792 Clouds -12 999 66 10000 6.7 80 06:47 17.12.2020
4793 Clouds -12 999 66 10000 6.7 80 06:27 17.12.2020
4794 Clouds -12 999 72 10000 6.2 80 03:29 17.12.2020
4795 Snow -9 1000 78 10000 7.7 90 00:20 17.12.2020
4796 Snow -9 1000 78 10000 7.7 90 23:38 16.12.2020
4797 Snow -9 1000 78 10000 7.7 90 23:18 16.12.2020
4798 Clouds -8 1000 72 10000 7.2 80 22:47 16.12.2020
4799 Clouds -8 1000 72 10000 7.2 80 22:28 16.12.2020
4800 Clouds -8 1000 72 10000 7.2 90 21:42 16.12.2020
4801 Clouds -8 1000 72 10000 7.2 90 21:22 16.12.2020
4802 Clouds -8 999 78 10000 6.2 100 20:49 16.12.2020
4803 Clouds -7 999 73 10000 7.2 90 20:20 16.12.2020
4804 Clouds -7 999 73 10000 7.2 90 19:38 16.12.2020
4805 Clouds -7 999 73 10000 7.2 90 19:18 16.12.2020
4806 Clouds -7 999 79 10000 4.6 90 18:44 16.12.2020
4807 Clouds -7 999 73 10000 5.1 80 18:22 16.12.2020
4808 Clouds -7 999 79 10000 6.7 100 17:36 16.12.2020
4809 Clouds -7 1000 79 10000 6.2 110 16:46 16.12.2020
4810 Clouds -7 1000 85 10000 6.2 90 16:28 16.12.2020
4811 Clouds -7 1000 85 10000 6.2 90 15:57 16.12.2020
4812 Clouds -7 1000 85 10000 6.2 90 15:37 16.12.2020
4813 Clouds -7 1000 85 10000 6.2 90 15:18 16.12.2020
4814 Clouds -7 1000 85 10000 6.7 100 14:41 16.12.2020
4815 Mist -7 1000 85 9656 6.2 90 14:22 16.12.2020
4816 Mist -7 1000 85 9656 6.2 90 13:40 16.12.2020
4817 Clouds -7 1000 85 10000 7.2 90 13:20 16.12.2020
4818 Clouds -7 1000 85 10000 7.2 90 12:43 16.12.2020
4819 Clouds -7 999 85 10000 6.2 90 11:49 16.12.2020
4820 Clouds -7 999 85 10000 6.2 90 11:27 16.12.2020
4821 Mist -7 999 92 8047 7.2 80 10:54 16.12.2020
4822 Mist -7 999 92 6437 7.7 90 10:28 16.12.2020
4823 Mist -7 999 92 4828 6.2 90 09:55 16.12.2020
4824 Snow -7 999 85 9656 6.7 80 09:24 16.12.2020
4825 Snow -7 999 85 9656 8.2 80 08:22 16.12.2020
4826 Snow -7 999 85 9656 8.2 80 07:45 16.12.2020
4827 Snow -7 999 85 4828 8.7 80 07:20 16.12.2020
4828 Snow -7 999 92 3219 9.3 80 03:35 16.12.2020
4829 Snow -7 999 92 1609 6.7 80 01:59 16.12.2020
4830 Mist -6 999 85 9656 8.7 100 23:50 15.12.2020
4831 Mist -6 999 85 9656 8.7 100 23:31 15.12.2020
4832 Snow -6 999 85 6437 8.2 90 22:41 15.12.2020
4833 Snow -7 999 92 4023 8.2 90 22:21 15.12.2020
4834 Snow -7 998 92 2414 8.2 80 21:47 15.12.2020
4835 Snow -7 998 85 2414 8.2 70 21:23 15.12.2020
4836 Snow -7 998 85 2414 8.2 70 20:45 15.12.2020
4837 Snow -8 998 85 6437 6.2 60 20:27 15.12.2020
4838 Snow -8 998 85 6437 6.2 60 19:55 15.12.2020
4839 Mist -8 998 85 6437 6.2 60 19:33 15.12.2020
4840 Snow -8 999 78 4023 6.2 60 18:44 15.12.2020
4841 Snow -8 999 78 4023 6.2 60 18:24 15.12.2020
4842 Snow -8 999 78 3219 5.1 60 17:59 15.12.2020
4843 Snow -8 999 78 3219 5.1 60 17:41 15.12.2020
4844 Snow -8 999 78 4023 6.7 60 17:20 15.12.2020
4845 Snow -9 999 78 2816 5.1 50 16:33 15.12.2020
4846 Snow -9 1000 78 3219 6.2 50 15:55 15.12.2020
4847 Snow -9 1000 78 3219 6.2 50 15:32 15.12.2020
4848 Snow -9 1000 85 2816 5.1 50 14:49 15.12.2020
4849 Snow -9 1000 85 2816 5.1 50 14:23 15.12.2020
4850 Snow -9 1000 78 3219 5.1 40 13:52 15.12.2020
4851 Snow -9 1000 78 3219 5.1 40 13:32 15.12.2020
4852 Snow -9 1000 78 4023 5.7 30 12:47 15.12.2020
4853 Snow -9 1000 78 6437 4.1 40 12:22 15.12.2020
4854 Snow -10 1000 78 6437 4.1 40 11:56 15.12.2020
4855 Snow -10 1000 78 6437 4.1 40 11:27 15.12.2020
4856 Snow -9 1000 78 4828 4.6 40 10:57 15.12.2020
4857 Snow -9 1000 78 6437 4.6 30 10:35 15.12.2020
4858 Snow -9 1000 78 6437 4.1 40 09:53 15.12.2020
4859 Snow -9 1000 78 6437 4.1 40 09:32 15.12.2020
4860 Snow -9 1000 78 6437 4.1 40 09:32 15.12.2020
4861 Snow -9 1000 78 6437 4.1 40 09:32 15.12.2020
4862 Snow -9 1000 78 6437 2.6 50 08:57 15.12.2020
4863 Snow -9 1000 78 6437 2.6 50 08:29 15.12.2020
4864 Snow -9 1000 78 4023 3.6 40 07:54 15.12.2020
4865 Snow -9 1000 78 10000 3.1 50 07:33 15.12.2020
4866 Snow -9 999 72 6437 4.6 50 06:37 15.12.2020
4867 Clouds -9 999 66 10000 5.1 50 04:20 15.12.2020
4868 Clouds -10 999 66 10000 5.1 30 00:36 15.12.2020
4869 Clouds -10 999 72 10000 3.6 40 23:28 14.12.2020
4870 Clouds -10 999 72 10000 3.6 50 22:59 14.12.2020
4871 Clouds -10 999 72 10000 3.6 50 22:37 14.12.2020
4872 Clouds -10 999 66 10000 3.6 50 21:54 14.12.2020
4873 Clouds -10 999 66 10000 3.6 50 21:54 14.12.2020
4874 Clouds -10 999 66 10000 3.6 50 21:35 14.12.2020
4875 Clouds -11 999 72 10000 5.7 20 20:52 14.12.2020
4876 Clouds -11 999 72 10000 5.7 20 20:30 14.12.2020
4877 Clouds -11 998 66 10000 5.7 60 19:55 14.12.2020
4878 Clouds -11 998 66 10000 5.7 60 19:30 14.12.2020
4879 Clouds -11 998 66 10000 7.2 60 18:53 14.12.2020
4880 Clouds -11 998 66 10000 7.2 60 18:32 14.12.2020
4881 Clouds -11 999 66 10000 6.2 60 17:52 14.12.2020
4882 Clouds -11 999 66 10000 6.2 60 17:31 14.12.2020
4883 Clear -11 999 66 10000 6.2 60 16:52 14.12.2020
4884 Clouds -11 1000 66 10000 7.7 70 16:29 14.12.2020
4885 Clouds -11 1000 66 10000 7.7 70 15:46 14.12.2020
4886 Clouds -11 1000 66 10000 6.2 60 15:25 14.12.2020
4887 Clouds -11 1000 66 10000 6.2 60 14:44 14.12.2020
4888 Clouds -11 1001 61 10000 6.2 70 14:25 14.12.2020
4889 Clouds -10 1001 61 10000 6.2 70 13:46 14.12.2020
4890 Clouds -11 1001 66 10000 6.7 50 13:22 14.12.2020
4891 Clouds -11 1001 66 10000 6.7 50 12:53 14.12.2020
4892 Clouds -11 1001 66 10000 6.7 50 12:28 14.12.2020
4893 Clear -10 1001 61 10000 7.7 60 11:35 14.12.2020
4894 Clouds -10 1002 61 10000 8.2 40 10:43 14.12.2020
4895 Clouds -10 1002 61 10000 8.2 40 10:25 14.12.2020
4896 Clear -10 1002 61 10000 7.7 40 09:44 14.12.2020
4897 Clouds -10 1002 61 10000 7.2 50 08:48 14.12.2020
4898 Clouds -10 1002 61 10000 7.2 50 08:30 14.12.2020
4899 Clouds -10 1003 56 10000 5.7 60 07:49 14.12.2020
4900 Clouds -10 1002 56 10000 8.7 50 06:48 14.12.2020
4901 Clouds -10 1003 61 10000 9.3 50 05:37 14.12.2020
4902 Clear -10 1004 61 10000 9.8 20 02:39 14.12.2020
4903 Clouds -10 1004 56 10000 10.8 40 00:56 14.12.2020
4904 Clouds -10 1004 56 10000 10.8 40 00:34 14.12.2020
4905 Clear -10 1005 56 10000 6.2 60 23:57 13.12.2020
4906 Clear -10 1005 56 10000 6.2 60 23:39 13.12.2020
4907 Clear -9 1004 52 10000 10.3 50 22:49 13.12.2020
4908 Clear -9 1005 52 10000 9.8 40 22:20 13.12.2020
4909 Clear -9 1005 52 10000 9.8 40 21:50 13.12.2020
4910 Clear -9 1005 52 10000 9.8 40 21:29 13.12.2020
4911 Clear -9 1005 52 10000 8.7 30 20:42 13.12.2020
4912 Clouds -9 1006 61 10000 8.2 30 20:23 13.12.2020
4913 Clouds -9 1006 61 10000 8.2 30 19:43 13.12.2020
4914 Clouds -9 1006 57 10000 7.7 40 19:22 13.12.2020
4915 Clouds -9 1006 57 10000 7.7 40 19:22 13.12.2020
4916 Clouds -9 1006 57 10000 7.7 40 18:44 13.12.2020
4917 Clouds -8 1006 52 10000 6.2 60 18:21 13.12.2020
4918 Clouds -8 1006 52 10000 6.2 60 17:59 13.12.2020
4919 Clouds -8 1006 52 10000 6.2 60 17:41 13.12.2020
4920 Clouds -8 1007 61 10000 3.6 80 17:18 13.12.2020
4921 Clouds -8 1007 61 10000 3.6 80 16:39 13.12.2020
4922 Clouds -8 1007 67 10000 4.6 80 16:19 13.12.2020
4923 Clouds -8 1007 67 10000 4.6 80 15:45 13.12.2020
4924 Clouds -8 1007 67 10000 4.6 80 15:24 13.12.2020
4925 Clouds -7 1007 62 10000 5.7 80 14:45 13.12.2020
4926 Clouds -7 1007 62 10000 5.7 80 14:27 13.12.2020
4927 Clouds -6 1008 57 10000 4.6 80 13:45 13.12.2020
4928 Clouds -6 1008 57 10000 4.6 80 13:27 13.12.2020
4929 Clouds -6 1008 57 10000 4.6 50 12:52 13.12.2020
4930 Clouds -5 1008 57 10000 7.2 80 12:23 13.12.2020
4931 Clouds -5 1008 57 10000 7.2 80 11:51 13.12.2020
4932 Clouds -4 1008 68 10000 5.1 90 11:23 13.12.2020
4933 Clouds -4 1008 68 10000 5.1 90 10:41 13.12.2020
4934 Clouds -4 1007 62 10000 5.7 100 09:59 13.12.2020
4935 Clouds -4 1007 62 10000 5.7 100 09:31 13.12.2020
4936 Clouds -4 1007 62 10000 4.6 100 08:36 13.12.2020
4937 Clouds -2 1006 50 10000 6.7 90 07:52 13.12.2020
4938 Clouds -2 1005 46 10000 7.7 80 05:49 13.12.2020
4939 Clouds -5 1005 53 10000 6.7 50 02:43 13.12.2020
4940 Clouds -4 1006 45 10000 8.2 50 01:58 13.12.2020
4941 Clouds -6 1006 53 10000 7.7 50 01:33 13.12.2020
4942 Clouds -6 1006 53 10000 7.7 50 00:33 13.12.2020
4943 Clouds -6 1007 48 10000 6.2 40 23:33 12.12.2020
4944 Clouds -6 1008 44 10000 6.2 40 22:58 12.12.2020
4945 Clouds -6 1008 44 10000 6.2 40 22:27 12.12.2020
4946 Clouds -8 1008 48 10000 6.7 20 21:46 12.12.2020
4947 Clear -8 1008 48 10000 9.3 10 21:19 12.12.2020
4948 Clear -8 1008 48 10000 9.3 10 20:43 12.12.2020
4949 Clear -8 1008 48 10000 9.8 30 20:19 12.12.2020
4950 Clear -8 1008 48 10000 9.8 30 19:51 12.12.2020
4951 Clear -8 1008 48 10000 9.8 30 19:33 12.12.2020
4952 Clear -8 1008 48 10000 9.8 30 19:33 12.12.2020
4953 Clear -10 1008 56 10000 9.3 40 18:52 12.12.2020
4954 Clear -10 1008 56 10000 9.3 40 18:33 12.12.2020
4955 Clear -10 1008 56 10000 9.3 40 17:59 12.12.2020
4956 Clear -10 1008 51 10000 12.3 40 17:40 12.12.2020
4957 Clear -11 1009 51 10000 9.3 30 16:30 12.12.2020
4958 Clear -11 1010 47 10000 8.7 40 15:53 12.12.2020
4959 Clear -11 1010 47 10000 8.7 40 15:35 12.12.2020
4960 Clear -12 1011 51 10000 7.7 40 14:53 12.12.2020
4961 Clear -10 1011 40 10000 7.2 40 14:20 12.12.2020
4962 Clear -10 1011 40 10000 7.2 40 13:40 12.12.2020
4963 Clear -10 1012 36 10000 5.7 50 13:22 12.12.2020
4964 Clear -10 1012 36 10000 5.7 50 12:32 12.12.2020
4965 Clear -10 1013 40 10000 6.2 50 11:19 12.12.2020
4966 Clear -10 1013 40 10000 6.2 50 10:45 12.12.2020
4967 Clear -11 1014 43 10000 6.7 40 09:23 12.12.2020
4968 Clear -12 1015 46 10000 2.6 10 07:26 12.12.2020
4969 Clear -12 1018 51 10000 7.2 30 01:39 12.12.2020
4970 Clear -13 1021 50 10000 6.2 60 23:21 11.12.2020
4971 Clear -16 1021 65 10000 7.7 40 20:57 11.12.2020
4972 Clear -16 1022 65 10000 6.7 40 19:42 11.12.2020
4973 Clear -17 1023 64 10000 5.1 30 16:52 11.12.2020
4974 Clear -17 1025 64 10000 3.6 30 14:37 11.12.2020
4975 Clear -17 1025 64 10000 6.7 30 13:42 11.12.2020
4976 Clear -17 1025 59 10000 2.6 20 12:23 11.12.2020
4977 Clear -17 1025 59 10000 2.6 20 11:54 11.12.2020
4978 Clear -17 1025 59 10000 2.6 20 11:35 11.12.2020
4979 Clear -19 1025 64 10000 2.91 47 10:40 11.12.2020
4980 Clear -17 1026 59 10000 3.1 340 07:42 11.12.2020
4981 Clear -18 1026 70 10000 3.6 10 05:36 11.12.2020
4982 Clear -17 1026 70 10000 3.1 20 04:47 11.12.2020
4983 Clear -20 1027 70 10000 3.6 50 00:48 11.12.2020
4984 Clear -19 1027 70 10000 1.5 30 23:28 10.12.2020
4985 Clear -20 1027 77 10000 3.07 24 21:37 10.12.2020
4986 Haze -17 1027 77 9656 2.1 40 20:51 10.12.2020
4987 Haze -18 1027 77 9656 2.1 40 20:29 10.12.2020
4988 Clear -20 1026 70 10000 2.1 10 19:31 10.12.2020
4989 Clouds -21 1027 83 10000 2.63 7 18:49 10.12.2020
4990 Clouds -23 1027 76 10000 3.22 358 17:35 10.12.2020
4991 Clear -22 1028 76 10000 3.09 348 16:18 10.12.2020
4992 Clear -22 1028 83 10000 2.31 351 15:24 10.12.2020
4993 Clear -23 1028 83 10000 2.31 351 14:46 10.12.2020
4994 Clear -22 1027 83 10000 2.3 354 14:21 10.12.2020
4995 Clear -18 1026 77 10000 2.83 344 12:24 10.12.2020
4996 Clear -16 1026 77 10000 2.1 330 10:57 10.12.2020
4997 Clear -14 1024 71 10000 5.7 360 08:42 10.12.2020
4998 Clear -15 1023 71 10000 1.5 300 07:34 10.12.2020
4999 Clear -15 1023 77 10000 1.5 60 06:33 10.12.2020
5000 Clouds -13 1020 71 4828 9.3 330 02:50 10.12.2020
5001 Clouds -13 1020 71 10000 4.6 330 01:56 10.12.2020
5002 Clouds -13 1018 71 10000 4.6 330 23:49 09.12.2020
5003 Clouds -14 1016 71 10000 6.2 320 20:41 09.12.2020
5004 Snow -14 1015 84 2816 5.7 310 20:21 09.12.2020
5005 Mist -14 1015 77 4828 3.6 330 18:58 09.12.2020
5006 Snow -14 1015 77 4828 3.6 330 18:58 09.12.2020
5007 Clouds -16 1013 77 10000 6.2 330 17:37 09.12.2020
5008 Haze -16 1013 77 9656 2.6 330 16:40 09.12.2020
5009 Clouds -17 1013 84 10000 2.1 300 16:20 09.12.2020
5010 Clear -17 1012 64 10000 4.6 320 14:53 09.12.2020
5011 Clear -17 1012 64 10000 4.6 320 14:27 09.12.2020
5012 Clear -16 1011 65 10000 4.6 310 13:51 09.12.2020
5013 Clear -16 1011 65 10000 6.2 300 13:18 09.12.2020
5014 Clear -16 1011 65 10000 6.2 300 12:43 09.12.2020
5015 Clear -15 1011 60 10000 4.1 320 11:46 09.12.2020
5016 Clear -18 1009 70 10000 2.1 10 09:59 09.12.2020
5017 Clear -16 1009 65 10000 3.1 10 08:42 09.12.2020
5018 Clear -16 1008 65 10000 6.2 350 06:56 09.12.2020
5019 Clear -18 1008 55 10000 6.7 340 05:42 09.12.2020
5020 Clear -18 1006 55 10000 2.6 350 02:59 09.12.2020
5021 Clear -15 1005 60 10000 6.7 330 00:56 09.12.2020
5022 Clear -20 1006 91 10000 2.53 341 23:37 08.12.2020
5023 Clear -14 1004 65 10000 10.8 10 22:43 08.12.2020
5024 Clear -14 1003 60 10000 5.7 20 20:49 08.12.2020
5025 Clear -14 1002 65 10000 8.7 30 19:32 08.12.2020
5026 Clear -14 1002 60 10000 2.1 40 18:57 08.12.2020
5027 Clear -14 1002 60 10000 3.13 339 17:28 08.12.2020
5028 Clear -12 1000 55 8047 10.3 350 15:27 08.12.2020
5029 Clear -13 999 65 6437 9.8 10 13:59 08.12.2020
5030 Clear -14 999 65 6437 9.8 10 13:24 08.12.2020
5031 Clear -12 999 66 10000 7.2 350 12:23 08.12.2020
5032 Clear -12 999 66 10000 7.2 350 11:28 08.12.2020
5033 Clear -13 999 65 10000 4.6 360 10:42 08.12.2020
5034 Clouds -12 998 55 10000 1.5 280 09:46 08.12.2020
5035 Clear -16 997 71 10000 3.07 330 07:47 08.12.2020
5036 Clear -15 998 54 10000 1.5 110 06:33 08.12.2020
5037 Clouds -12 997 51 10000 4.6 20 02:59 08.12.2020
5038 Clouds -10 997 47 10000 7.2 10 00:45 08.12.2020
5039 Clouds -13 997 60 10000 4.6 360 23:50 07.12.2020
5040 Clouds -12 997 51 10000 4.1 20 22:33 07.12.2020
5041 Clouds -13 997 60 10000 4.1 350 21:49 07.12.2020
5042 Clear -9 997 47 10000 1.5 30 19:46 07.12.2020
5043 Clear -12 997 60 10000 2.6 50 18:29 07.12.2020
5044 Clear -11 997 56 10000 5.7 350 17:26 07.12.2020
5045 Clear -11 997 56 10000 3.6 350 16:52 07.12.2020
5046 Clear -12 997 60 10000 1.5 320 15:26 07.12.2020
5047 Clear -10 997 56 10000 5.7 360 14:44 07.12.2020
5048 Clear -11 997 61 10000 7.7 350 13:45 07.12.2020
5049 Clear -11 997 61 10000 5.7 10 12:38 07.12.2020
5050 Clear -11 997 56 10000 4.1 90 11:43 07.12.2020
5051 Clear -11 997 61 10000 6.7 20 10:56 07.12.2020
5052 Clear -12 998 60 10000 2.6 30 09:40 07.12.2020
5053 Clear -10 997 61 10000 3.6 90 08:21 07.12.2020
5054 Clear -11 997 61 10000 3.1 130 06:21 07.12.2020
5055 Clear -9 998 52 10000 4.6 10 04:48 07.12.2020
5056 Clear -8 999 44 10000 4.6 340 01:54 07.12.2020
5057 Clear -12 1001 55 10000 3.6 350 23:50 06.12.2020
5058 Clear -11 1002 56 10000 2.1 70 22:23 06.12.2020
5059 Clear -10 1003 61 10000 7.2 360 20:54 06.12.2020
5060 Clear -10 1003 61 10000 7.2 360 20:34 06.12.2020
5061 Clear -11 1004 61 10000 7.2 360 19:54 06.12.2020
5062 Clear -14 1005 65 10000 2.6 10 18:21 06.12.2020
5063 Clear -16 1006 60 10000 1.5 0 16:47 06.12.2020
5064 Clear -15 1008 70 10000 2.1 70 14:57 06.12.2020
5065 Clear -18 1009 77 10000 3.1 10 13:45 06.12.2020
5066 Clear -18 1009 77 10000 2.1 30 12:51 06.12.2020
5067 Clear -16 1010 77 10000 1.5 340 11:58 06.12.2020
5068 Clear -17 1010 77 10000 1.5 340 11:34 06.12.2020
5069 Clear -19 1011 77 10000 1.5 0 10:45 06.12.2020
5070 Clear -21 1012 83 10000 4.01 11 09:49 06.12.2020
5071 Clear -17 1012 83 10000 3.81 10 08:29 06.12.2020
5072 Clear -20 1013 83 10000 2.1 0 06:37 06.12.2020
5073 Clouds -9 1015 56 10000 5.1 350 00:58 06.12.2020
5074 Clouds -9 1015 56 10000 5.1 350 00:39 06.12.2020
5075 Clouds -10 1016 61 10000 4.1 10 00:21 06.12.2020
5076 Clouds -9 1016 66 10000 6.2 360 22:46 05.12.2020
5077 Clouds -9 1016 66 10000 3.6 10 22:20 05.12.2020
5078 Clouds -9 1016 66 10000 3.6 10 21:48 05.12.2020
5079 Clouds -9 1016 66 10000 3.6 10 21:25 05.12.2020
5080 Clouds -8 1015 67 10000 5.1 10 19:21 05.12.2020
5081 Clouds -9 1015 72 10000 4.6 360 18:40 05.12.2020
5082 Clouds -9 1015 72 10000 5.1 360 17:29 05.12.2020
5083 Clouds -9 1015 72 10000 4.6 40 16:30 05.12.2020
5084 Clouds -8 1015 72 10000 4.6 10 15:47 05.12.2020
5085 Clouds -8 1015 72 10000 4.1 10 14:26 05.12.2020
5086 Clouds -11 1014 85 10000 2.1 360 12:20 05.12.2020
5087 Clouds -11 1014 85 10000 2.1 360 11:40 05.12.2020
5088 Clear -11 1014 92 10000 4.1 320 10:31 05.12.2020
5089 Clouds -6 1014 85 10000 5.7 350 07:48 05.12.2020
5090 Clouds -6 1014 85 10000 5.1 40 06:40 05.12.2020
5091 Snow -4 1013 79 10000 6.7 110 03:54 05.12.2020
5092 Snow -6 1014 79 6437 5.1 160 23:52 04.12.2020
5093 Snow -6 1014 79 1609 7.2 160 22:24 04.12.2020
5094 Snow -5 1014 62 10000 6.7 170 20:25 04.12.2020
5095 Snow -6 1014 79 4828 7.7 170 18:53 04.12.2020
5096 Snow -6 1014 79 3219 7.7 170 18:19 04.12.2020
5097 Snow -8 1014 79 2012 7.7 170 17:29 04.12.2020
5098 Clouds -9 1014 73 10000 3.1 150 15:46 04.12.2020
5099 Clouds -10 1014 62 10000 0.67 102 13:40 04.12.2020
5100 Clouds -10 1015 62 10000 2.1 60 13:22 04.12.2020
5101 Clouds -11 1015 62 10000 2.1 60 12:51 04.12.2020
5102 Clouds -11 1014 72 10000 4.6 100 10:40 04.12.2020
5103 Clouds -12 1014 78 10000 1.5 350 09:55 04.12.2020
5104 Clouds -16 1013 91 10000 1.45 56 07:20 04.12.2020
5105 Clouds -15 1013 84 10000 1.75 66 06:39 04.12.2020
5106 Clouds -8 1012 62 10000 2.6 350 01:57 04.12.2020
5107 Clouds -8 1009 78 10000 3.1 320 22:52 03.12.2020
5108 Clouds -8 1009 78 10000 3.1 320 22:30 03.12.2020
5109 Snow -8 1007 78 8047 3.6 320 20:49 03.12.2020
5110 Clouds -9 1006 85 10000 3.1 310 19:37 03.12.2020
5111 Clouds -12 1005 92 10000 3.1 320 19:18 03.12.2020
5112 Clouds -10 1005 78 10000 4.1 300 18:18 03.12.2020
5113 Clouds -10 1004 78 10000 4.6 310 17:19 03.12.2020
5114 Clouds -8 1003 92 10000 4.1 290 15:56 03.12.2020
5115 Clouds -8 1003 92 10000 4.1 290 15:31 03.12.2020
5116 Snow -7 1002 85 4023 4.6 300 14:48 03.12.2020
5117 Snow -9 1001 85 10000 4.6 290 13:44 03.12.2020
5118 Clouds -9 1000 85 10000 4.6 290 12:32 03.12.2020
5119 Snow -8 999 85 8047 5.1 290 11:38 03.12.2020
5120 Snow -8 997 78 8047 5.7 290 10:25 03.12.2020
5121 Snow -10 995 92 6437 3.6 300 07:48 03.12.2020
5122 Clouds -14 992 77 10000 7.22 301 03:22 03.12.2020
5123 Clear -10 993 95 8002 4.04 298 01:19 03.12.2020
5124 Clear -12 992 92 10000 3.34 315 23:19 02.12.2020
5125 Clear -11 991 72 10000 5.1 300 22:28 02.12.2020
5126 Clear -11 991 72 10000 5.1 300 21:28 02.12.2020
5127 Clear -14 990 77 10000 2.6 310 20:47 02.12.2020
5128 Clear -14 990 77 10000 2.6 310 20:29 02.12.2020
5129 Clouds -16 989 77 10000 2.78 317 18:39 02.12.2020
5130 Clouds -14 988 77 10000 3.6 340 17:47 02.12.2020
5131 Clouds -12 988 72 10000 2.6 290 17:28 02.12.2020
5132 Clouds -14 988 77 10000 4.1 310 15:37 02.12.2020
5133 Clear -11 987 66 10000 5.7 350 13:19 02.12.2020
5134 Clear -18 987 77 10000 3.71 321 10:47 02.12.2020
5135 Clear -16 986 77 10000 1.5 320 10:21 02.12.2020
5136 Clear -16 986 77 10000 2.5 326 06:53 02.12.2020
5137 Clear -17 986 65 10000 3.6 20 22:54 01.12.2020
5138 Clear -17 985 71 10000 2.6 10 22:18 01.12.2020
5139 Clear -17 985 91 10000 2.69 339 19:36 01.12.2020
5140 Clear -17 984 65 10000 3.1 300 18:45 01.12.2020
5141 Clear -17 984 71 10000 3.6 330 16:47 01.12.2020
5142 Clear -16 984 71 10000 4.6 360 14:21 01.12.2020
5143 Clear -17 985 77 10000 4.1 300 12:29 01.12.2020
5144 Clear -18 985 70 10000 4.6 320 11:28 01.12.2020
5145 Clouds -17 986 77 10000 2.6 340 10:44 01.12.2020
5146 Clouds -17 986 77 10000 2.6 340 10:25 01.12.2020
5147 Clouds -20 987 83 10000 3.1 310 07:19 01.12.2020
5148 Clear -16 990 71 10000 4.6 50 02:41 01.12.2020
5149 Clouds -15 990 65 10000 6.7 20 00:57 01.12.2020
5150 Clouds -13 990 78 10000 2.1 10 23:22 30.11.2020
5151 Clouds -13 990 78 10000 2.1 10 22:45 30.11.2020
5152 Clouds -13 990 78 10000 2.1 10 22:26 30.11.2020
5153 Clouds -14 990 78 10000 4.6 90 21:56 30.11.2020
5154 Clouds -17 990 77 10000 2.6 290 19:45 30.11.2020
5155 Clear -17 990 84 10000 3.53 329 18:40 30.11.2020
5156 Clear -16 991 77 10000 5.1 340 18:20 30.11.2020
5157 Clear -15 991 77 10000 5.1 340 17:43 30.11.2020
5158 Clear -15 991 77 10000 5.1 340 17:43 30.11.2020
5159 Clear -15 991 77 10000 4.1 300 16:44 30.11.2020
5160 Clear -14 991 84 10000 3.29 323 14:47 30.11.2020
5161 Clear -12 992 71 10000 3.28 321 13:55 30.11.2020
5162 Clear -14 992 77 10000 4.6 290 12:40 30.11.2020
5163 Clear -11 992 72 10000 7.2 330 12:20 30.11.2020
5164 Clear -12 992 65 10000 4.1 320 10:32 30.11.2020
5165 Clear -11 992 66 10000 3.12 324 09:53 30.11.2020
5166 Clear -16 992 84 10000 1.5 110 07:58 30.11.2020
5167 Clear -12 992 66 10000 5.7 320 01:23 30.11.2020
5168 Clear -11 993 66 10000 2.6 320 22:22 29.11.2020
5169 Clear -9 993 61 10000 2.93 331 21:44 29.11.2020
5170 Clear -9 993 61 10000 2.9 329 21:25 29.11.2020
5171 Clear -12 992 66 10000 8.2 360 18:46 29.11.2020
5172 Clear -13 991 66 10000 5.1 350 17:31 29.11.2020
5173 Clear -12 992 65 10000 3.6 40 13:37 29.11.2020
5174 Clear -15 992 84 10000 3.1 30 12:44 29.11.2020
5175 Clear -14 991 77 10000 2.1 350 11:25 29.11.2020
5176 Clear -11 991 72 10000 6.2 350 08:53 29.11.2020
5177 Clear -11 991 72 10000 6.2 350 08:34 29.11.2020
5178 Clouds -9 989 72 10000 4.6 350 02:31 29.11.2020
5179 Clouds -8 989 73 10000 4.6 20 22:59 28.11.2020
5180 Clouds -8 989 67 10000 8.7 360 22:18 28.11.2020
5181 Clouds -6 989 73 10000 4.1 360 19:56 28.11.2020
5182 Clouds -6 989 73 10000 4.1 360 19:27 28.11.2020
5183 Clouds -6 990 73 10000 5.7 350 18:56 28.11.2020
5184 Clouds -5 990 68 10000 5.1 330 18:19 28.11.2020
5185 Clouds -5 990 68 10000 9.3 340 16:56 28.11.2020
5186 Clear -6 992 67 10000 3.6 310 14:58 28.11.2020
5187 Clouds -5 992 58 10000 5.1 350 13:47 28.11.2020
5188 Clouds -6 993 73 10000 5.1 20 11:27 28.11.2020
5189 Clouds -6 993 73 10000 4.1 10 09:25 28.11.2020
5190 Clouds -4 994 73 10000 3.1 340 03:39 28.11.2020
5191 Clouds -5 995 73 10000 3.1 40 01:52 28.11.2020
5192 Clouds -4 996 73 10000 2.1 360 23:21 27.11.2020
5193 Clouds -4 997 73 10000 2.6 40 22:24 27.11.2020
5194 Clouds -5 997 73 10000 2.1 40 20:39 27.11.2020
5195 Clouds -5 997 85 10000 2.1 30 19:34 27.11.2020
5196 Clouds -6 997 85 10000 3.1 30 18:57 27.11.2020
5197 Snow -6 998 85 4023 3.1 40 16:27 27.11.2020
5198 Clouds -7 998 79 10000 3.6 20 14:45 27.11.2020
5199 Clouds -8 998 92 10000 4.1 350 13:18 27.11.2020
5200 Clouds -4 999 85 10000 4.1 70 12:46 27.11.2020
5201 Clouds -6 998 85 10000 4.1 90 11:34 27.11.2020
5202 Clouds -6 998 85 10000 4.1 100 10:43 27.11.2020
5203 Clouds -4 998 85 10000 4.6 110 09:51 27.11.2020
5204 Clouds -9 993 93 10000 2.02 54 23:39 26.11.2020
5205 Snow -4 993 94 10000 1.3 73 22:25 26.11.2020
5206 Snow -9 992 92 10000 1.3 73 21:45 26.11.2020
5207 Snow -6 991 92 10000 4.1 90 20:43 26.11.2020
5208 Clouds -6 988 86 10000 4.1 90 18:37 26.11.2020
5209 Clouds -6 988 86 10000 4.6 70 17:31 26.11.2020
5210 Clouds -8 985 92 10000 0.99 79 13:58 26.11.2020
5211 Clouds -8 984 85 10000 1.5 40 12:58 26.11.2020
5212 Clouds -7 984 85 10000 1.5 40 12:39 26.11.2020
5213 Clouds -4 983 92 10000 1.36 235 11:20 26.11.2020
5214 Clouds -3 983 92 10000 2.97 251 10:23 26.11.2020
5215 Clouds -3 982 92 10000 2.97 251 09:39 26.11.2020
5216 Snow -2 980 86 10000 5.1 250 09:18 26.11.2020
5217 Snow -2 980 86 10000 5.1 250 08:34 26.11.2020
5218 Snow -1 974 92 4023 2.1 270 02:19 26.11.2020
5219 Snow -1 970 100 1609 6.7 100 22:30 25.11.2020
5220 Snow -1 970 100 1609 9.8 120 20:38 25.11.2020
5221 Snow -1 970 100 1609 9.8 190 19:27 25.11.2020
5222 Snow 0 970 99 1609 12.03 101 17:29 25.11.2020
5223 Clouds -1 970 98 71 13.39 103 15:55 25.11.2020
5224 Clouds -1 970 98 71 13.39 103 15:32 25.11.2020
5225 Clouds -1 971 98 69 13.76 101 13:47 25.11.2020
5226 Clouds -1 972 97 56 13.09 107 12:59 25.11.2020
5227 Snow 0 972 98 1609 15.9 100 11:27 25.11.2020
5228 Snow 0 973 86 2816 15.4 110 09:22 25.11.2020
5229 Snow 0 974 95 1609 15.4 110 08:50 25.11.2020
5230 Snow 0 974 95 2414 17.5 110 07:53 25.11.2020
5231 Rain 0 976 100 1609 13.4 110 03:54 25.11.2020
5232 Rain 0 976 100 1609 13.9 120 01:50 25.11.2020
5233 Clouds 1 977 100 1207 14.4 120 00:22 25.11.2020
5234 Clouds 1 977 96 2816 15.9 110 23:36 24.11.2020
5235 Mist 1 978 86 4023 13.9 120 22:51 24.11.2020
5236 Rain 0 978 97 1609 13.4 110 21:50 24.11.2020
5237 Snow 0 978 97 1609 13.4 120 21:27 24.11.2020
5238 Snow -1 979 97 1207 11.8 110 20:19 24.11.2020
5239 Snow -2 981 92 402 13.4 100 17:54 24.11.2020
5240 Snow -2 981 92 402 13.4 100 17:28 24.11.2020
5241 Snow -3 982 92 805 13.4 100 16:38 24.11.2020
5242 Clouds -3 982 96 91 8.94 101 15:56 24.11.2020
5243 Clouds -3 983 96 91 8.94 108 15:36 24.11.2020
5244 Snow -3 984 92 402 14.9 90 15:18 24.11.2020
5245 Snow -3 984 92 402 14.9 90 14:31 24.11.2020
5246 Snow -3 987 92 1207 11.8 100 12:42 24.11.2020
5247 Snow -3 988 92 2414 12.9 90 12:21 24.11.2020
5248 Snow -3 988 92 2414 12.9 90 11:35 24.11.2020
5249 Clouds -3 990 86 10000 10.8 90 10:26 24.11.2020
5250 Clouds -4 991 86 10000 10.8 90 09:53 24.11.2020
5251 Clouds -4 991 86 10000 10.8 90 09:34 24.11.2020
5252 Clouds -4 993 86 10000 7.7 100 06:50 24.11.2020
5253 Clouds -3 993 86 10000 3.6 90 04:19 24.11.2020
5254 Clouds -3 994 86 10000 2.1 80 22:28 23.11.2020
5255 Mist -3 993 86 6437 2.6 70 21:35 23.11.2020
5256 Clouds -3 993 86 10000 1.5 70 20:50 23.11.2020
5257 Clouds -3 993 86 10000 1.5 90 20:21 23.11.2020
5258 Clouds -3 992 86 10000 2.1 80 18:48 23.11.2020
5259 Clouds -3 992 92 10000 2.1 90 17:25 23.11.2020
5260 Clouds -3 992 92 10000 2.1 90 16:28 23.11.2020
5261 Clouds -3 992 92 10000 3.1 70 14:47 23.11.2020
5262 Clouds -2 992 86 10000 3.6 70 13:20 23.11.2020
5263 Snow -3 992 92 10000 3.6 100 12:37 23.11.2020
5264 Clouds -2 992 86 10000 3.1 80 11:48 23.11.2020
5265 Snow -2 992 86 8047 4.6 80 11:19 23.11.2020
5266 Clouds -3 992 86 10000 3.6 90 09:32 23.11.2020
5267 Clouds -3 992 86 10000 5.1 90 08:49 23.11.2020
5268 Clouds -3 992 92 10000 4.1 100 07:28 23.11.2020
5269 Snow -1 992 92 2816 4.6 70 00:38 23.11.2020
5270 Snow -2 993 92 2012 5.1 90 23:38 22.11.2020
5271 Snow -3 993 92 2414 5.7 80 22:18 22.11.2020
5272 Snow -3 993 92 2414 6.7 70 20:54 22.11.2020
5273 Snow -3 992 86 3219 6.2 80 19:58 22.11.2020
5274 Snow -3 992 92 3219 5.1 80 18:54 22.11.2020
5275 Snow -2 992 92 3219 5.7 100 17:33 22.11.2020
5276 Snow -2 992 92 2816 4.6 80 15:58 22.11.2020
5277 Snow -2 992 92 2414 5.7 80 14:40 22.11.2020
5278 Mist -3 992 92 2414 5.7 70 12:50 22.11.2020
5279 Mist -4 992 92 3219 5.1 70 12:18 22.11.2020
5280 Mist -4 992 92 6437 5.1 80 11:35 22.11.2020
5281 Mist -4 992 86 4828 6.7 70 10:45 22.11.2020
5282 Clouds -4 992 73 10000 5.1 70 09:42 22.11.2020
5283 Clouds -2 991 63 10000 8.2 90 01:50 22.11.2020
5284 Clouds -1 991 58 10000 7.2 90 23:54 21.11.2020
5285 Clouds -1 990 58 10000 7.2 80 22:31 21.11.2020
5286 Clouds -1 990 54 10000 8.2 70 21:30 21.11.2020
5287 Clouds -1 990 54 10000 8.7 80 20:49 21.11.2020
5288 Clear -1 991 54 10000 8.7 80 19:58 21.11.2020
5289 Clear -1 991 54 10000 8.7 80 19:37 21.11.2020
5290 Clear -2 991 58 10000 7.2 80 18:39 21.11.2020
5291 Clear -1 991 58 10000 7.2 70 17:29 21.11.2020
5292 Clear 0 991 88 10000 8.7 70 16:44 21.11.2020
5293 Clear 0 992 86 10000 7.2 80 15:23 21.11.2020
5294 Clouds 0 992 86 10000 7.2 70 14:48 21.11.2020
5295 Clouds 0 992 86 10000 7.2 70 14:27 21.11.2020
5296 Clouds -2 992 63 10000 6.7 70 12:42 21.11.2020
5297 Clouds 1 992 50 10000 5.7 80 12:20 21.11.2020
5298 Clouds 1 992 50 10000 7.2 80 10:57 21.11.2020
5299 Clouds 0 992 50 10000 7.2 80 10:26 21.11.2020
5300 Clouds 1 993 50 10000 7.2 70 08:51 21.11.2020
5301 Clouds -1 993 50 10000 9.8 70 07:52 21.11.2020
5302 Clear -1 994 50 10000 10.8 70 05:24 21.11.2020
5303 Clear -2 996 63 10000 9.3 80 01:43 21.11.2020
5304 Clear -2 997 63 10000 9.8 80 23:59 20.11.2020
5305 Clouds -2 997 63 10000 8.7 70 22:26 20.11.2020
5306 Clouds -2 997 68 10000 9.3 80 21:42 20.11.2020
5307 Clouds -2 997 68 10000 9.3 80 21:21 20.11.2020
5308 Clear -2 997 68 10000 8.7 70 19:52 20.11.2020
5309 Clear -2 998 68 10000 9.3 80 18:53 20.11.2020
5310 Clear -3 998 79 10000 9.3 70 17:53 20.11.2020
5311 Clear -3 998 79 10000 9.3 70 17:28 20.11.2020
5312 Clear -3 998 73 10000 8.7 80 16:40 20.11.2020
5313 Clear -3 999 73 10000 8.7 80 15:59 20.11.2020
5314 Clear -3 999 73 10000 8.7 80 15:27 20.11.2020
5315 Clouds -2 999 79 10000 9.8 90 13:48 20.11.2020
5316 Clouds -2 999 86 10000 10.8 90 13:19 20.11.2020
5317 Clouds -2 999 86 10000 10.8 90 12:36 20.11.2020
5318 Clouds -2 999 86 10000 9.8 90 11:45 20.11.2020
5319 Clouds -2 999 86 10000 10.3 90 11:20 20.11.2020
5320 Snow -2 998 86 10000 9.8 80 09:31 20.11.2020
5321 Snow -3 997 86 4828 10.3 90 08:26 20.11.2020
5322 Snow -3 997 86 4828 10.3 90 07:34 20.11.2020
5323 Clouds -4 996 73 10000 9.3 80 03:45 20.11.2020
5324 Clouds -6 997 67 10000 7.2 60 23:25 19.11.2020
5325 Clouds -6 997 62 10000 6.7 70 22:27 19.11.2020
5326 Clouds -7 997 67 10000 5.7 70 21:49 19.11.2020
5327 Clouds -8 997 67 10000 5.1 70 20:36 19.11.2020
5328 Clear -7 997 67 10000 4.6 60 20:18 19.11.2020
5329 Clear -9 997 67 10000 4.6 60 19:25 19.11.2020
5330 Clear -8 997 73 10000 4.1 60 17:50 19.11.2020
5331 Clear -7 998 73 10000 5.1 70 16:59 19.11.2020
5332 Clear -7 998 73 10000 4.6 60 15:59 19.11.2020
5333 Clouds -7 998 73 10000 3.6 60 15:28 19.11.2020
5334 Clouds -6 999 73 10000 4.6 60 13:46 19.11.2020
5335 Clouds -6 999 73 10000 4.6 60 13:24 19.11.2020
5336 Clouds -5 999 68 10000 5.7 70 12:44 19.11.2020
5337 Clouds -5 999 68 10000 5.7 70 12:24 19.11.2020
5338 Clouds -5 999 68 10000 4.1 60 11:39 19.11.2020
5339 Clouds -4 1000 79 10000 5.1 80 10:54 19.11.2020
5340 Clouds -4 1000 79 10000 5.7 80 10:28 19.11.2020
5341 Clouds -4 1000 79 10000 5.7 80 09:44 19.11.2020
5342 Clouds -4 1000 79 10000 5.7 80 09:25 19.11.2020
5343 Clouds -4 1001 79 10000 9.8 90 08:20 19.11.2020
5344 Snow -3 1001 86 2816 7.2 100 06:20 19.11.2020
5345 Snow -3 1003 86 2012 9.8 90 01:46 19.11.2020
5346 Snow -3 1003 86 4828 9.3 90 00:28 19.11.2020
5347 Mist -2 1004 86 3219 8.2 100 23:25 18.11.2020
5348 Mist -2 1004 92 3219 8.7 100 22:36 18.11.2020
5349 Mist -2 1004 92 3219 10.3 90 22:18 18.11.2020
5350 Mist -2 1004 92 4828 8.7 90 21:39 18.11.2020
5351 Snow -2 1004 92 2414 8.7 90 21:20 18.11.2020
5352 Snow -2 1005 92 2816 8.7 110 19:49 18.11.2020
5353 Snow -2 1005 92 2816 8.7 110 19:27 18.11.2020
5354 Snow -2 1005 92 3219 7.2 110 18:55 18.11.2020
5355 Mist -2 1005 92 2414 6.7 110 18:37 18.11.2020
5356 Mist -2 1005 92 3219 8.2 120 17:37 18.11.2020
5357 Snow -2 1006 92 2012 8.7 110 16:24 18.11.2020
5358 Mist -2 1006 86 4828 7.7 120 15:47 18.11.2020
5359 Snow -2 1006 92 3219 7.7 120 14:41 18.11.2020
5360 Mist -2 1007 92 2414 7.2 120 13:45 18.11.2020
5361 Snow -2 1007 92 4023 7.7 130 13:20 18.11.2020
5362 Snow -2 1007 92 2012 6.2 120 12:30 18.11.2020
5363 Mist -2 1008 86 2012 8.2 90 11:35 18.11.2020
5364 Snow -3 1008 92 2414 8.2 90 10:31 18.11.2020
5365 Mist -2 1008 92 4023 7.2 90 09:52 18.11.2020
5366 Clouds -3 1009 73 10000 6.2 80 07:54 18.11.2020
5367 Snow -4 1009 73 10000 5.7 90 06:34 18.11.2020
5368 Clouds -4 1012 73 10000 6.2 70 00:29 18.11.2020
5369 Clouds -5 1013 73 10000 6.2 80 23:34 17.11.2020
5370 Clouds -5 1013 79 10000 7.7 80 22:49 17.11.2020
5371 Clouds -4 1013 79 10000 7.7 80 22:28 17.11.2020
5372 Clouds -4 1014 79 10000 6.2 70 21:50 17.11.2020
5373 Clouds -4 1014 79 10000 6.2 70 21:50 17.11.2020
5374 Clouds -4 1014 79 10000 6.2 70 21:30 17.11.2020
5375 Clouds -4 1014 79 10000 6.7 80 20:50 17.11.2020
5376 Clouds -4 1014 79 10000 6.7 80 20:25 17.11.2020
5377 Clear -4 1014 79 10000 6.2 80 19:54 17.11.2020
5378 Clear -4 1015 79 10000 6.7 70 18:25 17.11.2020
5379 Clear -4 1016 79 10000 6.2 70 17:44 17.11.2020
5380 Clear -4 1016 79 10000 5.7 70 16:54 17.11.2020
5381 Clouds -5 1017 79 10000 4.6 80 16:18 17.11.2020
5382 Clouds -5 1017 79 10000 4.6 80 16:18 17.11.2020
5383 Clouds -4 1017 79 10000 4.6 80 15:40 17.11.2020
5384 Clouds -4 1017 79 10000 5.7 80 15:22 17.11.2020
5385 Clouds -4 1017 79 10000 5.7 80 14:54 17.11.2020
5386 Clouds -4 1018 79 10000 5.7 80 14:21 17.11.2020
5387 Clouds -4 1018 79 10000 5.7 80 13:35 17.11.2020
5388 Clouds -4 1019 79 10000 5.1 80 12:48 17.11.2020
5389 Clouds -4 1019 79 10000 5.1 80 12:22 17.11.2020
5390 Clouds -3 1019 79 10000 6.2 90 11:41 17.11.2020
5391 Clouds -3 1020 79 10000 4.6 90 10:45 17.11.2020
5392 Clouds -3 1020 79 10000 4.6 90 10:23 17.11.2020
5393 Clouds -3 1020 79 10000 4.6 90 09:48 17.11.2020
5394 Clouds -3 1020 79 10000 3.6 80 09:20 17.11.2020
5395 Clouds -3 1021 79 10000 3.6 90 08:21 17.11.2020
5396 Clouds -3 1021 79 10000 3.6 90 07:43 17.11.2020
5397 Clouds -3 1022 79 10000 3.6 140 05:18 17.11.2020
5398 Clouds -2 1022 74 10000 3.1 130 03:29 17.11.2020
5399 Clouds -2 1022 74 10000 3.1 180 02:30 17.11.2020
5400 Clouds -1 1022 80 10000 7.7 170 00:57 17.11.2020
5401 Clouds -1 1023 80 10000 7.7 170 00:19 17.11.2020
5402 Clouds -1 1023 80 10000 7.7 170 23:41 16.11.2020
5403 Clouds -1 1023 95 10000 7.7 180 23:19 16.11.2020
5404 Clouds -1 1023 95 10000 7.7 180 22:29 16.11.2020
5405 Clouds 0 1023 69 10000 5.7 200 21:59 16.11.2020
5406 Clouds 0 1023 69 10000 5.7 200 21:40 16.11.2020
5407 Clouds 0 1022 69 10000 4.6 200 21:20 16.11.2020
5408 Clouds 0 1022 69 10000 4.6 200 20:26 16.11.2020
5409 Clouds 0 1022 69 10000 4.1 210 19:56 16.11.2020
5410 Clouds 0 1022 69 10000 4.1 210 19:31 16.11.2020
5411 Clouds 0 1022 95 10000 5.7 230 18:53 16.11.2020
5412 Clouds 0 1022 95 10000 5.1 230 18:26 16.11.2020
5413 Clouds 0 1022 95 10000 5.1 230 17:37 16.11.2020
5414 Clouds 0 1023 95 10000 5.7 210 17:19 16.11.2020
5415 Clouds -1 1023 95 10000 5.7 210 16:51 16.11.2020
5416 Clouds 0 1023 96 10000 5.7 210 16:26 16.11.2020
5417 Clouds -1 1023 96 10000 7.2 210 15:45 16.11.2020
5418 Clouds -1 1023 96 10000 7.2 210 15:45 16.11.2020
5419 Clouds -1 1023 96 10000 7.2 210 15:27 16.11.2020
5420 Clouds -1 1023 96 10000 6.7 210 14:53 16.11.2020
5421 Clouds -1 1023 97 10000 6.2 210 13:50 16.11.2020
5422 Clouds -1 1023 98 10000 6.2 210 13:21 16.11.2020
5423 Clouds -1 1024 98 10000 7.2 220 12:30 16.11.2020
5424 Clouds 0 1024 74 10000 6.7 220 11:42 16.11.2020
5425 Clouds -1 1024 74 10000 6.7 220 11:22 16.11.2020
5426 Clouds 1 1024 74 10000 6.7 220 10:44 16.11.2020
5427 Clouds -3 1024 74 10000 6.7 220 10:26 16.11.2020
5428 Clouds -3 1024 74 10000 5.7 240 09:52 16.11.2020
5429 Clouds -2 1023 97 10000 5.7 170 09:34 16.11.2020
5430 Clouds -4 1024 86 10000 3.1 140 08:48 16.11.2020
5431 Snow -5 1024 85 4828 3.6 80 08:21 16.11.2020
5432 Snow -6 1024 85 4828 3.6 80 07:19 16.11.2020
5433 Snow -6 1024 79 6437 3.6 100 06:45 16.11.2020
5434 Clouds -7 1025 73 10000 3.1 110 05:48 16.11.2020
5435 Clouds -8 1025 73 10000 0.46 76 03:54 16.11.2020
5436 Clouds -8 1025 79 10000 2.6 100 01:45 16.11.2020
5437 Clouds -9 1026 79 10000 1.56 21 00:29 16.11.2020
5438 Clear -13 1025 86 10000 2 343 23:29 15.11.2020
5439 Clear -12 1025 87 10000 2 343 22:57 15.11.2020
5440 Clouds -12 1026 78 10000 2.6 10 22:24 15.11.2020
5441 Clouds -11 1026 78 10000 2.6 10 21:54 15.11.2020
5442 Clouds -11 1026 78 10000 2.6 10 21:35 15.11.2020
5443 Clear -12 1025 85 10000 2.4 325 20:58 15.11.2020
5444 Clear -12 1025 85 10000 2.4 325 20:38 15.11.2020
5445 Clear -11 1024 78 10000 1.5 10 19:56 15.11.2020
5446 Clear -11 1024 78 10000 1.5 10 19:38 15.11.2020
5447 Clear -11 1024 78 10000 1.5 10 19:19 15.11.2020
5448 Clear -11 1024 78 10000 2.1 10 18:45 15.11.2020
5449 Clear -11 1024 78 10000 2.1 10 18:25 15.11.2020
5450 Clear -8 1024 72 10000 2.6 320 17:47 15.11.2020
5451 Clear -8 1024 72 10000 2.6 320 17:26 15.11.2020
5452 Clear -8 1024 67 10000 2.55 337 16:58 15.11.2020
5453 Clear -8 1024 67 10000 2.55 337 16:38 15.11.2020
5454 Clear -9 1024 72 10000 2.72 335 16:18 15.11.2020
5455 Clear -9 1024 72 10000 2.72 335 15:42 15.11.2020
5456 Clear -9 1024 72 10000 2.89 334 15:22 15.11.2020
5457 Clear -7 1023 67 10000 3.1 300 14:50 15.11.2020
5458 Clear -11 1023 67 10000 3.1 300 14:25 15.11.2020
5459 Clear -11 1023 67 10000 3.1 300 14:25 15.11.2020
5460 Clear -6 1022 62 10000 3.6 280 13:41 15.11.2020
5461 Clear -6 1022 62 10000 5.1 350 13:18 15.11.2020
5462 Clear -10 1022 62 10000 5.1 350 12:46 15.11.2020
5463 Clear -10 1021 62 10000 4.6 10 12:19 15.11.2020
5464 Clear -10 1021 62 10000 4.6 10 11:44 15.11.2020
5465 Clear -9 1020 67 10000 1.5 270 11:18 15.11.2020
5466 Clear -6 1020 67 10000 1.5 270 10:49 15.11.2020
5467 Clear -10 1020 67 10000 1.5 270 10:30 15.11.2020
5468 Clear -10 1019 67 10000 5.1 350 09:46 15.11.2020
5469 Clear -10 1019 67 10000 5.1 350 09:24 15.11.2020
5470 Clouds -8 1019 58 10000 2.74 326 08:54 15.11.2020
5471 Clouds -9 1019 58 10000 2.74 326 08:32 15.11.2020
5472 Clear -12 1018 88 10000 0.45 282 07:44 15.11.2020
5473 Clear -11 1017 87 10000 0.45 0 05:37 15.11.2020
5474 Clear -13 1016 86 10000 2.35 318 04:52 15.11.2020
5475 Clear -6 1015 67 10000 2.6 350 01:37 15.11.2020
5476 Clear -6 1015 67 10000 2.6 350 01:37 15.11.2020
5477 Clear -6 1015 67 10000 2.1 320 00:30 15.11.2020
5478 Clear -6 1014 67 10000 2.6 10 23:42 14.11.2020
5479 Clear -6 1013 67 10000 6.7 10 22:54 14.11.2020
5480 Clear -6 1013 67 10000 6.7 10 22:33 14.11.2020
5481 Clear -6 1012 67 10000 8.2 350 21:56 14.11.2020
5482 Clear -7 1012 67 10000 8.2 350 21:37 14.11.2020
5483 Clear -8 1012 62 10000 4.6 350 21:19 14.11.2020
5484 Clear -8 1012 62 10000 4.6 350 20:37 14.11.2020
5485 Clear -9 1011 72 10000 3.1 340 20:19 14.11.2020
5486 Clear -10 1011 72 10000 3.1 340 19:36 14.11.2020
5487 Clear -10 1010 67 10000 4.1 330 18:57 14.11.2020
5488 Clear -10 1010 67 10000 4.1 330 18:38 14.11.2020
5489 Clear -10 1009 67 10000 2.6 240 18:20 14.11.2020
5490 Clear -10 1009 67 10000 2.6 240 17:44 14.11.2020
5491 Clear -10 1008 62 10000 3.1 350 17:25 14.11.2020
5492 Clear -11 1008 62 10000 3.1 350 16:52 14.11.2020
5493 Clear -11 1008 62 10000 3.1 350 16:31 14.11.2020
5494 Clear -11 1008 57 10000 2.1 340 15:53 14.11.2020
5495 Clear -11 1008 57 10000 2.1 340 15:31 14.11.2020
5496 Clear -12 1007 78 10000 2.89 351 14:54 14.11.2020
5497 Clear -12 1007 78 10000 2.9 349 14:29 14.11.2020
5498 Clear -12 1006 78 10000 2.9 349 13:51 14.11.2020
5499 Clear -12 1006 78 10000 3.06 353 13:29 14.11.2020
5500 Clear -11 1006 57 10000 3.1 360 12:49 14.11.2020
5501 Clear -10 1006 57 10000 3.1 360 12:30 14.11.2020
5502 Clear -10 1005 66 10000 3.5 355 11:56 14.11.2020
5503 Clear -10 1005 66 10000 3.5 355 11:37 14.11.2020
5504 Clear -9 1005 52 10000 3.6 290 10:59 14.11.2020
5505 Clear -7 1005 52 10000 3.6 290 10:38 14.11.2020
5506 Clear -6 1004 53 10000 5.1 360 10:19 14.11.2020
5507 Clear -6 1004 53 10000 5.1 360 09:43 14.11.2020
5508 Clear -6 1004 53 10000 5.1 360 09:23 14.11.2020
5509 Clear -7 1003 62 10000 8.2 20 08:40 14.11.2020
5510 Clear -8 1002 67 10000 6.2 20 08:20 14.11.2020
5511 Clear -8 1002 67 10000 6.2 20 07:41 14.11.2020
5512 Clouds -7 1002 67 10000 6.2 20 06:43 14.11.2020
5513 Clouds -8 1001 73 10000 4.1 360 06:20 14.11.2020
5514 Clear -6 1000 62 10000 4.6 20 04:53 14.11.2020
5515 Clear -6 999 67 10000 5.7 10 01:48 14.11.2020
5516 Clear -6 998 67 10000 6.2 10 00:25 14.11.2020
5517 Clear -5 998 53 10000 3.1 60 23:35 13.11.2020
5518 Clear -7 997 67 10000 2.6 50 22:58 13.11.2020
5519 Clear -7 997 67 10000 2.6 50 22:40 13.11.2020
5520 Clouds -8 996 72 10000 3.62 13 22:21 13.11.2020
5521 Clouds -8 996 72 10000 3.62 13 21:49 13.11.2020
5522 Clouds -8 996 72 10000 3.69 14 21:25 13.11.2020
5523 Clouds -9 996 67 10000 2.1 30 20:51 13.11.2020
5524 Clouds -8 996 67 10000 2.1 30 20:32 13.11.2020
5525 Clouds -8 995 73 10000 4.1 10 19:55 13.11.2020
5526 Clouds -8 995 73 10000 4.1 10 19:36 13.11.2020
5527 Clouds -8 995 67 10000 4.1 350 19:18 13.11.2020
5528 Clouds -5 995 67 10000 4.1 350 18:32 13.11.2020
5529 Clouds -4 994 73 10000 4.6 350 17:44 13.11.2020
5530 Clouds -4 994 79 10000 2.6 10 17:21 13.11.2020
5531 Clouds -4 994 79 10000 2.6 10 16:57 13.11.2020
5532 Clouds -4 994 79 10000 2.6 10 16:38 13.11.2020
5533 Clouds -2 993 86 10000 1.5 340 16:18 13.11.2020
5534 Clouds -2 993 86 10000 1.5 340 15:39 13.11.2020
5535 Clouds -1 993 86 10000 3.82 26 15:21 13.11.2020
5536 Clouds -1 993 86 10000 3.82 26 14:37 13.11.2020
5537 Snow -1 993 86 8047 3.68 23 14:18 13.11.2020
5538 Snow -1 993 86 8047 3.68 23 13:32 13.11.2020
5539 Clouds -1 993 80 10000 3.1 30 12:57 13.11.2020
5540 Clouds -1 992 86 10000 3.74 20 12:39 13.11.2020
5541 Clouds -1 992 86 10000 3.6 20 12:20 13.11.2020
5542 Clouds -1 992 86 10000 3.1 40 11:46 13.11.2020
5543 Clouds -1 992 86 10000 4.1 40 11:21 13.11.2020
5544 Clouds -1 992 86 10000 4.1 40 10:50 13.11.2020
5545 Clouds -1 992 86 10000 4.1 40 10:32 13.11.2020
5546 Clouds 0 991 96 10000 3.1 50 09:48 13.11.2020
5547 Clouds 0 991 97 10000 3.1 50 09:29 13.11.2020
5548 Clouds 0 990 97 10000 1.5 40 08:53 13.11.2020
5549 Clouds 0 990 97 10000 1.5 40 08:27 13.11.2020
5550 Clouds 0 990 97 10000 2.6 50 07:50 13.11.2020
5551 Clouds 0 990 97 10000 2.6 50 07:27 13.11.2020
5552 Clouds 0 989 97 10000 2.6 40 06:55 13.11.2020
5553 Clouds 0 989 96 10000 2.6 40 06:36 13.11.2020
5554 Clouds -1 989 86 10000 1.5 90 05:41 13.11.2020
5555 Mist -2 988 92 2816 2.31 40 03:41 13.11.2020
5556 Clouds -2 987 92 10000 2.63 32 01:42 13.11.2020
5557 Snow -1 987 92 6437 2.74 33 00:36 13.11.2020
5558 Mist -1 987 92 6437 2.78 34 23:50 12.11.2020
5559 Mist -1 986 92 4828 1.5 350 23:21 12.11.2020
5560 Mist -1 986 92 4828 1.5 350 22:55 12.11.2020
5561 Snow -1 986 100 1609 2.4 28 22:37 12.11.2020
5562 Snow -1 986 92 1609 1.9 15 21:58 12.11.2020
5563 Mist -1 986 92 1609 1.9 15 21:40 12.11.2020
5564 Snow -1 986 92 1609 1.41 343 21:22 12.11.2020
5565 Mist -1 985 92 2414 1.41 343 20:42 12.11.2020
5566 Mist -1 985 92 2414 1.16 312 20:23 12.11.2020
5567 Snow -1 985 100 1207 1.16 312 19:53 12.11.2020
5568 Snow -1 985 96 4828 1.16 312 19:34 12.11.2020
5569 Mist 0 985 96 6437 1.47 288 18:59 12.11.2020
5570 Snow 0 985 96 6437 1.01 290 18:41 12.11.2020
5571 Snow 0 984 96 8047 1.2 270 18:20 12.11.2020
5572 Snow 0 984 96 8047 1.2 270 17:40 12.11.2020
5573 Snow 0 984 96 4828 1.06 261 17:22 12.11.2020
5574 Snow 0 984 96 4828 1.06 261 16:45 12.11.2020
5575 Snow 0 984 96 4828 0.75 260 16:23 12.11.2020
5576 Mist 0 984 96 3219 0.75 260 15:53 12.11.2020
5577 Mist 0 984 86 2414 0.19 287 15:29 12.11.2020
5578 Mist 0 984 96 2816 0.19 287 14:56 12.11.2020
5579 Snow 0 984 96 2816 0.19 287 14:37 12.11.2020
5580 Mist 0 984 96 6437 0.51 56 14:18 12.11.2020
5581 Rain 0 984 86 6437 0.51 56 13:45 12.11.2020
5582 Mist 0 984 86 8047 0.81 78 13:19 12.11.2020
5583 Rain 0 984 86 8047 0.81 78 12:48 12.11.2020
5584 Snow 0 984 86 8047 0.62 76 12:25 12.11.2020
5585 Rain 0 984 86 6437 0.62 76 11:54 12.11.2020
5586 Snow 0 983 96 4023 0.62 76 11:35 12.11.2020
5587 Rain 0 983 86 6437 0.76 118 10:53 12.11.2020
5588 Mist 0 983 86 6437 0.76 118 10:53 12.11.2020
5589 Rain 0 983 86 8047 0.76 118 10:34 12.11.2020
5590 Rain 1 983 97 4828 1.13 107 09:56 12.11.2020
5591 Snow 1 983 97 4828 1.5 96 09:28 12.11.2020
5592 Rain 0 983 97 6437 1.5 96 08:59 12.11.2020
5593 Clouds 0 983 86 10000 2.1 10 08:40 12.11.2020
5594 Clouds 0 983 86 10000 1.7 91 08:20 12.11.2020
5595 Clouds 0 983 86 10000 1.7 91 07:54 12.11.2020
5596 Snow 0 983 86 10000 1.7 91 07:31 12.11.2020
5597 Snow 0 983 86 10000 1.74 80 06:52 12.11.2020
5598 Rain 0 983 86 10000 1.93 83 06:26 12.11.2020
5599 Mist 0 982 86 4828 2.83 100 03:50 12.11.2020
5600 Clouds 0 982 86 8047 2.92 90 03:20 12.11.2020
5601 Mist 0 982 86 4828 4.1 70 00:36 12.11.2020
5602 Snow 0 982 86 4828 3.6 70 23:44 11.11.2020
5603 Snow 0 982 86 4828 3.6 70 23:25 11.11.2020
5604 Rain 1 982 96 8047 4.1 70 22:48 11.11.2020
5605 Rain 1 982 95 8047 4.1 70 22:23 11.11.2020
5606 Rain 1 982 100 10000 3.6 70 21:59 11.11.2020
5607 Rain 1 982 100 10000 3.6 70 21:40 11.11.2020
5608 Rain 1 982 100 10000 3.6 60 21:20 11.11.2020
5609 Rain 1 982 100 10000 3.6 60 20:54 11.11.2020
5610 Rain 1 982 100 6437 4.6 70 20:36 11.11.2020
5611 Rain 1 982 100 4828 4.6 70 20:18 11.11.2020
5612 Mist 1 981 100 6437 5.1 70 19:41 11.11.2020
5613 Rain 1 981 100 6437 5.1 70 19:22 11.11.2020
5614 Mist 2 981 93 4828 4.1 70 18:44 11.11.2020
5615 Rain 2 981 93 4828 4.1 70 18:26 11.11.2020
5616 Mist 2 981 93 6437 5.7 70 17:41 11.11.2020
5617 Mist 2 981 93 6437 5.7 80 17:21 11.11.2020
5618 Mist 2 981 93 6437 5.7 80 16:44 11.11.2020
5619 Mist 2 981 93 6437 5.7 80 16:25 11.11.2020
5620 Mist 1 981 100 2414 6.2 80 15:44 11.11.2020
5621 Mist 1 981 100 2414 6.2 80 15:26 11.11.2020
5622 Mist 1 981 96 4023 6.7 80 14:51 11.11.2020
5623 Rain 1 981 96 8047 6.2 80 14:31 11.11.2020
5624 Rain 1 981 95 9656 6.7 80 13:52 11.11.2020
5625 Rain 1 981 95 9656 6.7 80 13:52 11.11.2020
5626 Rain 1 981 95 10000 7.2 80 13:32 11.11.2020
5627 Rain 1 982 95 6437 6.7 80 12:40 11.11.2020
5628 Rain 1 982 95 6437 8.7 70 12:20 11.11.2020
5629 Rain 1 982 95 6437 8.7 70 11:48 11.11.2020
5630 Rain 1 982 95 6437 8.7 70 11:26 11.11.2020
5631 Rain 1 982 95 8047 7.7 70 10:40 11.11.2020
5632 Rain 1 982 95 8047 7.7 70 10:20 11.11.2020
5633 Rain 2 983 95 8047 7.2 70 09:44 11.11.2020
5634 Rain 2 983 95 8047 7.2 70 09:25 11.11.2020
5635 Rain 2 984 95 10000 7.7 80 08:46 11.11.2020
5636 Rain 2 984 95 10000 7.7 80 08:46 11.11.2020
5637 Clouds 2 984 95 10000 7.7 80 08:27 11.11.2020
5638 Clouds 2 985 95 10000 7.7 70 07:49 11.11.2020
5639 Clouds 2 985 95 10000 7.7 70 07:49 11.11.2020
5640 Rain 2 986 93 10000 8.2 70 06:51 11.11.2020
5641 Clouds 2 987 93 10000 7.7 70 06:25 11.11.2020
5642 Rain 1 990 96 9656 6.7 80 03:40 11.11.2020
5643 Mist 2 995 93 9656 5.1 130 00:59 11.11.2020
5644 Mist 2 995 93 9656 5.1 130 00:28 11.11.2020
5645 Mist 2 995 93 8047 4.6 140 23:49 10.11.2020
5646 Mist 2 995 93 8047 4.6 140 23:24 10.11.2020
5647 Mist 2 996 93 9656 6.2 150 22:56 10.11.2020
5648 Mist 2 996 93 9656 6.2 150 22:27 10.11.2020
5649 Clouds 2 997 80 10000 5.7 180 21:44 10.11.2020
5650 Clouds 2 997 80 10000 5.7 180 21:25 10.11.2020
5651 Clouds 1 997 80 10000 4.6 210 20:59 10.11.2020
5652 Snow 1 997 80 6437 5.7 220 20:41 10.11.2020
5653 Snow 1 997 80 6437 5.7 220 20:22 10.11.2020
5654 Clouds 1 997 84 10000 4.1 200 19:49 10.11.2020
5655 Clouds 1 997 84 10000 4.1 200 19:30 10.11.2020
5656 Snow 1 998 80 4828 10.8 220 18:59 10.11.2020
5657 Clouds 2 998 74 10000 8.7 200 18:40 10.11.2020
5658 Clouds 2 997 80 8047 7.7 180 18:19 10.11.2020
5659 Clouds 2 997 80 8047 7.7 180 17:43 10.11.2020
5660 Clouds 2 997 80 8047 7.7 180 17:25 10.11.2020
5661 Clouds 3 997 87 10000 9.8 200 16:46 10.11.2020
5662 Clouds 2 997 86 10000 9.8 200 16:24 10.11.2020
5663 Clouds 3 996 86 10000 7.7 190 15:57 10.11.2020
5664 Clouds 3 996 86 10000 7.7 190 15:38 10.11.2020
5665 Clouds 2 996 83 10000 9.3 200 15:20 10.11.2020
5666 Clouds 3 996 83 10000 9.3 200 14:41 10.11.2020
5667 Clouds 3 996 84 10000 7.2 200 14:22 10.11.2020
5668 Snow 2 996 86 6437 9.8 200 13:41 10.11.2020
5669 Clouds 2 996 83 10000 9.8 200 13:23 10.11.2020
5670 Clouds 3 996 83 10000 9.8 200 12:58 10.11.2020
5671 Clouds 2 996 84 10000 8.7 200 12:39 10.11.2020
5672 Clouds 2 995 86 10000 7.7 190 12:20 10.11.2020
5673 Clouds 3 995 86 10000 7.7 190 11:39 10.11.2020
5674 Clouds 3 995 86 10000 7.7 190 11:19 10.11.2020
5675 Clouds 2 995 86 10000 7.7 190 10:43 10.11.2020
5676 Clouds 2 995 86 10000 7.7 190 10:24 10.11.2020
5677 Clouds 2 994 93 10000 5.1 210 09:51 10.11.2020
5678 Clouds 1 994 93 10000 5.1 210 09:26 10.11.2020
5679 Rain 1 993 93 9656 9.3 230 08:59 10.11.2020
5680 Rain 1 993 93 9656 9.3 230 08:30 10.11.2020
5681 Rain 2 993 93 10000 10.3 230 07:56 10.11.2020
5682 Rain 3 992 100 6437 10.3 210 07:37 10.11.2020
5683 Rain 3 992 100 6437 5.7 160 07:18 10.11.2020
5684 Rain 3 992 100 6437 5.7 160 06:38 10.11.2020
5685 Rain 2 993 93 4828 4.1 140 05:27 10.11.2020
5686 Rain 1 996 100 4828 7.2 110 02:59 10.11.2020
5687 Snow 0 998 86 805 10.3 100 01:41 10.11.2020
5688 Rain 0 999 86 805 11.8 100 00:50 10.11.2020
5689 Fog 0 1001 86 805 13.9 90 23:42 09.11.2020
5690 Snow -1 1002 92 805 12.3 80 22:59 09.11.2020
5691 Rain 0 1003 86 1207 14.9 90 22:41 09.11.2020
5692 Rain 0 1003 86 1207 13.4 90 22:20 09.11.2020
5693 Rain 0 1005 86 2012 12.3 90 21:40 09.11.2020
5694 Rain 0 1007 86 2414 9.3 100 21:21 09.11.2020
5695 Rain 0 1007 86 2414 9.3 100 20:41 09.11.2020
5696 Rain 0 1008 86 2414 8.7 110 20:22 09.11.2020
5697 Snow 0 1008 86 2414 8.7 110 19:48 09.11.2020
5698 Rain 0 1008 86 2414 8.7 110 19:23 09.11.2020
5699 Mist -1 1009 92 2414 7.2 80 18:58 09.11.2020
5700 Snow -1 1009 92 2414 7.2 80 18:39 09.11.2020
5701 Snow -2 1009 92 2012 8.7 80 18:19 09.11.2020
5702 Snow -2 1010 86 2414 7.7 80 17:43 09.11.2020
5703 Snow -2 1010 86 2414 7.7 80 17:25 09.11.2020
5704 Snow -2 1011 86 4828 8.7 80 16:44 09.11.2020
5705 Snow -2 1011 79 3219 7.7 80 16:23 09.11.2020
5706 Clouds -2 1012 74 10000 7.2 80 15:45 09.11.2020
5707 Clouds -2 1012 74 10000 7.2 80 15:25 09.11.2020
5708 Snow -2 1013 74 8047 7.7 80 14:49 09.11.2020
5709 Snow -3 1013 74 8047 7.7 80 14:28 09.11.2020
5710 Snow -3 1013 74 8047 6.7 80 13:53 09.11.2020
5711 Clouds -3 1013 74 10000 6.2 70 13:28 09.11.2020
5712 Clouds -5 1013 73 10000 5.7 70 12:58 09.11.2020
5713 Clouds -5 1013 73 10000 5.7 70 12:40 09.11.2020
5714 Clouds -6 1013 73 10000 4.6 80 12:20 09.11.2020
5715 Clouds -6 1013 73 10000 4.6 80 11:42 09.11.2020
5716 Clouds -6 1013 73 10000 4.6 80 11:24 09.11.2020
5717 Clouds -6 1013 73 10000 5.1 70 10:57 09.11.2020
5718 Clouds -5 1013 73 10000 5.1 70 10:39 09.11.2020
5719 Clouds -6 1012 85 10000 2.1 30 10:21 09.11.2020
5720 Clouds -6 1012 85 10000 2.1 30 09:30 09.11.2020
5721 Clear -5 1011 79 10000 2.1 30 08:50 09.11.2020
5722 Clear -5 1011 79 10000 2.1 30 08:27 09.11.2020
5723 Clear -5 1011 85 10000 1.67 51 07:44 09.11.2020
5724 Clear -5 1011 85 10000 1.52 32 07:23 09.11.2020
5725 Clear -6 1010 79 10000 1.5 350 06:51 09.11.2020
5726 Clear -3 1007 80 10000 1.97 350 03:51 09.11.2020
5727 Clear 0 1005 69 10000 2.43 345 01:57 09.11.2020
5728 Clear 1 1005 69 10000 2.43 345 01:39 09.11.2020
5729 Clear -1 1004 84 10000 2.24 350 00:40 09.11.2020
5730 Clear -2 1004 79 10000 1.5 250 23:40 08.11.2020
5731 Clear -3 1003 73 10000 2.1 330 23:22 08.11.2020
5732 Clear -3 1003 73 10000 2.1 330 22:42 08.11.2020
5733 Clear -4 1003 73 10000 2.1 330 22:21 08.11.2020
5734 Clear -5 1002 79 10000 2.1 300 21:46 08.11.2020
5735 Clear -6 1001 79 10000 3.1 330 21:21 08.11.2020
5736 Clear -6 1001 79 10000 3.1 330 20:57 08.11.2020
5737 Clear -6 1001 79 10000 3.1 330 20:38 08.11.2020
5738 Clear -5 1001 79 10000 2.6 320 20:19 08.11.2020
5739 Clear -6 1001 79 10000 2.6 320 19:45 08.11.2020
5740 Clear -6 1001 79 10000 2.6 320 19:21 08.11.2020
5741 Clear -5 1000 79 10000 3.17 355 18:56 08.11.2020
5742 Clear -5 1000 79 10000 3.29 358 18:38 08.11.2020
5743 Clear -5 1000 79 10000 3.29 358 18:38 08.11.2020
5744 Clear -5 1000 73 10000 2.88 7 18:20 08.11.2020
5745 Clear -5 1000 73 10000 2.88 7 17:42 08.11.2020
5746 Clear -6 1000 79 10000 2.88 4 17:20 08.11.2020
5747 Clear -6 1000 79 10000 2.88 4 16:57 08.11.2020
5748 Clear -6 1000 79 10000 2.88 4 16:57 08.11.2020
5749 Clear -6 1000 79 10000 2.88 4 16:38 08.11.2020
5750 Clear -5 1000 73 10000 3.6 340 16:19 08.11.2020
5751 Clear -5 1000 73 10000 3.6 340 15:45 08.11.2020
5752 Clear -5 1000 73 10000 3.6 340 15:26 08.11.2020
5753 Clear -5 1000 79 10000 3.6 360 14:43 08.11.2020
5754 Clear -5 1000 79 10000 3.6 360 14:24 08.11.2020
5755 Clear -5 1000 79 10000 2.6 330 13:56 08.11.2020
5756 Clear -5 1000 79 10000 2.6 330 13:56 08.11.2020
5757 Clear -5 1000 79 10000 2.6 330 13:26 08.11.2020
5758 Clear -5 1001 79 10000 1.5 10 12:57 08.11.2020
5759 Clear -5 1001 79 10000 1.5 10 12:39 08.11.2020
5760 Clear -4 1001 86 10000 3.1 360 12:19 08.11.2020
5761 Clear -4 1001 86 10000 3.1 360 11:55 08.11.2020
5762 Clear -4 1001 86 10000 3.1 360 11:36 08.11.2020
5763 Clear -4 1002 86 10000 3.1 20 11:18 08.11.2020
5764 Clear -4 1002 86 10000 3.1 20 10:41 08.11.2020
5765 Clear -4 1003 86 10000 2.1 330 10:18 08.11.2020
5766 Clear -4 1003 86 10000 2.1 330 09:41 08.11.2020
5767 Clear -4 1003 86 10000 2.1 0 09:19 08.11.2020
5768 Clear -3 1003 86 10000 2.1 0 08:44 08.11.2020
5769 Clear -3 1003 86 10000 2.1 0 08:22 08.11.2020
5770 Clear -3 1004 92 10000 3.1 360 07:53 08.11.2020
5771 Clear -3 1004 92 10000 3.1 360 07:31 08.11.2020
5772 Clouds -2 1004 92 10000 1.5 360 06:27 08.11.2020
5773 Clouds -2 1005 86 10000 2.6 350 05:54 08.11.2020
5774 Clouds 0 1005 80 10000 2.06 49 04:51 08.11.2020
5775 Clouds 2 1007 94 10000 2.6 230 02:44 08.11.2020
5776 Clouds 3 1007 86 10000 2.6 260 01:19 08.11.2020
5777 Mist 3 1008 86 8047 4.1 230 00:31 08.11.2020
5778 Mist 3 1008 86 9656 3.1 220 23:56 07.11.2020
5779 Mist 3 1008 86 9656 3.1 220 23:37 07.11.2020
5780 Mist 2 1008 93 9656 3.6 210 23:18 07.11.2020
5781 Mist 2 1008 93 9656 3.6 210 22:39 07.11.2020
5782 Clear 3 1008 86 10000 5.1 200 22:20 07.11.2020
5783 Clear 3 1008 86 10000 5.1 200 21:40 07.11.2020
5784 Clouds 2 1008 86 10000 5.7 210 21:19 07.11.2020
5785 Clouds 2 1008 86 10000 5.7 210 20:47 07.11.2020
5786 Clouds 2 1008 86 10000 5.7 210 20:29 07.11.2020
5787 Clouds 2 1008 86 10000 5.1 210 19:49 07.11.2020
5788 Clouds 3 1008 86 10000 5.1 210 19:28 07.11.2020
5789 Clouds 3 1008 86 10000 5.7 230 18:45 07.11.2020
5790 Clouds 3 1008 86 10000 5.7 230 18:27 07.11.2020
5791 Clouds 3 1008 86 10000 6.7 210 17:59 07.11.2020
5792 Clouds 3 1008 86 10000 6.7 210 17:37 07.11.2020
5793 Clouds 3 1008 86 10000 6.7 210 16:57 07.11.2020
5794 Rain 3 1008 86 10000 7.2 220 16:39 07.11.2020
5795 Rain 3 1008 86 10000 6.7 220 16:20 07.11.2020
5796 Rain 3 1008 86 10000 6.7 210 15:42 07.11.2020
5797 Rain 3 1008 86 10000 7.2 210 15:22 07.11.2020
5798 Rain 3 1008 86 10000 7.7 210 14:48 07.11.2020
5799 Rain 3 1008 86 10000 7.7 210 14:29 07.11.2020
5800 Rain 3 1008 86 10000 7.2 220 13:56 07.11.2020
5801 Rain 3 1008 86 10000 7.2 220 13:31 07.11.2020
5802 Rain 3 1008 86 10000 7.7 210 12:52 07.11.2020
5803 Rain 3 1008 86 10000 7.7 210 12:26 07.11.2020
5804 Rain 3 1008 86 10000 8.7 210 11:45 07.11.2020
5805 Rain 3 1008 86 10000 8.7 210 11:23 07.11.2020
5806 Rain 3 1007 86 10000 8.7 210 10:46 07.11.2020
5807 Rain 3 1007 86 10000 8.7 210 10:27 07.11.2020
5808 Rain 3 1007 86 10000 8.2 210 09:54 07.11.2020
5809 Rain 3 1007 86 10000 8.2 210 09:36 07.11.2020
5810 Rain 3 1006 86 10000 7.7 210 08:55 07.11.2020
5811 Rain 3 1006 86 10000 8.2 210 08:36 07.11.2020
5812 Rain 3 1006 86 10000 8.2 210 08:36 07.11.2020
5813 Rain 3 1006 86 10000 9.3 210 07:55 07.11.2020
5814 Rain 4 1005 80 10000 9.3 210 07:31 07.11.2020
5815 Rain 4 1005 80 10000 9.8 210 06:47 07.11.2020
5816 Rain 4 1004 86 9656 10.3 200 05:34 07.11.2020
5817 Rain 4 1004 86 4828 10.3 210 03:24 07.11.2020
5818 Mist 4 1003 86 6437 9.8 210 01:43 07.11.2020
5819 Mist 4 1003 86 6437 9.8 210 01:24 07.11.2020
5820 Mist 4 1003 86 6437 11.3 200 00:22 07.11.2020
5821 Mist 4 1002 86 6437 10.8 210 23:24 06.11.2020
5822 Mist 4 1001 80 6437 11.8 200 22:44 06.11.2020
5823 Mist 4 1001 80 6437 12.3 200 22:20 06.11.2020
5824 Mist 4 1001 80 6437 9.3 200 21:47 06.11.2020
5825 Mist 4 1001 80 6437 9.3 200 21:22 06.11.2020
5826 Mist 4 1000 80 8047 11.8 210 20:59 06.11.2020
5827 Mist 4 1000 80 8047 11.8 210 20:41 06.11.2020
5828 Mist 4 999 80 9656 12.9 210 20:19 06.11.2020
5829 Mist 4 999 80 9656 12.9 210 19:45 06.11.2020
5830 Mist 4 999 80 9656 12.9 210 19:26 06.11.2020
5831 Mist 4 999 80 9656 13.4 210 18:46 06.11.2020
5832 Mist 4 999 80 9656 13.4 210 18:24 06.11.2020
5833 Mist 4 997 80 8047 13.4 210 17:52 06.11.2020
5834 Mist 4 997 80 8047 13.4 210 17:31 06.11.2020
5835 Mist 4 996 80 8047 12.9 210 16:58 06.11.2020
5836 Mist 4 996 80 8047 12.9 210 16:33 06.11.2020
5837 Mist 4 996 80 8047 12.9 210 15:55 06.11.2020
5838 Mist 4 996 80 8047 12.9 210 15:33 06.11.2020
5839 Mist 4 995 80 8047 12.3 210 14:54 06.11.2020
5840 Mist 4 995 80 8047 12.3 210 14:28 06.11.2020
5841 Rain 4 994 80 8047 14.4 210 13:50 06.11.2020
5842 Rain 4 994 80 8047 14.4 210 13:26 06.11.2020
5843 Rain 4 993 86 9656 13.4 210 12:55 06.11.2020
5844 Rain 4 993 86 9656 13.4 210 12:36 06.11.2020
5845 Rain 3 992 80 8047 13.9 210 12:18 06.11.2020
5846 Mist 4 992 80 8047 13.9 210 11:36 06.11.2020
5847 Mist 4 990 80 8047 13.4 210 10:58 06.11.2020
5848 Mist 4 990 80 8047 13.4 210 10:34 06.11.2020
5849 Rain 4 990 80 8047 12.9 210 09:55 06.11.2020
5850 Mist 4 988 86 8047 13.4 210 09:36 06.11.2020
5851 Rain 4 987 86 6437 14.4 210 09:18 06.11.2020
5852 Rain 4 987 86 6437 14.4 210 08:46 06.11.2020
5853 Rain 4 986 86 6437 11.3 200 08:19 06.11.2020
5854 Rain 4 986 86 6437 11.3 200 07:42 06.11.2020
5855 Rain 3 986 86 6437 10.3 180 07:18 06.11.2020
5856 Rain 3 986 86 6437 10.3 180 06:40 06.11.2020
5857 Rain 3 986 86 8047 10.3 180 05:37 06.11.2020
5858 Mist 4 986 86 6437 8.7 190 01:59 06.11.2020
5859 Mist 4 986 93 4828 8.2 190 00:29 06.11.2020
5860 Mist 4 986 93 4828 7.7 180 23:51 05.11.2020
5861 Mist 3 985 93 4828 12.3 160 23:24 05.11.2020
5862 Rain 2 986 93 2816 14.4 150 22:45 05.11.2020
5863 Mist 1 986 100 2816 15.9 150 22:26 05.11.2020
5864 Rain 1 986 100 2816 15.9 150 21:57 05.11.2020
5865 Snow 0 987 100 3219 15.9 150 21:38 05.11.2020
5866 Rain 0 987 100 2414 15.4 150 21:18 05.11.2020
5867 Snow 0 989 96 1609 17.5 150 20:43 05.11.2020
5868 Snow 0 989 96 1207 18.5 150 20:22 05.11.2020
5869 Snow 0 991 96 1609 18.5 140 19:44 05.11.2020
5870 Snow 0 991 96 1609 18.5 140 19:26 05.11.2020
5871 Snow 0 991 96 1609 18.5 140 19:26 05.11.2020
5872 Snow 0 991 96 1609 17.5 140 18:57 05.11.2020
5873 Snow -1 993 96 805 18 140 18:38 05.11.2020
5874 Snow -1 996 92 402 19.5 140 18:20 05.11.2020
5875 Snow -1 996 92 402 19.5 140 17:43 05.11.2020
5876 Snow -1 996 92 402 19.5 140 17:25 05.11.2020
5877 Snow -1 998 92 805 20.1 140 16:46 05.11.2020
5878 Snow -1 998 92 805 20.1 140 16:27 05.11.2020
5879 Snow -1 1000 92 805 18 140 15:51 05.11.2020
5880 Snow -1 1000 92 805 18 140 15:27 05.11.2020
5881 Snow -1 1002 86 805 17.5 140 14:57 05.11.2020
5882 Snow -1 1002 86 805 17.5 140 14:37 05.11.2020
5883 Snow -1 1004 86 805 14.9 140 14:18 05.11.2020
5884 Snow -2 1005 86 1207 16.5 140 13:40 05.11.2020
5885 Snow -2 1006 92 805 17 140 12:56 05.11.2020
5886 Snow -2 1006 92 805 17 140 12:56 05.11.2020
5887 Fog -2 1006 92 805 18 140 12:38 05.11.2020
5888 Snow -1 1008 80 2012 14.9 150 12:19 05.11.2020
5889 Snow -1 1008 80 4023 15.9 150 11:41 05.11.2020
5890 Snow -1 1008 80 4023 15.9 150 11:22 05.11.2020
5891 Clouds 0 1011 98 10000 14.9 160 10:48 05.11.2020
5892 Clouds 0 1011 97 10000 14.9 160 10:26 05.11.2020
5893 Snow 0 1011 97 2012 11.8 150 09:49 05.11.2020
5894 Mist 0 1011 98 2012 11.8 150 09:24 05.11.2020
5895 Mist 0 1011 98 2012 12.9 150 08:49 05.11.2020
5896 Snow -1 1013 92 1609 12.9 160 08:31 05.11.2020
5897 Snow -1 1013 92 1207 11.3 160 07:55 05.11.2020
5898 Snow 0 1013 98 6437 10.8 160 07:27 05.11.2020
5899 Clouds 0 1014 98 10000 8.7 150 06:43 05.11.2020
5900 Clouds 0 1015 96 10000 10.8 160 05:59 05.11.2020
5901 Clouds 0 1017 59 10000 7.7 200 02:42 05.11.2020
5902 Snow -1 1018 68 10000 3.1 80 00:35 05.11.2020
5903 Snow -3 1018 68 8047 2.6 90 23:51 04.11.2020
5904 Snow -5 1018 73 10000 4.6 80 23:27 04.11.2020
5905 Snow -6 1019 73 10000 4.1 70 22:57 04.11.2020
5906 Snow -6 1019 73 10000 4.1 70 22:37 04.11.2020
5907 Snow -5 1019 62 10000 4.1 80 22:19 04.11.2020
5908 Snow -5 1019 62 10000 4.1 80 21:43 04.11.2020
5909 Snow -5 1019 62 10000 4.1 80 21:25 04.11.2020
5910 Clouds -9 1019 72 10000 1.5 20 20:46 04.11.2020
5911 Clouds -9 1019 72 10000 1.5 20 20:28 04.11.2020
5912 Clouds -14 1019 77 10000 1.5 40 19:55 04.11.2020
5913 Clouds -14 1019 77 10000 1.5 40 19:37 04.11.2020
5914 Clouds -14 1019 77 10000 1.5 40 19:19 04.11.2020
5915 Clear -13 1019 71 10000 1.5 90 18:39 04.11.2020
5916 Clear -11 1019 78 10000 1.51 301 18:21 04.11.2020
5917 Clear -11 1019 78 10000 1.51 301 17:46 04.11.2020
5918 Clear -11 1019 78 10000 1.95 316 17:25 04.11.2020
5919 Clouds -10 1019 85 10000 3.6 350 16:45 04.11.2020
5920 Clouds -11 1019 85 10000 3.6 350 16:25 04.11.2020
5921 Clouds -9 1019 72 10000 1.5 290 15:55 04.11.2020
5922 Clouds -9 1019 72 10000 1.5 290 15:37 04.11.2020
5923 Clear -8 1019 67 10000 4.6 320 15:18 04.11.2020
5924 Clear -8 1019 67 10000 4.6 320 14:42 04.11.2020
5925 Clear -8 1019 67 10000 4.6 320 14:24 04.11.2020
5926 Clear -8 1018 72 10000 3.1 290 13:50 04.11.2020
5927 Clear -7 1017 62 10000 6.2 310 13:21 04.11.2020
5928 Clear -7 1017 62 10000 6.2 310 12:56 04.11.2020
5929 Clear -7 1017 62 10000 6.2 310 12:38 04.11.2020
5930 Clear -6 1016 68 10000 7.7 310 12:19 04.11.2020
5931 Clear -6 1016 68 10000 7.7 310 11:44 04.11.2020
5932 Clear -6 1015 73 10000 6.2 300 11:20 04.11.2020
5933 Clear -5 1015 73 10000 6.2 300 10:48 04.11.2020
5934 Clear -5 1015 73 10000 6.2 300 10:23 04.11.2020
5935 Clear -5 1014 79 10000 7.2 300 09:54 04.11.2020
5936 Clear -5 1014 79 10000 7.2 300 09:26 04.11.2020
5937 Clear -5 1013 79 10000 7.2 310 08:47 04.11.2020
5938 Clear -5 1013 79 10000 7.2 310 08:22 04.11.2020
5939 Clouds -5 1013 73 10000 8.7 310 07:56 04.11.2020
5940 Clouds -4 1013 73 10000 8.7 310 07:30 04.11.2020
5941 Clouds -4 1012 73 10000 9.3 310 06:57 04.11.2020
5942 Clouds -4 1012 73 10000 9.3 310 06:37 04.11.2020
5943 Clouds -4 1008 73 8047 8.2 330 04:18 04.11.2020
5944 Snow -3 1006 79 8047 6.7 360 02:31 04.11.2020
5945 Clouds -2 1004 68 10000 8.2 320 01:22 04.11.2020
5946 Clouds -3 1004 68 10000 5.1 300 23:53 03.11.2020
5947 Clouds -4 1004 79 10000 3.1 320 23:25 03.11.2020
5948 Clouds -4 1004 79 10000 3.1 320 22:54 03.11.2020
5949 Clouds -4 1004 79 10000 3.1 320 22:36 03.11.2020
5950 Clouds -5 1003 85 10000 2.6 320 22:18 03.11.2020
5951 Clouds -5 1003 85 10000 2.6 320 21:41 03.11.2020
5952 Clouds -5 1004 92 10000 4.1 330 21:22 03.11.2020
5953 Clouds -5 1004 92 10000 4.1 330 20:46 03.11.2020
5954 Clouds -5 1004 92 10000 4.1 330 20:26 03.11.2020
5955 Clouds -5 1004 85 10000 3.6 310 19:46 03.11.2020
5956 Clouds -5 1004 85 10000 3.6 310 19:27 03.11.2020
5957 Snow -5 1004 85 6437 5.1 340 18:57 03.11.2020
5958 Mist -5 1004 85 6437 5.1 340 18:38 03.11.2020
5959 Snow -4 1004 86 4828 3.1 30 18:18 03.11.2020
5960 Snow -4 1005 100 4828 2.1 280 17:43 03.11.2020
5961 Snow -4 1006 85 805 4.6 70 17:25 03.11.2020
5962 Snow -5 1007 85 2414 3.6 80 16:45 03.11.2020
5963 Snow -5 1007 85 2414 3.6 80 16:25 03.11.2020
5964 Snow -5 1008 79 6437 4.1 70 15:52 03.11.2020
5965 Snow -5 1008 79 6437 4.1 70 15:29 03.11.2020
5966 Mist -5 1009 79 3219 3.6 80 14:53 03.11.2020
5967 Clouds -5 1010 73 10000 3.1 80 14:33 03.11.2020
5968 Clouds -5 1011 73 10000 3.6 80 13:47 03.11.2020
5969 Clouds -5 1012 73 10000 5.1 90 13:26 03.11.2020
5970 Clouds -5 1012 73 10000 5.1 90 12:59 03.11.2020
5971 Clouds -5 1012 73 10000 5.1 90 12:41 03.11.2020
5972 Clouds -5 1013 68 10000 3.1 80 12:20 03.11.2020
5973 Clouds -5 1013 68 10000 3.1 80 11:46 03.11.2020
5974 Clouds -5 1013 68 10000 3.1 80 11:22 03.11.2020
5975 Clouds -6 1014 73 10000 3.1 70 10:41 03.11.2020
5976 Clouds -6 1014 73 10000 3.1 70 10:22 03.11.2020
5977 Clouds -6 1014 73 10000 3.1 80 09:59 03.11.2020
5978 Clouds -6 1014 73 10000 3.1 80 09:41 03.11.2020
5979 Clouds -6 1014 73 10000 2.1 70 09:18 03.11.2020
5980 Clouds -6 1015 73 10000 3.1 80 08:44 03.11.2020
5981 Clouds -6 1015 73 10000 3.1 80 08:25 03.11.2020
5982 Clouds -6 1015 79 10000 1.5 70 07:35 03.11.2020
5983 Clouds -6 1016 85 10000 2.1 30 06:53 03.11.2020
5984 Clouds -6 1016 79 10000 2.6 40 06:20 03.11.2020
5985 Clouds -6 1017 73 10000 1.5 90 03:38 03.11.2020
5986 Clouds -7 1018 85 10000 1.6 356 00:43 03.11.2020
5987 Clouds -7 1018 78 10000 1.5 350 00:20 03.11.2020
5988 Clouds -7 1018 78 10000 1.5 350 23:41 02.11.2020
5989 Clouds -8 1018 78 10000 2.1 340 22:57 02.11.2020
5990 Clouds -8 1018 78 10000 2.1 340 22:37 02.11.2020
5991 Clouds -9 1018 85 10000 2.01 337 22:19 02.11.2020
5992 Clouds -9 1018 85 10000 2.01 337 21:39 02.11.2020
5993 Clouds -11 1019 77 10000 1.97 336 21:20 02.11.2020
5994 Clouds -14 1019 77 10000 1.97 336 20:42 02.11.2020
5995 Clear -14 1019 84 10000 1.89 336 20:20 02.11.2020
5996 Clear -14 1019 84 10000 1.89 336 19:59 02.11.2020
5997 Clear -14 1019 84 10000 1.89 336 19:41 02.11.2020
5998 Clear -14 1019 84 10000 1.78 336 19:21 02.11.2020
5999 Clear -13 1019 78 10000 1.5 350 18:41 02.11.2020
6000 Clear -14 1019 77 10000 2.03 339 18:21 02.11.2020
6001 Clear -14 1019 77 10000 2.03 339 17:56 02.11.2020
6002 Clear -14 1019 77 10000 2.03 339 17:37 02.11.2020
6003 Clear -15 1020 77 10000 2.08 342 17:18 02.11.2020
6004 Clear -15 1020 77 10000 2.08 342 16:40 02.11.2020
6005 Clear -16 1020 84 10000 1.5 10 16:21 02.11.2020
6006 Clear -16 1020 84 10000 1.5 10 15:39 02.11.2020
6007 Clear -16 1021 84 10000 2.02 338 15:21 02.11.2020
6008 Clear -16 1021 84 10000 2.02 338 14:53 02.11.2020
6009 Clear -15 1021 77 10000 1.76 337 14:20 02.11.2020
6010 Clear -15 1021 77 10000 1.76 337 13:54 02.11.2020
6011 Clear -15 1022 77 10000 1.61 338 13:23 02.11.2020
6012 Clear -15 1022 77 10000 1.61 338 12:59 02.11.2020
6013 Clear -15 1022 77 10000 1.69 338 12:31 02.11.2020
6014 Clear -15 1022 84 10000 1.56 340 11:58 02.11.2020
6015 Clear -15 1022 84 10000 1.56 340 11:38 02.11.2020
6016 Clear -14 1023 77 10000 1.43 342 11:19 02.11.2020
6017 Clear -14 1023 77 10000 1.43 342 10:42 02.11.2020
6018 Clear -14 1023 77 10000 1.55 352 10:21 02.11.2020
6019 Clear -14 1023 77 10000 1.5 360 09:49 02.11.2020
6020 Clear -14 1023 77 10000 1.5 360 09:24 02.11.2020
6021 Clear -12 1023 85 10000 1.77 4 08:45 02.11.2020
6022 Clear -13 1024 92 10000 2.6 10 08:24 02.11.2020
6023 Clear -13 1024 92 10000 2.6 10 07:50 02.11.2020
6024 Clear -13 1024 92 10000 2.6 10 07:50 02.11.2020
6025 Clear -12 1024 92 10000 1.98 29 06:59 02.11.2020
6026 Clear -12 1024 92 10000 1.98 29 06:36 02.11.2020
6027 Clear -7 1025 79 10000 1.42 4 03:27 02.11.2020
6028 Clear -5 1025 73 10000 1.49 1 01:25 02.11.2020
6029 Clear -6 1026 79 10000 1.96 358 00:35 02.11.2020
6030 Clear -7 1026 73 10000 1.86 4 23:42 01.11.2020
6031 Clear -7 1026 73 10000 1.94 10 23:24 01.11.2020
6032 Clear -9 1026 72 10000 1.94 10 22:46 01.11.2020
6033 Clear -9 1026 72 10000 2.03 12 22:26 01.11.2020
6034 Clear -11 1026 85 10000 2.03 12 21:59 01.11.2020
6035 Clear -11 1026 85 10000 2.03 12 21:39 01.11.2020
6036 Clouds -11 1026 85 10000 2.13 12 21:21 01.11.2020
6037 Clouds -11 1026 85 10000 2.13 12 20:42 01.11.2020
6038 Clouds -11 1026 85 10000 2.21 7 20:24 01.11.2020
6039 Clouds -11 1026 85 10000 1.5 350 19:44 01.11.2020
6040 Clouds -11 1026 85 10000 1.5 350 19:26 01.11.2020
6041 Clear -12 1026 85 10000 2.23 5 18:54 01.11.2020
6042 Clear -12 1026 85 10000 2.31 6 18:36 01.11.2020
6043 Clear -12 1026 85 10000 2.1 330 18:18 01.11.2020
6044 Clear -12 1026 85 10000 2.1 330 18:18 01.11.2020
6045 Clear -12 1026 85 10000 2.1 330 17:43 01.11.2020
6046 Clear -12 1026 85 10000 2.1 330 17:24 01.11.2020
6047 Clear -12 1026 85 10000 2.1 350 16:42 01.11.2020
6048 Clear -12 1025 85 10000 2.21 353 16:21 01.11.2020
6049 Clear -12 1025 85 10000 2.21 353 15:54 01.11.2020
6050 Clear -12 1025 85 10000 2.21 353 15:36 01.11.2020
6051 Clear -13 1025 92 10000 2.14 348 15:18 01.11.2020
6052 Clear -13 1025 92 10000 2.14 348 14:44 01.11.2020
6053 Clear -13 1025 92 10000 2.05 347 14:21 01.11.2020
6054 Clear -12 1025 85 10000 3.1 10 13:49 01.11.2020
6055 Clear -12 1025 85 10000 3.1 10 13:31 01.11.2020
6056 Clear -12 1025 85 10000 2.46 343 12:44 01.11.2020
6057 Clear -12 1025 85 10000 2.46 343 12:44 01.11.2020
6058 Clear -12 1025 85 10000 2.55 342 12:26 01.11.2020
6059 Clear -13 1025 78 10000 3.1 10 11:55 01.11.2020
6060 Clear -13 1025 78 10000 3.1 10 11:37 01.11.2020
6061 Clear -11 1024 78 10000 2.6 10 11:18 01.11.2020
6062 Clear -11 1024 78 10000 2.6 10 10:40 01.11.2020
6063 Clear -11 1024 78 10000 2.6 10 10:22 01.11.2020
6064 Clear -9 1024 78 10000 2.47 340 09:46 01.11.2020
6065 Clear -8 1024 78 10000 2.4 334 08:52 01.11.2020
6066 Clear -8 1024 78 10000 2.4 334 08:33 01.11.2020
6067 Clear -4 1024 58 10000 2.1 40 07:45 01.11.2020
6068 Clear -5 1022 73 10000 5.1 350 06:22 01.11.2020
6069 Clouds -3 1021 73 10000 3.6 280 01:53 01.11.2020
6070 Clouds -3 1021 73 10000 3.6 290 00:55 01.11.2020
6071 Clouds -5 1021 68 10000 3.6 300 23:42 31.10.2020
6072 Clouds -7 1020 73 10000 2.1 270 23:19 31.10.2020
6073 Clouds -7 1020 73 10000 2.1 270 22:43 31.10.2020
6074 Clouds -7 1020 73 10000 2.1 270 22:23 31.10.2020
6075 Clear -11 1020 85 10000 3.43 320 21:46 31.10.2020
6076 Clear -11 1020 85 10000 3.53 318 21:21 31.10.2020
6077 Clear -13 1020 78 10000 3.53 318 20:41 31.10.2020
6078 Clear -10 1019 78 10000 3.36 317 20:20 31.10.2020
6079 Clear -10 1019 78 10000 3.36 317 19:44 31.10.2020
6080 Clear -10 1019 78 10000 3.07 315 19:24 31.10.2020
6081 Clear -10 1019 78 10000 2.1 30 18:59 31.10.2020
6082 Clear -10 1019 78 10000 2.1 30 18:40 31.10.2020
6083 Clear -10 1019 85 10000 3.6 290 17:47 31.10.2020
6084 Clear -10 1019 85 10000 3.6 290 17:26 31.10.2020
6085 Clear -11 1019 85 10000 3.63 314 16:56 31.10.2020
6086 Clear -11 1019 85 10000 3.63 314 16:34 31.10.2020
6087 Clear -11 1018 85 10000 4.03 313 15:55 31.10.2020
6088 Clear -11 1018 85 10000 4.06 312 15:26 31.10.2020
6089 Clear -7 1018 85 10000 2.6 350 14:55 31.10.2020
6090 Clear -7 1018 85 10000 2.6 350 14:32 31.10.2020
6091 Clear -7 1018 79 10000 4.6 330 13:57 31.10.2020
6092 Clear -7 1018 79 10000 4.6 330 13:39 31.10.2020
6093 Clear -10 1018 85 10000 4.17 312 13:19 31.10.2020
6094 Clear -9 1018 85 10000 4.45 306 12:27 31.10.2020
6095 Clouds -9 1018 85 10000 3.1 340 11:42 31.10.2020
6096 Clouds -10 1018 85 10000 3.1 340 11:24 31.10.2020
6097 Clear -8 1017 79 10000 4.1 310 10:54 31.10.2020
6098 Clear -7 1017 79 10000 4.1 310 10:32 31.10.2020
6099 Clear -7 1017 79 10000 3.6 300 09:41 31.10.2020
6100 Clear -7 1017 79 10000 4.1 290 09:20 31.10.2020
6101 Clear -7 1017 79 10000 4.1 290 08:28 31.10.2020
6102 Clear -8 1016 84 10000 0.45 0 07:48 31.10.2020
6103 Clear -7 1016 79 10000 5.7 290 07:26 31.10.2020
6104 Clear -7 1016 79 10000 5.7 290 06:38 31.10.2020
6105 Clear -5 1015 68 10000 3.1 320 03:50 31.10.2020
6106 Clear -4 1015 58 10000 2.1 290 02:51 31.10.2020
6107 Clear -4 1015 68 10000 2.1 290 01:23 31.10.2020
6108 Clouds -3 1015 68 10000 4.1 340 00:46 31.10.2020
6109 Clouds -5 1015 79 10000 1.5 300 23:49 30.10.2020
6110 Clouds -5 1015 79 10000 1.5 300 23:23 30.10.2020
6111 Clouds -6 1015 85 10000 2.1 350 22:43 30.10.2020
6112 Clouds -7 1015 85 10000 2.1 350 22:24 30.10.2020
6113 Clouds -6 1014 85 10000 2.6 300 21:52 30.10.2020
6114 Clouds -6 1014 85 10000 2.6 300 21:29 30.10.2020
6115 Clouds -6 1015 92 10000 1.5 360 20:59 30.10.2020
6116 Clouds -6 1015 92 10000 1.5 360 20:37 30.10.2020
6117 Clouds -6 1015 92 10000 1.5 360 20:37 30.10.2020
6118 Clouds -7 1015 85 10000 1.5 20 20:19 30.10.2020
6119 Clouds -7 1015 85 10000 1.5 20 19:44 30.10.2020
6120 Clouds -7 1015 85 10000 1.5 20 19:18 30.10.2020
6121 Clouds -10 1015 85 10000 1.98 303 18:45 30.10.2020
6122 Clouds -10 1015 85 10000 2.02 307 18:27 30.10.2020
6123 Snow -8 1015 85 4828 1.5 30 17:48 30.10.2020
6124 Snow -8 1015 78 2816 2.23 309 17:22 30.10.2020
6125 Snow -8 1015 78 2816 2.23 309 17:22 30.10.2020
6126 Snow -8 1015 78 2816 2.23 309 16:57 30.10.2020
6127 Clouds -9 1016 85 10000 1.5 330 16:36 30.10.2020
6128 Clouds -9 1016 85 10000 1.5 330 16:36 30.10.2020
6129 Clouds -11 1016 85 10000 2.1 313 16:18 30.10.2020
6130 Clouds -11 1016 85 10000 2.1 313 15:40 30.10.2020
6131 Clouds -12 1016 85 10000 1.84 313 15:19 30.10.2020
6132 Clouds -12 1016 85 10000 1.84 313 14:44 30.10.2020
6133 Clouds -12 1016 85 10000 1.46 319 14:25 30.10.2020
6134 Clouds -13 1017 78 10000 1.5 350 13:45 30.10.2020
6135 Clear -4 1018 92 10000 1.32 329 13:21 30.10.2020
6136 Clear -4 1018 92 10000 1.32 329 13:21 30.10.2020
6137 Clear -4 1018 92 10000 1.32 329 12:49 30.10.2020
6138 Clear -14 1017 84 10000 1.71 339 12:22 30.10.2020
6139 Clear -14 1017 84 10000 1.71 339 11:56 30.10.2020
6140 Clear -14 1017 84 10000 1.84 340 11:23 30.10.2020
6141 Clear -13 1018 78 10000 1.84 340 10:52 30.10.2020
6142 Clear -13 1018 78 10000 1.93 342 10:26 30.10.2020
6143 Clear -13 1018 84 10000 1.93 342 09:59 30.10.2020
6144 Clear -13 1018 84 10000 1.93 342 09:41 30.10.2020
6145 Clear -12 1018 92 10000 1.5 360 09:19 30.10.2020
6146 Clear -12 1018 92 10000 1.5 360 08:33 30.10.2020
6147 Clear -11 1017 85 10000 1.88 351 07:58 30.10.2020
6148 Clear -11 1017 85 10000 1.88 351 07:40 30.10.2020
6149 Clear -11 1017 85 10000 1.82 344 07:21 30.10.2020
6150 Clear -9 1018 85 10000 2.1 20 06:20 30.10.2020
6151 Clear -5 1017 73 10000 1.59 332 04:23 30.10.2020
6152 Clear -2 1018 68 10000 1.66 338 01:28 30.10.2020
6153 Clouds -3 1018 73 10000 2.1 310 00:31 30.10.2020
6154 Clouds -4 1018 79 10000 2.6 300 23:46 29.10.2020
6155 Clouds -4 1018 79 10000 2.6 300 23:28 29.10.2020
6156 Clouds -5 1018 79 10000 3.1 340 22:48 29.10.2020
6157 Clouds -6 1018 79 10000 3.1 340 22:27 29.10.2020
6158 Clouds -7 1017 92 10000 3.6 300 21:51 29.10.2020
6159 Clouds -6 1017 92 10000 3.6 300 21:26 29.10.2020
6160 Clouds -6 1017 85 10000 2.92 6 20:59 29.10.2020
6161 Clouds -7 1017 85 10000 2.92 6 20:39 29.10.2020
6162 Clouds -7 1016 92 10000 1.5 0 20:18 29.10.2020
6163 Clouds -7 1016 92 10000 1.5 0 19:39 29.10.2020
6164 Clouds -7 1016 92 10000 1.5 0 19:20 29.10.2020
6165 Clouds -7 1016 92 10000 2.6 330 18:46 29.10.2020
6166 Clouds -7 1016 92 10000 2.6 330 18:26 29.10.2020
6167 Clouds -7 1017 92 10000 2.1 340 17:43 29.10.2020
6168 Clouds -4 1017 85 10000 1.5 360 17:24 29.10.2020
6169 Clouds -5 1017 85 10000 1.5 360 16:55 29.10.2020
6170 Clouds -5 1017 85 10000 1.5 360 16:37 29.10.2020
6171 Clouds -4 1017 79 10000 3.1 360 16:18 29.10.2020
6172 Clouds -5 1017 92 10000 2.1 350 15:41 29.10.2020
6173 Clouds -5 1017 92 10000 2.1 350 15:22 29.10.2020
6174 Clouds -5 1018 92 10000 3.1 350 14:59 29.10.2020
6175 Clouds -5 1018 92 10000 3.1 350 14:40 29.10.2020
6176 Clouds -4 1018 92 10000 2.1 30 14:19 29.10.2020
6177 Snow -4 1018 92 8047 2.6 40 13:45 29.10.2020
6178 Mist -4 1018 92 8047 2.6 40 13:24 29.10.2020
6179 Snow -4 1019 92 805 1.5 30 12:43 29.10.2020
6180 Snow -4 1019 92 1207 2.1 360 12:19 29.10.2020
6181 Snow -4 1019 92 805 2.6 360 11:48 29.10.2020
6182 Snow -4 1019 92 805 2.6 360 11:26 29.10.2020
6183 Snow -3 1019 92 4828 3.1 10 10:57 29.10.2020
6184 Snow -3 1020 86 3219 2.6 360 10:36 29.10.2020
6185 Snow -3 1020 73 2816 3.1 350 10:18 29.10.2020
6186 Clouds -3 1020 73 10000 2.6 60 09:42 29.10.2020
6187 Clear -4 1020 79 10000 1.5 0 09:19 29.10.2020
6188 Clear -4 1020 79 10000 1.5 0 08:40 29.10.2020
6189 Clouds -5 1021 85 10000 1.5 30 08:19 29.10.2020
6190 Clouds -5 1021 85 10000 1.5 30 07:48 29.10.2020
6191 Clear -4 1021 73 10000 3.1 80 06:58 29.10.2020
6192 Clear -4 1021 73 10000 3.1 80 06:22 29.10.2020
6193 Clear -2 1021 68 10000 0.52 32 04:46 29.10.2020
6194 Clouds -1 1021 79 10000 1.34 329 02:18 29.10.2020
6195 Clouds -1 1022 77 10000 1.34 359 00:31 29.10.2020
6196 Clear -2 1022 81 10000 1.34 359 23:59 28.10.2020
6197 Clear -3 1022 83 10000 1.34 341 23:22 28.10.2020
6198 Clear -3 1022 87 10000 1.34 341 22:56 28.10.2020
6199 Clear -3 1022 85 10000 1.34 3 22:37 28.10.2020
6200 Clear -5 1023 79 10000 2.27 1 22:19 28.10.2020
6201 Clear -6 1023 79 10000 2.27 1 21:43 28.10.2020
6202 Clear -5 1023 79 10000 2.55 5 21:25 28.10.2020
6203 Clear -8 1022 78 10000 2.55 5 20:43 28.10.2020
6204 Clear -8 1022 85 10000 2.66 7 20:23 28.10.2020
6205 Clear -8 1022 85 10000 2.66 7 19:53 28.10.2020
6206 Clear -8 1022 85 10000 2.66 7 19:30 28.10.2020
6207 Clear -7 1022 85 10000 2.83 9 18:51 28.10.2020
6208 Clear -5 1022 73 10000 3.02 6 18:22 28.10.2020
6209 Clear -5 1022 73 10000 3.02 6 17:58 28.10.2020
6210 Clear -5 1022 73 10000 3.02 6 17:39 28.10.2020
6211 Clear -5 1022 73 10000 3.1 360 17:18 28.10.2020
6212 Clear -5 1022 73 10000 3.1 360 16:44 28.10.2020
6213 Clouds -2 1022 92 10000 2.78 8 16:25 28.10.2020
6214 Clouds -2 1022 92 10000 2.78 8 15:41 28.10.2020
6215 Clouds -2 1022 92 10000 2.78 8 15:41 28.10.2020
6216 Clouds -2 1022 93 10000 2.76 5 15:19 28.10.2020
6217 Clouds -2 1022 93 10000 2.76 5 14:44 28.10.2020
6218 Clouds -3 1021 73 10000 2.1 330 14:26 28.10.2020
6219 Clouds -5 1020 89 10000 0.45 273 12:55 28.10.2020
6220 Clouds -5 1021 87 10000 0.45 290 12:36 28.10.2020
6221 Clouds -5 1020 88 10000 3.04 10 12:18 28.10.2020
6222 Clouds -3 1020 83 10000 3.04 10 11:41 28.10.2020
6223 Clouds -2 1020 83 10000 0.89 24 11:20 28.10.2020
6224 Clouds -2 1020 84 10000 0.45 357 10:53 28.10.2020
6225 Snow -1 1020 95 8047 3.1 40 10:33 28.10.2020
6226 Snow -1 1020 95 8047 3.1 40 09:46 28.10.2020
6227 Snow -1 1020 96 8047 3.1 40 09:25 28.10.2020
6228 Snow -1 1020 92 4828 2.76 22 08:56 28.10.2020
6229 Snow -1 1020 92 4828 2.76 22 08:37 28.10.2020
6230 Snow -1 1020 97 4828 2.47 24 08:18 28.10.2020
6231 Snow 0 1020 97 4828 2.47 24 07:41 28.10.2020
6232 Snow 0 1019 98 9656 1.5 360 07:19 28.10.2020
6233 Snow 0 1019 98 9656 1.5 360 06:39 28.10.2020
6234 Clouds 0 1019 98 10000 1.5 300 05:48 28.10.2020
6235 Snow 0 1019 86 4828 2.6 260 04:52 28.10.2020
6236 Snow 0 1019 86 4828 2.6 260 04:23 28.10.2020
6237 Clouds 1 1018 86 10000 2.1 290 02:25 28.10.2020
6238 Clouds 1 1018 86 10000 2.1 290 00:39 28.10.2020
6239 Clouds 0 1018 96 10000 1.5 290 23:51 27.10.2020
6240 Clouds 0 1018 95 10000 1.5 290 23:22 27.10.2020
6241 Clouds 0 1018 95 10000 1.07 317 22:52 27.10.2020
6242 Clouds -1 1018 94 10000 1.37 310 22:25 27.10.2020
6243 Clouds -1 1018 86 10000 1.37 310 21:58 27.10.2020
6244 Clouds -1 1018 86 10000 1.37 310 21:39 27.10.2020
6245 Clouds -2 1018 86 10000 1.5 360 21:20 27.10.2020
6246 Clouds -2 1018 86 10000 1.5 360 20:54 27.10.2020
6247 Clouds -2 1018 80 10000 1.36 306 20:36 27.10.2020
6248 Clouds -2 1017 86 10000 1.49 310 20:18 27.10.2020
6249 Clouds -2 1017 86 10000 1.49 310 19:39 27.10.2020
6250 Clouds -2 1017 86 10000 1.7 315 19:20 27.10.2020
6251 Clouds -2 1017 80 10000 2.05 316 18:57 27.10.2020
6252 Clouds -2 1017 80 10000 2.05 316 18:39 27.10.2020
6253 Clouds -2 1017 80 10000 2.18 315 18:18 27.10.2020
6254 Clouds -2 1017 80 10000 2.18 315 17:42 27.10.2020
6255 Clouds -3 1017 79 10000 2.1 30 17:21 27.10.2020
6256 Clouds -3 1017 79 10000 2.1 30 17:21 27.10.2020
6257 Clouds -3 1017 79 10000 2.1 30 17:21 27.10.2020
6258 Clouds -3 1017 79 10000 2.1 30 16:48 27.10.2020
6259 Clouds -3 1017 79 10000 2.1 30 16:25 27.10.2020
6260 Clouds -2 1016 97 10000 1.5 50 15:48 27.10.2020
6261 Clouds -2 1016 97 10000 1.5 50 15:30 27.10.2020
6262 Clouds -2 1016 79 10000 2.49 311 14:55 27.10.2020
6263 Clouds -2 1016 79 10000 2.49 311 14:37 27.10.2020
6264 Clouds -3 1016 86 10000 2.42 311 14:19 27.10.2020
6265 Clouds -3 1016 86 10000 2.42 311 13:33 27.10.2020
6266 Clouds -3 1016 79 10000 2.1 330 12:58 27.10.2020
6267 Clouds -3 1016 79 10000 2.1 330 12:38 27.10.2020
6268 Clouds -4 1016 85 10000 1.5 60 12:20 27.10.2020
6269 Clouds -4 1016 85 10000 1.5 60 11:42 27.10.2020
6270 Clear -4 1015 79 10000 1.95 318 11:22 27.10.2020
6271 Clear -4 1015 79 10000 1.95 318 10:47 27.10.2020
6272 Clear -4 1015 79 10000 1.67 315 10:25 27.10.2020
6273 Clear -3 1015 79 10000 1.67 315 09:46 27.10.2020
6274 Clear -3 1015 79 10000 1.32 315 09:25 27.10.2020
6275 Clear -2 1014 74 10000 1.5 20 08:39 27.10.2020
6276 Clouds -2 1014 74 10000 3.1 320 08:19 27.10.2020
6277 Clouds -2 1014 74 10000 3.1 320 07:45 27.10.2020
6278 Clouds -2 1014 74 10000 3.1 320 07:25 27.10.2020
6279 Clouds -3 1012 74 10000 2.6 360 06:22 27.10.2020
6280 Clouds -3 1012 74 10000 2.6 360 05:52 27.10.2020
6281 Clouds -3 1012 74 10000 2.6 360 05:34 27.10.2020
6282 Clouds -1 1012 94 10000 4.1 330 04:44 27.10.2020
6283 Clouds 2 1011 64 10000 5.1 340 02:33 27.10.2020
6284 Clear 3 1009 64 10000 4.1 350 00:57 27.10.2020
6285 Clouds 3 1008 59 10000 3.1 330 23:44 26.10.2020
6286 Clouds 3 1008 69 10000 3.6 330 23:22 26.10.2020
6287 Clouds 2 1008 69 10000 3.6 330 22:47 26.10.2020
6288 Clouds 2 1008 69 10000 3.6 330 22:26 26.10.2020
6289 Clouds 1 1007 74 10000 2.6 340 21:49 26.10.2020
6290 Clouds 1 1006 69 10000 2.1 280 21:21 26.10.2020
6291 Clouds 1 1006 69 10000 2.1 280 20:58 26.10.2020
6292 Clouds 1 1006 69 10000 2.1 280 20:39 26.10.2020
6293 Clouds 1 1006 74 10000 2.6 360 20:19 26.10.2020
6294 Clouds 1 1006 74 10000 2.6 360 19:47 26.10.2020
6295 Clouds 1 1006 74 10000 2.6 360 19:23 26.10.2020
6296 Clouds 1 1005 74 10000 4.1 30 18:44 26.10.2020
6297 Clouds 1 1005 74 10000 4.1 30 18:24 26.10.2020
6298 Clouds 1 1005 80 10000 2.49 322 17:59 26.10.2020
6299 Clouds 1 1005 80 10000 2.49 322 17:38 26.10.2020
6300 Clouds 1 1004 74 10000 2.1 350 17:19 26.10.2020
6301 Clouds 1 1004 74 10000 2.1 350 16:40 26.10.2020
6302 Clouds 1 1004 80 10000 1.5 350 16:21 26.10.2020
6303 Clouds 0 1004 80 10000 1.5 350 15:42 26.10.2020
6304 Clouds 1 1004 80 10000 1.5 350 15:22 26.10.2020
6305 Clouds 0 1004 95 10000 3.1 340 14:52 26.10.2020
6306 Clouds 0 1004 95 10000 3.1 340 14:31 26.10.2020
6307 Clouds -1 1004 95 10000 3.1 330 13:44 26.10.2020
6308 Clouds -1 1004 96 10000 3.1 330 13:24 26.10.2020
6309 Clouds 0 1004 80 10000 2.6 290 12:52 26.10.2020
6310 Clouds 1 1004 80 10000 2.6 290 12:30 26.10.2020
6311 Clouds 1 1004 80 10000 3.12 357 11:57 26.10.2020
6312 Clouds 1 1004 80 10000 3.12 357 11:39 26.10.2020
6313 Clouds 1 1004 86 10000 3.6 340 11:21 26.10.2020
6314 Clouds 1 1004 86 10000 3.6 340 10:48 26.10.2020
6315 Clouds 1 1004 86 10000 3.6 340 10:26 26.10.2020
6316 Clouds 1 1005 80 10000 2.6 300 09:51 26.10.2020
6317 Clouds 1 1005 80 10000 2.6 300 09:28 26.10.2020
6318 Clouds 1 1005 93 10000 2.6 340 08:50 26.10.2020
6319 Clouds 1 1005 92 10000 2.6 340 08:22 26.10.2020
6320 Rain 1 1006 92 10000 2.1 350 07:38 26.10.2020
6321 Rain 1 1006 93 10000 3.5 14 07:20 26.10.2020
6322 Clouds 2 1006 74 10000 3.1 50 05:31 26.10.2020
6323 Clouds 3 1008 80 10000 3.1 60 04:19 26.10.2020
6324 Clouds 3 1009 80 10000 1.5 70 03:20 26.10.2020
6325 Clouds 3 1009 80 10000 1.5 70 03:20 26.10.2020
6326 Clouds 3 1009 80 10000 1.5 70 03:20 26.10.2020
6327 Clouds 4 1010 80 10000 3.1 30 01:34 26.10.2020
6328 Clouds 4 1011 80 10000 2.6 30 00:35 26.10.2020
6329 Clouds 4 1011 80 10000 3.1 60 23:46 25.10.2020
6330 Clouds 4 1011 80 10000 3.1 60 23:25 25.10.2020
6331 Clouds 3 1012 86 10000 3.1 40 22:45 25.10.2020
6332 Clouds 3 1012 86 10000 3.1 40 22:27 25.10.2020
6333 Clouds 3 1012 86 10000 2.1 30 21:51 25.10.2020
6334 Clouds 3 1012 86 10000 2.1 30 21:31 25.10.2020
6335 Clouds 3 1012 86 10000 2.1 30 20:59 25.10.2020
6336 Clouds 3 1012 86 10000 2.1 30 20:41 25.10.2020
6337 Clouds 3 1012 86 10000 2.1 30 20:23 25.10.2020
6338 Clouds 2 1012 86 10000 3.1 40 19:55 25.10.2020
6339 Clouds 3 1012 86 10000 3.1 40 19:37 25.10.2020
6340 Clouds 3 1012 86 10000 2.6 30 19:18 25.10.2020
6341 Clouds 3 1012 86 10000 2.6 30 18:41 25.10.2020
6342 Clouds 3 1012 86 10000 2.6 30 18:41 25.10.2020
6343 Clouds 3 1012 86 10000 2.6 20 18:22 25.10.2020
6344 Clouds 3 1012 86 10000 2.6 20 17:55 25.10.2020
6345 Clouds 3 1012 86 10000 2.6 20 17:36 25.10.2020
6346 Clouds 3 1012 86 10000 2.6 20 17:18 25.10.2020
6347 Clouds 3 1013 92 10000 2.6 20 16:43 25.10.2020
6348 Clouds 3 1013 93 10000 2.6 20 16:23 25.10.2020
6349 Rain 3 1013 93 10000 2.1 50 15:47 25.10.2020
6350 Rain 3 1013 94 10000 2.1 50 15:26 25.10.2020
6351 Rain 3 1013 94 10000 1.5 60 14:52 25.10.2020
6352 Clouds 3 1013 94 10000 2.1 40 14:29 25.10.2020
6353 Clouds 3 1013 94 10000 2.1 20 13:44 25.10.2020
6354 Clouds 3 1013 93 10000 2.1 20 13:24 25.10.2020
6355 Clouds 3 1013 93 10000 2.1 20 12:50 25.10.2020
6356 Clouds 3 1013 92 10000 2.1 20 12:28 25.10.2020
6357 Clouds 2 1013 92 10000 2.6 40 11:59 25.10.2020
6358 Clouds 3 1013 92 10000 2.6 40 11:41 25.10.2020
6359 Clouds 2 1013 91 10000 3.6 30 11:19 25.10.2020
6360 Clouds 2 1013 91 10000 3.1 50 10:46 25.10.2020
6361 Clouds 3 1013 91 10000 3.1 50 10:25 25.10.2020
6362 Clouds 3 1013 91 10000 3.1 50 09:51 25.10.2020
6363 Clouds 3 1013 91 10000 3.1 30 09:22 25.10.2020
6364 Clouds 3 1013 86 10000 2.6 40 08:59 25.10.2020
6365 Clouds 3 1013 86 10000 2.6 40 08:40 25.10.2020
6366 Clouds 3 1013 86 10000 2.6 40 08:22 25.10.2020
6367 Clouds 3 1013 86 10000 3.1 20 07:43 25.10.2020
6368 Clouds 3 1013 86 10000 2.6 60 06:53 25.10.2020
6369 Clouds 3 1013 86 10000 2.6 60 06:27 25.10.2020
6370 Clouds 3 1012 86 10000 3.1 60 05:20 25.10.2020
6371 Clouds 3 1012 86 10000 3.1 60 04:50 25.10.2020
6372 Clouds 3 1012 86 10000 4.1 60 02:30 25.10.2020
6373 Clouds 3 1013 96 10000 6.2 30 00:54 25.10.2020
6374 Clouds 3 1013 96 10000 6.2 30 00:28 25.10.2020
6375 Clouds 2 1013 96 10000 5.1 40 23:55 24.10.2020
6376 Clouds 2 1013 96 10000 5.1 40 23:35 24.10.2020
6377 Rain 2 1013 95 10000 4.6 40 22:59 24.10.2020
6378 Rain 2 1013 95 10000 4.6 40 22:40 24.10.2020
6379 Rain 2 1013 96 10000 4.6 40 22:21 24.10.2020
6380 Rain 2 1013 96 10000 5.1 50 21:54 24.10.2020
6381 Clouds 2 1013 96 10000 4.6 60 21:36 24.10.2020
6382 Clouds 2 1013 95 10000 4.1 60 21:18 24.10.2020
6383 Clouds 3 1013 95 10000 4.1 60 20:42 24.10.2020
6384 Clouds 3 1013 90 10000 4.1 60 20:20 24.10.2020
6385 Clouds 3 1013 91 10000 4.6 50 19:41 24.10.2020
6386 Clouds 2 1013 91 10000 5.1 70 19:23 24.10.2020
6387 Clouds 2 1013 91 10000 5.1 70 18:51 24.10.2020
6388 Clouds 2 1013 91 10000 5.1 70 18:31 24.10.2020
6389 Clouds 2 1013 92 10000 5.7 70 17:46 24.10.2020
6390 Clouds 2 1013 91 10000 5.7 70 17:26 24.10.2020
6391 Clouds 2 1014 91 10000 5.1 70 16:53 24.10.2020
6392 Clouds 2 1014 91 10000 5.1 70 16:35 24.10.2020
6393 Clouds 2 1014 91 10000 5.1 70 15:58 24.10.2020
6394 Clouds 2 1014 91 10000 5.1 70 15:38 24.10.2020
6395 Clouds 2 1014 91 10000 5.1 70 15:18 24.10.2020
6396 Clouds 2 1014 91 10000 5.1 70 14:39 24.10.2020
6397 Clouds 2 1015 92 10000 5.7 70 14:21 24.10.2020
6398 Clouds 2 1015 92 10000 5.7 70 13:44 24.10.2020
6399 Clouds 2 1015 93 10000 5.1 70 13:20 24.10.2020
6400 Clouds 2 1015 93 10000 5.1 70 12:37 24.10.2020
6401 Clouds 2 1015 94 10000 4.6 80 12:19 24.10.2020
6402 Clouds 2 1015 92 10000 4.6 80 11:50 24.10.2020
6403 Clouds 2 1015 95 10000 5.7 70 11:23 24.10.2020
6404 Clouds 2 1015 95 10000 5.1 70 10:47 24.10.2020
6405 Clouds 2 1015 95 10000 5.1 70 10:27 24.10.2020
6406 Clouds 1 1015 95 10000 5.7 70 09:46 24.10.2020
6407 Clouds 1 1015 94 10000 5.7 70 09:26 24.10.2020
6408 Clouds 1 1015 80 10000 5.1 70 08:57 24.10.2020
6409 Clouds 1 1015 80 10000 5.1 70 08:19 24.10.2020
6410 Clouds 1 1015 80 10000 5.1 70 07:51 24.10.2020
6411 Clouds 1 1015 86 10000 6.2 80 07:21 24.10.2020
6412 Clouds 1 1015 86 10000 5.1 80 06:50 24.10.2020
6413 Clouds 1 1015 86 10000 5.1 70 05:46 24.10.2020
6414 Rain 0 1016 86 2816 5.1 70 02:26 24.10.2020
6415 Mist 0 1017 86 1609 5.7 90 00:57 24.10.2020
6416 Rain 0 1017 86 1609 5.7 90 00:37 24.10.2020
6417 Rain 0 1017 86 1609 5.7 90 00:37 24.10.2020
6418 Rain 0 1017 86 1609 6.2 90 00:19 24.10.2020
6419 Rain 0 1017 86 1207 7.2 90 23:43 23.10.2020
6420 Rain 0 1017 86 1207 7.2 90 23:22 23.10.2020
6421 Snow 0 1017 92 1609 6.2 80 22:42 23.10.2020
6422 Snow -1 1017 92 1609 6.2 80 22:22 23.10.2020
6423 Mist -1 1017 86 1207 6.7 70 21:58 23.10.2020
6424 Snow -1 1017 86 805 6.7 70 21:39 23.10.2020
6425 Snow -1 1017 86 805 6.7 70 21:20 23.10.2020
6426 Snow -1 1018 86 2012 7.2 70 20:39 23.10.2020
6427 Snow -1 1018 86 2012 7.2 70 20:20 23.10.2020
6428 Snow 0 1018 59 6437 6.7 90 19:45 23.10.2020
6429 Snow 0 1018 59 6437 6.7 90 19:26 23.10.2020
6430 Clear 1 1018 50 10000 6.2 80 18:48 23.10.2020
6431 Clear 1 1018 50 10000 6.2 80 18:30 23.10.2020
6432 Clear 0 1019 43 10000 5.1 80 17:47 23.10.2020
6433 Clear 0 1019 43 10000 5.1 80 17:22 23.10.2020
6434 Clear 0 1019 40 10000 5.1 70 16:56 23.10.2020
6435 Clear 0 1019 40 10000 5.1 70 16:56 23.10.2020
6436 Clear 0 1019 40 10000 5.1 70 16:35 23.10.2020
6437 Clear 0 1019 34 10000 4.1 80 15:58 23.10.2020
6438 Clear 1 1019 34 10000 4.1 80 15:40 23.10.2020
6439 Clear 1 1020 37 10000 5.1 70 15:20 23.10.2020
6440 Clear 1 1020 37 10000 5.1 70 14:49 23.10.2020
6441 Clear 1 1020 37 10000 5.1 70 14:30 23.10.2020
6442 Clear 2 1020 37 10000 6.7 70 13:43 23.10.2020
6443 Clear 2 1020 37 10000 6.7 70 13:24 23.10.2020
6444 Clear 2 1021 43 10000 6.2 70 12:51 23.10.2020
6445 Clear 2 1021 43 10000 6.2 70 12:31 23.10.2020
6446 Clear 1 1022 43 10000 6.2 70 11:56 23.10.2020
6447 Clear 0 1022 43 10000 6.2 70 11:38 23.10.2020
6448 Clear 0 1022 43 10000 6.2 70 11:19 23.10.2020
6449 Clear 1 1022 47 10000 7.2 80 10:39 23.10.2020
6450 Clear 2 1023 44 10000 6.2 70 10:20 23.10.2020
6451 Clear 1 1023 44 10000 6.2 70 09:43 23.10.2020
6452 Clear 1 1023 44 10000 6.2 70 09:23 23.10.2020
6453 Clear 1 1022 51 10000 5.1 40 08:51 23.10.2020
6454 Clear 1 1022 51 10000 5.1 40 08:26 23.10.2020
6455 Clear 1 1022 59 10000 5.7 40 07:27 23.10.2020
6456 Clear 2 1023 51 10000 4.6 30 06:52 23.10.2020
6457 Clear 3 1024 55 10000 4.1 50 06:20 23.10.2020
6458 Clear 4 1025 56 10000 6.2 50 04:42 23.10.2020
6459 Clear 6 1026 60 10000 4.1 50 02:28 23.10.2020
6460 Clear 5 1027 69 10000 4.1 60 00:54 23.10.2020
6461 Clear 5 1027 69 10000 4.1 60 00:32 23.10.2020
6462 Clear 4 1028 64 10000 5.7 40 23:39 22.10.2020
6463 Clear 4 1029 69 10000 4.1 20 23:19 22.10.2020
6464 Clear 3 1029 69 10000 4.1 20 22:46 22.10.2020
6465 Clear 3 1029 69 10000 4.1 20 22:26 22.10.2020
6466 Clear 3 1030 80 10000 2.1 20 21:58 22.10.2020
6467 Clear 2 1030 80 10000 2.1 20 21:38 22.10.2020
6468 Clear 2 1030 80 10000 3.6 30 21:18 22.10.2020
6469 Clear 1 1030 80 10000 3.6 30 20:43 22.10.2020
6470 Clear 0 1030 80 10000 3.6 30 20:24 22.10.2020
6471 Clear 0 1030 74 10000 4.1 40 19:43 22.10.2020
6472 Clear 1 1030 74 10000 4.6 40 19:21 22.10.2020
6473 Clear 1 1030 74 10000 4.6 40 18:57 22.10.2020
6474 Clear 1 1030 74 10000 4.6 40 18:36 22.10.2020
6475 Clear 1 1031 80 10000 3.6 40 18:18 22.10.2020
6476 Clear 1 1031 80 10000 3.6 40 17:42 22.10.2020
6477 Clear 2 1031 74 10000 4.6 40 17:20 22.10.2020
6478 Clear 2 1031 74 10000 4.6 40 16:44 22.10.2020
6479 Clear 2 1032 80 10000 4.1 40 16:24 22.10.2020
6480 Clear 2 1032 80 10000 4.1 40 15:49 22.10.2020
6481 Clear 2 1032 80 10000 4.1 40 15:27 22.10.2020
6482 Clear 1 1033 86 10000 3.1 10 14:50 22.10.2020
6483 Clear 0 1033 86 10000 3.1 10 14:29 22.10.2020
6484 Clear 2 1033 80 10000 3.6 10 13:58 22.10.2020
6485 Clear 1 1033 80 10000 3.6 10 13:39 22.10.2020
6486 Clear 0 1034 86 10000 3.1 10 13:20 22.10.2020
6487 Clear 0 1034 86 10000 3.1 10 12:29 22.10.2020
6488 Clear 1 1035 80 10000 4.6 40 11:58 22.10.2020
6489 Clear 1 1035 80 10000 4.6 40 11:38 22.10.2020
6490 Clear 1 1035 86 10000 2.6 20 11:18 22.10.2020
6491 Clear 1 1035 86 10000 2.6 20 10:46 22.10.2020
6492 Clear 1 1035 86 10000 2.6 20 10:24 22.10.2020
6493 Clouds 1 1036 86 10000 2.1 40 09:42 22.10.2020
6494 Clouds 2 1036 80 10000 1.5 80 09:18 22.10.2020
6495 Clouds 1 1035 88 10000 3.1 50 08:39 22.10.2020
6496 Clouds 2 1036 86 10000 3.6 40 08:19 22.10.2020
6497 Clouds 2 1036 86 10000 3.6 40 07:43 22.10.2020
6498 Clouds 3 1036 86 10000 2.6 70 07:00 22.10.2020
6499 Clouds 3 1036 86 10000 2.6 70 06:37 22.10.2020
6500 Clouds 3 1036 86 10000 2.6 80 06:18 22.10.2020
6501 Clouds 4 1036 86 10000 2.6 80 05:37 22.10.2020
6502 Clouds 4 1038 86 10000 3.1 140 02:55 22.10.2020
6503 Clouds 5 1038 86 10000 2.1 140 00:50 22.10.2020
6504 Clouds 5 1038 86 10000 2.1 110 00:18 22.10.2020
6505 Clouds 5 1038 86 10000 2.1 110 23:38 21.10.2020
6506 Clouds 4 1038 93 10000 1.5 100 22:58 21.10.2020
6507 Clouds 4 1038 93 10000 1.5 100 22:37 21.10.2020
6508 Clouds 4 1038 93 10000 1.5 70 22:19 21.10.2020
6509 Clouds 4 1038 93 10000 1.5 70 21:45 21.10.2020
6510 Clouds 4 1038 93 10000 1.76 183 21:19 21.10.2020
6511 Clouds 3 1038 93 10000 1.76 183 20:55 21.10.2020
6512 Clouds 3 1038 93 10000 1.76 183 20:36 21.10.2020
6513 Clouds 4 1039 86 10000 2.3 186 20:18 21.10.2020
6514 Clouds 4 1038 86 10000 2.1 150 19:40 21.10.2020
6515 Clouds 4 1038 86 10000 2.6 190 19:22 21.10.2020
6516 Clouds 5 1038 86 10000 2.6 190 18:48 21.10.2020
6517 Clouds 5 1038 86 10000 2.6 190 18:26 21.10.2020
6518 Clouds 4 1038 86 10000 3.6 190 17:48 21.10.2020
6519 Clouds 4 1038 86 10000 4.1 180 17:21 21.10.2020
6520 Clouds 5 1038 86 10000 4.1 180 16:57 21.10.2020
6521 Clouds 5 1038 86 10000 4.1 180 16:36 21.10.2020
6522 Clouds 5 1038 86 10000 4.1 180 16:18 21.10.2020
6523 Clouds 5 1038 87 10000 3.6 180 15:44 21.10.2020
6524 Clouds 5 1038 87 10000 3.6 180 15:21 21.10.2020
6525 Clouds 5 1038 87 10000 4.1 180 14:48 21.10.2020
6526 Clouds 5 1038 87 10000 4.1 180 14:28 21.10.2020
6527 Clouds 5 1038 93 10000 3.1 180 13:47 21.10.2020
6528 Clouds 5 1038 93 10000 4.1 180 13:27 21.10.2020
6529 Clouds 5 1038 87 10000 3.1 190 12:57 21.10.2020
6530 Clouds 5 1038 87 10000 3.1 190 12:37 21.10.2020
6531 Clouds 5 1038 87 10000 3.1 190 12:19 21.10.2020
6532 Clouds 5 1037 87 10000 4.1 180 11:41 21.10.2020
6533 Clouds 5 1037 87 10000 3.1 180 11:20 21.10.2020
6534 Clouds 5 1037 81 10000 3.6 170 10:46 21.10.2020
6535 Clouds 4 1037 81 10000 3.6 190 10:25 21.10.2020
6536 Clouds 4 1037 81 10000 4.1 180 09:54 21.10.2020
6537 Clouds 4 1037 81 10000 4.1 170 09:33 21.10.2020
6538 Clouds 3 1037 86 10000 3.1 170 08:56 21.10.2020
6539 Clouds 3 1037 86 10000 3.1 170 08:38 21.10.2020
6540 Clouds 3 1037 86 10000 3.1 170 08:19 21.10.2020
6541 Clouds 3 1036 86 10000 2.6 160 07:37 21.10.2020
6542 Clouds 3 1036 86 10000 2.1 170 06:55 21.10.2020
6543 Clouds 3 1036 86 10000 2.1 170 06:30 21.10.2020
6544 Clouds 4 1036 80 10000 3.6 210 04:47 21.10.2020
6545 Clouds 2 1035 93 10000 2.1 110 00:57 21.10.2020
6546 Clouds 2 1035 80 10000 2.6 100 23:51 20.10.2020
6547 Clouds 2 1035 82 10000 2.6 100 23:20 20.10.2020
6548 Clouds 1 1034 86 10000 3.1 90 22:29 20.10.2020
6549 Clouds 1 1034 86 10000 2.89 218 21:51 20.10.2020
6550 Clouds 1 1034 86 10000 2.45 225 21:21 20.10.2020
6551 Clouds 1 1033 80 10000 2.45 225 20:59 20.10.2020
6552 Clouds 1 1033 80 10000 2.45 225 20:41 20.10.2020
6553 Clouds 1 1033 80 10000 2.26 234 20:22 20.10.2020
6554 Snow 0 1033 84 10000 1.5 40 19:44 20.10.2020
6555 Snow 0 1033 85 10000 1.5 40 19:22 20.10.2020
6556 Clouds -1 1032 86 10000 1.78 245 18:55 20.10.2020
6557 Clouds -1 1032 86 10000 1.78 245 18:36 20.10.2020
6558 Clouds -1 1032 86 10000 1.78 245 18:36 20.10.2020
6559 Clouds -1 1032 92 10000 1.69 262 17:50 20.10.2020
6560 Clouds -1 1032 92 10000 1.69 262 17:32 20.10.2020
6561 Clouds 0 1031 85 10000 1.83 274 16:49 20.10.2020
6562 Clouds 1 1031 80 10000 1.83 274 16:31 20.10.2020
6563 Clouds 0 1031 86 10000 1.5 120 15:59 20.10.2020
6564 Clouds 0 1031 86 10000 1.5 120 15:59 20.10.2020
6565 Clouds -1 1031 92 10000 1.66 279 15:41 20.10.2020
6566 Clouds -1 1031 92 10000 1.81 282 15:22 20.10.2020
6567 Clouds -2 1030 92 10000 2.1 10 14:44 20.10.2020
6568 Clouds -2 1030 92 10000 2.1 10 14:24 20.10.2020
6569 Clear -2 1030 92 10000 1.5 320 13:56 20.10.2020
6570 Clear -2 1030 92 10000 1.5 320 13:37 20.10.2020
6571 Clear -2 1030 92 10000 1.5 320 13:19 20.10.2020
6572 Clear 0 1029 86 10000 3.1 310 12:40 20.10.2020
6573 Clear -1 1029 87 10000 3.1 310 12:22 20.10.2020
6574 Clear -1 1028 87 10000 3.1 300 11:45 20.10.2020
6575 Clear -1 1028 87 10000 3.1 300 11:27 20.10.2020
6576 Clouds 0 1028 86 10000 4.1 280 10:40 20.10.2020
6577 Clouds 0 1028 86 10000 4.1 280 10:40 20.10.2020
6578 Clouds 0 1028 86 10000 4.1 280 10:21 20.10.2020
6579 Clouds 1 1027 87 10000 4.6 290 09:44 20.10.2020
6580 Clouds 1 1027 86 10000 4.6 290 09:19 20.10.2020
6581 Clouds 1 1026 86 10000 4.1 290 08:39 20.10.2020
6582 Clouds 1 1026 87 10000 3.1 290 07:54 20.10.2020
6583 Mist 2 1026 100 4828 2.1 280 07:26 20.10.2020
6584 Clouds 3 1025 93 10000 1.13 292 06:55 20.10.2020
6585 Clouds 3 1025 93 10000 0.9 304 06:18 20.10.2020
6586 Clouds 4 1023 93 10000 2.1 190 03:59 20.10.2020
6587 Rain 4 1022 93 9656 2.1 210 02:30 20.10.2020
6588 Clouds 3 1022 93 10000 1.62 137 01:22 20.10.2020
6589 Clouds 3 1021 93 10000 2.6 130 00:50 20.10.2020
6590 Clouds 3 1021 93 10000 2.6 130 00:24 20.10.2020
6591 Clouds 3 1021 86 10000 2.6 130 23:49 19.10.2020
6592 Mist 3 1020 93 9656 2.1 100 23:24 19.10.2020
6593 Mist 3 1020 93 1609 1.5 120 22:51 19.10.2020
6594 Mist 3 1020 93 3219 2.6 110 22:26 19.10.2020
6595 Fog 3 1019 93 805 3.1 110 21:50 19.10.2020
6596 Mist 3 1019 93 2414 2.6 90 21:23 19.10.2020
6597 Clouds 3 1018 93 10000 2.1 100 20:59 19.10.2020
6598 Clouds 3 1018 93 10000 2.6 120 20:39 19.10.2020
6599 Clouds 3 1018 93 10000 2.6 120 20:18 19.10.2020
6600 Mist 3 1017 100 4828 2.6 130 19:42 19.10.2020
6601 Mist 3 1017 100 4828 2.6 130 19:19 19.10.2020
6602 Rain 3 1017 86 8047 3.6 110 18:49 19.10.2020
6603 Clouds 3 1016 93 10000 2.6 130 18:20 19.10.2020
6604 Clouds 3 1016 93 10000 2.6 170 17:47 19.10.2020
6605 Clouds 3 1016 93 10000 2.6 170 17:26 19.10.2020
6606 Rain 3 1015 93 10000 4.1 100 16:53 19.10.2020
6607 Rain 3 1015 93 10000 4.1 100 16:29 19.10.2020
6608 Rain 3 1014 96 10000 1.8 133 15:47 19.10.2020
6609 Rain 3 1014 97 10000 0.45 136 15:26 19.10.2020
6610 Rain 2 1014 96 10000 2.47 102 14:57 19.10.2020
6611 Rain 3 1013 97 10000 0.45 109 14:28 19.10.2020
6612 Rain 3 1013 97 1872 0.45 134 13:59 19.10.2020
6613 Rain 3 1013 97 10000 0.45 116 13:41 19.10.2020
6614 Rain 3 1013 97 7774 0.45 127 13:22 19.10.2020
6615 Rain 3 1013 97 7774 0.89 130 12:43 19.10.2020
6616 Rain 3 1013 97 683 1.79 128 12:25 19.10.2020
6617 Rain 4 1013 93 10000 5.1 110 11:42 19.10.2020
6618 Rain 4 1013 93 10000 5.1 110 11:21 19.10.2020
6619 Clouds 4 1013 93 10000 6.2 120 10:44 19.10.2020
6620 Clouds 4 1012 93 10000 6.2 130 10:23 19.10.2020
6621 Clouds 4 1012 93 10000 6.2 130 09:56 19.10.2020
6622 Clouds 4 1012 93 10000 6.2 130 09:24 19.10.2020
6623 Rain 4 1012 93 10000 5.7 120 08:50 19.10.2020
6624 Rain 4 1012 93 10000 5.7 120 08:24 19.10.2020
6625 Clouds 4 1012 86 10000 5.7 130 07:56 19.10.2020
6626 Clouds 4 1012 93 10000 5.1 130 07:20 19.10.2020
6627 Clouds 4 1012 93 10000 6.2 140 06:23 19.10.2020
6628 Clouds 4 1011 93 10000 6.7 140 04:47 19.10.2020
6629 Rain 4 1011 93 10000 6.7 140 03:44 19.10.2020
6630 Rain 4 1012 93 10000 6.2 110 01:33 19.10.2020
6631 Clouds 4 1012 93 10000 5.7 120 00:28 19.10.2020
6632 Clouds 4 1012 93 10000 4.6 100 23:56 18.10.2020
6633 Clouds 4 1012 93 10000 4.6 100 23:37 18.10.2020
6634 Clouds 4 1012 93 10000 4.1 110 23:18 18.10.2020
6635 Clouds 4 1012 93 10000 4.1 110 22:43 18.10.2020
6636 Clouds 4 1011 93 10000 4.6 120 22:18 18.10.2020
6637 Clouds 3 1011 86 10000 5.1 140 21:38 18.10.2020
6638 Clouds 3 1011 93 10000 3.1 100 21:20 18.10.2020
6639 Clouds 3 1011 93 10000 3.1 100 20:43 18.10.2020
6640 Clouds 2 1011 93 10000 3.1 100 20:22 18.10.2020
6641 Rain 3 1011 86 10000 4.6 150 19:49 18.10.2020
6642 Rain 3 1011 86 10000 4.6 150 19:26 18.10.2020
6643 Clouds 2 1010 80 10000 4.1 130 18:51 18.10.2020
6644 Clouds 3 1010 80 10000 4.1 130 18:30 18.10.2020
6645 Clouds 3 1010 93 10000 4.1 140 17:59 18.10.2020
6646 Clouds 3 1010 93 10000 4.1 140 17:40 18.10.2020
6647 Clouds 3 1010 86 10000 5.1 150 17:21 18.10.2020
6648 Clouds 2 1010 86 10000 5.1 150 16:41 18.10.2020
6649 Clouds 2 1009 93 10000 6.2 150 16:21 18.10.2020
6650 Clouds 2 1009 93 10000 6.2 150 15:42 18.10.2020
6651 Clouds 2 1009 93 10000 2.1 150 15:19 18.10.2020
6652 Clouds 2 1009 93 10000 2.1 150 14:57 18.10.2020
6653 Clouds 2 1009 93 10000 2.1 150 14:31 18.10.2020
6654 Clouds 2 1009 86 10000 1.5 60 13:58 18.10.2020
6655 Clouds 2 1009 86 10000 1.5 60 13:40 18.10.2020
6656 Clouds 1 1008 93 10000 1.5 30 13:21 18.10.2020
6657 Clouds 1 1008 93 10000 1.5 30 12:43 18.10.2020
6658 Clouds 1 1008 93 10000 3.48 158 12:21 18.10.2020
6659 Clouds 1 1008 93 10000 2.6 10 11:42 18.10.2020
6660 Clouds 1 1008 93 10000 2.6 10 11:23 18.10.2020
6661 Clouds 2 1007 86 10000 2.1 80 10:44 18.10.2020
6662 Rain 2 1007 93 10000 7.2 120 10:21 18.10.2020
6663 Rain 2 1007 93 10000 7.2 120 10:21 18.10.2020
6664 Rain 2 1007 93 10000 7.2 120 09:58 18.10.2020
6665 Rain 1 1007 93 10000 7.2 120 09:39 18.10.2020
6666 Rain 1 1007 93 9656 7.7 130 09:19 18.10.2020
6667 Rain 2 1007 93 9656 7.7 130 08:43 18.10.2020
6668 Rain 2 1007 93 9656 7.7 130 08:25 18.10.2020
6669 Rain 2 1007 86 9656 10.8 140 07:48 18.10.2020
6670 Mist 1 1007 93 6437 10.3 130 05:36 18.10.2020
6671 Rain 1 1008 93 6437 10.8 120 03:39 18.10.2020
6672 Rain 2 1008 86 6437 10.8 130 02:51 18.10.2020
6673 Rain 2 1008 86 10000 11.3 130 01:25 18.10.2020
6674 Rain 3 1009 86 9656 12.3 130 00:36 18.10.2020
6675 Rain 3 1009 86 8047 11.3 140 23:59 17.10.2020
6676 Rain 3 1009 86 8047 11.3 140 23:40 17.